<?xml version="1.0" encoding="UTF-8" standalone="no" ?>
<gpx xmlns="http://www.topografix.com/GPX/1/1" xmlns:xsi="http://www.w3.org/2001/XMLSchema-instance" xsi:schemaLocation="http://www.topografix.com/GPX/1/1 http://www.topografix.com/GPX/1/1/gpx.xsd" version="1.1" creator="VisuGPX - https://www.visugpx.com">
  <metadata>
    <name>KLI Bouconne</name>
    <desc><![CDATA[6 de moyenne en contournant les flaques et les bourbiers !]]></desc>
  </metadata>
  <trk>
    <name><![CDATA[Bouconne]]></name>
    <trkseg>
      <trkpt lat="43.63977" lon="1.22672">
        <ele>154</ele>
        <time>2016-06-16T14:21:04Z</time>
      </trkpt>
      <trkpt lat="43.63971" lon="1.22674">
        <ele>153</ele>
        <time>2016-06-16T14:21:08Z</time>
      </trkpt>
      <trkpt lat="43.63967" lon="1.22676">
        <ele>152</ele>
        <time>2016-06-16T14:21:11Z</time>
      </trkpt>
      <trkpt lat="43.6396" lon="1.22679">
        <ele>152</ele>
        <time>2016-06-16T14:21:15Z</time>
      </trkpt>
      <trkpt lat="43.63954" lon="1.22682">
        <ele>152</ele>
        <time>2016-06-16T14:21:19Z</time>
      </trkpt>
      <trkpt lat="43.63949" lon="1.22684">
        <ele>151</ele>
        <time>2016-06-16T14:21:23Z</time>
      </trkpt>
      <trkpt lat="43.63943" lon="1.22685">
        <ele>152</ele>
        <time>2016-06-16T14:21:27Z</time>
      </trkpt>
      <trkpt lat="43.63939" lon="1.22687">
        <ele>152</ele>
        <time>2016-06-16T14:21:30Z</time>
      </trkpt>
      <trkpt lat="43.63932" lon="1.22687">
        <ele>152</ele>
        <time>2016-06-16T14:21:37Z</time>
      </trkpt>
      <trkpt lat="43.63928" lon="1.2269">
        <ele>151</ele>
        <time>2016-06-16T14:21:42Z</time>
      </trkpt>
      <trkpt lat="43.63922" lon="1.22693">
        <ele>151</ele>
        <time>2016-06-16T14:21:46Z</time>
      </trkpt>
      <trkpt lat="43.63918" lon="1.22696">
        <ele>150</ele>
        <time>2016-06-16T14:21:50Z</time>
      </trkpt>
      <trkpt lat="43.63912" lon="1.227">
        <ele>150</ele>
        <time>2016-06-16T14:21:56Z</time>
      </trkpt>
      <trkpt lat="43.63907" lon="1.22703">
        <ele>150</ele>
        <time>2016-06-16T14:22:00Z</time>
      </trkpt>
      <trkpt lat="43.63902" lon="1.22707">
        <ele>150</ele>
        <time>2016-06-16T14:22:03Z</time>
      </trkpt>
      <trkpt lat="43.63899" lon="1.22709">
        <ele>149</ele>
        <time>2016-06-16T14:22:05Z</time>
      </trkpt>
      <trkpt lat="43.63894" lon="1.2271">
        <ele>149</ele>
        <time>2016-06-16T14:22:07Z</time>
      </trkpt>
      <trkpt lat="43.63889" lon="1.22715">
        <ele>149</ele>
        <time>2016-06-16T14:22:11Z</time>
      </trkpt>
      <trkpt lat="43.63888" lon="1.22724">
        <ele>149</ele>
        <time>2016-06-16T14:22:16Z</time>
      </trkpt>
      <trkpt lat="43.63887" lon="1.22726">
        <ele>149</ele>
        <time>2016-06-16T14:22:17Z</time>
      </trkpt>
      <trkpt lat="43.63885" lon="1.22731">
        <ele>150</ele>
        <time>2016-06-16T14:22:22Z</time>
      </trkpt>
      <trkpt lat="43.63887" lon="1.22736">
        <ele>150</ele>
        <time>2016-06-16T14:22:27Z</time>
      </trkpt>
      <trkpt lat="43.63889" lon="1.22738">
        <ele>151</ele>
        <time>2016-06-16T14:22:29Z</time>
      </trkpt>
      <trkpt lat="43.63891" lon="1.22744">
        <ele>151</ele>
        <time>2016-06-16T14:22:34Z</time>
      </trkpt>
      <trkpt lat="43.63891" lon="1.22746">
        <ele>152</ele>
        <time>2016-06-16T14:22:35Z</time>
      </trkpt>
      <trkpt lat="43.63892" lon="1.22753">
        <ele>152</ele>
        <time>2016-06-16T14:22:41Z</time>
      </trkpt>
      <trkpt lat="43.63894" lon="1.22756">
        <ele>153</ele>
        <time>2016-06-16T14:22:43Z</time>
      </trkpt>
      <trkpt lat="43.63896" lon="1.22761">
        <ele>153</ele>
        <time>2016-06-16T14:22:46Z</time>
      </trkpt>
      <trkpt lat="43.639" lon="1.22767">
        <ele>154</ele>
        <time>2016-06-16T14:22:50Z</time>
      </trkpt>
      <trkpt lat="43.639" lon="1.22771">
        <ele>154</ele>
        <time>2016-06-16T14:22:54Z</time>
      </trkpt>
      <trkpt lat="43.63904" lon="1.2278">
        <ele>155</ele>
        <time>2016-06-16T14:23:00Z</time>
      </trkpt>
      <trkpt lat="43.63907" lon="1.22788">
        <ele>156</ele>
        <time>2016-06-16T14:23:03Z</time>
      </trkpt>
      <trkpt lat="43.63911" lon="1.22793">
        <ele>157</ele>
        <time>2016-06-16T14:23:09Z</time>
      </trkpt>
      <trkpt lat="43.63913" lon="1.22795">
        <ele>158</ele>
        <time>2016-06-16T14:23:11Z</time>
      </trkpt>
      <trkpt lat="43.63915" lon="1.22797">
        <ele>158</ele>
        <time>2016-06-16T14:23:13Z</time>
      </trkpt>
      <trkpt lat="43.63917" lon="1.22803">
        <ele>159</ele>
        <time>2016-06-16T14:23:16Z</time>
      </trkpt>
      <trkpt lat="43.6392" lon="1.22813">
        <ele>159</ele>
        <time>2016-06-16T14:23:19Z</time>
      </trkpt>
      <trkpt lat="43.63922" lon="1.22817">
        <ele>160</ele>
        <time>2016-06-16T14:23:21Z</time>
      </trkpt>
      <trkpt lat="43.63923" lon="1.22817">
        <ele>160</ele>
        <time>2016-06-16T14:23:22Z</time>
      </trkpt>
      <trkpt lat="43.63925" lon="1.2282">
        <ele>161</ele>
        <time>2016-06-16T14:23:25Z</time>
      </trkpt>
      <trkpt lat="43.63926" lon="1.22824">
        <ele>162</ele>
        <time>2016-06-16T14:23:28Z</time>
      </trkpt>
      <trkpt lat="43.63927" lon="1.22826">
        <ele>162</ele>
        <time>2016-06-16T14:23:30Z</time>
      </trkpt>
      <trkpt lat="43.63928" lon="1.22829">
        <ele>163</ele>
        <time>2016-06-16T14:23:32Z</time>
      </trkpt>
      <trkpt lat="43.63929" lon="1.2283">
        <ele>163</ele>
        <time>2016-06-16T14:23:33Z</time>
      </trkpt>
      <trkpt lat="43.63931" lon="1.22836">
        <ele>164</ele>
        <time>2016-06-16T14:23:37Z</time>
      </trkpt>
      <trkpt lat="43.63932" lon="1.22837">
        <ele>165</ele>
        <time>2016-06-16T14:23:38Z</time>
      </trkpt>
      <trkpt lat="43.63933" lon="1.22843">
        <ele>165</ele>
        <time>2016-06-16T14:23:41Z</time>
      </trkpt>
      <trkpt lat="43.63934" lon="1.22853">
        <ele>166</ele>
        <time>2016-06-16T14:23:45Z</time>
      </trkpt>
      <trkpt lat="43.63935" lon="1.22859">
        <ele>166</ele>
        <time>2016-06-16T14:23:48Z</time>
      </trkpt>
      <trkpt lat="43.63937" lon="1.22868">
        <ele>167</ele>
        <time>2016-06-16T14:23:52Z</time>
      </trkpt>
      <trkpt lat="43.63938" lon="1.22876">
        <ele>168</ele>
        <time>2016-06-16T14:23:56Z</time>
      </trkpt>
      <trkpt lat="43.63939" lon="1.2288">
        <ele>169</ele>
        <time>2016-06-16T14:23:58Z</time>
      </trkpt>
      <trkpt lat="43.6394" lon="1.22884">
        <ele>169</ele>
        <time>2016-06-16T14:24:00Z</time>
      </trkpt>
      <trkpt lat="43.63942" lon="1.22909">
        <ele>171</ele>
        <time>2016-06-16T14:24:05Z</time>
      </trkpt>
      <trkpt lat="43.63946" lon="1.22936">
        <ele>172</ele>
        <time>2016-06-16T14:24:11Z</time>
      </trkpt>
      <trkpt lat="43.63948" lon="1.22942">
        <ele>173</ele>
        <time>2016-06-16T14:24:14Z</time>
      </trkpt>
      <trkpt lat="43.63949" lon="1.22946">
        <ele>173</ele>
        <time>2016-06-16T14:24:16Z</time>
      </trkpt>
      <trkpt lat="43.63952" lon="1.2295">
        <ele>174</ele>
        <time>2016-06-16T14:24:19Z</time>
      </trkpt>
      <trkpt lat="43.63953" lon="1.22951">
        <ele>174</ele>
        <time>2016-06-16T14:24:20Z</time>
      </trkpt>
      <trkpt lat="43.63954" lon="1.22952">
        <ele>175</ele>
        <time>2016-06-16T14:24:21Z</time>
      </trkpt>
      <trkpt lat="43.63957" lon="1.22956">
        <ele>175</ele>
        <time>2016-06-16T14:24:23Z</time>
      </trkpt>
      <trkpt lat="43.6396" lon="1.22958">
        <ele>175</ele>
        <time>2016-06-16T14:24:25Z</time>
      </trkpt>
      <trkpt lat="43.63961" lon="1.22961">
        <ele>175</ele>
        <time>2016-06-16T14:24:27Z</time>
      </trkpt>
      <trkpt lat="43.63963" lon="1.22966">
        <ele>175</ele>
        <time>2016-06-16T14:24:31Z</time>
      </trkpt>
      <trkpt lat="43.63962" lon="1.22969">
        <ele>175</ele>
        <time>2016-06-16T14:24:33Z</time>
      </trkpt>
      <trkpt lat="43.63962" lon="1.22973">
        <ele>175</ele>
        <time>2016-06-16T14:24:37Z</time>
      </trkpt>
      <trkpt lat="43.63963" lon="1.22978">
        <ele>175</ele>
        <time>2016-06-16T14:24:40Z</time>
      </trkpt>
      <trkpt lat="43.63965" lon="1.22982">
        <ele>175</ele>
        <time>2016-06-16T14:24:43Z</time>
      </trkpt>
      <trkpt lat="43.6397" lon="1.22989">
        <ele>176</ele>
        <time>2016-06-16T14:24:46Z</time>
      </trkpt>
      <trkpt lat="43.63978" lon="1.23">
        <ele>176</ele>
        <time>2016-06-16T14:24:50Z</time>
      </trkpt>
      <trkpt lat="43.63985" lon="1.23007">
        <ele>177</ele>
        <time>2016-06-16T14:24:53Z</time>
      </trkpt>
      <trkpt lat="43.63995" lon="1.23015">
        <ele>177</ele>
        <time>2016-06-16T14:24:58Z</time>
      </trkpt>
      <trkpt lat="43.63999" lon="1.23021">
        <ele>177</ele>
        <time>2016-06-16T14:25:00Z</time>
      </trkpt>
      <trkpt lat="43.64007" lon="1.23027">
        <ele>178</ele>
        <time>2016-06-16T14:25:05Z</time>
      </trkpt>
      <trkpt lat="43.64019" lon="1.23034">
        <ele>178</ele>
        <time>2016-06-16T14:25:12Z</time>
      </trkpt>
      <trkpt lat="43.64023" lon="1.23035">
        <ele>178</ele>
        <time>2016-06-16T14:25:15Z</time>
      </trkpt>
      <trkpt lat="43.64027" lon="1.23038">
        <ele>177</ele>
        <time>2016-06-16T14:25:18Z</time>
      </trkpt>
      <trkpt lat="43.6403" lon="1.23039">
        <ele>177</ele>
        <time>2016-06-16T14:25:20Z</time>
      </trkpt>
      <trkpt lat="43.64037" lon="1.23042">
        <ele>177</ele>
        <time>2016-06-16T14:25:24Z</time>
      </trkpt>
      <trkpt lat="43.6404" lon="1.23044">
        <ele>177</ele>
        <time>2016-06-16T14:25:26Z</time>
      </trkpt>
      <trkpt lat="43.64047" lon="1.23046">
        <ele>176</ele>
        <time>2016-06-16T14:25:30Z</time>
      </trkpt>
      <trkpt lat="43.64052" lon="1.23046">
        <ele>176</ele>
        <time>2016-06-16T14:25:34Z</time>
      </trkpt>
      <trkpt lat="43.64062" lon="1.23049">
        <ele>175</ele>
        <time>2016-06-16T14:25:41Z</time>
      </trkpt>
      <trkpt lat="43.64065" lon="1.23055">
        <ele>174</ele>
        <time>2016-06-16T14:25:48Z</time>
      </trkpt>
      <trkpt lat="43.64063" lon="1.23061">
        <ele>173</ele>
        <time>2016-06-16T14:25:52Z</time>
      </trkpt>
      <trkpt lat="43.64063" lon="1.23067">
        <ele>171</ele>
        <time>2016-06-16T14:25:56Z</time>
      </trkpt>
      <trkpt lat="43.64064" lon="1.23075">
        <ele>169</ele>
        <time>2016-06-16T14:26:01Z</time>
      </trkpt>
      <trkpt lat="43.64064" lon="1.23078">
        <ele>167</ele>
        <time>2016-06-16T14:26:03Z</time>
      </trkpt>
      <trkpt lat="43.64066" lon="1.23084">
        <ele>165</ele>
        <time>2016-06-16T14:26:10Z</time>
      </trkpt>
      <trkpt lat="43.64068" lon="1.23086">
        <ele>164</ele>
        <time>2016-06-16T14:26:11Z</time>
      </trkpt>
      <trkpt lat="43.64069" lon="1.23089">
        <ele>164</ele>
        <time>2016-06-16T14:26:13Z</time>
      </trkpt>
      <trkpt lat="43.64071" lon="1.2309">
        <ele>163</ele>
        <time>2016-06-16T14:26:15Z</time>
      </trkpt>
      <trkpt lat="43.64072" lon="1.23094">
        <ele>163</ele>
        <time>2016-06-16T14:26:18Z</time>
      </trkpt>
      <trkpt lat="43.64073" lon="1.23096">
        <ele>163</ele>
        <time>2016-06-16T14:26:19Z</time>
      </trkpt>
      <trkpt lat="43.64075" lon="1.23099">
        <ele>163</ele>
        <time>2016-06-16T14:26:21Z</time>
      </trkpt>
      <trkpt lat="43.64077" lon="1.23103">
        <ele>163</ele>
        <time>2016-06-16T14:26:23Z</time>
      </trkpt>
      <trkpt lat="43.64078" lon="1.23105">
        <ele>163</ele>
        <time>2016-06-16T14:26:25Z</time>
      </trkpt>
      <trkpt lat="43.64082" lon="1.23109">
        <ele>163</ele>
        <time>2016-06-16T14:26:28Z</time>
      </trkpt>
      <trkpt lat="43.64083" lon="1.23112">
        <ele>163</ele>
        <time>2016-06-16T14:26:30Z</time>
      </trkpt>
      <trkpt lat="43.64086" lon="1.23118">
        <ele>163</ele>
        <time>2016-06-16T14:26:33Z</time>
      </trkpt>
      <trkpt lat="43.64089" lon="1.23123">
        <ele>164</ele>
        <time>2016-06-16T14:26:35Z</time>
      </trkpt>
      <trkpt lat="43.64092" lon="1.23127">
        <ele>164</ele>
        <time>2016-06-16T14:26:37Z</time>
      </trkpt>
      <trkpt lat="43.64093" lon="1.23128">
        <ele>164</ele>
        <time>2016-06-16T14:26:38Z</time>
      </trkpt>
      <trkpt lat="43.64097" lon="1.23133">
        <ele>164</ele>
        <time>2016-06-16T14:26:40Z</time>
      </trkpt>
      <trkpt lat="43.64101" lon="1.2314">
        <ele>164</ele>
        <time>2016-06-16T14:26:43Z</time>
      </trkpt>
      <trkpt lat="43.64102" lon="1.23143">
        <ele>164</ele>
        <time>2016-06-16T14:26:45Z</time>
      </trkpt>
      <trkpt lat="43.64103" lon="1.23145">
        <ele>164</ele>
        <time>2016-06-16T14:26:46Z</time>
      </trkpt>
      <trkpt lat="43.64108" lon="1.23152">
        <ele>164</ele>
        <time>2016-06-16T14:26:53Z</time>
      </trkpt>
      <trkpt lat="43.64113" lon="1.2316">
        <ele>164</ele>
        <time>2016-06-16T14:26:58Z</time>
      </trkpt>
      <trkpt lat="43.64113" lon="1.23162">
        <ele>164</ele>
        <time>2016-06-16T14:27:00Z</time>
      </trkpt>
      <trkpt lat="43.64114" lon="1.23163">
        <ele>164</ele>
        <time>2016-06-16T14:27:01Z</time>
      </trkpt>
      <trkpt lat="43.64115" lon="1.23166">
        <ele>164</ele>
        <time>2016-06-16T14:27:03Z</time>
      </trkpt>
      <trkpt lat="43.6412" lon="1.23174">
        <ele>164</ele>
        <time>2016-06-16T14:27:07Z</time>
      </trkpt>
      <trkpt lat="43.64122" lon="1.23177">
        <ele>164</ele>
        <time>2016-06-16T14:27:09Z</time>
      </trkpt>
      <trkpt lat="43.64125" lon="1.23181">
        <ele>165</ele>
        <time>2016-06-16T14:27:11Z</time>
      </trkpt>
      <trkpt lat="43.64127" lon="1.23183">
        <ele>165</ele>
        <time>2016-06-16T14:27:13Z</time>
      </trkpt>
      <trkpt lat="43.64132" lon="1.23189">
        <ele>165</ele>
        <time>2016-06-16T14:27:16Z</time>
      </trkpt>
      <trkpt lat="43.64136" lon="1.23197">
        <ele>165</ele>
        <time>2016-06-16T14:27:21Z</time>
      </trkpt>
      <trkpt lat="43.64137" lon="1.23199">
        <ele>165</ele>
        <time>2016-06-16T14:27:22Z</time>
      </trkpt>
      <trkpt lat="43.64138" lon="1.23201">
        <ele>166</ele>
        <time>2016-06-16T14:27:23Z</time>
      </trkpt>
      <trkpt lat="43.64142" lon="1.23207">
        <ele>166</ele>
        <time>2016-06-16T14:27:27Z</time>
      </trkpt>
      <trkpt lat="43.64143" lon="1.23208">
        <ele>166</ele>
        <time>2016-06-16T14:27:28Z</time>
      </trkpt>
      <trkpt lat="43.64148" lon="1.23214">
        <ele>166</ele>
        <time>2016-06-16T14:27:32Z</time>
      </trkpt>
      <trkpt lat="43.6415" lon="1.23218">
        <ele>167</ele>
        <time>2016-06-16T14:27:34Z</time>
      </trkpt>
      <trkpt lat="43.64151" lon="1.23219">
        <ele>167</ele>
        <time>2016-06-16T14:27:35Z</time>
      </trkpt>
      <trkpt lat="43.64155" lon="1.23224">
        <ele>167</ele>
        <time>2016-06-16T14:27:37Z</time>
      </trkpt>
      <trkpt lat="43.64157" lon="1.23231">
        <ele>167</ele>
        <time>2016-06-16T14:27:41Z</time>
      </trkpt>
      <trkpt lat="43.6416" lon="1.23236">
        <ele>167</ele>
        <time>2016-06-16T14:27:43Z</time>
      </trkpt>
      <trkpt lat="43.64162" lon="1.2324">
        <ele>167</ele>
        <time>2016-06-16T14:27:45Z</time>
      </trkpt>
      <trkpt lat="43.64164" lon="1.23244">
        <ele>167</ele>
        <time>2016-06-16T14:27:47Z</time>
      </trkpt>
      <trkpt lat="43.64167" lon="1.23247">
        <ele>168</ele>
        <time>2016-06-16T14:27:49Z</time>
      </trkpt>
      <trkpt lat="43.64171" lon="1.23253">
        <ele>168</ele>
        <time>2016-06-16T14:27:52Z</time>
      </trkpt>
      <trkpt lat="43.64176" lon="1.23261">
        <ele>168</ele>
        <time>2016-06-16T14:27:56Z</time>
      </trkpt>
      <trkpt lat="43.64177" lon="1.23264">
        <ele>168</ele>
        <time>2016-06-16T14:27:58Z</time>
      </trkpt>
      <trkpt lat="43.6418" lon="1.23271">
        <ele>168</ele>
        <time>2016-06-16T14:28:03Z</time>
      </trkpt>
      <trkpt lat="43.64183" lon="1.23275">
        <ele>168</ele>
        <time>2016-06-16T14:28:05Z</time>
      </trkpt>
      <trkpt lat="43.64185" lon="1.23277">
        <ele>169</ele>
        <time>2016-06-16T14:28:06Z</time>
      </trkpt>
      <trkpt lat="43.64188" lon="1.23282">
        <ele>169</ele>
        <time>2016-06-16T14:28:08Z</time>
      </trkpt>
      <trkpt lat="43.64192" lon="1.23285">
        <ele>169</ele>
        <time>2016-06-16T14:28:10Z</time>
      </trkpt>
      <trkpt lat="43.64196" lon="1.23293">
        <ele>170</ele>
        <time>2016-06-16T14:28:14Z</time>
      </trkpt>
      <trkpt lat="43.64198" lon="1.23297">
        <ele>170</ele>
        <time>2016-06-16T14:28:16Z</time>
      </trkpt>
      <trkpt lat="43.642" lon="1.23301">
        <ele>171</ele>
        <time>2016-06-16T14:28:18Z</time>
      </trkpt>
      <trkpt lat="43.64203" lon="1.23306">
        <ele>171</ele>
        <time>2016-06-16T14:28:20Z</time>
      </trkpt>
      <trkpt lat="43.64204" lon="1.23308">
        <ele>171</ele>
        <time>2016-06-16T14:28:21Z</time>
      </trkpt>
      <trkpt lat="43.64207" lon="1.23311">
        <ele>172</ele>
        <time>2016-06-16T14:28:23Z</time>
      </trkpt>
      <trkpt lat="43.64209" lon="1.23315">
        <ele>172</ele>
        <time>2016-06-16T14:28:26Z</time>
      </trkpt>
      <trkpt lat="43.64211" lon="1.23316">
        <ele>172</ele>
        <time>2016-06-16T14:28:28Z</time>
      </trkpt>
      <trkpt lat="43.64213" lon="1.23319">
        <ele>172</ele>
        <time>2016-06-16T14:28:30Z</time>
      </trkpt>
      <trkpt lat="43.64213" lon="1.2332">
        <ele>172</ele>
        <time>2016-06-16T14:28:31Z</time>
      </trkpt>
      <trkpt lat="43.64216" lon="1.23324">
        <ele>172</ele>
        <time>2016-06-16T14:28:34Z</time>
      </trkpt>
      <trkpt lat="43.64217" lon="1.23325">
        <ele>173</ele>
        <time>2016-06-16T14:28:36Z</time>
      </trkpt>
      <trkpt lat="43.6422" lon="1.2333">
        <ele>173</ele>
        <time>2016-06-16T14:28:38Z</time>
      </trkpt>
      <trkpt lat="43.64222" lon="1.23333">
        <ele>173</ele>
        <time>2016-06-16T14:28:40Z</time>
      </trkpt>
      <trkpt lat="43.64224" lon="1.23334">
        <ele>174</ele>
        <time>2016-06-16T14:28:41Z</time>
      </trkpt>
      <trkpt lat="43.64229" lon="1.23341">
        <ele>174</ele>
        <time>2016-06-16T14:28:45Z</time>
      </trkpt>
      <trkpt lat="43.6423" lon="1.23342">
        <ele>174</ele>
        <time>2016-06-16T14:28:46Z</time>
      </trkpt>
      <trkpt lat="43.64231" lon="1.23345">
        <ele>175</ele>
        <time>2016-06-16T14:28:48Z</time>
      </trkpt>
      <trkpt lat="43.64232" lon="1.23348">
        <ele>175</ele>
        <time>2016-06-16T14:28:50Z</time>
      </trkpt>
      <trkpt lat="43.64233" lon="1.23351">
        <ele>176</ele>
        <time>2016-06-16T14:28:52Z</time>
      </trkpt>
      <trkpt lat="43.64233" lon="1.23356">
        <ele>176</ele>
        <time>2016-06-16T14:28:54Z</time>
      </trkpt>
      <trkpt lat="43.64232" lon="1.23361">
        <ele>176</ele>
        <time>2016-06-16T14:28:56Z</time>
      </trkpt>
      <trkpt lat="43.64229" lon="1.2337">
        <ele>177</ele>
        <time>2016-06-16T14:29:00Z</time>
      </trkpt>
      <trkpt lat="43.64227" lon="1.23373">
        <ele>177</ele>
        <time>2016-06-16T14:29:02Z</time>
      </trkpt>
      <trkpt lat="43.64225" lon="1.23378">
        <ele>177</ele>
        <time>2016-06-16T14:29:04Z</time>
      </trkpt>
      <trkpt lat="43.64222" lon="1.23381">
        <ele>177</ele>
        <time>2016-06-16T14:29:06Z</time>
      </trkpt>
      <trkpt lat="43.6422" lon="1.23385">
        <ele>177</ele>
        <time>2016-06-16T14:29:08Z</time>
      </trkpt>
      <trkpt lat="43.64218" lon="1.23386">
        <ele>177</ele>
        <time>2016-06-16T14:29:10Z</time>
      </trkpt>
      <trkpt lat="43.64215" lon="1.23402">
        <ele>177</ele>
        <time>2016-06-16T14:29:14Z</time>
      </trkpt>
      <trkpt lat="43.64213" lon="1.23406">
        <ele>176</ele>
        <time>2016-06-16T14:29:16Z</time>
      </trkpt>
      <trkpt lat="43.64212" lon="1.23406">
        <ele>176</ele>
        <time>2016-06-16T14:29:17Z</time>
      </trkpt>
      <trkpt lat="43.64209" lon="1.23407">
        <ele>176</ele>
        <time>2016-06-16T14:29:19Z</time>
      </trkpt>
      <trkpt lat="43.64206" lon="1.23408">
        <ele>176</ele>
        <time>2016-06-16T14:29:21Z</time>
      </trkpt>
      <trkpt lat="43.64205" lon="1.23409">
        <ele>175</ele>
        <time>2016-06-16T14:29:22Z</time>
      </trkpt>
      <trkpt lat="43.64203" lon="1.23414">
        <ele>175</ele>
        <time>2016-06-16T14:29:24Z</time>
      </trkpt>
      <trkpt lat="43.64201" lon="1.23417">
        <ele>175</ele>
        <time>2016-06-16T14:29:26Z</time>
      </trkpt>
      <trkpt lat="43.64198" lon="1.2342">
        <ele>174</ele>
        <time>2016-06-16T14:29:28Z</time>
      </trkpt>
      <trkpt lat="43.64195" lon="1.23422">
        <ele>174</ele>
        <time>2016-06-16T14:29:30Z</time>
      </trkpt>
      <trkpt lat="43.64194" lon="1.23424">
        <ele>173</ele>
        <time>2016-06-16T14:29:31Z</time>
      </trkpt>
      <trkpt lat="43.64191" lon="1.23428">
        <ele>173</ele>
        <time>2016-06-16T14:29:33Z</time>
      </trkpt>
      <trkpt lat="43.6419" lon="1.23429">
        <ele>172</ele>
        <time>2016-06-16T14:29:34Z</time>
      </trkpt>
      <trkpt lat="43.64187" lon="1.23433">
        <ele>171</ele>
        <time>2016-06-16T14:29:37Z</time>
      </trkpt>
      <trkpt lat="43.64185" lon="1.23434">
        <ele>171</ele>
        <time>2016-06-16T14:29:38Z</time>
      </trkpt>
      <trkpt lat="43.64179" lon="1.23441">
        <ele>169</ele>
        <time>2016-06-16T14:29:42Z</time>
      </trkpt>
      <trkpt lat="43.64177" lon="1.23446">
        <ele>169</ele>
        <time>2016-06-16T14:29:44Z</time>
      </trkpt>
      <trkpt lat="43.64177" lon="1.23451">
        <ele>168</ele>
        <time>2016-06-16T14:29:46Z</time>
      </trkpt>
      <trkpt lat="43.64168" lon="1.2346">
        <ele>167</ele>
        <time>2016-06-16T14:29:52Z</time>
      </trkpt>
      <trkpt lat="43.64166" lon="1.23462">
        <ele>166</ele>
        <time>2016-06-16T14:29:54Z</time>
      </trkpt>
      <trkpt lat="43.64162" lon="1.23463">
        <ele>166</ele>
        <time>2016-06-16T14:29:56Z</time>
      </trkpt>
      <trkpt lat="43.6416" lon="1.23466">
        <ele>165</ele>
        <time>2016-06-16T14:29:58Z</time>
      </trkpt>
      <trkpt lat="43.64159" lon="1.23468">
        <ele>164</ele>
        <time>2016-06-16T14:29:59Z</time>
      </trkpt>
      <trkpt lat="43.64156" lon="1.23471">
        <ele>164</ele>
        <time>2016-06-16T14:30:01Z</time>
      </trkpt>
      <trkpt lat="43.64153" lon="1.23475">
        <ele>163</ele>
        <time>2016-06-16T14:30:03Z</time>
      </trkpt>
      <trkpt lat="43.64151" lon="1.23479">
        <ele>163</ele>
        <time>2016-06-16T14:30:05Z</time>
      </trkpt>
      <trkpt lat="43.6415" lon="1.23482">
        <ele>162</ele>
        <time>2016-06-16T14:30:07Z</time>
      </trkpt>
      <trkpt lat="43.64149" lon="1.23484">
        <ele>162</ele>
        <time>2016-06-16T14:30:08Z</time>
      </trkpt>
      <trkpt lat="43.64148" lon="1.23486">
        <ele>161</ele>
        <time>2016-06-16T14:30:09Z</time>
      </trkpt>
      <trkpt lat="43.64146" lon="1.23488">
        <ele>161</ele>
        <time>2016-06-16T14:30:11Z</time>
      </trkpt>
      <trkpt lat="43.64145" lon="1.2349">
        <ele>161</ele>
        <time>2016-06-16T14:30:12Z</time>
      </trkpt>
      <trkpt lat="43.64143" lon="1.23492">
        <ele>160</ele>
        <time>2016-06-16T14:30:14Z</time>
      </trkpt>
      <trkpt lat="43.64142" lon="1.23493">
        <ele>160</ele>
        <time>2016-06-16T14:30:15Z</time>
      </trkpt>
      <trkpt lat="43.64139" lon="1.23497">
        <ele>159</ele>
        <time>2016-06-16T14:30:17Z</time>
      </trkpt>
      <trkpt lat="43.64137" lon="1.235">
        <ele>159</ele>
        <time>2016-06-16T14:30:19Z</time>
      </trkpt>
      <trkpt lat="43.64133" lon="1.23502">
        <ele>159</ele>
        <time>2016-06-16T14:30:21Z</time>
      </trkpt>
      <trkpt lat="43.64132" lon="1.23504">
        <ele>158</ele>
        <time>2016-06-16T14:30:22Z</time>
      </trkpt>
      <trkpt lat="43.64129" lon="1.23507">
        <ele>158</ele>
        <time>2016-06-16T14:30:24Z</time>
      </trkpt>
      <trkpt lat="43.64127" lon="1.23509">
        <ele>157</ele>
        <time>2016-06-16T14:30:26Z</time>
      </trkpt>
      <trkpt lat="43.64125" lon="1.23513">
        <ele>157</ele>
        <time>2016-06-16T14:30:28Z</time>
      </trkpt>
      <trkpt lat="43.64123" lon="1.23517">
        <ele>156</ele>
        <time>2016-06-16T14:30:30Z</time>
      </trkpt>
      <trkpt lat="43.64121" lon="1.23521">
        <ele>156</ele>
        <time>2016-06-16T14:30:32Z</time>
      </trkpt>
      <trkpt lat="43.64119" lon="1.23525">
        <ele>155</ele>
        <time>2016-06-16T14:30:34Z</time>
      </trkpt>
      <trkpt lat="43.64117" lon="1.23529">
        <ele>154</ele>
        <time>2016-06-16T14:30:36Z</time>
      </trkpt>
      <trkpt lat="43.64114" lon="1.23533">
        <ele>153</ele>
        <time>2016-06-16T14:30:38Z</time>
      </trkpt>
      <trkpt lat="43.64113" lon="1.23536">
        <ele>152</ele>
        <time>2016-06-16T14:30:40Z</time>
      </trkpt>
      <trkpt lat="43.6411" lon="1.23538">
        <ele>151</ele>
        <time>2016-06-16T14:30:42Z</time>
      </trkpt>
      <trkpt lat="43.64108" lon="1.23541">
        <ele>150</ele>
        <time>2016-06-16T14:30:44Z</time>
      </trkpt>
      <trkpt lat="43.64106" lon="1.23545">
        <ele>149</ele>
        <time>2016-06-16T14:30:46Z</time>
      </trkpt>
      <trkpt lat="43.64105" lon="1.23547">
        <ele>148</ele>
        <time>2016-06-16T14:30:47Z</time>
      </trkpt>
      <trkpt lat="43.64095" lon="1.23554">
        <ele>147</ele>
        <time>2016-06-16T14:30:52Z</time>
      </trkpt>
      <trkpt lat="43.64093" lon="1.23556">
        <ele>147</ele>
        <time>2016-06-16T14:30:54Z</time>
      </trkpt>
      <trkpt lat="43.64092" lon="1.23557">
        <ele>146</ele>
        <time>2016-06-16T14:30:55Z</time>
      </trkpt>
      <trkpt lat="43.64088" lon="1.23559">
        <ele>146</ele>
        <time>2016-06-16T14:30:57Z</time>
      </trkpt>
      <trkpt lat="43.64087" lon="1.2356">
        <ele>146</ele>
        <time>2016-06-16T14:30:58Z</time>
      </trkpt>
      <trkpt lat="43.64085" lon="1.23563">
        <ele>145</ele>
        <time>2016-06-16T14:31:00Z</time>
      </trkpt>
      <trkpt lat="43.64084" lon="1.23565">
        <ele>145</ele>
        <time>2016-06-16T14:31:01Z</time>
      </trkpt>
      <trkpt lat="43.64079" lon="1.23571">
        <ele>145</ele>
        <time>2016-06-16T14:31:05Z</time>
      </trkpt>
      <trkpt lat="43.64077" lon="1.23574">
        <ele>144</ele>
        <time>2016-06-16T14:31:07Z</time>
      </trkpt>
      <trkpt lat="43.64076" lon="1.23575">
        <ele>144</ele>
        <time>2016-06-16T14:31:08Z</time>
      </trkpt>
      <trkpt lat="43.64073" lon="1.23578">
        <ele>143</ele>
        <time>2016-06-16T14:31:10Z</time>
      </trkpt>
      <trkpt lat="43.6407" lon="1.23581">
        <ele>142</ele>
        <time>2016-06-16T14:31:12Z</time>
      </trkpt>
      <trkpt lat="43.64067" lon="1.23584">
        <ele>142</ele>
        <time>2016-06-16T14:31:14Z</time>
      </trkpt>
      <trkpt lat="43.64064" lon="1.23586">
        <ele>142</ele>
        <time>2016-06-16T14:31:16Z</time>
      </trkpt>
      <trkpt lat="43.64061" lon="1.23587">
        <ele>141</ele>
        <time>2016-06-16T14:31:18Z</time>
      </trkpt>
      <trkpt lat="43.64059" lon="1.23588">
        <ele>141</ele>
        <time>2016-06-16T14:31:19Z</time>
      </trkpt>
      <trkpt lat="43.64057" lon="1.23591">
        <ele>140</ele>
        <time>2016-06-16T14:31:21Z</time>
      </trkpt>
      <trkpt lat="43.64056" lon="1.23593">
        <ele>140</ele>
        <time>2016-06-16T14:31:22Z</time>
      </trkpt>
      <trkpt lat="43.64053" lon="1.23595">
        <ele>139</ele>
        <time>2016-06-16T14:31:24Z</time>
      </trkpt>
      <trkpt lat="43.64051" lon="1.23597">
        <ele>139</ele>
        <time>2016-06-16T14:31:26Z</time>
      </trkpt>
      <trkpt lat="43.64048" lon="1.23597">
        <ele>138</ele>
        <time>2016-06-16T14:31:28Z</time>
      </trkpt>
      <trkpt lat="43.64046" lon="1.23597">
        <ele>138</ele>
        <time>2016-06-16T14:31:30Z</time>
      </trkpt>
      <trkpt lat="43.64043" lon="1.23598">
        <ele>138</ele>
        <time>2016-06-16T14:31:32Z</time>
      </trkpt>
      <trkpt lat="43.6404" lon="1.23599">
        <ele>137</ele>
        <time>2016-06-16T14:31:34Z</time>
      </trkpt>
      <trkpt lat="43.64035" lon="1.23601">
        <ele>137</ele>
        <time>2016-06-16T14:31:37Z</time>
      </trkpt>
      <trkpt lat="43.64032" lon="1.23602">
        <ele>137</ele>
        <time>2016-06-16T14:31:39Z</time>
      </trkpt>
      <trkpt lat="43.6403" lon="1.23604">
        <ele>137</ele>
        <time>2016-06-16T14:31:40Z</time>
      </trkpt>
      <trkpt lat="43.64029" lon="1.23606">
        <ele>137</ele>
        <time>2016-06-16T14:31:42Z</time>
      </trkpt>
      <trkpt lat="43.64028" lon="1.23607">
        <ele>136</ele>
        <time>2016-06-16T14:31:44Z</time>
      </trkpt>
      <trkpt lat="43.64027" lon="1.23609">
        <ele>136</ele>
        <time>2016-06-16T14:31:46Z</time>
      </trkpt>
      <trkpt lat="43.64024" lon="1.23611">
        <ele>136</ele>
        <time>2016-06-16T14:31:48Z</time>
      </trkpt>
      <trkpt lat="43.64023" lon="1.23612">
        <ele>136</ele>
        <time>2016-06-16T14:31:49Z</time>
      </trkpt>
      <trkpt lat="43.64021" lon="1.23616">
        <ele>136</ele>
        <time>2016-06-16T14:31:51Z</time>
      </trkpt>
      <trkpt lat="43.64019" lon="1.2362">
        <ele>136</ele>
        <time>2016-06-16T14:31:53Z</time>
      </trkpt>
      <trkpt lat="43.64018" lon="1.23622">
        <ele>136</ele>
        <time>2016-06-16T14:31:54Z</time>
      </trkpt>
      <trkpt lat="43.64016" lon="1.23626">
        <ele>136</ele>
        <time>2016-06-16T14:31:56Z</time>
      </trkpt>
      <trkpt lat="43.64014" lon="1.23628">
        <ele>136</ele>
        <time>2016-06-16T14:31:57Z</time>
      </trkpt>
      <trkpt lat="43.64012" lon="1.23631">
        <ele>136</ele>
        <time>2016-06-16T14:31:59Z</time>
      </trkpt>
      <trkpt lat="43.64011" lon="1.23636">
        <ele>135</ele>
        <time>2016-06-16T14:32:01Z</time>
      </trkpt>
      <trkpt lat="43.6401" lon="1.23638">
        <ele>135</ele>
        <time>2016-06-16T14:32:02Z</time>
      </trkpt>
      <trkpt lat="43.64008" lon="1.23641">
        <ele>134</ele>
        <time>2016-06-16T14:32:04Z</time>
      </trkpt>
      <trkpt lat="43.64005" lon="1.23643">
        <ele>134</ele>
        <time>2016-06-16T14:32:06Z</time>
      </trkpt>
      <trkpt lat="43.64003" lon="1.23647">
        <ele>134</ele>
        <time>2016-06-16T14:32:08Z</time>
      </trkpt>
      <trkpt lat="43.64001" lon="1.23649">
        <ele>133</ele>
        <time>2016-06-16T14:32:09Z</time>
      </trkpt>
      <trkpt lat="43.63998" lon="1.23652">
        <ele>133</ele>
        <time>2016-06-16T14:32:11Z</time>
      </trkpt>
      <trkpt lat="43.63997" lon="1.23653">
        <ele>133</ele>
        <time>2016-06-16T14:32:12Z</time>
      </trkpt>
      <trkpt lat="43.63994" lon="1.23655">
        <ele>133</ele>
        <time>2016-06-16T14:32:14Z</time>
      </trkpt>
      <trkpt lat="43.63993" lon="1.23656">
        <ele>133</ele>
        <time>2016-06-16T14:32:15Z</time>
      </trkpt>
      <trkpt lat="43.63991" lon="1.2366">
        <ele>133</ele>
        <time>2016-06-16T14:32:17Z</time>
      </trkpt>
      <trkpt lat="43.63989" lon="1.23663">
        <ele>133</ele>
        <time>2016-06-16T14:32:19Z</time>
      </trkpt>
      <trkpt lat="43.63985" lon="1.23666">
        <ele>133</ele>
        <time>2016-06-16T14:32:21Z</time>
      </trkpt>
      <trkpt lat="43.63984" lon="1.23668">
        <ele>133</ele>
        <time>2016-06-16T14:32:22Z</time>
      </trkpt>
      <trkpt lat="43.63981" lon="1.23672">
        <ele>133</ele>
        <time>2016-06-16T14:32:24Z</time>
      </trkpt>
      <trkpt lat="43.63979" lon="1.23674">
        <ele>133</ele>
        <time>2016-06-16T14:32:26Z</time>
      </trkpt>
      <trkpt lat="43.63976" lon="1.23675">
        <ele>134</ele>
        <time>2016-06-16T14:32:28Z</time>
      </trkpt>
      <trkpt lat="43.63973" lon="1.23678">
        <ele>134</ele>
        <time>2016-06-16T14:32:30Z</time>
      </trkpt>
      <trkpt lat="43.63971" lon="1.23679">
        <ele>134</ele>
        <time>2016-06-16T14:32:31Z</time>
      </trkpt>
      <trkpt lat="43.63969" lon="1.2368">
        <ele>134</ele>
        <time>2016-06-16T14:32:32Z</time>
      </trkpt>
      <trkpt lat="43.63968" lon="1.23683">
        <ele>134</ele>
        <time>2016-06-16T14:32:34Z</time>
      </trkpt>
      <trkpt lat="43.63966" lon="1.23684">
        <ele>133</ele>
        <time>2016-06-16T14:32:35Z</time>
      </trkpt>
      <trkpt lat="43.63965" lon="1.23686">
        <ele>133</ele>
        <time>2016-06-16T14:32:37Z</time>
      </trkpt>
      <trkpt lat="43.63963" lon="1.2369">
        <ele>133</ele>
        <time>2016-06-16T14:32:39Z</time>
      </trkpt>
      <trkpt lat="43.63961" lon="1.23691">
        <ele>133</ele>
        <time>2016-06-16T14:32:40Z</time>
      </trkpt>
      <trkpt lat="43.63959" lon="1.23693">
        <ele>133</ele>
        <time>2016-06-16T14:32:42Z</time>
      </trkpt>
      <trkpt lat="43.63957" lon="1.23695">
        <ele>133</ele>
        <time>2016-06-16T14:32:44Z</time>
      </trkpt>
      <trkpt lat="43.63954" lon="1.23697">
        <ele>132</ele>
        <time>2016-06-16T14:32:46Z</time>
      </trkpt>
      <trkpt lat="43.63951" lon="1.237">
        <ele>132</ele>
        <time>2016-06-16T14:32:48Z</time>
      </trkpt>
      <trkpt lat="43.63948" lon="1.23703">
        <ele>132</ele>
        <time>2016-06-16T14:32:50Z</time>
      </trkpt>
      <trkpt lat="43.63945" lon="1.23707">
        <ele>132</ele>
        <time>2016-06-16T14:32:52Z</time>
      </trkpt>
      <trkpt lat="43.63943" lon="1.2371">
        <ele>132</ele>
        <time>2016-06-16T14:32:54Z</time>
      </trkpt>
      <trkpt lat="43.6394" lon="1.23713">
        <ele>132</ele>
        <time>2016-06-16T14:32:56Z</time>
      </trkpt>
      <trkpt lat="43.63936" lon="1.23718">
        <ele>132</ele>
        <time>2016-06-16T14:32:59Z</time>
      </trkpt>
      <trkpt lat="43.63935" lon="1.23719">
        <ele>132</ele>
        <time>2016-06-16T14:33:00Z</time>
      </trkpt>
      <trkpt lat="43.63933" lon="1.23721">
        <ele>132</ele>
        <time>2016-06-16T14:33:01Z</time>
      </trkpt>
      <trkpt lat="43.63932" lon="1.23723">
        <ele>132</ele>
        <time>2016-06-16T14:33:02Z</time>
      </trkpt>
      <trkpt lat="43.63928" lon="1.23726">
        <ele>132</ele>
        <time>2016-06-16T14:33:04Z</time>
      </trkpt>
      <trkpt lat="43.63926" lon="1.23729">
        <ele>132</ele>
        <time>2016-06-16T14:33:06Z</time>
      </trkpt>
      <trkpt lat="43.63924" lon="1.23733">
        <ele>132</ele>
        <time>2016-06-16T14:33:08Z</time>
      </trkpt>
      <trkpt lat="43.63922" lon="1.23735">
        <ele>132</ele>
        <time>2016-06-16T14:33:10Z</time>
      </trkpt>
      <trkpt lat="43.63919" lon="1.23738">
        <ele>132</ele>
        <time>2016-06-16T14:33:12Z</time>
      </trkpt>
      <trkpt lat="43.63916" lon="1.2374">
        <ele>132</ele>
        <time>2016-06-16T14:33:14Z</time>
      </trkpt>
      <trkpt lat="43.63915" lon="1.23741">
        <ele>132</ele>
        <time>2016-06-16T14:33:15Z</time>
      </trkpt>
      <trkpt lat="43.63914" lon="1.23742">
        <ele>132</ele>
        <time>2016-06-16T14:33:16Z</time>
      </trkpt>
      <trkpt lat="43.63911" lon="1.23745">
        <ele>132</ele>
        <time>2016-06-16T14:33:18Z</time>
      </trkpt>
      <trkpt lat="43.6391" lon="1.23749">
        <ele>132</ele>
        <time>2016-06-16T14:33:20Z</time>
      </trkpt>
      <trkpt lat="43.63909" lon="1.2375">
        <ele>132</ele>
        <time>2016-06-16T14:33:21Z</time>
      </trkpt>
      <trkpt lat="43.63908" lon="1.23751">
        <ele>132</ele>
        <time>2016-06-16T14:33:22Z</time>
      </trkpt>
      <trkpt lat="43.63906" lon="1.23755">
        <ele>132</ele>
        <time>2016-06-16T14:33:24Z</time>
      </trkpt>
      <trkpt lat="43.63903" lon="1.23758">
        <ele>132</ele>
        <time>2016-06-16T14:33:26Z</time>
      </trkpt>
      <trkpt lat="43.639" lon="1.23761">
        <ele>132</ele>
        <time>2016-06-16T14:33:28Z</time>
      </trkpt>
      <trkpt lat="43.63897" lon="1.23765">
        <ele>132</ele>
        <time>2016-06-16T14:33:30Z</time>
      </trkpt>
      <trkpt lat="43.63895" lon="1.23768">
        <ele>132</ele>
        <time>2016-06-16T14:33:32Z</time>
      </trkpt>
      <trkpt lat="43.63892" lon="1.23771">
        <ele>132</ele>
        <time>2016-06-16T14:33:34Z</time>
      </trkpt>
      <trkpt lat="43.6389" lon="1.23773">
        <ele>132</ele>
        <time>2016-06-16T14:33:36Z</time>
      </trkpt>
      <trkpt lat="43.63887" lon="1.23776">
        <ele>132</ele>
        <time>2016-06-16T14:33:38Z</time>
      </trkpt>
      <trkpt lat="43.63886" lon="1.2378">
        <ele>132</ele>
        <time>2016-06-16T14:33:40Z</time>
      </trkpt>
      <trkpt lat="43.63882" lon="1.23783">
        <ele>132</ele>
        <time>2016-06-16T14:33:42Z</time>
      </trkpt>
      <trkpt lat="43.63879" lon="1.23786">
        <ele>132</ele>
        <time>2016-06-16T14:33:44Z</time>
      </trkpt>
      <trkpt lat="43.63877" lon="1.23788">
        <ele>132</ele>
        <time>2016-06-16T14:33:46Z</time>
      </trkpt>
      <trkpt lat="43.63874" lon="1.23791">
        <ele>132</ele>
        <time>2016-06-16T14:33:48Z</time>
      </trkpt>
      <trkpt lat="43.63871" lon="1.23793">
        <ele>132</ele>
        <time>2016-06-16T14:33:50Z</time>
      </trkpt>
      <trkpt lat="43.6387" lon="1.23794">
        <ele>132</ele>
        <time>2016-06-16T14:33:51Z</time>
      </trkpt>
      <trkpt lat="43.63868" lon="1.23797">
        <ele>132</ele>
        <time>2016-06-16T14:33:53Z</time>
      </trkpt>
      <trkpt lat="43.63866" lon="1.238">
        <ele>132</ele>
        <time>2016-06-16T14:33:55Z</time>
      </trkpt>
      <trkpt lat="43.63865" lon="1.23801">
        <ele>132</ele>
        <time>2016-06-16T14:33:56Z</time>
      </trkpt>
      <trkpt lat="43.63862" lon="1.23804">
        <ele>132</ele>
        <time>2016-06-16T14:33:58Z</time>
      </trkpt>
      <trkpt lat="43.6386" lon="1.23808">
        <ele>132</ele>
        <time>2016-06-16T14:34:00Z</time>
      </trkpt>
      <trkpt lat="43.63859" lon="1.2381">
        <ele>132</ele>
        <time>2016-06-16T14:34:01Z</time>
      </trkpt>
      <trkpt lat="43.63858" lon="1.23812">
        <ele>132</ele>
        <time>2016-06-16T14:34:02Z</time>
      </trkpt>
      <trkpt lat="43.63855" lon="1.23813">
        <ele>132</ele>
        <time>2016-06-16T14:34:04Z</time>
      </trkpt>
      <trkpt lat="43.63852" lon="1.23815">
        <ele>132</ele>
        <time>2016-06-16T14:34:06Z</time>
      </trkpt>
      <trkpt lat="43.63849" lon="1.23818">
        <ele>132</ele>
        <time>2016-06-16T14:34:08Z</time>
      </trkpt>
      <trkpt lat="43.63848" lon="1.23819">
        <ele>132</ele>
        <time>2016-06-16T14:34:09Z</time>
      </trkpt>
      <trkpt lat="43.63845" lon="1.23823">
        <ele>132</ele>
        <time>2016-06-16T14:34:11Z</time>
      </trkpt>
      <trkpt lat="43.63841" lon="1.23829">
        <ele>132</ele>
        <time>2016-06-16T14:34:14Z</time>
      </trkpt>
      <trkpt lat="43.63839" lon="1.2383">
        <ele>132</ele>
        <time>2016-06-16T14:34:15Z</time>
      </trkpt>
      <trkpt lat="43.63836" lon="1.23836">
        <ele>132</ele>
        <time>2016-06-16T14:34:18Z</time>
      </trkpt>
      <trkpt lat="43.63834" lon="1.23838">
        <ele>132</ele>
        <time>2016-06-16T14:34:19Z</time>
      </trkpt>
      <trkpt lat="43.63831" lon="1.23841">
        <ele>132</ele>
        <time>2016-06-16T14:34:21Z</time>
      </trkpt>
      <trkpt lat="43.6383" lon="1.23843">
        <ele>132</ele>
        <time>2016-06-16T14:34:22Z</time>
      </trkpt>
      <trkpt lat="43.63828" lon="1.23846">
        <ele>132</ele>
        <time>2016-06-16T14:34:24Z</time>
      </trkpt>
      <trkpt lat="43.63825" lon="1.23849">
        <ele>132</ele>
        <time>2016-06-16T14:34:26Z</time>
      </trkpt>
      <trkpt lat="43.63823" lon="1.23852">
        <ele>132</ele>
        <time>2016-06-16T14:34:28Z</time>
      </trkpt>
      <trkpt lat="43.63822" lon="1.23854">
        <ele>133</ele>
        <time>2016-06-16T14:34:30Z</time>
      </trkpt>
      <trkpt lat="43.6382" lon="1.23857">
        <ele>133</ele>
        <time>2016-06-16T14:34:32Z</time>
      </trkpt>
      <trkpt lat="43.63818" lon="1.23861">
        <ele>133</ele>
        <time>2016-06-16T14:34:34Z</time>
      </trkpt>
      <trkpt lat="43.63817" lon="1.23862">
        <ele>133</ele>
        <time>2016-06-16T14:34:35Z</time>
      </trkpt>
      <trkpt lat="43.63814" lon="1.23864">
        <ele>133</ele>
        <time>2016-06-16T14:34:37Z</time>
      </trkpt>
      <trkpt lat="43.63811" lon="1.23867">
        <ele>133</ele>
        <time>2016-06-16T14:34:39Z</time>
      </trkpt>
      <trkpt lat="43.63809" lon="1.23868">
        <ele>133</ele>
        <time>2016-06-16T14:34:40Z</time>
      </trkpt>
      <trkpt lat="43.63806" lon="1.23871">
        <ele>133</ele>
        <time>2016-06-16T14:34:42Z</time>
      </trkpt>
      <trkpt lat="43.63804" lon="1.23874">
        <ele>133</ele>
        <time>2016-06-16T14:34:44Z</time>
      </trkpt>
      <trkpt lat="43.638" lon="1.23876">
        <ele>133</ele>
        <time>2016-06-16T14:34:46Z</time>
      </trkpt>
      <trkpt lat="43.63798" lon="1.23878">
        <ele>133</ele>
        <time>2016-06-16T14:34:48Z</time>
      </trkpt>
      <trkpt lat="43.63795" lon="1.23881">
        <ele>133</ele>
        <time>2016-06-16T14:34:50Z</time>
      </trkpt>
      <trkpt lat="43.63794" lon="1.23883">
        <ele>133</ele>
        <time>2016-06-16T14:34:51Z</time>
      </trkpt>
      <trkpt lat="43.63791" lon="1.23886">
        <ele>133</ele>
        <time>2016-06-16T14:34:53Z</time>
      </trkpt>
      <trkpt lat="43.63789" lon="1.2389">
        <ele>133</ele>
        <time>2016-06-16T14:34:55Z</time>
      </trkpt>
      <trkpt lat="43.63788" lon="1.23892">
        <ele>133</ele>
        <time>2016-06-16T14:34:56Z</time>
      </trkpt>
      <trkpt lat="43.63786" lon="1.23894">
        <ele>133</ele>
        <time>2016-06-16T14:34:57Z</time>
      </trkpt>
      <trkpt lat="43.63784" lon="1.23898">
        <ele>133</ele>
        <time>2016-06-16T14:34:59Z</time>
      </trkpt>
      <trkpt lat="43.63783" lon="1.23899">
        <ele>133</ele>
        <time>2016-06-16T14:35:00Z</time>
      </trkpt>
      <trkpt lat="43.63781" lon="1.23901">
        <ele>133</ele>
        <time>2016-06-16T14:35:02Z</time>
      </trkpt>
      <trkpt lat="43.63779" lon="1.23904">
        <ele>133</ele>
        <time>2016-06-16T14:35:04Z</time>
      </trkpt>
      <trkpt lat="43.63776" lon="1.23907">
        <ele>133</ele>
        <time>2016-06-16T14:35:07Z</time>
      </trkpt>
      <trkpt lat="43.63768" lon="1.23913">
        <ele>133</ele>
        <time>2016-06-16T14:35:12Z</time>
      </trkpt>
      <trkpt lat="43.63768" lon="1.23914">
        <ele>134</ele>
        <time>2016-06-16T14:35:13Z</time>
      </trkpt>
      <trkpt lat="43.63767" lon="1.23916">
        <ele>134</ele>
        <time>2016-06-16T14:35:14Z</time>
      </trkpt>
      <trkpt lat="43.63764" lon="1.2392">
        <ele>134</ele>
        <time>2016-06-16T14:35:16Z</time>
      </trkpt>
      <trkpt lat="43.6376" lon="1.23923">
        <ele>134</ele>
        <time>2016-06-16T14:35:18Z</time>
      </trkpt>
      <trkpt lat="43.63758" lon="1.23926">
        <ele>134</ele>
        <time>2016-06-16T14:35:20Z</time>
      </trkpt>
      <trkpt lat="43.63756" lon="1.2393">
        <ele>134</ele>
        <time>2016-06-16T14:35:22Z</time>
      </trkpt>
      <trkpt lat="43.63754" lon="1.23933">
        <ele>134</ele>
        <time>2016-06-16T14:35:24Z</time>
      </trkpt>
      <trkpt lat="43.63751" lon="1.23934">
        <ele>134</ele>
        <time>2016-06-16T14:35:26Z</time>
      </trkpt>
      <trkpt lat="43.63749" lon="1.23938">
        <ele>134</ele>
        <time>2016-06-16T14:35:28Z</time>
      </trkpt>
      <trkpt lat="43.63746" lon="1.23941">
        <ele>134</ele>
        <time>2016-06-16T14:35:30Z</time>
      </trkpt>
      <trkpt lat="43.63743" lon="1.23944">
        <ele>134</ele>
        <time>2016-06-16T14:35:32Z</time>
      </trkpt>
      <trkpt lat="43.63741" lon="1.23947">
        <ele>134</ele>
        <time>2016-06-16T14:35:34Z</time>
      </trkpt>
      <trkpt lat="43.63739" lon="1.2395">
        <ele>134</ele>
        <time>2016-06-16T14:35:36Z</time>
      </trkpt>
      <trkpt lat="43.63738" lon="1.23952">
        <ele>134</ele>
        <time>2016-06-16T14:35:37Z</time>
      </trkpt>
      <trkpt lat="43.63735" lon="1.23955">
        <ele>134</ele>
        <time>2016-06-16T14:35:39Z</time>
      </trkpt>
      <trkpt lat="43.63732" lon="1.23958">
        <ele>133</ele>
        <time>2016-06-16T14:35:41Z</time>
      </trkpt>
      <trkpt lat="43.63731" lon="1.23959">
        <ele>133</ele>
        <time>2016-06-16T14:35:42Z</time>
      </trkpt>
      <trkpt lat="43.63728" lon="1.23961">
        <ele>133</ele>
        <time>2016-06-16T14:35:44Z</time>
      </trkpt>
      <trkpt lat="43.63726" lon="1.23964">
        <ele>133</ele>
        <time>2016-06-16T14:35:46Z</time>
      </trkpt>
      <trkpt lat="43.63724" lon="1.23967">
        <ele>133</ele>
        <time>2016-06-16T14:35:48Z</time>
      </trkpt>
      <trkpt lat="43.63721" lon="1.2397">
        <ele>133</ele>
        <time>2016-06-16T14:35:50Z</time>
      </trkpt>
      <trkpt lat="43.63718" lon="1.23974">
        <ele>133</ele>
        <time>2016-06-16T14:35:52Z</time>
      </trkpt>
      <trkpt lat="43.63717" lon="1.23975">
        <ele>133</ele>
        <time>2016-06-16T14:35:53Z</time>
      </trkpt>
      <trkpt lat="43.63714" lon="1.23978">
        <ele>133</ele>
        <time>2016-06-16T14:35:55Z</time>
      </trkpt>
      <trkpt lat="43.63711" lon="1.23983">
        <ele>133</ele>
        <time>2016-06-16T14:35:57Z</time>
      </trkpt>
      <trkpt lat="43.63706" lon="1.23988">
        <ele>132</ele>
        <time>2016-06-16T14:36:01Z</time>
      </trkpt>
      <trkpt lat="43.63705" lon="1.2399">
        <ele>132</ele>
        <time>2016-06-16T14:36:02Z</time>
      </trkpt>
      <trkpt lat="43.63702" lon="1.23992">
        <ele>132</ele>
        <time>2016-06-16T14:36:04Z</time>
      </trkpt>
      <trkpt lat="43.63699" lon="1.23994">
        <ele>132</ele>
        <time>2016-06-16T14:36:06Z</time>
      </trkpt>
      <trkpt lat="43.63697" lon="1.23996">
        <ele>133</ele>
        <time>2016-06-16T14:36:08Z</time>
      </trkpt>
      <trkpt lat="43.63695" lon="1.24">
        <ele>133</ele>
        <time>2016-06-16T14:36:10Z</time>
      </trkpt>
      <trkpt lat="43.63693" lon="1.24003">
        <ele>133</ele>
        <time>2016-06-16T14:36:12Z</time>
      </trkpt>
      <trkpt lat="43.6369" lon="1.24005">
        <ele>133</ele>
        <time>2016-06-16T14:36:14Z</time>
      </trkpt>
      <trkpt lat="43.63688" lon="1.24008">
        <ele>133</ele>
        <time>2016-06-16T14:36:16Z</time>
      </trkpt>
      <trkpt lat="43.63685" lon="1.2401">
        <ele>134</ele>
        <time>2016-06-16T14:36:18Z</time>
      </trkpt>
      <trkpt lat="43.63681" lon="1.24016">
        <ele>134</ele>
        <time>2016-06-16T14:36:21Z</time>
      </trkpt>
      <trkpt lat="43.63679" lon="1.2402">
        <ele>133</ele>
        <time>2016-06-16T14:36:23Z</time>
      </trkpt>
      <trkpt lat="43.63678" lon="1.24022">
        <ele>133</ele>
        <time>2016-06-16T14:36:24Z</time>
      </trkpt>
      <trkpt lat="43.63676" lon="1.24027">
        <ele>133</ele>
        <time>2016-06-16T14:36:26Z</time>
      </trkpt>
      <trkpt lat="43.63675" lon="1.24028">
        <ele>133</ele>
        <time>2016-06-16T14:36:27Z</time>
      </trkpt>
      <trkpt lat="43.63672" lon="1.24032">
        <ele>132</ele>
        <time>2016-06-16T14:36:29Z</time>
      </trkpt>
      <trkpt lat="43.63669" lon="1.24035">
        <ele>132</ele>
        <time>2016-06-16T14:36:31Z</time>
      </trkpt>
      <trkpt lat="43.63667" lon="1.24038">
        <ele>132</ele>
        <time>2016-06-16T14:36:33Z</time>
      </trkpt>
      <trkpt lat="43.63665" lon="1.24039">
        <ele>132</ele>
        <time>2016-06-16T14:36:34Z</time>
      </trkpt>
      <trkpt lat="43.63664" lon="1.24042">
        <ele>132</ele>
        <time>2016-06-16T14:36:36Z</time>
      </trkpt>
      <trkpt lat="43.63662" lon="1.24043">
        <ele>132</ele>
        <time>2016-06-16T14:36:37Z</time>
      </trkpt>
      <trkpt lat="43.63661" lon="1.24045">
        <ele>132</ele>
        <time>2016-06-16T14:36:38Z</time>
      </trkpt>
      <trkpt lat="43.63658" lon="1.24047">
        <ele>132</ele>
        <time>2016-06-16T14:36:40Z</time>
      </trkpt>
      <trkpt lat="43.63655" lon="1.2405">
        <ele>132</ele>
        <time>2016-06-16T14:36:42Z</time>
      </trkpt>
      <trkpt lat="43.63653" lon="1.24053">
        <ele>132</ele>
        <time>2016-06-16T14:36:44Z</time>
      </trkpt>
      <trkpt lat="43.63651" lon="1.24055">
        <ele>132</ele>
        <time>2016-06-16T14:36:46Z</time>
      </trkpt>
      <trkpt lat="43.6365" lon="1.24057">
        <ele>132</ele>
        <time>2016-06-16T14:36:47Z</time>
      </trkpt>
      <trkpt lat="43.63649" lon="1.24058">
        <ele>132</ele>
        <time>2016-06-16T14:36:48Z</time>
      </trkpt>
      <trkpt lat="43.63648" lon="1.24061">
        <ele>132</ele>
        <time>2016-06-16T14:36:50Z</time>
      </trkpt>
      <trkpt lat="43.63645" lon="1.24064">
        <ele>132</ele>
        <time>2016-06-16T14:36:52Z</time>
      </trkpt>
      <trkpt lat="43.63644" lon="1.24065">
        <ele>132</ele>
        <time>2016-06-16T14:36:53Z</time>
      </trkpt>
      <trkpt lat="43.63641" lon="1.24068">
        <ele>132</ele>
        <time>2016-06-16T14:36:55Z</time>
      </trkpt>
      <trkpt lat="43.63641" lon="1.24069">
        <ele>132</ele>
        <time>2016-06-16T14:36:56Z</time>
      </trkpt>
      <trkpt lat="43.63638" lon="1.24071">
        <ele>132</ele>
        <time>2016-06-16T14:36:58Z</time>
      </trkpt>
      <trkpt lat="43.63633" lon="1.24077">
        <ele>133</ele>
        <time>2016-06-16T14:37:02Z</time>
      </trkpt>
      <trkpt lat="43.63633" lon="1.24082">
        <ele>133</ele>
        <time>2016-06-16T14:37:04Z</time>
      </trkpt>
      <trkpt lat="43.63633" lon="1.24086">
        <ele>133</ele>
        <time>2016-06-16T14:37:06Z</time>
      </trkpt>
      <trkpt lat="43.63632" lon="1.24088">
        <ele>134</ele>
        <time>2016-06-16T14:37:07Z</time>
      </trkpt>
      <trkpt lat="43.63633" lon="1.24092">
        <ele>134</ele>
        <time>2016-06-16T14:37:09Z</time>
      </trkpt>
      <trkpt lat="43.63633" lon="1.24096">
        <ele>134</ele>
        <time>2016-06-16T14:37:11Z</time>
      </trkpt>
      <trkpt lat="43.63635" lon="1.24099">
        <ele>135</ele>
        <time>2016-06-16T14:37:13Z</time>
      </trkpt>
      <trkpt lat="43.63635" lon="1.24102">
        <ele>135</ele>
        <time>2016-06-16T14:37:15Z</time>
      </trkpt>
      <trkpt lat="43.63636" lon="1.24104">
        <ele>136</ele>
        <time>2016-06-16T14:37:16Z</time>
      </trkpt>
      <trkpt lat="43.63636" lon="1.24109">
        <ele>136</ele>
        <time>2016-06-16T14:37:18Z</time>
      </trkpt>
      <trkpt lat="43.63635" lon="1.24114">
        <ele>136</ele>
        <time>2016-06-16T14:37:20Z</time>
      </trkpt>
      <trkpt lat="43.63635" lon="1.24117">
        <ele>136</ele>
        <time>2016-06-16T14:37:22Z</time>
      </trkpt>
      <trkpt lat="43.63634" lon="1.24121">
        <ele>136</ele>
        <time>2016-06-16T14:37:24Z</time>
      </trkpt>
      <trkpt lat="43.63633" lon="1.24126">
        <ele>136</ele>
        <time>2016-06-16T14:37:26Z</time>
      </trkpt>
      <trkpt lat="43.63632" lon="1.24128">
        <ele>136</ele>
        <time>2016-06-16T14:37:27Z</time>
      </trkpt>
      <trkpt lat="43.63632" lon="1.2413">
        <ele>136</ele>
        <time>2016-06-16T14:37:28Z</time>
      </trkpt>
      <trkpt lat="43.63631" lon="1.24131">
        <ele>136</ele>
        <time>2016-06-16T14:37:29Z</time>
      </trkpt>
      <trkpt lat="43.63631" lon="1.24134">
        <ele>136</ele>
        <time>2016-06-16T14:37:30Z</time>
      </trkpt>
      <trkpt lat="43.63631" lon="1.24142">
        <ele>136</ele>
        <time>2016-06-16T14:37:33Z</time>
      </trkpt>
      <trkpt lat="43.6363" lon="1.24146">
        <ele>136</ele>
        <time>2016-06-16T14:37:35Z</time>
      </trkpt>
      <trkpt lat="43.6363" lon="1.24148">
        <ele>136</ele>
        <time>2016-06-16T14:37:36Z</time>
      </trkpt>
      <trkpt lat="43.63629" lon="1.24152">
        <ele>137</ele>
        <time>2016-06-16T14:37:38Z</time>
      </trkpt>
      <trkpt lat="43.63629" lon="1.24154">
        <ele>137</ele>
        <time>2016-06-16T14:37:39Z</time>
      </trkpt>
      <trkpt lat="43.63628" lon="1.24157">
        <ele>137</ele>
        <time>2016-06-16T14:37:41Z</time>
      </trkpt>
      <trkpt lat="43.63628" lon="1.24161">
        <ele>137</ele>
        <time>2016-06-16T14:37:43Z</time>
      </trkpt>
      <trkpt lat="43.63627" lon="1.24165">
        <ele>138</ele>
        <time>2016-06-16T14:37:45Z</time>
      </trkpt>
      <trkpt lat="43.63627" lon="1.24169">
        <ele>138</ele>
        <time>2016-06-16T14:37:47Z</time>
      </trkpt>
      <trkpt lat="43.63627" lon="1.24172">
        <ele>138</ele>
        <time>2016-06-16T14:37:49Z</time>
      </trkpt>
      <trkpt lat="43.63625" lon="1.24175">
        <ele>138</ele>
        <time>2016-06-16T14:37:51Z</time>
      </trkpt>
      <trkpt lat="43.63625" lon="1.24178">
        <ele>138</ele>
        <time>2016-06-16T14:37:53Z</time>
      </trkpt>
      <trkpt lat="43.63627" lon="1.24181">
        <ele>139</ele>
        <time>2016-06-16T14:37:55Z</time>
      </trkpt>
      <trkpt lat="43.63628" lon="1.24183">
        <ele>139</ele>
        <time>2016-06-16T14:37:56Z</time>
      </trkpt>
      <trkpt lat="43.6363" lon="1.24184">
        <ele>139</ele>
        <time>2016-06-16T14:37:58Z</time>
      </trkpt>
      <trkpt lat="43.63631" lon="1.24185">
        <ele>140</ele>
        <time>2016-06-16T14:38:00Z</time>
      </trkpt>
      <trkpt lat="43.63632" lon="1.24186">
        <ele>140</ele>
        <time>2016-06-16T14:38:01Z</time>
      </trkpt>
      <trkpt lat="43.63633" lon="1.24187">
        <ele>140</ele>
        <time>2016-06-16T14:38:02Z</time>
      </trkpt>
      <trkpt lat="43.63635" lon="1.24188">
        <ele>141</ele>
        <time>2016-06-16T14:38:04Z</time>
      </trkpt>
      <trkpt lat="43.63636" lon="1.24189">
        <ele>141</ele>
        <time>2016-06-16T14:38:06Z</time>
      </trkpt>
      <trkpt lat="43.63638" lon="1.24193">
        <ele>142</ele>
        <time>2016-06-16T14:38:09Z</time>
      </trkpt>
      <trkpt lat="43.6364" lon="1.24196">
        <ele>142</ele>
        <time>2016-06-16T14:38:10Z</time>
      </trkpt>
      <trkpt lat="43.6364" lon="1.24198">
        <ele>142</ele>
        <time>2016-06-16T14:38:11Z</time>
      </trkpt>
      <trkpt lat="43.63641" lon="1.24202">
        <ele>143</ele>
        <time>2016-06-16T14:38:13Z</time>
      </trkpt>
      <trkpt lat="43.63643" lon="1.24205">
        <ele>143</ele>
        <time>2016-06-16T14:38:15Z</time>
      </trkpt>
      <trkpt lat="43.63644" lon="1.24208">
        <ele>144</ele>
        <time>2016-06-16T14:38:17Z</time>
      </trkpt>
      <trkpt lat="43.63645" lon="1.24211">
        <ele>144</ele>
        <time>2016-06-16T14:38:19Z</time>
      </trkpt>
      <trkpt lat="43.63647" lon="1.24214">
        <ele>144</ele>
        <time>2016-06-16T14:38:21Z</time>
      </trkpt>
      <trkpt lat="43.63648" lon="1.24215">
        <ele>145</ele>
        <time>2016-06-16T14:38:22Z</time>
      </trkpt>
      <trkpt lat="43.6365" lon="1.24218">
        <ele>145</ele>
        <time>2016-06-16T14:38:24Z</time>
      </trkpt>
      <trkpt lat="43.63651" lon="1.2422">
        <ele>146</ele>
        <time>2016-06-16T14:38:25Z</time>
      </trkpt>
      <trkpt lat="43.63652" lon="1.24221">
        <ele>146</ele>
        <time>2016-06-16T14:38:26Z</time>
      </trkpt>
      <trkpt lat="43.63652" lon="1.24223">
        <ele>147</ele>
        <time>2016-06-16T14:38:27Z</time>
      </trkpt>
      <trkpt lat="43.63654" lon="1.24225">
        <ele>147</ele>
        <time>2016-06-16T14:38:29Z</time>
      </trkpt>
      <trkpt lat="43.63656" lon="1.24228">
        <ele>147</ele>
        <time>2016-06-16T14:38:31Z</time>
      </trkpt>
      <trkpt lat="43.63656" lon="1.24228">
        <ele>148</ele>
        <time>2016-06-16T14:38:32Z</time>
      </trkpt>
      <trkpt lat="43.63657" lon="1.2423">
        <ele>148</ele>
        <time>2016-06-16T14:38:34Z</time>
      </trkpt>
      <trkpt lat="43.63671" lon="1.24251">
        <ele>150</ele>
        <time>2016-06-16T14:38:44Z</time>
      </trkpt>
      <trkpt lat="43.63674" lon="1.24255">
        <ele>151</ele>
        <time>2016-06-16T14:38:46Z</time>
      </trkpt>
      <trkpt lat="43.63675" lon="1.24257">
        <ele>152</ele>
        <time>2016-06-16T14:38:48Z</time>
      </trkpt>
      <trkpt lat="43.63675" lon="1.24258">
        <ele>152</ele>
        <time>2016-06-16T14:38:49Z</time>
      </trkpt>
      <trkpt lat="43.63674" lon="1.24261">
        <ele>153</ele>
        <time>2016-06-16T14:38:51Z</time>
      </trkpt>
      <trkpt lat="43.63675" lon="1.24264">
        <ele>153</ele>
        <time>2016-06-16T14:38:53Z</time>
      </trkpt>
      <trkpt lat="43.63677" lon="1.24269">
        <ele>153</ele>
        <time>2016-06-16T14:38:55Z</time>
      </trkpt>
      <trkpt lat="43.63677" lon="1.24271">
        <ele>154</ele>
        <time>2016-06-16T14:38:56Z</time>
      </trkpt>
      <trkpt lat="43.63678" lon="1.24276">
        <ele>154</ele>
        <time>2016-06-16T14:38:58Z</time>
      </trkpt>
      <trkpt lat="43.63679" lon="1.24279">
        <ele>154</ele>
        <time>2016-06-16T14:39:00Z</time>
      </trkpt>
      <trkpt lat="43.63679" lon="1.2428">
        <ele>155</ele>
        <time>2016-06-16T14:39:01Z</time>
      </trkpt>
      <trkpt lat="43.6368" lon="1.24283">
        <ele>155</ele>
        <time>2016-06-16T14:39:03Z</time>
      </trkpt>
      <trkpt lat="43.6368" lon="1.24284">
        <ele>155</ele>
        <time>2016-06-16T14:39:04Z</time>
      </trkpt>
      <trkpt lat="43.63681" lon="1.24287">
        <ele>156</ele>
        <time>2016-06-16T14:39:05Z</time>
      </trkpt>
      <trkpt lat="43.63682" lon="1.2429">
        <ele>156</ele>
        <time>2016-06-16T14:39:07Z</time>
      </trkpt>
      <trkpt lat="43.63683" lon="1.24293">
        <ele>157</ele>
        <time>2016-06-16T14:39:09Z</time>
      </trkpt>
      <trkpt lat="43.63683" lon="1.24295">
        <ele>157</ele>
        <time>2016-06-16T14:39:10Z</time>
      </trkpt>
      <trkpt lat="43.63685" lon="1.24299">
        <ele>158</ele>
        <time>2016-06-16T14:39:12Z</time>
      </trkpt>
      <trkpt lat="43.63686" lon="1.243">
        <ele>159</ele>
        <time>2016-06-16T14:39:13Z</time>
      </trkpt>
      <trkpt lat="43.63686" lon="1.24306">
        <ele>159</ele>
        <time>2016-06-16T14:39:15Z</time>
      </trkpt>
      <trkpt lat="43.63688" lon="1.24312">
        <ele>160</ele>
        <time>2016-06-16T14:39:17Z</time>
      </trkpt>
      <trkpt lat="43.63689" lon="1.24315">
        <ele>161</ele>
        <time>2016-06-16T14:39:19Z</time>
      </trkpt>
      <trkpt lat="43.63689" lon="1.24318">
        <ele>161</ele>
        <time>2016-06-16T14:39:20Z</time>
      </trkpt>
      <trkpt lat="43.63691" lon="1.24323">
        <ele>162</ele>
        <time>2016-06-16T14:39:22Z</time>
      </trkpt>
      <trkpt lat="43.63692" lon="1.24327">
        <ele>162</ele>
        <time>2016-06-16T14:39:24Z</time>
      </trkpt>
      <trkpt lat="43.63694" lon="1.24333">
        <ele>163</ele>
        <time>2016-06-16T14:39:28Z</time>
      </trkpt>
      <trkpt lat="43.63695" lon="1.24336">
        <ele>163</ele>
        <time>2016-06-16T14:39:30Z</time>
      </trkpt>
      <trkpt lat="43.63696" lon="1.24339">
        <ele>164</ele>
        <time>2016-06-16T14:39:32Z</time>
      </trkpt>
      <trkpt lat="43.63697" lon="1.24345">
        <ele>165</ele>
        <time>2016-06-16T14:39:34Z</time>
      </trkpt>
      <trkpt lat="43.63697" lon="1.24346">
        <ele>165</ele>
        <time>2016-06-16T14:39:35Z</time>
      </trkpt>
      <trkpt lat="43.63699" lon="1.2435">
        <ele>166</ele>
        <time>2016-06-16T14:39:37Z</time>
      </trkpt>
      <trkpt lat="43.63699" lon="1.24352">
        <ele>166</ele>
        <time>2016-06-16T14:39:38Z</time>
      </trkpt>
      <trkpt lat="43.63701" lon="1.24356">
        <ele>167</ele>
        <time>2016-06-16T14:39:40Z</time>
      </trkpt>
      <trkpt lat="43.63702" lon="1.24359">
        <ele>167</ele>
        <time>2016-06-16T14:39:42Z</time>
      </trkpt>
      <trkpt lat="43.63702" lon="1.24361">
        <ele>167</ele>
        <time>2016-06-16T14:39:43Z</time>
      </trkpt>
      <trkpt lat="43.63703" lon="1.24362">
        <ele>168</ele>
        <time>2016-06-16T14:39:44Z</time>
      </trkpt>
      <trkpt lat="43.63704" lon="1.24363">
        <ele>168</ele>
        <time>2016-06-16T14:39:45Z</time>
      </trkpt>
      <trkpt lat="43.63706" lon="1.24368">
        <ele>168</ele>
        <time>2016-06-16T14:39:47Z</time>
      </trkpt>
      <trkpt lat="43.63709" lon="1.24372">
        <ele>168</ele>
        <time>2016-06-16T14:39:49Z</time>
      </trkpt>
      <trkpt lat="43.6371" lon="1.24375">
        <ele>169</ele>
        <time>2016-06-16T14:39:50Z</time>
      </trkpt>
      <trkpt lat="43.63712" lon="1.2438">
        <ele>169</ele>
        <time>2016-06-16T14:39:52Z</time>
      </trkpt>
      <trkpt lat="43.63713" lon="1.24384">
        <ele>169</ele>
        <time>2016-06-16T14:39:54Z</time>
      </trkpt>
      <trkpt lat="43.63714" lon="1.24387">
        <ele>169</ele>
        <time>2016-06-16T14:39:55Z</time>
      </trkpt>
      <trkpt lat="43.63715" lon="1.2439">
        <ele>168</ele>
        <time>2016-06-16T14:39:57Z</time>
      </trkpt>
      <trkpt lat="43.63716" lon="1.24392">
        <ele>168</ele>
        <time>2016-06-16T14:39:59Z</time>
      </trkpt>
      <trkpt lat="43.63717" lon="1.24394">
        <ele>168</ele>
        <time>2016-06-16T14:40:00Z</time>
      </trkpt>
      <trkpt lat="43.63718" lon="1.24395">
        <ele>169</ele>
        <time>2016-06-16T14:40:01Z</time>
      </trkpt>
      <trkpt lat="43.63718" lon="1.24396">
        <ele>169</ele>
        <time>2016-06-16T14:40:02Z</time>
      </trkpt>
      <trkpt lat="43.6372" lon="1.24401">
        <ele>169</ele>
        <time>2016-06-16T14:40:04Z</time>
      </trkpt>
      <trkpt lat="43.63721" lon="1.24405">
        <ele>170</ele>
        <time>2016-06-16T14:40:06Z</time>
      </trkpt>
      <trkpt lat="43.63723" lon="1.24407">
        <ele>170</ele>
        <time>2016-06-16T14:40:08Z</time>
      </trkpt>
      <trkpt lat="43.63726" lon="1.2441">
        <ele>170</ele>
        <time>2016-06-16T14:40:10Z</time>
      </trkpt>
      <trkpt lat="43.63727" lon="1.24411">
        <ele>171</ele>
        <time>2016-06-16T14:40:11Z</time>
      </trkpt>
      <trkpt lat="43.6373" lon="1.24414">
        <ele>171</ele>
        <time>2016-06-16T14:40:13Z</time>
      </trkpt>
      <trkpt lat="43.63732" lon="1.24415">
        <ele>172</ele>
        <time>2016-06-16T14:40:14Z</time>
      </trkpt>
      <trkpt lat="43.63734" lon="1.24418">
        <ele>172</ele>
        <time>2016-06-16T14:40:16Z</time>
      </trkpt>
      <trkpt lat="43.63736" lon="1.2442">
        <ele>173</ele>
        <time>2016-06-16T14:40:18Z</time>
      </trkpt>
      <trkpt lat="43.63737" lon="1.24421">
        <ele>173</ele>
        <time>2016-06-16T14:40:19Z</time>
      </trkpt>
      <trkpt lat="43.63741" lon="1.24426">
        <ele>174</ele>
        <time>2016-06-16T14:40:21Z</time>
      </trkpt>
      <trkpt lat="43.63742" lon="1.24427">
        <ele>174</ele>
        <time>2016-06-16T14:40:22Z</time>
      </trkpt>
      <trkpt lat="43.63744" lon="1.24429">
        <ele>175</ele>
        <time>2016-06-16T14:40:24Z</time>
      </trkpt>
      <trkpt lat="43.63745" lon="1.24432">
        <ele>175</ele>
        <time>2016-06-16T14:40:26Z</time>
      </trkpt>
      <trkpt lat="43.63747" lon="1.24435">
        <ele>176</ele>
        <time>2016-06-16T14:40:28Z</time>
      </trkpt>
      <trkpt lat="43.63751" lon="1.24437">
        <ele>176</ele>
        <time>2016-06-16T14:40:30Z</time>
      </trkpt>
      <trkpt lat="43.63752" lon="1.24439">
        <ele>177</ele>
        <time>2016-06-16T14:40:32Z</time>
      </trkpt>
      <trkpt lat="43.63755" lon="1.24442">
        <ele>177</ele>
        <time>2016-06-16T14:40:34Z</time>
      </trkpt>
      <trkpt lat="43.63757" lon="1.24446">
        <ele>177</ele>
        <time>2016-06-16T14:40:36Z</time>
      </trkpt>
      <trkpt lat="43.63758" lon="1.24447">
        <ele>178</ele>
        <time>2016-06-16T14:40:37Z</time>
      </trkpt>
      <trkpt lat="43.63761" lon="1.2445">
        <ele>178</ele>
        <time>2016-06-16T14:40:40Z</time>
      </trkpt>
      <trkpt lat="43.63763" lon="1.24453">
        <ele>178</ele>
        <time>2016-06-16T14:40:42Z</time>
      </trkpt>
      <trkpt lat="43.63764" lon="1.24455">
        <ele>178</ele>
        <time>2016-06-16T14:40:44Z</time>
      </trkpt>
      <trkpt lat="43.63767" lon="1.24458">
        <ele>178</ele>
        <time>2016-06-16T14:40:46Z</time>
      </trkpt>
      <trkpt lat="43.63768" lon="1.2446">
        <ele>179</ele>
        <time>2016-06-16T14:40:48Z</time>
      </trkpt>
      <trkpt lat="43.6377" lon="1.24461">
        <ele>179</ele>
        <time>2016-06-16T14:40:50Z</time>
      </trkpt>
      <trkpt lat="43.63771" lon="1.24463">
        <ele>179</ele>
        <time>2016-06-16T14:40:52Z</time>
      </trkpt>
      <trkpt lat="43.63773" lon="1.24464">
        <ele>180</ele>
        <time>2016-06-16T14:40:53Z</time>
      </trkpt>
      <trkpt lat="43.63775" lon="1.24467">
        <ele>180</ele>
        <time>2016-06-16T14:40:55Z</time>
      </trkpt>
      <trkpt lat="43.63777" lon="1.24469">
        <ele>180</ele>
        <time>2016-06-16T14:40:56Z</time>
      </trkpt>
      <trkpt lat="43.63794" lon="1.24485">
        <ele>181</ele>
        <time>2016-06-16T14:41:06Z</time>
      </trkpt>
      <trkpt lat="43.63796" lon="1.24485">
        <ele>181</ele>
        <time>2016-06-16T14:41:07Z</time>
      </trkpt>
      <trkpt lat="43.63797" lon="1.24487">
        <ele>181</ele>
        <time>2016-06-16T14:41:09Z</time>
      </trkpt>
      <trkpt lat="43.63798" lon="1.24487">
        <ele>182</ele>
        <time>2016-06-16T14:41:10Z</time>
      </trkpt>
      <trkpt lat="43.638" lon="1.24489">
        <ele>182</ele>
        <time>2016-06-16T14:41:12Z</time>
      </trkpt>
      <trkpt lat="43.63803" lon="1.24492">
        <ele>183</ele>
        <time>2016-06-16T14:41:14Z</time>
      </trkpt>
      <trkpt lat="43.63806" lon="1.24495">
        <ele>183</ele>
        <time>2016-06-16T14:41:16Z</time>
      </trkpt>
      <trkpt lat="43.63808" lon="1.24496">
        <ele>184</ele>
        <time>2016-06-16T14:41:18Z</time>
      </trkpt>
      <trkpt lat="43.6381" lon="1.24497">
        <ele>184</ele>
        <time>2016-06-16T14:41:19Z</time>
      </trkpt>
      <trkpt lat="43.63821" lon="1.24509">
        <ele>185</ele>
        <time>2016-06-16T14:41:22Z</time>
      </trkpt>
      <trkpt lat="43.63824" lon="1.24509">
        <ele>185</ele>
        <time>2016-06-16T14:41:24Z</time>
      </trkpt>
      <trkpt lat="43.63827" lon="1.24511">
        <ele>185</ele>
        <time>2016-06-16T14:41:26Z</time>
      </trkpt>
      <trkpt lat="43.63828" lon="1.24511">
        <ele>185</ele>
        <time>2016-06-16T14:41:27Z</time>
      </trkpt>
      <trkpt lat="43.63829" lon="1.24512">
        <ele>186</ele>
        <time>2016-06-16T14:41:28Z</time>
      </trkpt>
      <trkpt lat="43.6383" lon="1.24513">
        <ele>186</ele>
        <time>2016-06-16T14:41:29Z</time>
      </trkpt>
      <trkpt lat="43.63832" lon="1.24513">
        <ele>186</ele>
        <time>2016-06-16T14:41:31Z</time>
      </trkpt>
      <trkpt lat="43.63833" lon="1.24513">
        <ele>186</ele>
        <time>2016-06-16T14:41:32Z</time>
      </trkpt>
      <trkpt lat="43.63834" lon="1.24514">
        <ele>187</ele>
        <time>2016-06-16T14:41:33Z</time>
      </trkpt>
      <trkpt lat="43.63835" lon="1.24514">
        <ele>187</ele>
        <time>2016-06-16T14:41:34Z</time>
      </trkpt>
      <trkpt lat="43.63838" lon="1.24517">
        <ele>187</ele>
        <time>2016-06-16T14:41:36Z</time>
      </trkpt>
      <trkpt lat="43.6384" lon="1.24518">
        <ele>187</ele>
        <time>2016-06-16T14:41:38Z</time>
      </trkpt>
      <trkpt lat="43.63841" lon="1.24517">
        <ele>187</ele>
        <time>2016-06-16T14:41:39Z</time>
      </trkpt>
      <trkpt lat="43.63844" lon="1.24517">
        <ele>188</ele>
        <time>2016-06-16T14:41:41Z</time>
      </trkpt>
      <trkpt lat="43.63848" lon="1.24518">
        <ele>188</ele>
        <time>2016-06-16T14:41:43Z</time>
      </trkpt>
      <trkpt lat="43.6385" lon="1.24519">
        <ele>189</ele>
        <time>2016-06-16T14:41:45Z</time>
      </trkpt>
      <trkpt lat="43.63853" lon="1.24521">
        <ele>189</ele>
        <time>2016-06-16T14:41:47Z</time>
      </trkpt>
      <trkpt lat="43.63854" lon="1.24522">
        <ele>189</ele>
        <time>2016-06-16T14:41:48Z</time>
      </trkpt>
      <trkpt lat="43.63856" lon="1.24521">
        <ele>189</ele>
        <time>2016-06-16T14:41:50Z</time>
      </trkpt>
      <trkpt lat="43.63858" lon="1.24521">
        <ele>190</ele>
        <time>2016-06-16T14:41:51Z</time>
      </trkpt>
      <trkpt lat="43.63862" lon="1.2452">
        <ele>190</ele>
        <time>2016-06-16T14:41:53Z</time>
      </trkpt>
      <trkpt lat="43.63865" lon="1.24522">
        <ele>190</ele>
        <time>2016-06-16T14:41:54Z</time>
      </trkpt>
      <trkpt lat="43.63869" lon="1.24524">
        <ele>190</ele>
        <time>2016-06-16T14:41:58Z</time>
      </trkpt>
      <trkpt lat="43.63869" lon="1.24528">
        <ele>190</ele>
        <time>2016-06-16T14:42:00Z</time>
      </trkpt>
      <trkpt lat="43.63869" lon="1.24531">
        <ele>189</ele>
        <time>2016-06-16T14:42:01Z</time>
      </trkpt>
      <trkpt lat="43.63869" lon="1.24533">
        <ele>188</ele>
        <time>2016-06-16T14:42:02Z</time>
      </trkpt>
      <trkpt lat="43.63868" lon="1.24535">
        <ele>187</ele>
        <time>2016-06-16T14:42:04Z</time>
      </trkpt>
      <trkpt lat="43.63867" lon="1.24539">
        <ele>186</ele>
        <time>2016-06-16T14:42:06Z</time>
      </trkpt>
      <trkpt lat="43.63866" lon="1.24539">
        <ele>185</ele>
        <time>2016-06-16T14:42:07Z</time>
      </trkpt>
      <trkpt lat="43.63866" lon="1.24542">
        <ele>184</ele>
        <time>2016-06-16T14:42:08Z</time>
      </trkpt>
      <trkpt lat="43.63863" lon="1.24545">
        <ele>183</ele>
        <time>2016-06-16T14:42:10Z</time>
      </trkpt>
      <trkpt lat="43.63862" lon="1.24548">
        <ele>182</ele>
        <time>2016-06-16T14:42:12Z</time>
      </trkpt>
      <trkpt lat="43.6386" lon="1.2455">
        <ele>181</ele>
        <time>2016-06-16T14:42:13Z</time>
      </trkpt>
      <trkpt lat="43.63857" lon="1.24554">
        <ele>180</ele>
        <time>2016-06-16T14:42:15Z</time>
      </trkpt>
      <trkpt lat="43.63854" lon="1.24556">
        <ele>180</ele>
        <time>2016-06-16T14:42:17Z</time>
      </trkpt>
      <trkpt lat="43.63852" lon="1.24558">
        <ele>179</ele>
        <time>2016-06-16T14:42:19Z</time>
      </trkpt>
      <trkpt lat="43.63848" lon="1.24562">
        <ele>177</ele>
        <time>2016-06-16T14:42:22Z</time>
      </trkpt>
      <trkpt lat="43.63846" lon="1.24566">
        <ele>176</ele>
        <time>2016-06-16T14:42:24Z</time>
      </trkpt>
      <trkpt lat="43.63843" lon="1.24566">
        <ele>175</ele>
        <time>2016-06-16T14:42:26Z</time>
      </trkpt>
      <trkpt lat="43.63841" lon="1.2457">
        <ele>174</ele>
        <time>2016-06-16T14:42:28Z</time>
      </trkpt>
      <trkpt lat="43.63838" lon="1.24571">
        <ele>173</ele>
        <time>2016-06-16T14:42:30Z</time>
      </trkpt>
      <trkpt lat="43.63837" lon="1.24573">
        <ele>172</ele>
        <time>2016-06-16T14:42:32Z</time>
      </trkpt>
      <trkpt lat="43.63835" lon="1.24577">
        <ele>172</ele>
        <time>2016-06-16T14:42:34Z</time>
      </trkpt>
      <trkpt lat="43.63834" lon="1.2458">
        <ele>171</ele>
        <time>2016-06-16T14:42:36Z</time>
      </trkpt>
      <trkpt lat="43.63832" lon="1.24582">
        <ele>170</ele>
        <time>2016-06-16T14:42:38Z</time>
      </trkpt>
      <trkpt lat="43.6383" lon="1.24585">
        <ele>169</ele>
        <time>2016-06-16T14:42:40Z</time>
      </trkpt>
      <trkpt lat="43.63827" lon="1.24587">
        <ele>168</ele>
        <time>2016-06-16T14:42:42Z</time>
      </trkpt>
      <trkpt lat="43.63825" lon="1.24587">
        <ele>168</ele>
        <time>2016-06-16T14:42:44Z</time>
      </trkpt>
      <trkpt lat="43.63824" lon="1.2459">
        <ele>167</ele>
        <time>2016-06-16T14:42:46Z</time>
      </trkpt>
      <trkpt lat="43.63824" lon="1.24591">
        <ele>167</ele>
        <time>2016-06-16T14:42:47Z</time>
      </trkpt>
      <trkpt lat="43.63823" lon="1.24593">
        <ele>166</ele>
        <time>2016-06-16T14:42:49Z</time>
      </trkpt>
      <trkpt lat="43.63821" lon="1.24594">
        <ele>166</ele>
        <time>2016-06-16T14:42:51Z</time>
      </trkpt>
      <trkpt lat="43.6382" lon="1.24596">
        <ele>166</ele>
        <time>2016-06-16T14:42:52Z</time>
      </trkpt>
      <trkpt lat="43.63818" lon="1.24598">
        <ele>166</ele>
        <time>2016-06-16T14:42:54Z</time>
      </trkpt>
      <trkpt lat="43.63818" lon="1.24599">
        <ele>166</ele>
        <time>2016-06-16T14:42:55Z</time>
      </trkpt>
      <trkpt lat="43.63817" lon="1.24602">
        <ele>166</ele>
        <time>2016-06-16T14:42:57Z</time>
      </trkpt>
      <trkpt lat="43.63816" lon="1.24604">
        <ele>166</ele>
        <time>2016-06-16T14:42:58Z</time>
      </trkpt>
      <trkpt lat="43.63815" lon="1.24609">
        <ele>165</ele>
        <time>2016-06-16T14:43:00Z</time>
      </trkpt>
      <trkpt lat="43.63815" lon="1.24611">
        <ele>165</ele>
        <time>2016-06-16T14:43:01Z</time>
      </trkpt>
      <trkpt lat="43.63814" lon="1.24613">
        <ele>165</ele>
        <time>2016-06-16T14:43:02Z</time>
      </trkpt>
      <trkpt lat="43.63814" lon="1.24617">
        <ele>166</ele>
        <time>2016-06-16T14:43:04Z</time>
      </trkpt>
      <trkpt lat="43.63813" lon="1.2462">
        <ele>166</ele>
        <time>2016-06-16T14:43:06Z</time>
      </trkpt>
      <trkpt lat="43.63813" lon="1.24622">
        <ele>166</ele>
        <time>2016-06-16T14:43:07Z</time>
      </trkpt>
      <trkpt lat="43.63814" lon="1.24627">
        <ele>166</ele>
        <time>2016-06-16T14:43:09Z</time>
      </trkpt>
      <trkpt lat="43.63813" lon="1.24628">
        <ele>166</ele>
        <time>2016-06-16T14:43:10Z</time>
      </trkpt>
      <trkpt lat="43.63814" lon="1.24632">
        <ele>165</ele>
        <time>2016-06-16T14:43:12Z</time>
      </trkpt>
      <trkpt lat="43.63814" lon="1.24635">
        <ele>165</ele>
        <time>2016-06-16T14:43:14Z</time>
      </trkpt>
      <trkpt lat="43.63814" lon="1.24637">
        <ele>165</ele>
        <time>2016-06-16T14:43:15Z</time>
      </trkpt>
      <trkpt lat="43.63815" lon="1.2464">
        <ele>165</ele>
        <time>2016-06-16T14:43:17Z</time>
      </trkpt>
      <trkpt lat="43.63816" lon="1.24643">
        <ele>165</ele>
        <time>2016-06-16T14:43:19Z</time>
      </trkpt>
      <trkpt lat="43.63817" lon="1.24647">
        <ele>165</ele>
        <time>2016-06-16T14:43:21Z</time>
      </trkpt>
      <trkpt lat="43.63817" lon="1.24648">
        <ele>165</ele>
        <time>2016-06-16T14:43:22Z</time>
      </trkpt>
      <trkpt lat="43.63817" lon="1.24652">
        <ele>165</ele>
        <time>2016-06-16T14:43:24Z</time>
      </trkpt>
      <trkpt lat="43.63817" lon="1.24655">
        <ele>165</ele>
        <time>2016-06-16T14:43:26Z</time>
      </trkpt>
      <trkpt lat="43.63817" lon="1.24659">
        <ele>165</ele>
        <time>2016-06-16T14:43:28Z</time>
      </trkpt>
      <trkpt lat="43.63817" lon="1.24661">
        <ele>165</ele>
        <time>2016-06-16T14:43:29Z</time>
      </trkpt>
      <trkpt lat="43.63818" lon="1.24664">
        <ele>165</ele>
        <time>2016-06-16T14:43:31Z</time>
      </trkpt>
      <trkpt lat="43.63818" lon="1.24666">
        <ele>165</ele>
        <time>2016-06-16T14:43:32Z</time>
      </trkpt>
      <trkpt lat="43.6382" lon="1.2467">
        <ele>165</ele>
        <time>2016-06-16T14:43:34Z</time>
      </trkpt>
      <trkpt lat="43.6382" lon="1.24674">
        <ele>165</ele>
        <time>2016-06-16T14:43:36Z</time>
      </trkpt>
      <trkpt lat="43.6382" lon="1.24676">
        <ele>165</ele>
        <time>2016-06-16T14:43:37Z</time>
      </trkpt>
      <trkpt lat="43.6382" lon="1.24681">
        <ele>165</ele>
        <time>2016-06-16T14:43:39Z</time>
      </trkpt>
      <trkpt lat="43.63819" lon="1.24687">
        <ele>165</ele>
        <time>2016-06-16T14:43:41Z</time>
      </trkpt>
      <trkpt lat="43.63818" lon="1.24691">
        <ele>165</ele>
        <time>2016-06-16T14:43:42Z</time>
      </trkpt>
      <trkpt lat="43.63816" lon="1.24697">
        <ele>166</ele>
        <time>2016-06-16T14:43:44Z</time>
      </trkpt>
      <trkpt lat="43.63816" lon="1.24699">
        <ele>166</ele>
        <time>2016-06-16T14:43:46Z</time>
      </trkpt>
      <trkpt lat="43.63814" lon="1.247">
        <ele>166</ele>
        <time>2016-06-16T14:43:48Z</time>
      </trkpt>
      <trkpt lat="43.63813" lon="1.24701">
        <ele>166</ele>
        <time>2016-06-16T14:43:49Z</time>
      </trkpt>
      <trkpt lat="43.63812" lon="1.24707">
        <ele>166</ele>
        <time>2016-06-16T14:43:51Z</time>
      </trkpt>
      <trkpt lat="43.6381" lon="1.24708">
        <ele>166</ele>
        <time>2016-06-16T14:43:53Z</time>
      </trkpt>
      <trkpt lat="43.63809" lon="1.24715">
        <ele>165</ele>
        <time>2016-06-16T14:43:55Z</time>
      </trkpt>
      <trkpt lat="43.63808" lon="1.24718">
        <ele>165</ele>
        <time>2016-06-16T14:43:57Z</time>
      </trkpt>
      <trkpt lat="43.63807" lon="1.24721">
        <ele>165</ele>
        <time>2016-06-16T14:43:59Z</time>
      </trkpt>
      <trkpt lat="43.63806" lon="1.24724">
        <ele>165</ele>
        <time>2016-06-16T14:44:01Z</time>
      </trkpt>
      <trkpt lat="43.63805" lon="1.24726">
        <ele>164</ele>
        <time>2016-06-16T14:44:02Z</time>
      </trkpt>
      <trkpt lat="43.63804" lon="1.24728">
        <ele>165</ele>
        <time>2016-06-16T14:44:04Z</time>
      </trkpt>
      <trkpt lat="43.63803" lon="1.24731">
        <ele>164</ele>
        <time>2016-06-16T14:44:06Z</time>
      </trkpt>
      <trkpt lat="43.63802" lon="1.24735">
        <ele>164</ele>
        <time>2016-06-16T14:44:08Z</time>
      </trkpt>
      <trkpt lat="43.63803" lon="1.24738">
        <ele>164</ele>
        <time>2016-06-16T14:44:10Z</time>
      </trkpt>
      <trkpt lat="43.63802" lon="1.24742">
        <ele>164</ele>
        <time>2016-06-16T14:44:12Z</time>
      </trkpt>
      <trkpt lat="43.63801" lon="1.24745">
        <ele>164</ele>
        <time>2016-06-16T14:44:14Z</time>
      </trkpt>
      <trkpt lat="43.63801" lon="1.24749">
        <ele>164</ele>
        <time>2016-06-16T14:44:16Z</time>
      </trkpt>
      <trkpt lat="43.63801" lon="1.24755">
        <ele>164</ele>
        <time>2016-06-16T14:44:18Z</time>
      </trkpt>
      <trkpt lat="43.63801" lon="1.24756">
        <ele>164</ele>
        <time>2016-06-16T14:44:19Z</time>
      </trkpt>
      <trkpt lat="43.63801" lon="1.24758">
        <ele>164</ele>
        <time>2016-06-16T14:44:20Z</time>
      </trkpt>
      <trkpt lat="43.63801" lon="1.24762">
        <ele>164</ele>
        <time>2016-06-16T14:44:22Z</time>
      </trkpt>
      <trkpt lat="43.638" lon="1.24766">
        <ele>163</ele>
        <time>2016-06-16T14:44:24Z</time>
      </trkpt>
      <trkpt lat="43.638" lon="1.24772">
        <ele>163</ele>
        <time>2016-06-16T14:44:26Z</time>
      </trkpt>
      <trkpt lat="43.638" lon="1.24774">
        <ele>163</ele>
        <time>2016-06-16T14:44:27Z</time>
      </trkpt>
      <trkpt lat="43.638" lon="1.24777">
        <ele>163</ele>
        <time>2016-06-16T14:44:29Z</time>
      </trkpt>
      <trkpt lat="43.638" lon="1.2478">
        <ele>163</ele>
        <time>2016-06-16T14:44:30Z</time>
      </trkpt>
      <trkpt lat="43.638" lon="1.24783">
        <ele>163</ele>
        <time>2016-06-16T14:44:32Z</time>
      </trkpt>
      <trkpt lat="43.63799" lon="1.24786">
        <ele>163</ele>
        <time>2016-06-16T14:44:34Z</time>
      </trkpt>
      <trkpt lat="43.63799" lon="1.24788">
        <ele>163</ele>
        <time>2016-06-16T14:44:35Z</time>
      </trkpt>
      <trkpt lat="43.63799" lon="1.24791">
        <ele>163</ele>
        <time>2016-06-16T14:44:37Z</time>
      </trkpt>
      <trkpt lat="43.63798" lon="1.24794">
        <ele>163</ele>
        <time>2016-06-16T14:44:39Z</time>
      </trkpt>
      <trkpt lat="43.63797" lon="1.24796">
        <ele>163</ele>
        <time>2016-06-16T14:44:40Z</time>
      </trkpt>
      <trkpt lat="43.63796" lon="1.24799">
        <ele>163</ele>
        <time>2016-06-16T14:44:42Z</time>
      </trkpt>
      <trkpt lat="43.63796" lon="1.24802">
        <ele>163</ele>
        <time>2016-06-16T14:44:44Z</time>
      </trkpt>
      <trkpt lat="43.63796" lon="1.24808">
        <ele>164</ele>
        <time>2016-06-16T14:44:46Z</time>
      </trkpt>
      <trkpt lat="43.63795" lon="1.24812">
        <ele>164</ele>
        <time>2016-06-16T14:44:48Z</time>
      </trkpt>
      <trkpt lat="43.63795" lon="1.24817">
        <ele>164</ele>
        <time>2016-06-16T14:44:50Z</time>
      </trkpt>
      <trkpt lat="43.63794" lon="1.24821">
        <ele>164</ele>
        <time>2016-06-16T14:44:52Z</time>
      </trkpt>
      <trkpt lat="43.63794" lon="1.2483">
        <ele>164</ele>
        <time>2016-06-16T14:44:54Z</time>
      </trkpt>
      <trkpt lat="43.63795" lon="1.24834">
        <ele>164</ele>
        <time>2016-06-16T14:44:56Z</time>
      </trkpt>
      <trkpt lat="43.63795" lon="1.24838">
        <ele>164</ele>
        <time>2016-06-16T14:44:58Z</time>
      </trkpt>
      <trkpt lat="43.63795" lon="1.2484">
        <ele>164</ele>
        <time>2016-06-16T14:44:59Z</time>
      </trkpt>
      <trkpt lat="43.63796" lon="1.24843">
        <ele>164</ele>
        <time>2016-06-16T14:45:01Z</time>
      </trkpt>
      <trkpt lat="43.63796" lon="1.24844">
        <ele>165</ele>
        <time>2016-06-16T14:45:02Z</time>
      </trkpt>
      <trkpt lat="43.63796" lon="1.24848">
        <ele>165</ele>
        <time>2016-06-16T14:45:04Z</time>
      </trkpt>
      <trkpt lat="43.63797" lon="1.24852">
        <ele>165</ele>
        <time>2016-06-16T14:45:06Z</time>
      </trkpt>
      <trkpt lat="43.63797" lon="1.24853">
        <ele>165</ele>
        <time>2016-06-16T14:45:07Z</time>
      </trkpt>
      <trkpt lat="43.63796" lon="1.24856">
        <ele>165</ele>
        <time>2016-06-16T14:45:09Z</time>
      </trkpt>
      <trkpt lat="43.63796" lon="1.24862">
        <ele>165</ele>
        <time>2016-06-16T14:45:11Z</time>
      </trkpt>
      <trkpt lat="43.63796" lon="1.24865">
        <ele>165</ele>
        <time>2016-06-16T14:45:13Z</time>
      </trkpt>
      <trkpt lat="43.63796" lon="1.24871">
        <ele>166</ele>
        <time>2016-06-16T14:45:15Z</time>
      </trkpt>
      <trkpt lat="43.63797" lon="1.24872">
        <ele>166</ele>
        <time>2016-06-16T14:45:16Z</time>
      </trkpt>
      <trkpt lat="43.63797" lon="1.24874">
        <ele>166</ele>
        <time>2016-06-16T14:45:17Z</time>
      </trkpt>
      <trkpt lat="43.63797" lon="1.24882">
        <ele>166</ele>
        <time>2016-06-16T14:45:19Z</time>
      </trkpt>
      <trkpt lat="43.63799" lon="1.24885">
        <ele>166</ele>
        <time>2016-06-16T14:45:21Z</time>
      </trkpt>
      <trkpt lat="43.63799" lon="1.24887">
        <ele>166</ele>
        <time>2016-06-16T14:45:22Z</time>
      </trkpt>
      <trkpt lat="43.63799" lon="1.24891">
        <ele>166</ele>
        <time>2016-06-16T14:45:24Z</time>
      </trkpt>
      <trkpt lat="43.638" lon="1.24899">
        <ele>167</ele>
        <time>2016-06-16T14:45:26Z</time>
      </trkpt>
      <trkpt lat="43.63801" lon="1.24905">
        <ele>167</ele>
        <time>2016-06-16T14:45:28Z</time>
      </trkpt>
      <trkpt lat="43.63802" lon="1.24907">
        <ele>167</ele>
        <time>2016-06-16T14:45:29Z</time>
      </trkpt>
      <trkpt lat="43.63802" lon="1.24909">
        <ele>167</ele>
        <time>2016-06-16T14:45:30Z</time>
      </trkpt>
      <trkpt lat="43.63802" lon="1.24913">
        <ele>167</ele>
        <time>2016-06-16T14:45:32Z</time>
      </trkpt>
      <trkpt lat="43.63803" lon="1.24916">
        <ele>167</ele>
        <time>2016-06-16T14:45:34Z</time>
      </trkpt>
      <trkpt lat="43.63803" lon="1.2492">
        <ele>167</ele>
        <time>2016-06-16T14:45:36Z</time>
      </trkpt>
      <trkpt lat="43.63804" lon="1.24923">
        <ele>167</ele>
        <time>2016-06-16T14:45:37Z</time>
      </trkpt>
      <trkpt lat="43.63804" lon="1.24927">
        <ele>167</ele>
        <time>2016-06-16T14:45:39Z</time>
      </trkpt>
      <trkpt lat="43.63803" lon="1.24932">
        <ele>167</ele>
        <time>2016-06-16T14:45:41Z</time>
      </trkpt>
      <trkpt lat="43.63803" lon="1.24934">
        <ele>167</ele>
        <time>2016-06-16T14:45:42Z</time>
      </trkpt>
      <trkpt lat="43.63803" lon="1.24938">
        <ele>167</ele>
        <time>2016-06-16T14:45:44Z</time>
      </trkpt>
      <trkpt lat="43.63803" lon="1.24941">
        <ele>167</ele>
        <time>2016-06-16T14:45:46Z</time>
      </trkpt>
      <trkpt lat="43.63803" lon="1.24942">
        <ele>166</ele>
        <time>2016-06-16T14:45:48Z</time>
      </trkpt>
      <trkpt lat="43.63804" lon="1.24945">
        <ele>166</ele>
        <time>2016-06-16T14:45:50Z</time>
      </trkpt>
      <trkpt lat="43.63805" lon="1.24949">
        <ele>166</ele>
        <time>2016-06-16T14:45:52Z</time>
      </trkpt>
      <trkpt lat="43.63805" lon="1.24952">
        <ele>166</ele>
        <time>2016-06-16T14:45:54Z</time>
      </trkpt>
      <trkpt lat="43.63805" lon="1.24957">
        <ele>166</ele>
        <time>2016-06-16T14:45:56Z</time>
      </trkpt>
      <trkpt lat="43.63806" lon="1.24959">
        <ele>166</ele>
        <time>2016-06-16T14:45:58Z</time>
      </trkpt>
      <trkpt lat="43.63805" lon="1.2496">
        <ele>166</ele>
        <time>2016-06-16T14:46:00Z</time>
      </trkpt>
      <trkpt lat="43.63805" lon="1.24964">
        <ele>166</ele>
        <time>2016-06-16T14:46:02Z</time>
      </trkpt>
      <trkpt lat="43.63806" lon="1.24967">
        <ele>166</ele>
        <time>2016-06-16T14:46:04Z</time>
      </trkpt>
      <trkpt lat="43.63806" lon="1.24971">
        <ele>166</ele>
        <time>2016-06-16T14:46:06Z</time>
      </trkpt>
      <trkpt lat="43.63807" lon="1.24975">
        <ele>166</ele>
        <time>2016-06-16T14:46:08Z</time>
      </trkpt>
      <trkpt lat="43.63808" lon="1.24978">
        <ele>167</ele>
        <time>2016-06-16T14:46:09Z</time>
      </trkpt>
      <trkpt lat="43.63809" lon="1.24985">
        <ele>167</ele>
        <time>2016-06-16T14:46:11Z</time>
      </trkpt>
      <trkpt lat="43.63809" lon="1.24987">
        <ele>166</ele>
        <time>2016-06-16T14:46:12Z</time>
      </trkpt>
      <trkpt lat="43.63809" lon="1.24992">
        <ele>166</ele>
        <time>2016-06-16T14:46:14Z</time>
      </trkpt>
      <trkpt lat="43.6381" lon="1.24994">
        <ele>166</ele>
        <time>2016-06-16T14:46:16Z</time>
      </trkpt>
      <trkpt lat="43.6381" lon="1.24995">
        <ele>166</ele>
        <time>2016-06-16T14:46:17Z</time>
      </trkpt>
      <trkpt lat="43.6381" lon="1.24998">
        <ele>166</ele>
        <time>2016-06-16T14:46:19Z</time>
      </trkpt>
      <trkpt lat="43.6381" lon="1.25">
        <ele>166</ele>
        <time>2016-06-16T14:46:20Z</time>
      </trkpt>
      <trkpt lat="43.63813" lon="1.25002">
        <ele>167</ele>
        <time>2016-06-16T14:46:22Z</time>
      </trkpt>
      <trkpt lat="43.63814" lon="1.25005">
        <ele>167</ele>
        <time>2016-06-16T14:46:24Z</time>
      </trkpt>
      <trkpt lat="43.63815" lon="1.2501">
        <ele>167</ele>
        <time>2016-06-16T14:46:26Z</time>
      </trkpt>
      <trkpt lat="43.63817" lon="1.25015">
        <ele>167</ele>
        <time>2016-06-16T14:46:28Z</time>
      </trkpt>
      <trkpt lat="43.63819" lon="1.25022">
        <ele>167</ele>
        <time>2016-06-16T14:46:30Z</time>
      </trkpt>
      <trkpt lat="43.63821" lon="1.25022">
        <ele>167</ele>
        <time>2016-06-16T14:46:32Z</time>
      </trkpt>
      <trkpt lat="43.63824" lon="1.25026">
        <ele>166</ele>
        <time>2016-06-16T14:46:34Z</time>
      </trkpt>
      <trkpt lat="43.63825" lon="1.25027">
        <ele>166</ele>
        <time>2016-06-16T14:46:35Z</time>
      </trkpt>
      <trkpt lat="43.63826" lon="1.25028">
        <ele>166</ele>
        <time>2016-06-16T14:46:37Z</time>
      </trkpt>
      <trkpt lat="43.63828" lon="1.25029">
        <ele>166</ele>
        <time>2016-06-16T14:46:38Z</time>
      </trkpt>
      <trkpt lat="43.63829" lon="1.25032">
        <ele>166</ele>
        <time>2016-06-16T14:46:40Z</time>
      </trkpt>
      <trkpt lat="43.63831" lon="1.25033">
        <ele>166</ele>
        <time>2016-06-16T14:46:42Z</time>
      </trkpt>
      <trkpt lat="43.63832" lon="1.25036">
        <ele>167</ele>
        <time>2016-06-16T14:46:44Z</time>
      </trkpt>
      <trkpt lat="43.63835" lon="1.2504">
        <ele>167</ele>
        <time>2016-06-16T14:46:46Z</time>
      </trkpt>
      <trkpt lat="43.63836" lon="1.25042">
        <ele>167</ele>
        <time>2016-06-16T14:46:47Z</time>
      </trkpt>
      <trkpt lat="43.63837" lon="1.25045">
        <ele>167</ele>
        <time>2016-06-16T14:46:49Z</time>
      </trkpt>
      <trkpt lat="43.6384" lon="1.25051">
        <ele>167</ele>
        <time>2016-06-16T14:46:51Z</time>
      </trkpt>
      <trkpt lat="43.63842" lon="1.25056">
        <ele>167</ele>
        <time>2016-06-16T14:46:53Z</time>
      </trkpt>
      <trkpt lat="43.63844" lon="1.25059">
        <ele>168</ele>
        <time>2016-06-16T14:46:55Z</time>
      </trkpt>
      <trkpt lat="43.63846" lon="1.25061">
        <ele>168</ele>
        <time>2016-06-16T14:46:57Z</time>
      </trkpt>
      <trkpt lat="43.63847" lon="1.25068">
        <ele>168</ele>
        <time>2016-06-16T14:46:59Z</time>
      </trkpt>
      <trkpt lat="43.63849" lon="1.25074">
        <ele>168</ele>
        <time>2016-06-16T14:47:01Z</time>
      </trkpt>
      <trkpt lat="43.63849" lon="1.25075">
        <ele>167</ele>
        <time>2016-06-16T14:47:06Z</time>
      </trkpt>
      <trkpt lat="43.63848" lon="1.25076">
        <ele>167</ele>
        <time>2016-06-16T14:47:07Z</time>
      </trkpt>
      <trkpt lat="43.63847" lon="1.25078">
        <ele>166</ele>
        <time>2016-06-16T14:47:09Z</time>
      </trkpt>
      <trkpt lat="43.63845" lon="1.25079">
        <ele>166</ele>
        <time>2016-06-16T14:47:11Z</time>
      </trkpt>
      <trkpt lat="43.63843" lon="1.25082">
        <ele>166</ele>
        <time>2016-06-16T14:47:13Z</time>
      </trkpt>
      <trkpt lat="43.63841" lon="1.25085">
        <ele>166</ele>
        <time>2016-06-16T14:47:15Z</time>
      </trkpt>
      <trkpt lat="43.6384" lon="1.25088">
        <ele>166</ele>
        <time>2016-06-16T14:47:17Z</time>
      </trkpt>
      <trkpt lat="43.63839" lon="1.2509">
        <ele>166</ele>
        <time>2016-06-16T14:47:18Z</time>
      </trkpt>
      <trkpt lat="43.63834" lon="1.25096">
        <ele>166</ele>
        <time>2016-06-16T14:47:22Z</time>
      </trkpt>
      <trkpt lat="43.6383" lon="1.25095">
        <ele>165</ele>
        <time>2016-06-16T14:47:24Z</time>
      </trkpt>
      <trkpt lat="43.6383" lon="1.25099">
        <ele>165</ele>
        <time>2016-06-16T14:47:26Z</time>
      </trkpt>
      <trkpt lat="43.63829" lon="1.251">
        <ele>165</ele>
        <time>2016-06-16T14:47:27Z</time>
      </trkpt>
      <trkpt lat="43.63828" lon="1.25103">
        <ele>165</ele>
        <time>2016-06-16T14:47:29Z</time>
      </trkpt>
      <trkpt lat="43.63826" lon="1.25106">
        <ele>164</ele>
        <time>2016-06-16T14:47:31Z</time>
      </trkpt>
      <trkpt lat="43.63825" lon="1.25107">
        <ele>164</ele>
        <time>2016-06-16T14:47:32Z</time>
      </trkpt>
      <trkpt lat="43.63822" lon="1.2511">
        <ele>164</ele>
        <time>2016-06-16T14:47:34Z</time>
      </trkpt>
      <trkpt lat="43.63821" lon="1.25111">
        <ele>164</ele>
        <time>2016-06-16T14:47:35Z</time>
      </trkpt>
      <trkpt lat="43.63819" lon="1.25114">
        <ele>164</ele>
        <time>2016-06-16T14:47:37Z</time>
      </trkpt>
      <trkpt lat="43.63817" lon="1.25117">
        <ele>163</ele>
        <time>2016-06-16T14:47:39Z</time>
      </trkpt>
      <trkpt lat="43.63816" lon="1.25118">
        <ele>163</ele>
        <time>2016-06-16T14:47:40Z</time>
      </trkpt>
      <trkpt lat="43.63814" lon="1.2512">
        <ele>163</ele>
        <time>2016-06-16T14:47:42Z</time>
      </trkpt>
      <trkpt lat="43.63812" lon="1.25123">
        <ele>163</ele>
        <time>2016-06-16T14:47:44Z</time>
      </trkpt>
      <trkpt lat="43.6381" lon="1.25127">
        <ele>162</ele>
        <time>2016-06-16T14:47:46Z</time>
      </trkpt>
      <trkpt lat="43.63809" lon="1.25131">
        <ele>162</ele>
        <time>2016-06-16T14:47:48Z</time>
      </trkpt>
      <trkpt lat="43.63807" lon="1.25133">
        <ele>162</ele>
        <time>2016-06-16T14:47:50Z</time>
      </trkpt>
      <trkpt lat="43.63806" lon="1.25135">
        <ele>161</ele>
        <time>2016-06-16T14:47:51Z</time>
      </trkpt>
      <trkpt lat="43.63804" lon="1.25138">
        <ele>161</ele>
        <time>2016-06-16T14:47:53Z</time>
      </trkpt>
      <trkpt lat="43.63803" lon="1.25139">
        <ele>161</ele>
        <time>2016-06-16T14:47:54Z</time>
      </trkpt>
      <trkpt lat="43.63801" lon="1.25142">
        <ele>160</ele>
        <time>2016-06-16T14:47:56Z</time>
      </trkpt>
      <trkpt lat="43.63799" lon="1.25143">
        <ele>160</ele>
        <time>2016-06-16T14:47:58Z</time>
      </trkpt>
      <trkpt lat="43.63798" lon="1.25144">
        <ele>160</ele>
        <time>2016-06-16T14:47:59Z</time>
      </trkpt>
      <trkpt lat="43.63796" lon="1.25147">
        <ele>159</ele>
        <time>2016-06-16T14:48:01Z</time>
      </trkpt>
      <trkpt lat="43.63796" lon="1.25148">
        <ele>159</ele>
        <time>2016-06-16T14:48:02Z</time>
      </trkpt>
      <trkpt lat="43.63794" lon="1.2515">
        <ele>159</ele>
        <time>2016-06-16T14:48:04Z</time>
      </trkpt>
      <trkpt lat="43.63793" lon="1.25153">
        <ele>159</ele>
        <time>2016-06-16T14:48:06Z</time>
      </trkpt>
      <trkpt lat="43.63793" lon="1.25152">
        <ele>159</ele>
        <time>2016-06-16T14:48:07Z</time>
      </trkpt>
      <trkpt lat="43.63791" lon="1.25155">
        <ele>159</ele>
        <time>2016-06-16T14:48:09Z</time>
      </trkpt>
      <trkpt lat="43.63791" lon="1.25155">
        <ele>159</ele>
        <time>2016-06-16T14:48:10Z</time>
      </trkpt>
      <trkpt lat="43.6379" lon="1.25159">
        <ele>158</ele>
        <time>2016-06-16T14:48:12Z</time>
      </trkpt>
      <trkpt lat="43.6379" lon="1.25164">
        <ele>158</ele>
        <time>2016-06-16T14:48:14Z</time>
      </trkpt>
      <trkpt lat="43.63789" lon="1.25166">
        <ele>158</ele>
        <time>2016-06-16T14:48:16Z</time>
      </trkpt>
      <trkpt lat="43.63788" lon="1.25168">
        <ele>157</ele>
        <time>2016-06-16T14:48:18Z</time>
      </trkpt>
      <trkpt lat="43.63787" lon="1.25169">
        <ele>157</ele>
        <time>2016-06-16T14:48:19Z</time>
      </trkpt>
      <trkpt lat="43.63786" lon="1.25172">
        <ele>157</ele>
        <time>2016-06-16T14:48:21Z</time>
      </trkpt>
      <trkpt lat="43.63785" lon="1.25172">
        <ele>157</ele>
        <time>2016-06-16T14:48:22Z</time>
      </trkpt>
      <trkpt lat="43.63784" lon="1.25176">
        <ele>157</ele>
        <time>2016-06-16T14:48:24Z</time>
      </trkpt>
      <trkpt lat="43.63782" lon="1.25179">
        <ele>156</ele>
        <time>2016-06-16T14:48:26Z</time>
      </trkpt>
      <trkpt lat="43.6378" lon="1.25183">
        <ele>156</ele>
        <time>2016-06-16T14:48:28Z</time>
      </trkpt>
      <trkpt lat="43.63778" lon="1.25186">
        <ele>156</ele>
        <time>2016-06-16T14:48:30Z</time>
      </trkpt>
      <trkpt lat="43.63778" lon="1.25186">
        <ele>156</ele>
        <time>2016-06-16T14:48:32Z</time>
      </trkpt>
      <trkpt lat="43.63776" lon="1.25192">
        <ele>156</ele>
        <time>2016-06-16T14:48:34Z</time>
      </trkpt>
      <trkpt lat="43.63775" lon="1.25197">
        <ele>156</ele>
        <time>2016-06-16T14:48:36Z</time>
      </trkpt>
      <trkpt lat="43.63774" lon="1.25199">
        <ele>156</ele>
        <time>2016-06-16T14:48:38Z</time>
      </trkpt>
      <trkpt lat="43.63773" lon="1.25201">
        <ele>155</ele>
        <time>2016-06-16T14:48:40Z</time>
      </trkpt>
      <trkpt lat="43.63771" lon="1.25203">
        <ele>155</ele>
        <time>2016-06-16T14:48:42Z</time>
      </trkpt>
      <trkpt lat="43.63771" lon="1.25204">
        <ele>155</ele>
        <time>2016-06-16T14:48:43Z</time>
      </trkpt>
      <trkpt lat="43.63771" lon="1.25205">
        <ele>155</ele>
        <time>2016-06-16T14:48:44Z</time>
      </trkpt>
      <trkpt lat="43.63771" lon="1.25207">
        <ele>155</ele>
        <time>2016-06-16T14:48:45Z</time>
      </trkpt>
      <trkpt lat="43.63769" lon="1.2521">
        <ele>154</ele>
        <time>2016-06-16T14:48:47Z</time>
      </trkpt>
      <trkpt lat="43.63769" lon="1.25214">
        <ele>154</ele>
        <time>2016-06-16T14:48:49Z</time>
      </trkpt>
      <trkpt lat="43.63768" lon="1.25215">
        <ele>154</ele>
        <time>2016-06-16T14:48:50Z</time>
      </trkpt>
      <trkpt lat="43.63768" lon="1.2522">
        <ele>154</ele>
        <time>2016-06-16T14:48:52Z</time>
      </trkpt>
      <trkpt lat="43.63767" lon="1.25223">
        <ele>154</ele>
        <time>2016-06-16T14:48:54Z</time>
      </trkpt>
      <trkpt lat="43.63767" lon="1.25232">
        <ele>153</ele>
        <time>2016-06-16T14:48:56Z</time>
      </trkpt>
      <trkpt lat="43.63767" lon="1.25234">
        <ele>153</ele>
        <time>2016-06-16T14:48:57Z</time>
      </trkpt>
      <trkpt lat="43.63766" lon="1.25235">
        <ele>153</ele>
        <time>2016-06-16T14:48:59Z</time>
      </trkpt>
      <trkpt lat="43.63767" lon="1.25234">
        <ele>152</ele>
        <time>2016-06-16T14:49:00Z</time>
      </trkpt>
      <trkpt lat="43.63767" lon="1.25235">
        <ele>152</ele>
        <time>2016-06-16T14:49:01Z</time>
      </trkpt>
      <trkpt lat="43.63767" lon="1.25236">
        <ele>152</ele>
        <time>2016-06-16T14:49:02Z</time>
      </trkpt>
      <trkpt lat="43.6377" lon="1.25247">
        <ele>151</ele>
        <time>2016-06-16T14:49:20Z</time>
      </trkpt>
      <trkpt lat="43.6377" lon="1.25248">
        <ele>150</ele>
        <time>2016-06-16T14:49:21Z</time>
      </trkpt>
      <trkpt lat="43.6377" lon="1.25248">
        <ele>150</ele>
        <time>2016-06-16T14:49:22Z</time>
      </trkpt>
      <trkpt lat="43.6377" lon="1.25248">
        <ele>149</ele>
        <time>2016-06-16T14:49:24Z</time>
      </trkpt>
      <trkpt lat="43.6377" lon="1.25248">
        <ele>148</ele>
        <time>2016-06-16T14:49:52Z</time>
      </trkpt>
      <trkpt lat="43.6377" lon="1.25248">
        <ele>148</ele>
        <time>2016-06-16T14:49:53Z</time>
      </trkpt>
      <trkpt lat="43.6377" lon="1.25248">
        <ele>148</ele>
        <time>2016-06-16T14:50:14Z</time>
      </trkpt>
      <trkpt lat="43.6377" lon="1.25248">
        <ele>148</ele>
        <time>2016-06-16T14:50:15Z</time>
      </trkpt>
      <trkpt lat="43.6377" lon="1.25248">
        <ele>148</ele>
        <time>2016-06-16T14:50:33Z</time>
      </trkpt>
      <trkpt lat="43.6377" lon="1.25248">
        <ele>148</ele>
        <time>2016-06-16T14:50:35Z</time>
      </trkpt>
      <trkpt lat="43.63779" lon="1.2525">
        <ele>147</ele>
        <time>2016-06-16T14:50:46Z</time>
      </trkpt>
      <trkpt lat="43.63779" lon="1.2525">
        <ele>147</ele>
        <time>2016-06-16T14:50:48Z</time>
      </trkpt>
      <trkpt lat="43.63779" lon="1.2525">
        <ele>146</ele>
        <time>2016-06-16T14:51:15Z</time>
      </trkpt>
      <trkpt lat="43.63779" lon="1.2525">
        <ele>145</ele>
        <time>2016-06-16T14:51:17Z</time>
      </trkpt>
      <trkpt lat="43.63779" lon="1.2525">
        <ele>144</ele>
        <time>2016-06-16T14:51:38Z</time>
      </trkpt>
      <trkpt lat="43.63779" lon="1.2525">
        <ele>144</ele>
        <time>2016-06-16T14:51:39Z</time>
      </trkpt>
      <trkpt lat="43.63779" lon="1.2525">
        <ele>144</ele>
        <time>2016-06-16T14:51:58Z</time>
      </trkpt>
      <trkpt lat="43.63768" lon="1.25246">
        <ele>140</ele>
        <time>2016-06-16T14:52:19Z</time>
      </trkpt>
      <trkpt lat="43.63767" lon="1.25248">
        <ele>138</ele>
        <time>2016-06-16T14:52:21Z</time>
      </trkpt>
      <trkpt lat="43.63766" lon="1.25249">
        <ele>138</ele>
        <time>2016-06-16T14:52:23Z</time>
      </trkpt>
      <trkpt lat="43.63764" lon="1.2525">
        <ele>138</ele>
        <time>2016-06-16T14:52:25Z</time>
      </trkpt>
      <trkpt lat="43.63762" lon="1.25251">
        <ele>138</ele>
        <time>2016-06-16T14:52:27Z</time>
      </trkpt>
      <trkpt lat="43.63761" lon="1.25252">
        <ele>137</ele>
        <time>2016-06-16T14:52:28Z</time>
      </trkpt>
      <trkpt lat="43.63758" lon="1.25253">
        <ele>137</ele>
        <time>2016-06-16T14:52:30Z</time>
      </trkpt>
      <trkpt lat="43.63756" lon="1.25256">
        <ele>137</ele>
        <time>2016-06-16T14:52:32Z</time>
      </trkpt>
      <trkpt lat="43.63754" lon="1.25258">
        <ele>137</ele>
        <time>2016-06-16T14:52:34Z</time>
      </trkpt>
      <trkpt lat="43.63751" lon="1.25259">
        <ele>137</ele>
        <time>2016-06-16T14:52:36Z</time>
      </trkpt>
      <trkpt lat="43.63749" lon="1.25261">
        <ele>137</ele>
        <time>2016-06-16T14:52:38Z</time>
      </trkpt>
      <trkpt lat="43.63747" lon="1.25263">
        <ele>137</ele>
        <time>2016-06-16T14:52:40Z</time>
      </trkpt>
      <trkpt lat="43.63745" lon="1.25264">
        <ele>137</ele>
        <time>2016-06-16T14:52:42Z</time>
      </trkpt>
      <trkpt lat="43.63744" lon="1.25265">
        <ele>137</ele>
        <time>2016-06-16T14:52:43Z</time>
      </trkpt>
      <trkpt lat="43.63742" lon="1.25267">
        <ele>137</ele>
        <time>2016-06-16T14:52:44Z</time>
      </trkpt>
      <trkpt lat="43.63741" lon="1.25269">
        <ele>137</ele>
        <time>2016-06-16T14:52:45Z</time>
      </trkpt>
      <trkpt lat="43.63739" lon="1.25271">
        <ele>137</ele>
        <time>2016-06-16T14:52:47Z</time>
      </trkpt>
      <trkpt lat="43.63738" lon="1.25272">
        <ele>137</ele>
        <time>2016-06-16T14:52:48Z</time>
      </trkpt>
      <trkpt lat="43.63736" lon="1.25276">
        <ele>137</ele>
        <time>2016-06-16T14:52:50Z</time>
      </trkpt>
      <trkpt lat="43.63734" lon="1.2528">
        <ele>137</ele>
        <time>2016-06-16T14:52:52Z</time>
      </trkpt>
      <trkpt lat="43.63731" lon="1.25282">
        <ele>137</ele>
        <time>2016-06-16T14:52:54Z</time>
      </trkpt>
      <trkpt lat="43.6373" lon="1.25283">
        <ele>138</ele>
        <time>2016-06-16T14:52:55Z</time>
      </trkpt>
      <trkpt lat="43.6373" lon="1.25285">
        <ele>138</ele>
        <time>2016-06-16T14:52:56Z</time>
      </trkpt>
      <trkpt lat="43.63728" lon="1.25286">
        <ele>138</ele>
        <time>2016-06-16T14:52:57Z</time>
      </trkpt>
      <trkpt lat="43.63727" lon="1.25289">
        <ele>138</ele>
        <time>2016-06-16T14:52:59Z</time>
      </trkpt>
      <trkpt lat="43.63726" lon="1.25293">
        <ele>138</ele>
        <time>2016-06-16T14:53:01Z</time>
      </trkpt>
      <trkpt lat="43.63725" lon="1.25294">
        <ele>138</ele>
        <time>2016-06-16T14:53:02Z</time>
      </trkpt>
      <trkpt lat="43.63725" lon="1.25295">
        <ele>138</ele>
        <time>2016-06-16T14:53:03Z</time>
      </trkpt>
      <trkpt lat="43.63724" lon="1.25296">
        <ele>138</ele>
        <time>2016-06-16T14:53:04Z</time>
      </trkpt>
      <trkpt lat="43.63723" lon="1.25297">
        <ele>138</ele>
        <time>2016-06-16T14:53:05Z</time>
      </trkpt>
      <trkpt lat="43.63723" lon="1.25299">
        <ele>138</ele>
        <time>2016-06-16T14:53:07Z</time>
      </trkpt>
      <trkpt lat="43.63722" lon="1.25303">
        <ele>138</ele>
        <time>2016-06-16T14:53:09Z</time>
      </trkpt>
      <trkpt lat="43.63722" lon="1.25305">
        <ele>138</ele>
        <time>2016-06-16T14:53:10Z</time>
      </trkpt>
      <trkpt lat="43.63721" lon="1.25308">
        <ele>138</ele>
        <time>2016-06-16T14:53:12Z</time>
      </trkpt>
      <trkpt lat="43.6372" lon="1.25312">
        <ele>138</ele>
        <time>2016-06-16T14:53:14Z</time>
      </trkpt>
      <trkpt lat="43.6372" lon="1.25315">
        <ele>138</ele>
        <time>2016-06-16T14:53:16Z</time>
      </trkpt>
      <trkpt lat="43.63719" lon="1.25318">
        <ele>139</ele>
        <time>2016-06-16T14:53:18Z</time>
      </trkpt>
      <trkpt lat="43.63719" lon="1.25322">
        <ele>139</ele>
        <time>2016-06-16T14:53:20Z</time>
      </trkpt>
      <trkpt lat="43.63719" lon="1.25325">
        <ele>139</ele>
        <time>2016-06-16T14:53:21Z</time>
      </trkpt>
      <trkpt lat="43.63718" lon="1.25328">
        <ele>139</ele>
        <time>2016-06-16T14:53:23Z</time>
      </trkpt>
      <trkpt lat="43.63718" lon="1.25332">
        <ele>139</ele>
        <time>2016-06-16T14:53:24Z</time>
      </trkpt>
      <trkpt lat="43.63718" lon="1.25335">
        <ele>139</ele>
        <time>2016-06-16T14:53:26Z</time>
      </trkpt>
      <trkpt lat="43.63717" lon="1.25339">
        <ele>139</ele>
        <time>2016-06-16T14:53:28Z</time>
      </trkpt>
      <trkpt lat="43.63717" lon="1.25342">
        <ele>139</ele>
        <time>2016-06-16T14:53:30Z</time>
      </trkpt>
      <trkpt lat="43.63718" lon="1.25349">
        <ele>139</ele>
        <time>2016-06-16T14:53:32Z</time>
      </trkpt>
      <trkpt lat="43.63718" lon="1.25352">
        <ele>139</ele>
        <time>2016-06-16T14:53:34Z</time>
      </trkpt>
      <trkpt lat="43.63719" lon="1.25356">
        <ele>139</ele>
        <time>2016-06-16T14:53:36Z</time>
      </trkpt>
      <trkpt lat="43.63719" lon="1.25363">
        <ele>139</ele>
        <time>2016-06-16T14:53:38Z</time>
      </trkpt>
      <trkpt lat="43.63718" lon="1.25366">
        <ele>138</ele>
        <time>2016-06-16T14:53:40Z</time>
      </trkpt>
      <trkpt lat="43.63718" lon="1.25368">
        <ele>138</ele>
        <time>2016-06-16T14:53:41Z</time>
      </trkpt>
      <trkpt lat="43.6372" lon="1.25378">
        <ele>138</ele>
        <time>2016-06-16T14:53:47Z</time>
      </trkpt>
      <trkpt lat="43.63721" lon="1.25379">
        <ele>138</ele>
        <time>2016-06-16T14:53:48Z</time>
      </trkpt>
      <trkpt lat="43.63722" lon="1.25381">
        <ele>138</ele>
        <time>2016-06-16T14:53:50Z</time>
      </trkpt>
      <trkpt lat="43.63724" lon="1.25382">
        <ele>138</ele>
        <time>2016-06-16T14:53:52Z</time>
      </trkpt>
      <trkpt lat="43.63725" lon="1.25384">
        <ele>137</ele>
        <time>2016-06-16T14:53:54Z</time>
      </trkpt>
      <trkpt lat="43.63726" lon="1.25384">
        <ele>137</ele>
        <time>2016-06-16T14:53:55Z</time>
      </trkpt>
      <trkpt lat="43.63727" lon="1.25385">
        <ele>137</ele>
        <time>2016-06-16T14:53:56Z</time>
      </trkpt>
      <trkpt lat="43.63728" lon="1.25386">
        <ele>137</ele>
        <time>2016-06-16T14:53:57Z</time>
      </trkpt>
      <trkpt lat="43.63729" lon="1.25388">
        <ele>137</ele>
        <time>2016-06-16T14:53:59Z</time>
      </trkpt>
      <trkpt lat="43.6373" lon="1.25391">
        <ele>137</ele>
        <time>2016-06-16T14:54:00Z</time>
      </trkpt>
      <trkpt lat="43.63733" lon="1.25394">
        <ele>137</ele>
        <time>2016-06-16T14:54:02Z</time>
      </trkpt>
      <trkpt lat="43.63736" lon="1.25395">
        <ele>137</ele>
        <time>2016-06-16T14:54:04Z</time>
      </trkpt>
      <trkpt lat="43.63737" lon="1.25396">
        <ele>138</ele>
        <time>2016-06-16T14:54:05Z</time>
      </trkpt>
      <trkpt lat="43.6374" lon="1.25396">
        <ele>138</ele>
        <time>2016-06-16T14:54:07Z</time>
      </trkpt>
      <trkpt lat="43.63743" lon="1.25397">
        <ele>138</ele>
        <time>2016-06-16T14:54:09Z</time>
      </trkpt>
      <trkpt lat="43.63745" lon="1.25397">
        <ele>138</ele>
        <time>2016-06-16T14:54:10Z</time>
      </trkpt>
      <trkpt lat="43.63748" lon="1.25398">
        <ele>138</ele>
        <time>2016-06-16T14:54:12Z</time>
      </trkpt>
      <trkpt lat="43.63749" lon="1.25399">
        <ele>138</ele>
        <time>2016-06-16T14:54:13Z</time>
      </trkpt>
      <trkpt lat="43.63752" lon="1.254">
        <ele>138</ele>
        <time>2016-06-16T14:54:15Z</time>
      </trkpt>
      <trkpt lat="43.63755" lon="1.25402">
        <ele>138</ele>
        <time>2016-06-16T14:54:17Z</time>
      </trkpt>
      <trkpt lat="43.63756" lon="1.25402">
        <ele>138</ele>
        <time>2016-06-16T14:54:18Z</time>
      </trkpt>
      <trkpt lat="43.63759" lon="1.25404">
        <ele>139</ele>
        <time>2016-06-16T14:54:20Z</time>
      </trkpt>
      <trkpt lat="43.63762" lon="1.25405">
        <ele>139</ele>
        <time>2016-06-16T14:54:22Z</time>
      </trkpt>
      <trkpt lat="43.63763" lon="1.25406">
        <ele>139</ele>
        <time>2016-06-16T14:54:23Z</time>
      </trkpt>
      <trkpt lat="43.63765" lon="1.25407">
        <ele>139</ele>
        <time>2016-06-16T14:54:25Z</time>
      </trkpt>
      <trkpt lat="43.63768" lon="1.25408">
        <ele>140</ele>
        <time>2016-06-16T14:54:27Z</time>
      </trkpt>
      <trkpt lat="43.63771" lon="1.2541">
        <ele>140</ele>
        <time>2016-06-16T14:54:29Z</time>
      </trkpt>
      <trkpt lat="43.63775" lon="1.25413">
        <ele>140</ele>
        <time>2016-06-16T14:54:31Z</time>
      </trkpt>
      <trkpt lat="43.63779" lon="1.25415">
        <ele>141</ele>
        <time>2016-06-16T14:54:34Z</time>
      </trkpt>
      <trkpt lat="43.63781" lon="1.25416">
        <ele>141</ele>
        <time>2016-06-16T14:54:35Z</time>
      </trkpt>
      <trkpt lat="43.63784" lon="1.25417">
        <ele>141</ele>
        <time>2016-06-16T14:54:37Z</time>
      </trkpt>
      <trkpt lat="43.63786" lon="1.25419">
        <ele>141</ele>
        <time>2016-06-16T14:54:39Z</time>
      </trkpt>
      <trkpt lat="43.63787" lon="1.25419">
        <ele>141</ele>
        <time>2016-06-16T14:54:40Z</time>
      </trkpt>
      <trkpt lat="43.63789" lon="1.2542">
        <ele>141</ele>
        <time>2016-06-16T14:54:42Z</time>
      </trkpt>
      <trkpt lat="43.63789" lon="1.25421">
        <ele>141</ele>
        <time>2016-06-16T14:54:43Z</time>
      </trkpt>
      <trkpt lat="43.63789" lon="1.25421">
        <ele>142</ele>
        <time>2016-06-16T14:54:44Z</time>
      </trkpt>
      <trkpt lat="43.63789" lon="1.25421">
        <ele>142</ele>
        <time>2016-06-16T14:54:45Z</time>
      </trkpt>
      <trkpt lat="43.6379" lon="1.25418">
        <ele>142</ele>
        <time>2016-06-16T14:54:47Z</time>
      </trkpt>
      <trkpt lat="43.63791" lon="1.25416">
        <ele>142</ele>
        <time>2016-06-16T14:54:49Z</time>
      </trkpt>
      <trkpt lat="43.63791" lon="1.25415">
        <ele>141</ele>
        <time>2016-06-16T14:54:52Z</time>
      </trkpt>
      <trkpt lat="43.63791" lon="1.25415">
        <ele>141</ele>
        <time>2016-06-16T14:54:53Z</time>
      </trkpt>
      <trkpt lat="43.63791" lon="1.25415">
        <ele>141</ele>
        <time>2016-06-16T14:54:55Z</time>
      </trkpt>
      <trkpt lat="43.63794" lon="1.25412">
        <ele>141</ele>
        <time>2016-06-16T14:55:00Z</time>
      </trkpt>
      <trkpt lat="43.63794" lon="1.2541">
        <ele>140</ele>
        <time>2016-06-16T14:55:01Z</time>
      </trkpt>
      <trkpt lat="43.63794" lon="1.2541">
        <ele>140</ele>
        <time>2016-06-16T14:55:03Z</time>
      </trkpt>
      <trkpt lat="43.63795" lon="1.2541">
        <ele>140</ele>
        <time>2016-06-16T14:55:04Z</time>
      </trkpt>
      <trkpt lat="43.63794" lon="1.25411">
        <ele>140</ele>
        <time>2016-06-16T14:55:13Z</time>
      </trkpt>
      <trkpt lat="43.63793" lon="1.25413">
        <ele>139</ele>
        <time>2016-06-16T14:55:15Z</time>
      </trkpt>
      <trkpt lat="43.63792" lon="1.25413">
        <ele>139</ele>
        <time>2016-06-16T14:55:16Z</time>
      </trkpt>
      <trkpt lat="43.63791" lon="1.25417">
        <ele>139</ele>
        <time>2016-06-16T14:55:18Z</time>
      </trkpt>
      <trkpt lat="43.63789" lon="1.25416">
        <ele>139</ele>
        <time>2016-06-16T14:55:20Z</time>
      </trkpt>
      <trkpt lat="43.63788" lon="1.25416">
        <ele>139</ele>
        <time>2016-06-16T14:55:21Z</time>
      </trkpt>
      <trkpt lat="43.63786" lon="1.25415">
        <ele>139</ele>
        <time>2016-06-16T14:55:23Z</time>
      </trkpt>
      <trkpt lat="43.63784" lon="1.25413">
        <ele>139</ele>
        <time>2016-06-16T14:55:25Z</time>
      </trkpt>
      <trkpt lat="43.63782" lon="1.25412">
        <ele>139</ele>
        <time>2016-06-16T14:55:27Z</time>
      </trkpt>
      <trkpt lat="43.63781" lon="1.25412">
        <ele>139</ele>
        <time>2016-06-16T14:55:28Z</time>
      </trkpt>
      <trkpt lat="43.63778" lon="1.2541">
        <ele>139</ele>
        <time>2016-06-16T14:55:30Z</time>
      </trkpt>
      <trkpt lat="43.63775" lon="1.25409">
        <ele>139</ele>
        <time>2016-06-16T14:55:32Z</time>
      </trkpt>
      <trkpt lat="43.63773" lon="1.25408">
        <ele>140</ele>
        <time>2016-06-16T14:55:34Z</time>
      </trkpt>
      <trkpt lat="43.6377" lon="1.25407">
        <ele>140</ele>
        <time>2016-06-16T14:55:36Z</time>
      </trkpt>
      <trkpt lat="43.63767" lon="1.25406">
        <ele>140</ele>
        <time>2016-06-16T14:55:38Z</time>
      </trkpt>
      <trkpt lat="43.63765" lon="1.25404">
        <ele>140</ele>
        <time>2016-06-16T14:55:40Z</time>
      </trkpt>
      <trkpt lat="43.63762" lon="1.25402">
        <ele>140</ele>
        <time>2016-06-16T14:55:42Z</time>
      </trkpt>
      <trkpt lat="43.63761" lon="1.25402">
        <ele>140</ele>
        <time>2016-06-16T14:55:43Z</time>
      </trkpt>
      <trkpt lat="43.6376" lon="1.25402">
        <ele>140</ele>
        <time>2016-06-16T14:55:44Z</time>
      </trkpt>
      <trkpt lat="43.63757" lon="1.25401">
        <ele>140</ele>
        <time>2016-06-16T14:55:46Z</time>
      </trkpt>
      <trkpt lat="43.63754" lon="1.25399">
        <ele>140</ele>
        <time>2016-06-16T14:55:48Z</time>
      </trkpt>
      <trkpt lat="43.63747" lon="1.25396">
        <ele>140</ele>
        <time>2016-06-16T14:55:53Z</time>
      </trkpt>
      <trkpt lat="43.63744" lon="1.25395">
        <ele>140</ele>
        <time>2016-06-16T14:55:55Z</time>
      </trkpt>
      <trkpt lat="43.63742" lon="1.25394">
        <ele>140</ele>
        <time>2016-06-16T14:55:57Z</time>
      </trkpt>
      <trkpt lat="43.6374" lon="1.25394">
        <ele>140</ele>
        <time>2016-06-16T14:55:58Z</time>
      </trkpt>
      <trkpt lat="43.63739" lon="1.25393">
        <ele>141</ele>
        <time>2016-06-16T14:55:59Z</time>
      </trkpt>
      <trkpt lat="43.63737" lon="1.25393">
        <ele>141</ele>
        <time>2016-06-16T14:56:01Z</time>
      </trkpt>
      <trkpt lat="43.63735" lon="1.25392">
        <ele>141</ele>
        <time>2016-06-16T14:56:03Z</time>
      </trkpt>
      <trkpt lat="43.63734" lon="1.25392">
        <ele>141</ele>
        <time>2016-06-16T14:56:04Z</time>
      </trkpt>
      <trkpt lat="43.63733" lon="1.25391">
        <ele>141</ele>
        <time>2016-06-16T14:56:05Z</time>
      </trkpt>
      <trkpt lat="43.6373" lon="1.25386">
        <ele>141</ele>
        <time>2016-06-16T14:56:09Z</time>
      </trkpt>
      <trkpt lat="43.6373" lon="1.25383">
        <ele>141</ele>
        <time>2016-06-16T14:56:11Z</time>
      </trkpt>
      <trkpt lat="43.63729" lon="1.2538">
        <ele>141</ele>
        <time>2016-06-16T14:56:13Z</time>
      </trkpt>
      <trkpt lat="43.63729" lon="1.25378">
        <ele>141</ele>
        <time>2016-06-16T14:56:14Z</time>
      </trkpt>
      <trkpt lat="43.63728" lon="1.25374">
        <ele>141</ele>
        <time>2016-06-16T14:56:16Z</time>
      </trkpt>
      <trkpt lat="43.63728" lon="1.25372">
        <ele>141</ele>
        <time>2016-06-16T14:56:17Z</time>
      </trkpt>
      <trkpt lat="43.63728" lon="1.25369">
        <ele>141</ele>
        <time>2016-06-16T14:56:19Z</time>
      </trkpt>
      <trkpt lat="43.63727" lon="1.25366">
        <ele>141</ele>
        <time>2016-06-16T14:56:21Z</time>
      </trkpt>
      <trkpt lat="43.63726" lon="1.25361">
        <ele>142</ele>
        <time>2016-06-16T14:56:23Z</time>
      </trkpt>
      <trkpt lat="43.63726" lon="1.25359">
        <ele>142</ele>
        <time>2016-06-16T14:56:24Z</time>
      </trkpt>
      <trkpt lat="43.63726" lon="1.25355">
        <ele>142</ele>
        <time>2016-06-16T14:56:26Z</time>
      </trkpt>
      <trkpt lat="43.63726" lon="1.25351">
        <ele>142</ele>
        <time>2016-06-16T14:56:28Z</time>
      </trkpt>
      <trkpt lat="43.63726" lon="1.25347">
        <ele>142</ele>
        <time>2016-06-16T14:56:30Z</time>
      </trkpt>
      <trkpt lat="43.63726" lon="1.25344">
        <ele>142</ele>
        <time>2016-06-16T14:56:32Z</time>
      </trkpt>
      <trkpt lat="43.63727" lon="1.2534">
        <ele>142</ele>
        <time>2016-06-16T14:56:34Z</time>
      </trkpt>
      <trkpt lat="43.63727" lon="1.25335">
        <ele>142</ele>
        <time>2016-06-16T14:56:36Z</time>
      </trkpt>
      <trkpt lat="43.63727" lon="1.25331">
        <ele>142</ele>
        <time>2016-06-16T14:56:38Z</time>
      </trkpt>
      <trkpt lat="43.63728" lon="1.25327">
        <ele>143</ele>
        <time>2016-06-16T14:56:40Z</time>
      </trkpt>
      <trkpt lat="43.63728" lon="1.25323">
        <ele>143</ele>
        <time>2016-06-16T14:56:42Z</time>
      </trkpt>
      <trkpt lat="43.63729" lon="1.25322">
        <ele>143</ele>
        <time>2016-06-16T14:56:43Z</time>
      </trkpt>
      <trkpt lat="43.63729" lon="1.2532">
        <ele>143</ele>
        <time>2016-06-16T14:56:44Z</time>
      </trkpt>
      <trkpt lat="43.63729" lon="1.25318">
        <ele>143</ele>
        <time>2016-06-16T14:56:45Z</time>
      </trkpt>
      <trkpt lat="43.6373" lon="1.25314">
        <ele>143</ele>
        <time>2016-06-16T14:56:47Z</time>
      </trkpt>
      <trkpt lat="43.63731" lon="1.25311">
        <ele>143</ele>
        <time>2016-06-16T14:56:49Z</time>
      </trkpt>
      <trkpt lat="43.63732" lon="1.25306">
        <ele>143</ele>
        <time>2016-06-16T14:56:51Z</time>
      </trkpt>
      <trkpt lat="43.63733" lon="1.25304">
        <ele>143</ele>
        <time>2016-06-16T14:56:52Z</time>
      </trkpt>
      <trkpt lat="43.63735" lon="1.253">
        <ele>143</ele>
        <time>2016-06-16T14:56:54Z</time>
      </trkpt>
      <trkpt lat="43.63736" lon="1.25297">
        <ele>143</ele>
        <time>2016-06-16T14:56:56Z</time>
      </trkpt>
      <trkpt lat="43.63738" lon="1.25297">
        <ele>143</ele>
        <time>2016-06-16T14:56:57Z</time>
      </trkpt>
      <trkpt lat="43.63739" lon="1.25295">
        <ele>143</ele>
        <time>2016-06-16T14:56:59Z</time>
      </trkpt>
      <trkpt lat="43.6374" lon="1.25291">
        <ele>143</ele>
        <time>2016-06-16T14:57:01Z</time>
      </trkpt>
      <trkpt lat="43.63742" lon="1.25289">
        <ele>144</ele>
        <time>2016-06-16T14:57:03Z</time>
      </trkpt>
      <trkpt lat="43.63742" lon="1.25287">
        <ele>144</ele>
        <time>2016-06-16T14:57:04Z</time>
      </trkpt>
      <trkpt lat="43.63743" lon="1.25286">
        <ele>144</ele>
        <time>2016-06-16T14:57:05Z</time>
      </trkpt>
      <trkpt lat="43.63746" lon="1.25283">
        <ele>144</ele>
        <time>2016-06-16T14:57:07Z</time>
      </trkpt>
      <trkpt lat="43.63746" lon="1.25282">
        <ele>144</ele>
        <time>2016-06-16T14:57:08Z</time>
      </trkpt>
      <trkpt lat="43.63748" lon="1.25278">
        <ele>144</ele>
        <time>2016-06-16T14:57:10Z</time>
      </trkpt>
      <trkpt lat="43.63749" lon="1.25275">
        <ele>144</ele>
        <time>2016-06-16T14:57:12Z</time>
      </trkpt>
      <trkpt lat="43.63752" lon="1.25272">
        <ele>144</ele>
        <time>2016-06-16T14:57:14Z</time>
      </trkpt>
      <trkpt lat="43.63753" lon="1.25268">
        <ele>144</ele>
        <time>2016-06-16T14:57:16Z</time>
      </trkpt>
      <trkpt lat="43.63754" lon="1.25266">
        <ele>144</ele>
        <time>2016-06-16T14:57:18Z</time>
      </trkpt>
      <trkpt lat="43.63754" lon="1.25264">
        <ele>144</ele>
        <time>2016-06-16T14:57:20Z</time>
      </trkpt>
      <trkpt lat="43.63754" lon="1.25263">
        <ele>144</ele>
        <time>2016-06-16T14:57:21Z</time>
      </trkpt>
      <trkpt lat="43.63755" lon="1.25263">
        <ele>144</ele>
        <time>2016-06-16T14:57:22Z</time>
      </trkpt>
      <trkpt lat="43.63755" lon="1.25262">
        <ele>144</ele>
        <time>2016-06-16T14:57:23Z</time>
      </trkpt>
      <trkpt lat="43.63756" lon="1.2526">
        <ele>144</ele>
        <time>2016-06-16T14:57:25Z</time>
      </trkpt>
      <trkpt lat="43.63757" lon="1.25258">
        <ele>144</ele>
        <time>2016-06-16T14:57:27Z</time>
      </trkpt>
      <trkpt lat="43.63758" lon="1.25256">
        <ele>144</ele>
        <time>2016-06-16T14:57:29Z</time>
      </trkpt>
      <trkpt lat="43.6376" lon="1.25253">
        <ele>144</ele>
        <time>2016-06-16T14:57:31Z</time>
      </trkpt>
      <trkpt lat="43.63762" lon="1.25252">
        <ele>144</ele>
        <time>2016-06-16T14:57:33Z</time>
      </trkpt>
      <trkpt lat="43.63764" lon="1.25248">
        <ele>144</ele>
        <time>2016-06-16T14:57:35Z</time>
      </trkpt>
      <trkpt lat="43.63767" lon="1.25245">
        <ele>144</ele>
        <time>2016-06-16T14:57:37Z</time>
      </trkpt>
      <trkpt lat="43.63768" lon="1.25242">
        <ele>145</ele>
        <time>2016-06-16T14:57:39Z</time>
      </trkpt>
      <trkpt lat="43.63769" lon="1.25241">
        <ele>145</ele>
        <time>2016-06-16T14:57:40Z</time>
      </trkpt>
      <trkpt lat="43.6377" lon="1.25238">
        <ele>145</ele>
        <time>2016-06-16T14:57:42Z</time>
      </trkpt>
      <trkpt lat="43.63771" lon="1.25236">
        <ele>145</ele>
        <time>2016-06-16T14:57:43Z</time>
      </trkpt>
      <trkpt lat="43.63771" lon="1.25234">
        <ele>145</ele>
        <time>2016-06-16T14:57:44Z</time>
      </trkpt>
      <trkpt lat="43.63772" lon="1.25232">
        <ele>145</ele>
        <time>2016-06-16T14:57:45Z</time>
      </trkpt>
      <trkpt lat="43.63773" lon="1.25227">
        <ele>145</ele>
        <time>2016-06-16T14:57:47Z</time>
      </trkpt>
      <trkpt lat="43.63774" lon="1.25224">
        <ele>145</ele>
        <time>2016-06-16T14:57:49Z</time>
      </trkpt>
      <trkpt lat="43.63776" lon="1.25221">
        <ele>145</ele>
        <time>2016-06-16T14:57:51Z</time>
      </trkpt>
      <trkpt lat="43.63777" lon="1.25218">
        <ele>145</ele>
        <time>2016-06-16T14:57:53Z</time>
      </trkpt>
      <trkpt lat="43.63779" lon="1.25214">
        <ele>145</ele>
        <time>2016-06-16T14:57:55Z</time>
      </trkpt>
      <trkpt lat="43.63781" lon="1.25211">
        <ele>145</ele>
        <time>2016-06-16T14:57:57Z</time>
      </trkpt>
      <trkpt lat="43.63781" lon="1.25209">
        <ele>145</ele>
        <time>2016-06-16T14:57:58Z</time>
      </trkpt>
      <trkpt lat="43.63782" lon="1.25207">
        <ele>145</ele>
        <time>2016-06-16T14:57:59Z</time>
      </trkpt>
      <trkpt lat="43.63783" lon="1.25204">
        <ele>145</ele>
        <time>2016-06-16T14:58:01Z</time>
      </trkpt>
      <trkpt lat="43.63783" lon="1.25202">
        <ele>145</ele>
        <time>2016-06-16T14:58:02Z</time>
      </trkpt>
      <trkpt lat="43.63784" lon="1.25201">
        <ele>145</ele>
        <time>2016-06-16T14:58:03Z</time>
      </trkpt>
      <trkpt lat="43.63784" lon="1.25199">
        <ele>145</ele>
        <time>2016-06-16T14:58:04Z</time>
      </trkpt>
      <trkpt lat="43.63784" lon="1.25197">
        <ele>145</ele>
        <time>2016-06-16T14:58:05Z</time>
      </trkpt>
      <trkpt lat="43.63786" lon="1.25194">
        <ele>145</ele>
        <time>2016-06-16T14:58:08Z</time>
      </trkpt>
      <trkpt lat="43.63788" lon="1.25189">
        <ele>145</ele>
        <time>2016-06-16T14:58:11Z</time>
      </trkpt>
      <trkpt lat="43.63789" lon="1.25187">
        <ele>145</ele>
        <time>2016-06-16T14:58:12Z</time>
      </trkpt>
      <trkpt lat="43.63789" lon="1.25185">
        <ele>145</ele>
        <time>2016-06-16T14:58:14Z</time>
      </trkpt>
      <trkpt lat="43.63791" lon="1.25182">
        <ele>145</ele>
        <time>2016-06-16T14:58:16Z</time>
      </trkpt>
      <trkpt lat="43.63792" lon="1.25179">
        <ele>145</ele>
        <time>2016-06-16T14:58:18Z</time>
      </trkpt>
      <trkpt lat="43.63792" lon="1.25176">
        <ele>145</ele>
        <time>2016-06-16T14:58:20Z</time>
      </trkpt>
      <trkpt lat="43.63793" lon="1.25174">
        <ele>145</ele>
        <time>2016-06-16T14:58:22Z</time>
      </trkpt>
      <trkpt lat="43.63794" lon="1.25172">
        <ele>145</ele>
        <time>2016-06-16T14:58:23Z</time>
      </trkpt>
      <trkpt lat="43.63796" lon="1.25169">
        <ele>145</ele>
        <time>2016-06-16T14:58:25Z</time>
      </trkpt>
      <trkpt lat="43.63797" lon="1.25166">
        <ele>145</ele>
        <time>2016-06-16T14:58:27Z</time>
      </trkpt>
      <trkpt lat="43.63798" lon="1.25164">
        <ele>145</ele>
        <time>2016-06-16T14:58:28Z</time>
      </trkpt>
      <trkpt lat="43.638" lon="1.25162">
        <ele>145</ele>
        <time>2016-06-16T14:58:30Z</time>
      </trkpt>
      <trkpt lat="43.63802" lon="1.2516">
        <ele>145</ele>
        <time>2016-06-16T14:58:32Z</time>
      </trkpt>
      <trkpt lat="43.63803" lon="1.25158">
        <ele>145</ele>
        <time>2016-06-16T14:58:34Z</time>
      </trkpt>
      <trkpt lat="43.63805" lon="1.25154">
        <ele>145</ele>
        <time>2016-06-16T14:58:36Z</time>
      </trkpt>
      <trkpt lat="43.63808" lon="1.25151">
        <ele>145</ele>
        <time>2016-06-16T14:58:40Z</time>
      </trkpt>
      <trkpt lat="43.63812" lon="1.25148">
        <ele>145</ele>
        <time>2016-06-16T14:58:42Z</time>
      </trkpt>
      <trkpt lat="43.63814" lon="1.25145">
        <ele>144</ele>
        <time>2016-06-16T14:58:44Z</time>
      </trkpt>
      <trkpt lat="43.63815" lon="1.25143">
        <ele>144</ele>
        <time>2016-06-16T14:58:45Z</time>
      </trkpt>
      <trkpt lat="43.63817" lon="1.2514">
        <ele>144</ele>
        <time>2016-06-16T14:58:47Z</time>
      </trkpt>
      <trkpt lat="43.63819" lon="1.25138">
        <ele>144</ele>
        <time>2016-06-16T14:58:49Z</time>
      </trkpt>
      <trkpt lat="43.6382" lon="1.25136">
        <ele>144</ele>
        <time>2016-06-16T14:58:50Z</time>
      </trkpt>
      <trkpt lat="43.6382" lon="1.25134">
        <ele>144</ele>
        <time>2016-06-16T14:58:52Z</time>
      </trkpt>
      <trkpt lat="43.63821" lon="1.25131">
        <ele>144</ele>
        <time>2016-06-16T14:58:54Z</time>
      </trkpt>
      <trkpt lat="43.63822" lon="1.2513">
        <ele>144</ele>
        <time>2016-06-16T14:58:55Z</time>
      </trkpt>
      <trkpt lat="43.63825" lon="1.25127">
        <ele>144</ele>
        <time>2016-06-16T14:58:57Z</time>
      </trkpt>
      <trkpt lat="43.63825" lon="1.25125">
        <ele>144</ele>
        <time>2016-06-16T14:58:58Z</time>
      </trkpt>
      <trkpt lat="43.63826" lon="1.25122">
        <ele>144</ele>
        <time>2016-06-16T14:59:00Z</time>
      </trkpt>
      <trkpt lat="43.63828" lon="1.25121">
        <ele>144</ele>
        <time>2016-06-16T14:59:01Z</time>
      </trkpt>
      <trkpt lat="43.63828" lon="1.25119">
        <ele>144</ele>
        <time>2016-06-16T14:59:03Z</time>
      </trkpt>
      <trkpt lat="43.63828" lon="1.25118">
        <ele>144</ele>
        <time>2016-06-16T14:59:04Z</time>
      </trkpt>
      <trkpt lat="43.63829" lon="1.25117">
        <ele>144</ele>
        <time>2016-06-16T14:59:05Z</time>
      </trkpt>
      <trkpt lat="43.63831" lon="1.25115">
        <ele>144</ele>
        <time>2016-06-16T14:59:07Z</time>
      </trkpt>
      <trkpt lat="43.63831" lon="1.25114">
        <ele>144</ele>
        <time>2016-06-16T14:59:08Z</time>
      </trkpt>
      <trkpt lat="43.63832" lon="1.25112">
        <ele>144</ele>
        <time>2016-06-16T14:59:10Z</time>
      </trkpt>
      <trkpt lat="43.63834" lon="1.25109">
        <ele>144</ele>
        <time>2016-06-16T14:59:12Z</time>
      </trkpt>
      <trkpt lat="43.63835" lon="1.25106">
        <ele>144</ele>
        <time>2016-06-16T14:59:14Z</time>
      </trkpt>
      <trkpt lat="43.63836" lon="1.25104">
        <ele>144</ele>
        <time>2016-06-16T14:59:15Z</time>
      </trkpt>
      <trkpt lat="43.63838" lon="1.25102">
        <ele>144</ele>
        <time>2016-06-16T14:59:17Z</time>
      </trkpt>
      <trkpt lat="43.63839" lon="1.251">
        <ele>144</ele>
        <time>2016-06-16T14:59:19Z</time>
      </trkpt>
      <trkpt lat="43.63841" lon="1.25099">
        <ele>144</ele>
        <time>2016-06-16T14:59:21Z</time>
      </trkpt>
      <trkpt lat="43.63843" lon="1.25099">
        <ele>144</ele>
        <time>2016-06-16T14:59:23Z</time>
      </trkpt>
      <trkpt lat="43.63845" lon="1.25097">
        <ele>144</ele>
        <time>2016-06-16T14:59:25Z</time>
      </trkpt>
      <trkpt lat="43.63847" lon="1.25096">
        <ele>144</ele>
        <time>2016-06-16T14:59:27Z</time>
      </trkpt>
      <trkpt lat="43.63848" lon="1.25095">
        <ele>144</ele>
        <time>2016-06-16T14:59:28Z</time>
      </trkpt>
      <trkpt lat="43.6385" lon="1.25095">
        <ele>144</ele>
        <time>2016-06-16T14:59:30Z</time>
      </trkpt>
      <trkpt lat="43.63853" lon="1.25095">
        <ele>144</ele>
        <time>2016-06-16T14:59:32Z</time>
      </trkpt>
      <trkpt lat="43.63854" lon="1.25096">
        <ele>145</ele>
        <time>2016-06-16T14:59:33Z</time>
      </trkpt>
      <trkpt lat="43.63858" lon="1.25097">
        <ele>145</ele>
        <time>2016-06-16T14:59:35Z</time>
      </trkpt>
      <trkpt lat="43.63861" lon="1.25095">
        <ele>145</ele>
        <time>2016-06-16T14:59:37Z</time>
      </trkpt>
      <trkpt lat="43.63862" lon="1.25095">
        <ele>145</ele>
        <time>2016-06-16T14:59:38Z</time>
      </trkpt>
      <trkpt lat="43.63864" lon="1.25095">
        <ele>144</ele>
        <time>2016-06-16T14:59:40Z</time>
      </trkpt>
      <trkpt lat="43.63865" lon="1.25096">
        <ele>144</ele>
        <time>2016-06-16T14:59:41Z</time>
      </trkpt>
      <trkpt lat="43.63866" lon="1.25097">
        <ele>144</ele>
        <time>2016-06-16T14:59:43Z</time>
      </trkpt>
      <trkpt lat="43.63868" lon="1.25098">
        <ele>144</ele>
        <time>2016-06-16T14:59:44Z</time>
      </trkpt>
      <trkpt lat="43.63868" lon="1.25099">
        <ele>144</ele>
        <time>2016-06-16T14:59:45Z</time>
      </trkpt>
      <trkpt lat="43.63869" lon="1.25101">
        <ele>144</ele>
        <time>2016-06-16T14:59:47Z</time>
      </trkpt>
      <trkpt lat="43.6387" lon="1.25102">
        <ele>144</ele>
        <time>2016-06-16T14:59:48Z</time>
      </trkpt>
      <trkpt lat="43.63871" lon="1.25105">
        <ele>144</ele>
        <time>2016-06-16T14:59:50Z</time>
      </trkpt>
      <trkpt lat="43.63874" lon="1.25108">
        <ele>144</ele>
        <time>2016-06-16T14:59:52Z</time>
      </trkpt>
      <trkpt lat="43.63876" lon="1.2511">
        <ele>144</ele>
        <time>2016-06-16T14:59:54Z</time>
      </trkpt>
      <trkpt lat="43.63876" lon="1.25111">
        <ele>144</ele>
        <time>2016-06-16T14:59:55Z</time>
      </trkpt>
      <trkpt lat="43.63877" lon="1.25112">
        <ele>144</ele>
        <time>2016-06-16T14:59:56Z</time>
      </trkpt>
      <trkpt lat="43.63879" lon="1.25114">
        <ele>145</ele>
        <time>2016-06-16T14:59:58Z</time>
      </trkpt>
      <trkpt lat="43.63881" lon="1.25118">
        <ele>145</ele>
        <time>2016-06-16T15:00:00Z</time>
      </trkpt>
      <trkpt lat="43.63882" lon="1.2512">
        <ele>145</ele>
        <time>2016-06-16T15:00:01Z</time>
      </trkpt>
      <trkpt lat="43.63895" lon="1.25138">
        <ele>145</ele>
        <time>2016-06-16T15:00:09Z</time>
      </trkpt>
      <trkpt lat="43.63896" lon="1.25139">
        <ele>144</ele>
        <time>2016-06-16T15:00:10Z</time>
      </trkpt>
      <trkpt lat="43.63898" lon="1.25142">
        <ele>144</ele>
        <time>2016-06-16T15:00:12Z</time>
      </trkpt>
      <trkpt lat="43.63899" lon="1.25144">
        <ele>144</ele>
        <time>2016-06-16T15:00:13Z</time>
      </trkpt>
      <trkpt lat="43.63901" lon="1.25147">
        <ele>144</ele>
        <time>2016-06-16T15:00:15Z</time>
      </trkpt>
      <trkpt lat="43.63902" lon="1.25149">
        <ele>144</ele>
        <time>2016-06-16T15:00:16Z</time>
      </trkpt>
      <trkpt lat="43.63903" lon="1.25152">
        <ele>144</ele>
        <time>2016-06-16T15:00:18Z</time>
      </trkpt>
      <trkpt lat="43.63904" lon="1.25155">
        <ele>144</ele>
        <time>2016-06-16T15:00:20Z</time>
      </trkpt>
      <trkpt lat="43.63904" lon="1.25157">
        <ele>144</ele>
        <time>2016-06-16T15:00:22Z</time>
      </trkpt>
      <trkpt lat="43.63904" lon="1.25159">
        <ele>144</ele>
        <time>2016-06-16T15:00:23Z</time>
      </trkpt>
      <trkpt lat="43.63905" lon="1.25162">
        <ele>144</ele>
        <time>2016-06-16T15:00:25Z</time>
      </trkpt>
      <trkpt lat="43.63906" lon="1.25165">
        <ele>144</ele>
        <time>2016-06-16T15:00:27Z</time>
      </trkpt>
      <trkpt lat="43.63908" lon="1.25169">
        <ele>144</ele>
        <time>2016-06-16T15:00:29Z</time>
      </trkpt>
      <trkpt lat="43.63909" lon="1.25171">
        <ele>144</ele>
        <time>2016-06-16T15:00:30Z</time>
      </trkpt>
      <trkpt lat="43.6391" lon="1.25175">
        <ele>144</ele>
        <time>2016-06-16T15:00:32Z</time>
      </trkpt>
      <trkpt lat="43.63911" lon="1.25178">
        <ele>144</ele>
        <time>2016-06-16T15:00:33Z</time>
      </trkpt>
      <trkpt lat="43.63912" lon="1.25183">
        <ele>144</ele>
        <time>2016-06-16T15:00:35Z</time>
      </trkpt>
      <trkpt lat="43.63913" lon="1.25185">
        <ele>144</ele>
        <time>2016-06-16T15:00:36Z</time>
      </trkpt>
      <trkpt lat="43.63913" lon="1.25189">
        <ele>144</ele>
        <time>2016-06-16T15:00:38Z</time>
      </trkpt>
      <trkpt lat="43.63915" lon="1.25193">
        <ele>144</ele>
        <time>2016-06-16T15:00:40Z</time>
      </trkpt>
      <trkpt lat="43.63916" lon="1.25197">
        <ele>144</ele>
        <time>2016-06-16T15:00:42Z</time>
      </trkpt>
      <trkpt lat="43.63915" lon="1.252">
        <ele>145</ele>
        <time>2016-06-16T15:00:44Z</time>
      </trkpt>
      <trkpt lat="43.63915" lon="1.25203">
        <ele>145</ele>
        <time>2016-06-16T15:00:46Z</time>
      </trkpt>
      <trkpt lat="43.63915" lon="1.25206">
        <ele>145</ele>
        <time>2016-06-16T15:00:48Z</time>
      </trkpt>
      <trkpt lat="43.63915" lon="1.25208">
        <ele>145</ele>
        <time>2016-06-16T15:00:50Z</time>
      </trkpt>
      <trkpt lat="43.63916" lon="1.25211">
        <ele>145</ele>
        <time>2016-06-16T15:00:52Z</time>
      </trkpt>
      <trkpt lat="43.63916" lon="1.25214">
        <ele>146</ele>
        <time>2016-06-16T15:00:54Z</time>
      </trkpt>
      <trkpt lat="43.63915" lon="1.25217">
        <ele>146</ele>
        <time>2016-06-16T15:00:56Z</time>
      </trkpt>
      <trkpt lat="43.63915" lon="1.25225">
        <ele>146</ele>
        <time>2016-06-16T15:01:00Z</time>
      </trkpt>
      <trkpt lat="43.63915" lon="1.25227">
        <ele>146</ele>
        <time>2016-06-16T15:01:01Z</time>
      </trkpt>
      <trkpt lat="43.63915" lon="1.25231">
        <ele>146</ele>
        <time>2016-06-16T15:01:03Z</time>
      </trkpt>
      <trkpt lat="43.63915" lon="1.25235">
        <ele>146</ele>
        <time>2016-06-16T15:01:05Z</time>
      </trkpt>
      <trkpt lat="43.63914" lon="1.25238">
        <ele>146</ele>
        <time>2016-06-16T15:01:07Z</time>
      </trkpt>
      <trkpt lat="43.63914" lon="1.25241">
        <ele>146</ele>
        <time>2016-06-16T15:01:08Z</time>
      </trkpt>
      <trkpt lat="43.63914" lon="1.25245">
        <ele>147</ele>
        <time>2016-06-16T15:01:10Z</time>
      </trkpt>
      <trkpt lat="43.63913" lon="1.25249">
        <ele>147</ele>
        <time>2016-06-16T15:01:12Z</time>
      </trkpt>
      <trkpt lat="43.63914" lon="1.25251">
        <ele>147</ele>
        <time>2016-06-16T15:01:14Z</time>
      </trkpt>
      <trkpt lat="43.63915" lon="1.25254">
        <ele>147</ele>
        <time>2016-06-16T15:01:16Z</time>
      </trkpt>
      <trkpt lat="43.63915" lon="1.25255">
        <ele>147</ele>
        <time>2016-06-16T15:01:17Z</time>
      </trkpt>
      <trkpt lat="43.63914" lon="1.25258">
        <ele>147</ele>
        <time>2016-06-16T15:01:19Z</time>
      </trkpt>
      <trkpt lat="43.63914" lon="1.25259">
        <ele>147</ele>
        <time>2016-06-16T15:01:20Z</time>
      </trkpt>
      <trkpt lat="43.63914" lon="1.25263">
        <ele>148</ele>
        <time>2016-06-16T15:01:22Z</time>
      </trkpt>
      <trkpt lat="43.63914" lon="1.25266">
        <ele>148</ele>
        <time>2016-06-16T15:01:24Z</time>
      </trkpt>
      <trkpt lat="43.63913" lon="1.25269">
        <ele>148</ele>
        <time>2016-06-16T15:01:26Z</time>
      </trkpt>
      <trkpt lat="43.63913" lon="1.25271">
        <ele>148</ele>
        <time>2016-06-16T15:01:28Z</time>
      </trkpt>
      <trkpt lat="43.63914" lon="1.25276">
        <ele>148</ele>
        <time>2016-06-16T15:01:30Z</time>
      </trkpt>
      <trkpt lat="43.63915" lon="1.25279">
        <ele>149</ele>
        <time>2016-06-16T15:01:31Z</time>
      </trkpt>
      <trkpt lat="43.63915" lon="1.25282">
        <ele>149</ele>
        <time>2016-06-16T15:01:33Z</time>
      </trkpt>
      <trkpt lat="43.63914" lon="1.25284">
        <ele>149</ele>
        <time>2016-06-16T15:01:34Z</time>
      </trkpt>
      <trkpt lat="43.63913" lon="1.25288">
        <ele>149</ele>
        <time>2016-06-16T15:01:36Z</time>
      </trkpt>
      <trkpt lat="43.63912" lon="1.2529">
        <ele>149</ele>
        <time>2016-06-16T15:01:38Z</time>
      </trkpt>
      <trkpt lat="43.63912" lon="1.25293">
        <ele>150</ele>
        <time>2016-06-16T15:01:40Z</time>
      </trkpt>
      <trkpt lat="43.63911" lon="1.25295">
        <ele>150</ele>
        <time>2016-06-16T15:01:42Z</time>
      </trkpt>
      <trkpt lat="43.63911" lon="1.25297">
        <ele>150</ele>
        <time>2016-06-16T15:01:43Z</time>
      </trkpt>
      <trkpt lat="43.63911" lon="1.25298">
        <ele>150</ele>
        <time>2016-06-16T15:01:44Z</time>
      </trkpt>
      <trkpt lat="43.63911" lon="1.253">
        <ele>150</ele>
        <time>2016-06-16T15:01:45Z</time>
      </trkpt>
      <trkpt lat="43.63911" lon="1.25303">
        <ele>150</ele>
        <time>2016-06-16T15:01:47Z</time>
      </trkpt>
      <trkpt lat="43.63911" lon="1.25305">
        <ele>151</ele>
        <time>2016-06-16T15:01:49Z</time>
      </trkpt>
      <trkpt lat="43.6391" lon="1.25308">
        <ele>151</ele>
        <time>2016-06-16T15:01:51Z</time>
      </trkpt>
      <trkpt lat="43.6391" lon="1.25309">
        <ele>151</ele>
        <time>2016-06-16T15:01:52Z</time>
      </trkpt>
      <trkpt lat="43.6391" lon="1.25313">
        <ele>151</ele>
        <time>2016-06-16T15:01:54Z</time>
      </trkpt>
      <trkpt lat="43.6391" lon="1.2532">
        <ele>151</ele>
        <time>2016-06-16T15:01:56Z</time>
      </trkpt>
      <trkpt lat="43.63909" lon="1.25322">
        <ele>151</ele>
        <time>2016-06-16T15:01:57Z</time>
      </trkpt>
      <trkpt lat="43.63909" lon="1.25326">
        <ele>151</ele>
        <time>2016-06-16T15:01:59Z</time>
      </trkpt>
      <trkpt lat="43.63909" lon="1.25329">
        <ele>151</ele>
        <time>2016-06-16T15:02:00Z</time>
      </trkpt>
      <trkpt lat="43.63909" lon="1.25331">
        <ele>151</ele>
        <time>2016-06-16T15:02:01Z</time>
      </trkpt>
      <trkpt lat="43.63908" lon="1.25335">
        <ele>152</ele>
        <time>2016-06-16T15:02:03Z</time>
      </trkpt>
      <trkpt lat="43.63908" lon="1.25336">
        <ele>152</ele>
        <time>2016-06-16T15:02:04Z</time>
      </trkpt>
      <trkpt lat="43.63908" lon="1.25338">
        <ele>152</ele>
        <time>2016-06-16T15:02:05Z</time>
      </trkpt>
      <trkpt lat="43.63909" lon="1.25341">
        <ele>152</ele>
        <time>2016-06-16T15:02:07Z</time>
      </trkpt>
      <trkpt lat="43.6391" lon="1.25347">
        <ele>152</ele>
        <time>2016-06-16T15:02:09Z</time>
      </trkpt>
      <trkpt lat="43.63911" lon="1.25351">
        <ele>153</ele>
        <time>2016-06-16T15:02:11Z</time>
      </trkpt>
      <trkpt lat="43.63911" lon="1.25354">
        <ele>153</ele>
        <time>2016-06-16T15:02:12Z</time>
      </trkpt>
      <trkpt lat="43.63912" lon="1.25356">
        <ele>153</ele>
        <time>2016-06-16T15:02:14Z</time>
      </trkpt>
      <trkpt lat="43.63913" lon="1.25362">
        <ele>153</ele>
        <time>2016-06-16T15:02:16Z</time>
      </trkpt>
      <trkpt lat="43.63913" lon="1.25367">
        <ele>153</ele>
        <time>2016-06-16T15:02:18Z</time>
      </trkpt>
      <trkpt lat="43.63913" lon="1.25372">
        <ele>153</ele>
        <time>2016-06-16T15:02:20Z</time>
      </trkpt>
      <trkpt lat="43.63913" lon="1.25374">
        <ele>153</ele>
        <time>2016-06-16T15:02:22Z</time>
      </trkpt>
      <trkpt lat="43.63913" lon="1.25377">
        <ele>153</ele>
        <time>2016-06-16T15:02:23Z</time>
      </trkpt>
      <trkpt lat="43.63913" lon="1.25381">
        <ele>153</ele>
        <time>2016-06-16T15:02:25Z</time>
      </trkpt>
      <trkpt lat="43.63913" lon="1.25385">
        <ele>154</ele>
        <time>2016-06-16T15:02:27Z</time>
      </trkpt>
      <trkpt lat="43.63913" lon="1.25387">
        <ele>154</ele>
        <time>2016-06-16T15:02:29Z</time>
      </trkpt>
      <trkpt lat="43.63912" lon="1.2539">
        <ele>154</ele>
        <time>2016-06-16T15:02:31Z</time>
      </trkpt>
      <trkpt lat="43.63912" lon="1.25395">
        <ele>155</ele>
        <time>2016-06-16T15:02:33Z</time>
      </trkpt>
      <trkpt lat="43.63911" lon="1.25397">
        <ele>155</ele>
        <time>2016-06-16T15:02:35Z</time>
      </trkpt>
      <trkpt lat="43.63911" lon="1.254">
        <ele>155</ele>
        <time>2016-06-16T15:02:37Z</time>
      </trkpt>
      <trkpt lat="43.63911" lon="1.25406">
        <ele>156</ele>
        <time>2016-06-16T15:02:39Z</time>
      </trkpt>
      <trkpt lat="43.6391" lon="1.25408">
        <ele>156</ele>
        <time>2016-06-16T15:02:40Z</time>
      </trkpt>
      <trkpt lat="43.6391" lon="1.25412">
        <ele>156</ele>
        <time>2016-06-16T15:02:42Z</time>
      </trkpt>
      <trkpt lat="43.6391" lon="1.25413">
        <ele>156</ele>
        <time>2016-06-16T15:02:43Z</time>
      </trkpt>
      <trkpt lat="43.63909" lon="1.25417">
        <ele>156</ele>
        <time>2016-06-16T15:02:44Z</time>
      </trkpt>
      <trkpt lat="43.63909" lon="1.25421">
        <ele>156</ele>
        <time>2016-06-16T15:02:45Z</time>
      </trkpt>
      <trkpt lat="43.63908" lon="1.25426">
        <ele>157</ele>
        <time>2016-06-16T15:02:47Z</time>
      </trkpt>
      <trkpt lat="43.63907" lon="1.25428">
        <ele>157</ele>
        <time>2016-06-16T15:02:49Z</time>
      </trkpt>
      <trkpt lat="43.63907" lon="1.25429">
        <ele>157</ele>
        <time>2016-06-16T15:02:50Z</time>
      </trkpt>
      <trkpt lat="43.63906" lon="1.25432">
        <ele>157</ele>
        <time>2016-06-16T15:02:52Z</time>
      </trkpt>
      <trkpt lat="43.63906" lon="1.25435">
        <ele>157</ele>
        <time>2016-06-16T15:02:54Z</time>
      </trkpt>
      <trkpt lat="43.63905" lon="1.2544">
        <ele>158</ele>
        <time>2016-06-16T15:02:56Z</time>
      </trkpt>
      <trkpt lat="43.63905" lon="1.25443">
        <ele>158</ele>
        <time>2016-06-16T15:02:57Z</time>
      </trkpt>
      <trkpt lat="43.63905" lon="1.25449">
        <ele>158</ele>
        <time>2016-06-16T15:02:59Z</time>
      </trkpt>
      <trkpt lat="43.63905" lon="1.25451">
        <ele>158</ele>
        <time>2016-06-16T15:03:00Z</time>
      </trkpt>
      <trkpt lat="43.63906" lon="1.25455">
        <ele>158</ele>
        <time>2016-06-16T15:03:02Z</time>
      </trkpt>
      <trkpt lat="43.63905" lon="1.25458">
        <ele>159</ele>
        <time>2016-06-16T15:03:03Z</time>
      </trkpt>
      <trkpt lat="43.63906" lon="1.2546">
        <ele>159</ele>
        <time>2016-06-16T15:03:04Z</time>
      </trkpt>
      <trkpt lat="43.63906" lon="1.25461">
        <ele>159</ele>
        <time>2016-06-16T15:03:05Z</time>
      </trkpt>
      <trkpt lat="43.63904" lon="1.25464">
        <ele>159</ele>
        <time>2016-06-16T15:03:07Z</time>
      </trkpt>
      <trkpt lat="43.63904" lon="1.25467">
        <ele>159</ele>
        <time>2016-06-16T15:03:08Z</time>
      </trkpt>
      <trkpt lat="43.63904" lon="1.25472">
        <ele>159</ele>
        <time>2016-06-16T15:03:11Z</time>
      </trkpt>
      <trkpt lat="43.63903" lon="1.25475">
        <ele>159</ele>
        <time>2016-06-16T15:03:13Z</time>
      </trkpt>
      <trkpt lat="43.63903" lon="1.2548">
        <ele>159</ele>
        <time>2016-06-16T15:03:15Z</time>
      </trkpt>
      <trkpt lat="43.63903" lon="1.25483">
        <ele>160</ele>
        <time>2016-06-16T15:03:16Z</time>
      </trkpt>
      <trkpt lat="43.63902" lon="1.25485">
        <ele>160</ele>
        <time>2016-06-16T15:03:18Z</time>
      </trkpt>
      <trkpt lat="43.63902" lon="1.25487">
        <ele>160</ele>
        <time>2016-06-16T15:03:19Z</time>
      </trkpt>
      <trkpt lat="43.63901" lon="1.25492">
        <ele>160</ele>
        <time>2016-06-16T15:03:21Z</time>
      </trkpt>
      <trkpt lat="43.639" lon="1.25495">
        <ele>160</ele>
        <time>2016-06-16T15:03:22Z</time>
      </trkpt>
      <trkpt lat="43.639" lon="1.25498">
        <ele>160</ele>
        <time>2016-06-16T15:03:23Z</time>
      </trkpt>
      <trkpt lat="43.63899" lon="1.25501">
        <ele>160</ele>
        <time>2016-06-16T15:03:25Z</time>
      </trkpt>
      <trkpt lat="43.63899" lon="1.25506">
        <ele>160</ele>
        <time>2016-06-16T15:03:27Z</time>
      </trkpt>
      <trkpt lat="43.63898" lon="1.25511">
        <ele>160</ele>
        <time>2016-06-16T15:03:29Z</time>
      </trkpt>
      <trkpt lat="43.63898" lon="1.25513">
        <ele>161</ele>
        <time>2016-06-16T15:03:30Z</time>
      </trkpt>
      <trkpt lat="43.63899" lon="1.25518">
        <ele>161</ele>
        <time>2016-06-16T15:03:32Z</time>
      </trkpt>
      <trkpt lat="43.63899" lon="1.25525">
        <ele>161</ele>
        <time>2016-06-16T15:03:34Z</time>
      </trkpt>
      <trkpt lat="43.639" lon="1.25531">
        <ele>161</ele>
        <time>2016-06-16T15:03:36Z</time>
      </trkpt>
      <trkpt lat="43.63901" lon="1.25536">
        <ele>161</ele>
        <time>2016-06-16T15:03:38Z</time>
      </trkpt>
      <trkpt lat="43.63902" lon="1.25539">
        <ele>161</ele>
        <time>2016-06-16T15:03:40Z</time>
      </trkpt>
      <trkpt lat="43.63903" lon="1.25543">
        <ele>162</ele>
        <time>2016-06-16T15:03:42Z</time>
      </trkpt>
      <trkpt lat="43.63904" lon="1.25545">
        <ele>162</ele>
        <time>2016-06-16T15:03:43Z</time>
      </trkpt>
      <trkpt lat="43.63904" lon="1.25546">
        <ele>162</ele>
        <time>2016-06-16T15:03:44Z</time>
      </trkpt>
      <trkpt lat="43.63905" lon="1.25547">
        <ele>162</ele>
        <time>2016-06-16T15:03:45Z</time>
      </trkpt>
      <trkpt lat="43.63907" lon="1.2556">
        <ele>162</ele>
        <time>2016-06-16T15:03:49Z</time>
      </trkpt>
      <trkpt lat="43.63908" lon="1.25561">
        <ele>162</ele>
        <time>2016-06-16T15:03:51Z</time>
      </trkpt>
      <trkpt lat="43.63908" lon="1.25571">
        <ele>162</ele>
        <time>2016-06-16T15:03:54Z</time>
      </trkpt>
      <trkpt lat="43.63908" lon="1.25572">
        <ele>163</ele>
        <time>2016-06-16T15:03:55Z</time>
      </trkpt>
      <trkpt lat="43.63908" lon="1.25576">
        <ele>163</ele>
        <time>2016-06-16T15:03:57Z</time>
      </trkpt>
      <trkpt lat="43.63908" lon="1.25577">
        <ele>163</ele>
        <time>2016-06-16T15:03:58Z</time>
      </trkpt>
      <trkpt lat="43.63908" lon="1.2558">
        <ele>163</ele>
        <time>2016-06-16T15:04:00Z</time>
      </trkpt>
      <trkpt lat="43.63908" lon="1.25581">
        <ele>163</ele>
        <time>2016-06-16T15:04:01Z</time>
      </trkpt>
      <trkpt lat="43.63908" lon="1.25583">
        <ele>164</ele>
        <time>2016-06-16T15:04:03Z</time>
      </trkpt>
      <trkpt lat="43.63908" lon="1.25584">
        <ele>164</ele>
        <time>2016-06-16T15:04:04Z</time>
      </trkpt>
      <trkpt lat="43.63909" lon="1.25586">
        <ele>164</ele>
        <time>2016-06-16T15:04:05Z</time>
      </trkpt>
      <trkpt lat="43.63909" lon="1.25589">
        <ele>164</ele>
        <time>2016-06-16T15:04:08Z</time>
      </trkpt>
      <trkpt lat="43.63909" lon="1.25591">
        <ele>164</ele>
        <time>2016-06-16T15:04:10Z</time>
      </trkpt>
      <trkpt lat="43.63909" lon="1.25599">
        <ele>164</ele>
        <time>2016-06-16T15:04:12Z</time>
      </trkpt>
      <trkpt lat="43.63909" lon="1.25601">
        <ele>165</ele>
        <time>2016-06-16T15:04:13Z</time>
      </trkpt>
      <trkpt lat="43.6391" lon="1.25603">
        <ele>165</ele>
        <time>2016-06-16T15:04:15Z</time>
      </trkpt>
      <trkpt lat="43.6391" lon="1.25606">
        <ele>165</ele>
        <time>2016-06-16T15:04:16Z</time>
      </trkpt>
      <trkpt lat="43.6391" lon="1.25612">
        <ele>165</ele>
        <time>2016-06-16T15:04:18Z</time>
      </trkpt>
      <trkpt lat="43.63911" lon="1.25615">
        <ele>165</ele>
        <time>2016-06-16T15:04:20Z</time>
      </trkpt>
      <trkpt lat="43.63911" lon="1.25617">
        <ele>165</ele>
        <time>2016-06-16T15:04:21Z</time>
      </trkpt>
      <trkpt lat="43.63911" lon="1.25618">
        <ele>165</ele>
        <time>2016-06-16T15:04:22Z</time>
      </trkpt>
      <trkpt lat="43.63911" lon="1.25619">
        <ele>165</ele>
        <time>2016-06-16T15:04:23Z</time>
      </trkpt>
      <trkpt lat="43.63911" lon="1.25622">
        <ele>166</ele>
        <time>2016-06-16T15:04:25Z</time>
      </trkpt>
      <trkpt lat="43.63912" lon="1.25627">
        <ele>166</ele>
        <time>2016-06-16T15:04:27Z</time>
      </trkpt>
      <trkpt lat="43.63913" lon="1.25629">
        <ele>166</ele>
        <time>2016-06-16T15:04:28Z</time>
      </trkpt>
      <trkpt lat="43.63913" lon="1.25633">
        <ele>166</ele>
        <time>2016-06-16T15:04:30Z</time>
      </trkpt>
      <trkpt lat="43.63913" lon="1.25636">
        <ele>166</ele>
        <time>2016-06-16T15:04:31Z</time>
      </trkpt>
      <trkpt lat="43.63913" lon="1.25642">
        <ele>166</ele>
        <time>2016-06-16T15:04:33Z</time>
      </trkpt>
      <trkpt lat="43.63915" lon="1.25648">
        <ele>166</ele>
        <time>2016-06-16T15:04:35Z</time>
      </trkpt>
      <trkpt lat="43.63915" lon="1.25652">
        <ele>167</ele>
        <time>2016-06-16T15:04:37Z</time>
      </trkpt>
      <trkpt lat="43.63915" lon="1.25655">
        <ele>167</ele>
        <time>2016-06-16T15:04:38Z</time>
      </trkpt>
      <trkpt lat="43.63916" lon="1.25659">
        <ele>167</ele>
        <time>2016-06-16T15:04:40Z</time>
      </trkpt>
      <trkpt lat="43.63916" lon="1.25661">
        <ele>167</ele>
        <time>2016-06-16T15:04:41Z</time>
      </trkpt>
      <trkpt lat="43.63917" lon="1.25665">
        <ele>167</ele>
        <time>2016-06-16T15:04:43Z</time>
      </trkpt>
      <trkpt lat="43.63917" lon="1.25666">
        <ele>167</ele>
        <time>2016-06-16T15:04:44Z</time>
      </trkpt>
      <trkpt lat="43.63918" lon="1.25667">
        <ele>168</ele>
        <time>2016-06-16T15:04:45Z</time>
      </trkpt>
      <trkpt lat="43.63919" lon="1.25669">
        <ele>168</ele>
        <time>2016-06-16T15:04:47Z</time>
      </trkpt>
      <trkpt lat="43.63919" lon="1.25672">
        <ele>168</ele>
        <time>2016-06-16T15:04:48Z</time>
      </trkpt>
      <trkpt lat="43.63919" lon="1.25675">
        <ele>168</ele>
        <time>2016-06-16T15:04:50Z</time>
      </trkpt>
      <trkpt lat="43.6392" lon="1.25679">
        <ele>168</ele>
        <time>2016-06-16T15:04:52Z</time>
      </trkpt>
      <trkpt lat="43.63921" lon="1.25683">
        <ele>168</ele>
        <time>2016-06-16T15:04:54Z</time>
      </trkpt>
      <trkpt lat="43.63922" lon="1.25686">
        <ele>169</ele>
        <time>2016-06-16T15:04:56Z</time>
      </trkpt>
      <trkpt lat="43.63923" lon="1.25689">
        <ele>169</ele>
        <time>2016-06-16T15:04:58Z</time>
      </trkpt>
      <trkpt lat="43.63924" lon="1.25693">
        <ele>169</ele>
        <time>2016-06-16T15:05:00Z</time>
      </trkpt>
      <trkpt lat="43.63924" lon="1.25695">
        <ele>169</ele>
        <time>2016-06-16T15:05:01Z</time>
      </trkpt>
      <trkpt lat="43.63924" lon="1.25698">
        <ele>169</ele>
        <time>2016-06-16T15:05:03Z</time>
      </trkpt>
      <trkpt lat="43.63924" lon="1.257">
        <ele>169</ele>
        <time>2016-06-16T15:05:04Z</time>
      </trkpt>
      <trkpt lat="43.63924" lon="1.25701">
        <ele>170</ele>
        <time>2016-06-16T15:05:05Z</time>
      </trkpt>
      <trkpt lat="43.63925" lon="1.25703">
        <ele>170</ele>
        <time>2016-06-16T15:05:07Z</time>
      </trkpt>
      <trkpt lat="43.63925" lon="1.25704">
        <ele>170</ele>
        <time>2016-06-16T15:05:08Z</time>
      </trkpt>
      <trkpt lat="43.63924" lon="1.25707">
        <ele>170</ele>
        <time>2016-06-16T15:05:10Z</time>
      </trkpt>
      <trkpt lat="43.63926" lon="1.25711">
        <ele>170</ele>
        <time>2016-06-16T15:05:12Z</time>
      </trkpt>
      <trkpt lat="43.63926" lon="1.25714">
        <ele>170</ele>
        <time>2016-06-16T15:05:14Z</time>
      </trkpt>
      <trkpt lat="43.63928" lon="1.25719">
        <ele>170</ele>
        <time>2016-06-16T15:05:16Z</time>
      </trkpt>
      <trkpt lat="43.63929" lon="1.25725">
        <ele>170</ele>
        <time>2016-06-16T15:05:18Z</time>
      </trkpt>
      <trkpt lat="43.6393" lon="1.25727">
        <ele>169</ele>
        <time>2016-06-16T15:05:19Z</time>
      </trkpt>
      <trkpt lat="43.63931" lon="1.25734">
        <ele>169</ele>
        <time>2016-06-16T15:05:21Z</time>
      </trkpt>
      <trkpt lat="43.63931" lon="1.25739">
        <ele>169</ele>
        <time>2016-06-16T15:05:23Z</time>
      </trkpt>
      <trkpt lat="43.63931" lon="1.25744">
        <ele>169</ele>
        <time>2016-06-16T15:05:25Z</time>
      </trkpt>
      <trkpt lat="43.63931" lon="1.25749">
        <ele>169</ele>
        <time>2016-06-16T15:05:27Z</time>
      </trkpt>
      <trkpt lat="43.63931" lon="1.25754">
        <ele>169</ele>
        <time>2016-06-16T15:05:29Z</time>
      </trkpt>
      <trkpt lat="43.63931" lon="1.25758">
        <ele>169</ele>
        <time>2016-06-16T15:05:30Z</time>
      </trkpt>
      <trkpt lat="43.63931" lon="1.2576">
        <ele>169</ele>
        <time>2016-06-16T15:05:31Z</time>
      </trkpt>
      <trkpt lat="43.6393" lon="1.25766">
        <ele>169</ele>
        <time>2016-06-16T15:05:33Z</time>
      </trkpt>
      <trkpt lat="43.63931" lon="1.25769">
        <ele>169</ele>
        <time>2016-06-16T15:05:34Z</time>
      </trkpt>
      <trkpt lat="43.63931" lon="1.25772">
        <ele>168</ele>
        <time>2016-06-16T15:05:36Z</time>
      </trkpt>
      <trkpt lat="43.63932" lon="1.25773">
        <ele>168</ele>
        <time>2016-06-16T15:05:37Z</time>
      </trkpt>
      <trkpt lat="43.63932" lon="1.25774">
        <ele>168</ele>
        <time>2016-06-16T15:05:38Z</time>
      </trkpt>
      <trkpt lat="43.63933" lon="1.25776">
        <ele>168</ele>
        <time>2016-06-16T15:05:39Z</time>
      </trkpt>
      <trkpt lat="43.63933" lon="1.25779">
        <ele>168</ele>
        <time>2016-06-16T15:05:41Z</time>
      </trkpt>
      <trkpt lat="43.63934" lon="1.25781">
        <ele>168</ele>
        <time>2016-06-16T15:05:43Z</time>
      </trkpt>
      <trkpt lat="43.63934" lon="1.25783">
        <ele>168</ele>
        <time>2016-06-16T15:05:44Z</time>
      </trkpt>
      <trkpt lat="43.63935" lon="1.25786">
        <ele>169</ele>
        <time>2016-06-16T15:05:46Z</time>
      </trkpt>
      <trkpt lat="43.63936" lon="1.25789">
        <ele>169</ele>
        <time>2016-06-16T15:05:48Z</time>
      </trkpt>
      <trkpt lat="43.63937" lon="1.25794">
        <ele>169</ele>
        <time>2016-06-16T15:05:50Z</time>
      </trkpt>
      <trkpt lat="43.63937" lon="1.25798">
        <ele>169</ele>
        <time>2016-06-16T15:05:52Z</time>
      </trkpt>
      <trkpt lat="43.63938" lon="1.25804">
        <ele>169</ele>
        <time>2016-06-16T15:05:54Z</time>
      </trkpt>
      <trkpt lat="43.63939" lon="1.25811">
        <ele>169</ele>
        <time>2016-06-16T15:05:56Z</time>
      </trkpt>
      <trkpt lat="43.63939" lon="1.25814">
        <ele>168</ele>
        <time>2016-06-16T15:05:58Z</time>
      </trkpt>
      <trkpt lat="43.6394" lon="1.25817">
        <ele>168</ele>
        <time>2016-06-16T15:05:59Z</time>
      </trkpt>
      <trkpt lat="43.6394" lon="1.25823">
        <ele>168</ele>
        <time>2016-06-16T15:06:01Z</time>
      </trkpt>
      <trkpt lat="43.63941" lon="1.25826">
        <ele>168</ele>
        <time>2016-06-16T15:06:03Z</time>
      </trkpt>
      <trkpt lat="43.63941" lon="1.25828">
        <ele>168</ele>
        <time>2016-06-16T15:06:04Z</time>
      </trkpt>
      <trkpt lat="43.63941" lon="1.25829">
        <ele>169</ele>
        <time>2016-06-16T15:06:05Z</time>
      </trkpt>
      <trkpt lat="43.63942" lon="1.25832">
        <ele>169</ele>
        <time>2016-06-16T15:06:07Z</time>
      </trkpt>
      <trkpt lat="43.63942" lon="1.25837">
        <ele>169</ele>
        <time>2016-06-16T15:06:09Z</time>
      </trkpt>
      <trkpt lat="43.63942" lon="1.2584">
        <ele>169</ele>
        <time>2016-06-16T15:06:11Z</time>
      </trkpt>
      <trkpt lat="43.63942" lon="1.25842">
        <ele>169</ele>
        <time>2016-06-16T15:06:12Z</time>
      </trkpt>
      <trkpt lat="43.63942" lon="1.25845">
        <ele>169</ele>
        <time>2016-06-16T15:06:13Z</time>
      </trkpt>
      <trkpt lat="43.63943" lon="1.25849">
        <ele>169</ele>
        <time>2016-06-16T15:06:15Z</time>
      </trkpt>
      <trkpt lat="43.63945" lon="1.25852">
        <ele>169</ele>
        <time>2016-06-16T15:06:16Z</time>
      </trkpt>
      <trkpt lat="43.63946" lon="1.25856">
        <ele>170</ele>
        <time>2016-06-16T15:06:18Z</time>
      </trkpt>
      <trkpt lat="43.63947" lon="1.25857">
        <ele>170</ele>
        <time>2016-06-16T15:06:19Z</time>
      </trkpt>
      <trkpt lat="43.6395" lon="1.25863">
        <ele>170</ele>
        <time>2016-06-16T15:06:21Z</time>
      </trkpt>
      <trkpt lat="43.63949" lon="1.25871">
        <ele>169</ele>
        <time>2016-06-16T15:06:23Z</time>
      </trkpt>
      <trkpt lat="43.6395" lon="1.25872">
        <ele>169</ele>
        <time>2016-06-16T15:06:24Z</time>
      </trkpt>
      <trkpt lat="43.6395" lon="1.25876">
        <ele>169</ele>
        <time>2016-06-16T15:06:26Z</time>
      </trkpt>
      <trkpt lat="43.63952" lon="1.25883">
        <ele>169</ele>
        <time>2016-06-16T15:06:28Z</time>
      </trkpt>
      <trkpt lat="43.63955" lon="1.25884">
        <ele>169</ele>
        <time>2016-06-16T15:06:30Z</time>
      </trkpt>
      <trkpt lat="43.63958" lon="1.25887">
        <ele>169</ele>
        <time>2016-06-16T15:06:32Z</time>
      </trkpt>
      <trkpt lat="43.63961" lon="1.2589">
        <ele>169</ele>
        <time>2016-06-16T15:06:34Z</time>
      </trkpt>
      <trkpt lat="43.63964" lon="1.25893">
        <ele>169</ele>
        <time>2016-06-16T15:06:36Z</time>
      </trkpt>
      <trkpt lat="43.63966" lon="1.25894">
        <ele>168</ele>
        <time>2016-06-16T15:06:38Z</time>
      </trkpt>
      <trkpt lat="43.63969" lon="1.25897">
        <ele>168</ele>
        <time>2016-06-16T15:06:40Z</time>
      </trkpt>
      <trkpt lat="43.6397" lon="1.25898">
        <ele>168</ele>
        <time>2016-06-16T15:06:41Z</time>
      </trkpt>
      <trkpt lat="43.63972" lon="1.25899">
        <ele>168</ele>
        <time>2016-06-16T15:06:43Z</time>
      </trkpt>
      <trkpt lat="43.63973" lon="1.25899">
        <ele>168</ele>
        <time>2016-06-16T15:06:44Z</time>
      </trkpt>
      <trkpt lat="43.63973" lon="1.259">
        <ele>168</ele>
        <time>2016-06-16T15:06:46Z</time>
      </trkpt>
      <trkpt lat="43.63975" lon="1.25903">
        <ele>168</ele>
        <time>2016-06-16T15:06:48Z</time>
      </trkpt>
      <trkpt lat="43.63977" lon="1.25904">
        <ele>168</ele>
        <time>2016-06-16T15:06:50Z</time>
      </trkpt>
      <trkpt lat="43.63978" lon="1.25906">
        <ele>168</ele>
        <time>2016-06-16T15:06:52Z</time>
      </trkpt>
      <trkpt lat="43.63979" lon="1.25909">
        <ele>168</ele>
        <time>2016-06-16T15:06:54Z</time>
      </trkpt>
      <trkpt lat="43.63981" lon="1.2591">
        <ele>168</ele>
        <time>2016-06-16T15:06:55Z</time>
      </trkpt>
      <trkpt lat="43.63982" lon="1.25911">
        <ele>168</ele>
        <time>2016-06-16T15:06:57Z</time>
      </trkpt>
      <trkpt lat="43.63983" lon="1.25912">
        <ele>169</ele>
        <time>2016-06-16T15:06:58Z</time>
      </trkpt>
      <trkpt lat="43.63985" lon="1.25915">
        <ele>169</ele>
        <time>2016-06-16T15:07:00Z</time>
      </trkpt>
      <trkpt lat="43.63986" lon="1.25915">
        <ele>169</ele>
        <time>2016-06-16T15:07:01Z</time>
      </trkpt>
      <trkpt lat="43.63986" lon="1.25917">
        <ele>169</ele>
        <time>2016-06-16T15:07:02Z</time>
      </trkpt>
      <trkpt lat="43.63987" lon="1.25919">
        <ele>169</ele>
        <time>2016-06-16T15:07:04Z</time>
      </trkpt>
      <trkpt lat="43.63989" lon="1.25921">
        <ele>169</ele>
        <time>2016-06-16T15:07:06Z</time>
      </trkpt>
      <trkpt lat="43.63989" lon="1.25922">
        <ele>169</ele>
        <time>2016-06-16T15:07:08Z</time>
      </trkpt>
      <trkpt lat="43.63991" lon="1.25924">
        <ele>170</ele>
        <time>2016-06-16T15:07:10Z</time>
      </trkpt>
      <trkpt lat="43.63993" lon="1.25927">
        <ele>170</ele>
        <time>2016-06-16T15:07:12Z</time>
      </trkpt>
      <trkpt lat="43.63995" lon="1.25931">
        <ele>170</ele>
        <time>2016-06-16T15:07:14Z</time>
      </trkpt>
      <trkpt lat="43.63997" lon="1.25934">
        <ele>170</ele>
        <time>2016-06-16T15:07:16Z</time>
      </trkpt>
      <trkpt lat="43.63998" lon="1.25936">
        <ele>171</ele>
        <time>2016-06-16T15:07:18Z</time>
      </trkpt>
      <trkpt lat="43.63999" lon="1.25936">
        <ele>171</ele>
        <time>2016-06-16T15:07:19Z</time>
      </trkpt>
      <trkpt lat="43.64002" lon="1.2594">
        <ele>171</ele>
        <time>2016-06-16T15:07:21Z</time>
      </trkpt>
      <trkpt lat="43.64003" lon="1.25942">
        <ele>171</ele>
        <time>2016-06-16T15:07:22Z</time>
      </trkpt>
      <trkpt lat="43.64004" lon="1.25944">
        <ele>171</ele>
        <time>2016-06-16T15:07:24Z</time>
      </trkpt>
      <trkpt lat="43.64007" lon="1.25949">
        <ele>171</ele>
        <time>2016-06-16T15:07:26Z</time>
      </trkpt>
      <trkpt lat="43.64008" lon="1.25955">
        <ele>171</ele>
        <time>2016-06-16T15:07:28Z</time>
      </trkpt>
      <trkpt lat="43.6401" lon="1.25958">
        <ele>170</ele>
        <time>2016-06-16T15:07:30Z</time>
      </trkpt>
      <trkpt lat="43.64013" lon="1.2596">
        <ele>170</ele>
        <time>2016-06-16T15:07:32Z</time>
      </trkpt>
      <trkpt lat="43.64015" lon="1.25962">
        <ele>170</ele>
        <time>2016-06-16T15:07:34Z</time>
      </trkpt>
      <trkpt lat="43.64016" lon="1.25964">
        <ele>170</ele>
        <time>2016-06-16T15:07:36Z</time>
      </trkpt>
      <trkpt lat="43.64017" lon="1.25965">
        <ele>170</ele>
        <time>2016-06-16T15:07:37Z</time>
      </trkpt>
      <trkpt lat="43.6402" lon="1.25969">
        <ele>171</ele>
        <time>2016-06-16T15:07:39Z</time>
      </trkpt>
      <trkpt lat="43.64021" lon="1.25971">
        <ele>171</ele>
        <time>2016-06-16T15:07:40Z</time>
      </trkpt>
      <trkpt lat="43.64024" lon="1.25975">
        <ele>171</ele>
        <time>2016-06-16T15:07:42Z</time>
      </trkpt>
      <trkpt lat="43.64028" lon="1.25983">
        <ele>170</ele>
        <time>2016-06-16T15:07:44Z</time>
      </trkpt>
      <trkpt lat="43.64031" lon="1.25987">
        <ele>170</ele>
        <time>2016-06-16T15:07:46Z</time>
      </trkpt>
      <trkpt lat="43.6403" lon="1.25991">
        <ele>170</ele>
        <time>2016-06-16T15:07:48Z</time>
      </trkpt>
      <trkpt lat="43.64036" lon="1.26011">
        <ele>170</ele>
        <time>2016-06-16T15:07:55Z</time>
      </trkpt>
      <trkpt lat="43.64037" lon="1.26013">
        <ele>170</ele>
        <time>2016-06-16T15:07:56Z</time>
      </trkpt>
      <trkpt lat="43.64038" lon="1.26016">
        <ele>170</ele>
        <time>2016-06-16T15:07:58Z</time>
      </trkpt>
      <trkpt lat="43.64039" lon="1.26018">
        <ele>170</ele>
        <time>2016-06-16T15:08:00Z</time>
      </trkpt>
      <trkpt lat="43.6404" lon="1.2602">
        <ele>170</ele>
        <time>2016-06-16T15:08:02Z</time>
      </trkpt>
      <trkpt lat="43.64042" lon="1.26022">
        <ele>170</ele>
        <time>2016-06-16T15:08:04Z</time>
      </trkpt>
      <trkpt lat="43.64043" lon="1.26024">
        <ele>171</ele>
        <time>2016-06-16T15:08:06Z</time>
      </trkpt>
      <trkpt lat="43.64044" lon="1.26026">
        <ele>171</ele>
        <time>2016-06-16T15:08:08Z</time>
      </trkpt>
      <trkpt lat="43.64045" lon="1.26027">
        <ele>171</ele>
        <time>2016-06-16T15:08:09Z</time>
      </trkpt>
      <trkpt lat="43.64045" lon="1.26027">
        <ele>171</ele>
        <time>2016-06-16T15:08:10Z</time>
      </trkpt>
      <trkpt lat="43.64045" lon="1.26028">
        <ele>171</ele>
        <time>2016-06-16T15:08:11Z</time>
      </trkpt>
      <trkpt lat="43.64045" lon="1.2603">
        <ele>171</ele>
        <time>2016-06-16T15:08:13Z</time>
      </trkpt>
      <trkpt lat="43.6405" lon="1.26035">
        <ele>171</ele>
        <time>2016-06-16T15:08:19Z</time>
      </trkpt>
      <trkpt lat="43.64052" lon="1.26037">
        <ele>171</ele>
        <time>2016-06-16T15:08:21Z</time>
      </trkpt>
      <trkpt lat="43.64053" lon="1.26036">
        <ele>171</ele>
        <time>2016-06-16T15:08:22Z</time>
      </trkpt>
      <trkpt lat="43.64055" lon="1.26036">
        <ele>170</ele>
        <time>2016-06-16T15:08:24Z</time>
      </trkpt>
      <trkpt lat="43.64056" lon="1.26036">
        <ele>170</ele>
        <time>2016-06-16T15:08:26Z</time>
      </trkpt>
      <trkpt lat="43.64058" lon="1.26036">
        <ele>170</ele>
        <time>2016-06-16T15:08:28Z</time>
      </trkpt>
      <trkpt lat="43.6406" lon="1.26037">
        <ele>169</ele>
        <time>2016-06-16T15:08:30Z</time>
      </trkpt>
      <trkpt lat="43.64062" lon="1.26036">
        <ele>169</ele>
        <time>2016-06-16T15:08:32Z</time>
      </trkpt>
      <trkpt lat="43.64064" lon="1.26034">
        <ele>169</ele>
        <time>2016-06-16T15:08:34Z</time>
      </trkpt>
      <trkpt lat="43.64065" lon="1.26033">
        <ele>169</ele>
        <time>2016-06-16T15:08:36Z</time>
      </trkpt>
      <trkpt lat="43.64067" lon="1.26032">
        <ele>169</ele>
        <time>2016-06-16T15:08:38Z</time>
      </trkpt>
      <trkpt lat="43.64069" lon="1.26031">
        <ele>169</ele>
        <time>2016-06-16T15:08:40Z</time>
      </trkpt>
      <trkpt lat="43.64071" lon="1.2603">
        <ele>169</ele>
        <time>2016-06-16T15:08:42Z</time>
      </trkpt>
      <trkpt lat="43.64072" lon="1.26028">
        <ele>169</ele>
        <time>2016-06-16T15:08:44Z</time>
      </trkpt>
      <trkpt lat="43.64074" lon="1.26027">
        <ele>169</ele>
        <time>2016-06-16T15:08:46Z</time>
      </trkpt>
      <trkpt lat="43.64076" lon="1.26025">
        <ele>169</ele>
        <time>2016-06-16T15:08:48Z</time>
      </trkpt>
      <trkpt lat="43.64078" lon="1.26023">
        <ele>169</ele>
        <time>2016-06-16T15:08:50Z</time>
      </trkpt>
      <trkpt lat="43.6408" lon="1.26021">
        <ele>169</ele>
        <time>2016-06-16T15:08:52Z</time>
      </trkpt>
      <trkpt lat="43.64082" lon="1.26019">
        <ele>169</ele>
        <time>2016-06-16T15:08:54Z</time>
      </trkpt>
      <trkpt lat="43.64085" lon="1.26017">
        <ele>169</ele>
        <time>2016-06-16T15:08:56Z</time>
      </trkpt>
      <trkpt lat="43.64088" lon="1.26016">
        <ele>169</ele>
        <time>2016-06-16T15:08:58Z</time>
      </trkpt>
      <trkpt lat="43.64093" lon="1.26011">
        <ele>168</ele>
        <time>2016-06-16T15:09:01Z</time>
      </trkpt>
      <trkpt lat="43.64093" lon="1.26009">
        <ele>168</ele>
        <time>2016-06-16T15:09:03Z</time>
      </trkpt>
      <trkpt lat="43.64094" lon="1.26007">
        <ele>168</ele>
        <time>2016-06-16T15:09:04Z</time>
      </trkpt>
      <trkpt lat="43.64096" lon="1.26006">
        <ele>168</ele>
        <time>2016-06-16T15:09:06Z</time>
      </trkpt>
      <trkpt lat="43.64097" lon="1.26004">
        <ele>168</ele>
        <time>2016-06-16T15:09:08Z</time>
      </trkpt>
      <trkpt lat="43.64098" lon="1.26003">
        <ele>168</ele>
        <time>2016-06-16T15:09:09Z</time>
      </trkpt>
      <trkpt lat="43.641" lon="1.26001">
        <ele>168</ele>
        <time>2016-06-16T15:09:10Z</time>
      </trkpt>
      <trkpt lat="43.64108" lon="1.25992">
        <ele>168</ele>
        <time>2016-06-16T15:09:15Z</time>
      </trkpt>
      <trkpt lat="43.64109" lon="1.25991">
        <ele>168</ele>
        <time>2016-06-16T15:09:16Z</time>
      </trkpt>
      <trkpt lat="43.64111" lon="1.25987">
        <ele>168</ele>
        <time>2016-06-16T15:09:18Z</time>
      </trkpt>
      <trkpt lat="43.64114" lon="1.25985">
        <ele>168</ele>
        <time>2016-06-16T15:09:20Z</time>
      </trkpt>
      <trkpt lat="43.64119" lon="1.25979">
        <ele>168</ele>
        <time>2016-06-16T15:09:24Z</time>
      </trkpt>
      <trkpt lat="43.64122" lon="1.25975">
        <ele>168</ele>
        <time>2016-06-16T15:09:26Z</time>
      </trkpt>
      <trkpt lat="43.6413" lon="1.25965">
        <ele>168</ele>
        <time>2016-06-16T15:09:31Z</time>
      </trkpt>
      <trkpt lat="43.64132" lon="1.25964">
        <ele>168</ele>
        <time>2016-06-16T15:09:33Z</time>
      </trkpt>
      <trkpt lat="43.64133" lon="1.25963">
        <ele>168</ele>
        <time>2016-06-16T15:09:34Z</time>
      </trkpt>
      <trkpt lat="43.64135" lon="1.2596">
        <ele>168</ele>
        <time>2016-06-16T15:09:36Z</time>
      </trkpt>
      <trkpt lat="43.64137" lon="1.25957">
        <ele>168</ele>
        <time>2016-06-16T15:09:38Z</time>
      </trkpt>
      <trkpt lat="43.64138" lon="1.25956">
        <ele>168</ele>
        <time>2016-06-16T15:09:39Z</time>
      </trkpt>
      <trkpt lat="43.64139" lon="1.25953">
        <ele>168</ele>
        <time>2016-06-16T15:09:41Z</time>
      </trkpt>
      <trkpt lat="43.6414" lon="1.25952">
        <ele>168</ele>
        <time>2016-06-16T15:09:42Z</time>
      </trkpt>
      <trkpt lat="43.64143" lon="1.25951">
        <ele>168</ele>
        <time>2016-06-16T15:09:44Z</time>
      </trkpt>
      <trkpt lat="43.64146" lon="1.25948">
        <ele>168</ele>
        <time>2016-06-16T15:09:46Z</time>
      </trkpt>
      <trkpt lat="43.64148" lon="1.25945">
        <ele>168</ele>
        <time>2016-06-16T15:09:48Z</time>
      </trkpt>
      <trkpt lat="43.64149" lon="1.25944">
        <ele>168</ele>
        <time>2016-06-16T15:09:49Z</time>
      </trkpt>
      <trkpt lat="43.64151" lon="1.25941">
        <ele>168</ele>
        <time>2016-06-16T15:09:51Z</time>
      </trkpt>
      <trkpt lat="43.64153" lon="1.2594">
        <ele>168</ele>
        <time>2016-06-16T15:09:52Z</time>
      </trkpt>
      <trkpt lat="43.64154" lon="1.25939">
        <ele>168</ele>
        <time>2016-06-16T15:09:54Z</time>
      </trkpt>
      <trkpt lat="43.64156" lon="1.25937">
        <ele>168</ele>
        <time>2016-06-16T15:09:56Z</time>
      </trkpt>
      <trkpt lat="43.64158" lon="1.25936">
        <ele>168</ele>
        <time>2016-06-16T15:09:57Z</time>
      </trkpt>
      <trkpt lat="43.6416" lon="1.25935">
        <ele>168</ele>
        <time>2016-06-16T15:09:59Z</time>
      </trkpt>
      <trkpt lat="43.64162" lon="1.2593">
        <ele>168</ele>
        <time>2016-06-16T15:10:01Z</time>
      </trkpt>
      <trkpt lat="43.64165" lon="1.25929">
        <ele>168</ele>
        <time>2016-06-16T15:10:03Z</time>
      </trkpt>
      <trkpt lat="43.64166" lon="1.25928">
        <ele>167</ele>
        <time>2016-06-16T15:10:04Z</time>
      </trkpt>
      <trkpt lat="43.64169" lon="1.25927">
        <ele>167</ele>
        <time>2016-06-16T15:10:07Z</time>
      </trkpt>
      <trkpt lat="43.64171" lon="1.25925">
        <ele>167</ele>
        <time>2016-06-16T15:10:09Z</time>
      </trkpt>
      <trkpt lat="43.64172" lon="1.25923">
        <ele>167</ele>
        <time>2016-06-16T15:10:11Z</time>
      </trkpt>
      <trkpt lat="43.64174" lon="1.25922">
        <ele>167</ele>
        <time>2016-06-16T15:10:13Z</time>
      </trkpt>
      <trkpt lat="43.64175" lon="1.2592">
        <ele>167</ele>
        <time>2016-06-16T15:10:15Z</time>
      </trkpt>
      <trkpt lat="43.64176" lon="1.25919">
        <ele>167</ele>
        <time>2016-06-16T15:10:17Z</time>
      </trkpt>
      <trkpt lat="43.64177" lon="1.25918">
        <ele>167</ele>
        <time>2016-06-16T15:10:18Z</time>
      </trkpt>
      <trkpt lat="43.64179" lon="1.25915">
        <ele>167</ele>
        <time>2016-06-16T15:10:20Z</time>
      </trkpt>
      <trkpt lat="43.64181" lon="1.25913">
        <ele>167</ele>
        <time>2016-06-16T15:10:22Z</time>
      </trkpt>
      <trkpt lat="43.64183" lon="1.2591">
        <ele>166</ele>
        <time>2016-06-16T15:10:24Z</time>
      </trkpt>
      <trkpt lat="43.6419" lon="1.25905">
        <ele>166</ele>
        <time>2016-06-16T15:10:28Z</time>
      </trkpt>
      <trkpt lat="43.64199" lon="1.25896">
        <ele>166</ele>
        <time>2016-06-16T15:10:34Z</time>
      </trkpt>
      <trkpt lat="43.64202" lon="1.25893">
        <ele>166</ele>
        <time>2016-06-16T15:10:36Z</time>
      </trkpt>
      <trkpt lat="43.64204" lon="1.25891">
        <ele>165</ele>
        <time>2016-06-16T15:10:38Z</time>
      </trkpt>
      <trkpt lat="43.64207" lon="1.25887">
        <ele>165</ele>
        <time>2016-06-16T15:10:40Z</time>
      </trkpt>
      <trkpt lat="43.64209" lon="1.25885">
        <ele>165</ele>
        <time>2016-06-16T15:10:42Z</time>
      </trkpt>
      <trkpt lat="43.64212" lon="1.25882">
        <ele>165</ele>
        <time>2016-06-16T15:10:44Z</time>
      </trkpt>
      <trkpt lat="43.64214" lon="1.25879">
        <ele>165</ele>
        <time>2016-06-16T15:10:46Z</time>
      </trkpt>
      <trkpt lat="43.64217" lon="1.25877">
        <ele>165</ele>
        <time>2016-06-16T15:10:48Z</time>
      </trkpt>
      <trkpt lat="43.64219" lon="1.25876">
        <ele>164</ele>
        <time>2016-06-16T15:10:50Z</time>
      </trkpt>
      <trkpt lat="43.64222" lon="1.25874">
        <ele>164</ele>
        <time>2016-06-16T15:10:52Z</time>
      </trkpt>
      <trkpt lat="43.64224" lon="1.25872">
        <ele>164</ele>
        <time>2016-06-16T15:10:54Z</time>
      </trkpt>
      <trkpt lat="43.64225" lon="1.2587">
        <ele>164</ele>
        <time>2016-06-16T15:10:56Z</time>
      </trkpt>
      <trkpt lat="43.64227" lon="1.25869">
        <ele>164</ele>
        <time>2016-06-16T15:10:58Z</time>
      </trkpt>
      <trkpt lat="43.64229" lon="1.25867">
        <ele>164</ele>
        <time>2016-06-16T15:11:00Z</time>
      </trkpt>
      <trkpt lat="43.6423" lon="1.25866">
        <ele>163</ele>
        <time>2016-06-16T15:11:01Z</time>
      </trkpt>
      <trkpt lat="43.64233" lon="1.25864">
        <ele>163</ele>
        <time>2016-06-16T15:11:03Z</time>
      </trkpt>
      <trkpt lat="43.64234" lon="1.25863">
        <ele>163</ele>
        <time>2016-06-16T15:11:04Z</time>
      </trkpt>
      <trkpt lat="43.64237" lon="1.25859">
        <ele>163</ele>
        <time>2016-06-16T15:11:06Z</time>
      </trkpt>
      <trkpt lat="43.64245" lon="1.25851">
        <ele>163</ele>
        <time>2016-06-16T15:11:12Z</time>
      </trkpt>
      <trkpt lat="43.64246" lon="1.25849">
        <ele>163</ele>
        <time>2016-06-16T15:11:13Z</time>
      </trkpt>
      <trkpt lat="43.64249" lon="1.25846">
        <ele>162</ele>
        <time>2016-06-16T15:11:15Z</time>
      </trkpt>
      <trkpt lat="43.64251" lon="1.25843">
        <ele>162</ele>
        <time>2016-06-16T15:11:17Z</time>
      </trkpt>
      <trkpt lat="43.64253" lon="1.25841">
        <ele>162</ele>
        <time>2016-06-16T15:11:19Z</time>
      </trkpt>
      <trkpt lat="43.64254" lon="1.2584">
        <ele>162</ele>
        <time>2016-06-16T15:11:20Z</time>
      </trkpt>
      <trkpt lat="43.64256" lon="1.25838">
        <ele>162</ele>
        <time>2016-06-16T15:11:22Z</time>
      </trkpt>
      <trkpt lat="43.64258" lon="1.25835">
        <ele>162</ele>
        <time>2016-06-16T15:11:24Z</time>
      </trkpt>
      <trkpt lat="43.64259" lon="1.25834">
        <ele>162</ele>
        <time>2016-06-16T15:11:25Z</time>
      </trkpt>
      <trkpt lat="43.6426" lon="1.25833">
        <ele>162</ele>
        <time>2016-06-16T15:11:26Z</time>
      </trkpt>
      <trkpt lat="43.64263" lon="1.25831">
        <ele>162</ele>
        <time>2016-06-16T15:11:28Z</time>
      </trkpt>
      <trkpt lat="43.64266" lon="1.25829">
        <ele>162</ele>
        <time>2016-06-16T15:11:30Z</time>
      </trkpt>
      <trkpt lat="43.64268" lon="1.25827">
        <ele>161</ele>
        <time>2016-06-16T15:11:32Z</time>
      </trkpt>
      <trkpt lat="43.6427" lon="1.25824">
        <ele>161</ele>
        <time>2016-06-16T15:11:34Z</time>
      </trkpt>
      <trkpt lat="43.64272" lon="1.25822">
        <ele>161</ele>
        <time>2016-06-16T15:11:36Z</time>
      </trkpt>
      <trkpt lat="43.64275" lon="1.2582">
        <ele>161</ele>
        <time>2016-06-16T15:11:38Z</time>
      </trkpt>
      <trkpt lat="43.64277" lon="1.25819">
        <ele>161</ele>
        <time>2016-06-16T15:11:40Z</time>
      </trkpt>
      <trkpt lat="43.64283" lon="1.25811">
        <ele>161</ele>
        <time>2016-06-16T15:11:44Z</time>
      </trkpt>
      <trkpt lat="43.64286" lon="1.25809">
        <ele>161</ele>
        <time>2016-06-16T15:11:46Z</time>
      </trkpt>
      <trkpt lat="43.64288" lon="1.25806">
        <ele>161</ele>
        <time>2016-06-16T15:11:48Z</time>
      </trkpt>
      <trkpt lat="43.6429" lon="1.25804">
        <ele>161</ele>
        <time>2016-06-16T15:11:50Z</time>
      </trkpt>
      <trkpt lat="43.64291" lon="1.25803">
        <ele>161</ele>
        <time>2016-06-16T15:11:51Z</time>
      </trkpt>
      <trkpt lat="43.64293" lon="1.25802">
        <ele>161</ele>
        <time>2016-06-16T15:11:53Z</time>
      </trkpt>
      <trkpt lat="43.64295" lon="1.258">
        <ele>161</ele>
        <time>2016-06-16T15:11:55Z</time>
      </trkpt>
      <trkpt lat="43.64297" lon="1.25798">
        <ele>161</ele>
        <time>2016-06-16T15:11:57Z</time>
      </trkpt>
      <trkpt lat="43.643" lon="1.25794">
        <ele>161</ele>
        <time>2016-06-16T15:11:59Z</time>
      </trkpt>
      <trkpt lat="43.64302" lon="1.25791">
        <ele>161</ele>
        <time>2016-06-16T15:12:01Z</time>
      </trkpt>
      <trkpt lat="43.64304" lon="1.25789">
        <ele>161</ele>
        <time>2016-06-16T15:12:03Z</time>
      </trkpt>
      <trkpt lat="43.64305" lon="1.25788">
        <ele>161</ele>
        <time>2016-06-16T15:12:04Z</time>
      </trkpt>
      <trkpt lat="43.64306" lon="1.25786">
        <ele>161</ele>
        <time>2016-06-16T15:12:06Z</time>
      </trkpt>
      <trkpt lat="43.6431" lon="1.25782">
        <ele>161</ele>
        <time>2016-06-16T15:12:09Z</time>
      </trkpt>
      <trkpt lat="43.64311" lon="1.25781">
        <ele>161</ele>
        <time>2016-06-16T15:12:10Z</time>
      </trkpt>
      <trkpt lat="43.64314" lon="1.25779">
        <ele>161</ele>
        <time>2016-06-16T15:12:12Z</time>
      </trkpt>
      <trkpt lat="43.6432" lon="1.25771">
        <ele>161</ele>
        <time>2016-06-16T15:12:15Z</time>
      </trkpt>
      <trkpt lat="43.6432" lon="1.2577">
        <ele>161</ele>
        <time>2016-06-16T15:12:16Z</time>
      </trkpt>
      <trkpt lat="43.64323" lon="1.25766">
        <ele>161</ele>
        <time>2016-06-16T15:12:18Z</time>
      </trkpt>
      <trkpt lat="43.64326" lon="1.25763">
        <ele>161</ele>
        <time>2016-06-16T15:12:20Z</time>
      </trkpt>
      <trkpt lat="43.64329" lon="1.25762">
        <ele>161</ele>
        <time>2016-06-16T15:12:22Z</time>
      </trkpt>
      <trkpt lat="43.64332" lon="1.25757">
        <ele>160</ele>
        <time>2016-06-16T15:12:24Z</time>
      </trkpt>
      <trkpt lat="43.64334" lon="1.25755">
        <ele>160</ele>
        <time>2016-06-16T15:12:25Z</time>
      </trkpt>
      <trkpt lat="43.64335" lon="1.25754">
        <ele>160</ele>
        <time>2016-06-16T15:12:26Z</time>
      </trkpt>
      <trkpt lat="43.64338" lon="1.25753">
        <ele>160</ele>
        <time>2016-06-16T15:12:28Z</time>
      </trkpt>
      <trkpt lat="43.6434" lon="1.25751">
        <ele>160</ele>
        <time>2016-06-16T15:12:30Z</time>
      </trkpt>
      <trkpt lat="43.64341" lon="1.25749">
        <ele>160</ele>
        <time>2016-06-16T15:12:31Z</time>
      </trkpt>
      <trkpt lat="43.64344" lon="1.25747">
        <ele>160</ele>
        <time>2016-06-16T15:12:33Z</time>
      </trkpt>
      <trkpt lat="43.64347" lon="1.25744">
        <ele>160</ele>
        <time>2016-06-16T15:12:35Z</time>
      </trkpt>
      <trkpt lat="43.64348" lon="1.25743">
        <ele>160</ele>
        <time>2016-06-16T15:12:36Z</time>
      </trkpt>
      <trkpt lat="43.64349" lon="1.25741">
        <ele>160</ele>
        <time>2016-06-16T15:12:37Z</time>
      </trkpt>
      <trkpt lat="43.64352" lon="1.25738">
        <ele>160</ele>
        <time>2016-06-16T15:12:39Z</time>
      </trkpt>
      <trkpt lat="43.64354" lon="1.25735">
        <ele>160</ele>
        <time>2016-06-16T15:12:41Z</time>
      </trkpt>
      <trkpt lat="43.64357" lon="1.25733">
        <ele>160</ele>
        <time>2016-06-16T15:12:43Z</time>
      </trkpt>
      <trkpt lat="43.64358" lon="1.25732">
        <ele>160</ele>
        <time>2016-06-16T15:12:44Z</time>
      </trkpt>
      <trkpt lat="43.64361" lon="1.2573">
        <ele>160</ele>
        <time>2016-06-16T15:12:46Z</time>
      </trkpt>
      <trkpt lat="43.64364" lon="1.25727">
        <ele>160</ele>
        <time>2016-06-16T15:12:48Z</time>
      </trkpt>
      <trkpt lat="43.64365" lon="1.25726">
        <ele>160</ele>
        <time>2016-06-16T15:12:49Z</time>
      </trkpt>
      <trkpt lat="43.64368" lon="1.25723">
        <ele>160</ele>
        <time>2016-06-16T15:12:51Z</time>
      </trkpt>
      <trkpt lat="43.6437" lon="1.25721">
        <ele>160</ele>
        <time>2016-06-16T15:12:53Z</time>
      </trkpt>
      <trkpt lat="43.64374" lon="1.25718">
        <ele>160</ele>
        <time>2016-06-16T15:12:55Z</time>
      </trkpt>
      <trkpt lat="43.64375" lon="1.25716">
        <ele>160</ele>
        <time>2016-06-16T15:12:56Z</time>
      </trkpt>
      <trkpt lat="43.64376" lon="1.25715">
        <ele>160</ele>
        <time>2016-06-16T15:12:57Z</time>
      </trkpt>
      <trkpt lat="43.64378" lon="1.25712">
        <ele>160</ele>
        <time>2016-06-16T15:12:59Z</time>
      </trkpt>
      <trkpt lat="43.64379" lon="1.2571">
        <ele>160</ele>
        <time>2016-06-16T15:13:00Z</time>
      </trkpt>
      <trkpt lat="43.64382" lon="1.25708">
        <ele>160</ele>
        <time>2016-06-16T15:13:02Z</time>
      </trkpt>
      <trkpt lat="43.64383" lon="1.25707">
        <ele>160</ele>
        <time>2016-06-16T15:13:04Z</time>
      </trkpt>
      <trkpt lat="43.64384" lon="1.25707">
        <ele>159</ele>
        <time>2016-06-16T15:13:05Z</time>
      </trkpt>
      <trkpt lat="43.6439" lon="1.25704">
        <ele>159</ele>
        <time>2016-06-16T15:13:08Z</time>
      </trkpt>
      <trkpt lat="43.64394" lon="1.257">
        <ele>158</ele>
        <time>2016-06-16T15:13:10Z</time>
      </trkpt>
      <trkpt lat="43.64397" lon="1.25697">
        <ele>157</ele>
        <time>2016-06-16T15:13:12Z</time>
      </trkpt>
      <trkpt lat="43.64401" lon="1.25694">
        <ele>156</ele>
        <time>2016-06-16T15:13:14Z</time>
      </trkpt>
      <trkpt lat="43.64407" lon="1.25691">
        <ele>154</ele>
        <time>2016-06-16T15:13:16Z</time>
      </trkpt>
      <trkpt lat="43.64411" lon="1.25687">
        <ele>153</ele>
        <time>2016-06-16T15:13:18Z</time>
      </trkpt>
      <trkpt lat="43.6442" lon="1.25677">
        <ele>151</ele>
        <time>2016-06-16T15:13:23Z</time>
      </trkpt>
      <trkpt lat="43.64421" lon="1.25676">
        <ele>150</ele>
        <time>2016-06-16T15:13:24Z</time>
      </trkpt>
      <trkpt lat="43.64422" lon="1.25675">
        <ele>150</ele>
        <time>2016-06-16T15:13:25Z</time>
      </trkpt>
      <trkpt lat="43.64422" lon="1.25674">
        <ele>150</ele>
        <time>2016-06-16T15:13:26Z</time>
      </trkpt>
      <trkpt lat="43.64424" lon="1.2567">
        <ele>149</ele>
        <time>2016-06-16T15:13:28Z</time>
      </trkpt>
      <trkpt lat="43.64426" lon="1.25667">
        <ele>149</ele>
        <time>2016-06-16T15:13:30Z</time>
      </trkpt>
      <trkpt lat="43.64429" lon="1.25663">
        <ele>148</ele>
        <time>2016-06-16T15:13:32Z</time>
      </trkpt>
      <trkpt lat="43.64431" lon="1.25659">
        <ele>148</ele>
        <time>2016-06-16T15:13:34Z</time>
      </trkpt>
      <trkpt lat="43.64434" lon="1.25657">
        <ele>147</ele>
        <time>2016-06-16T15:13:36Z</time>
      </trkpt>
      <trkpt lat="43.64437" lon="1.25654">
        <ele>147</ele>
        <time>2016-06-16T15:13:38Z</time>
      </trkpt>
      <trkpt lat="43.64439" lon="1.25652">
        <ele>146</ele>
        <time>2016-06-16T15:13:40Z</time>
      </trkpt>
      <trkpt lat="43.64441" lon="1.25649">
        <ele>145</ele>
        <time>2016-06-16T15:13:42Z</time>
      </trkpt>
      <trkpt lat="43.64442" lon="1.25646">
        <ele>145</ele>
        <time>2016-06-16T15:13:44Z</time>
      </trkpt>
      <trkpt lat="43.64444" lon="1.25642">
        <ele>145</ele>
        <time>2016-06-16T15:13:46Z</time>
      </trkpt>
      <trkpt lat="43.64446" lon="1.25639">
        <ele>145</ele>
        <time>2016-06-16T15:13:48Z</time>
      </trkpt>
      <trkpt lat="43.6445" lon="1.25635">
        <ele>144</ele>
        <time>2016-06-16T15:13:51Z</time>
      </trkpt>
      <trkpt lat="43.64451" lon="1.25634">
        <ele>144</ele>
        <time>2016-06-16T15:13:52Z</time>
      </trkpt>
      <trkpt lat="43.64452" lon="1.25631">
        <ele>144</ele>
        <time>2016-06-16T15:13:54Z</time>
      </trkpt>
      <trkpt lat="43.64454" lon="1.2563">
        <ele>144</ele>
        <time>2016-06-16T15:13:55Z</time>
      </trkpt>
      <trkpt lat="43.64455" lon="1.25629">
        <ele>144</ele>
        <time>2016-06-16T15:13:57Z</time>
      </trkpt>
      <trkpt lat="43.64456" lon="1.25628">
        <ele>144</ele>
        <time>2016-06-16T15:13:58Z</time>
      </trkpt>
      <trkpt lat="43.64458" lon="1.25625">
        <ele>144</ele>
        <time>2016-06-16T15:14:00Z</time>
      </trkpt>
      <trkpt lat="43.64461" lon="1.25622">
        <ele>144</ele>
        <time>2016-06-16T15:14:02Z</time>
      </trkpt>
      <trkpt lat="43.64463" lon="1.25619">
        <ele>144</ele>
        <time>2016-06-16T15:14:04Z</time>
      </trkpt>
      <trkpt lat="43.64465" lon="1.25617">
        <ele>144</ele>
        <time>2016-06-16T15:14:06Z</time>
      </trkpt>
      <trkpt lat="43.64467" lon="1.25614">
        <ele>144</ele>
        <time>2016-06-16T15:14:08Z</time>
      </trkpt>
      <trkpt lat="43.6447" lon="1.25611">
        <ele>144</ele>
        <time>2016-06-16T15:14:10Z</time>
      </trkpt>
      <trkpt lat="43.64472" lon="1.25608">
        <ele>145</ele>
        <time>2016-06-16T15:14:12Z</time>
      </trkpt>
      <trkpt lat="43.64474" lon="1.25606">
        <ele>145</ele>
        <time>2016-06-16T15:14:14Z</time>
      </trkpt>
      <trkpt lat="43.64476" lon="1.25604">
        <ele>145</ele>
        <time>2016-06-16T15:14:16Z</time>
      </trkpt>
      <trkpt lat="43.64478" lon="1.25601">
        <ele>145</ele>
        <time>2016-06-16T15:14:18Z</time>
      </trkpt>
      <trkpt lat="43.6448" lon="1.25599">
        <ele>145</ele>
        <time>2016-06-16T15:14:20Z</time>
      </trkpt>
      <trkpt lat="43.64482" lon="1.25597">
        <ele>145</ele>
        <time>2016-06-16T15:14:22Z</time>
      </trkpt>
      <trkpt lat="43.64483" lon="1.25595">
        <ele>145</ele>
        <time>2016-06-16T15:14:23Z</time>
      </trkpt>
      <trkpt lat="43.64484" lon="1.25594">
        <ele>145</ele>
        <time>2016-06-16T15:14:24Z</time>
      </trkpt>
      <trkpt lat="43.64485" lon="1.25592">
        <ele>145</ele>
        <time>2016-06-16T15:14:25Z</time>
      </trkpt>
      <trkpt lat="43.64486" lon="1.25591">
        <ele>145</ele>
        <time>2016-06-16T15:14:26Z</time>
      </trkpt>
      <trkpt lat="43.64489" lon="1.25589">
        <ele>145</ele>
        <time>2016-06-16T15:14:28Z</time>
      </trkpt>
      <trkpt lat="43.64491" lon="1.25587">
        <ele>145</ele>
        <time>2016-06-16T15:14:30Z</time>
      </trkpt>
      <trkpt lat="43.64493" lon="1.25585">
        <ele>145</ele>
        <time>2016-06-16T15:14:32Z</time>
      </trkpt>
      <trkpt lat="43.64496" lon="1.25583">
        <ele>145</ele>
        <time>2016-06-16T15:14:34Z</time>
      </trkpt>
      <trkpt lat="43.64497" lon="1.25582">
        <ele>146</ele>
        <time>2016-06-16T15:14:36Z</time>
      </trkpt>
      <trkpt lat="43.64498" lon="1.2558">
        <ele>146</ele>
        <time>2016-06-16T15:14:37Z</time>
      </trkpt>
      <trkpt lat="43.645" lon="1.25579">
        <ele>146</ele>
        <time>2016-06-16T15:14:39Z</time>
      </trkpt>
      <trkpt lat="43.64501" lon="1.25578">
        <ele>146</ele>
        <time>2016-06-16T15:14:40Z</time>
      </trkpt>
      <trkpt lat="43.64503" lon="1.25575">
        <ele>146</ele>
        <time>2016-06-16T15:14:42Z</time>
      </trkpt>
      <trkpt lat="43.64505" lon="1.25573">
        <ele>146</ele>
        <time>2016-06-16T15:14:44Z</time>
      </trkpt>
      <trkpt lat="43.64508" lon="1.25569">
        <ele>147</ele>
        <time>2016-06-16T15:14:46Z</time>
      </trkpt>
      <trkpt lat="43.6451" lon="1.25566">
        <ele>147</ele>
        <time>2016-06-16T15:14:48Z</time>
      </trkpt>
      <trkpt lat="43.64513" lon="1.25563">
        <ele>147</ele>
        <time>2016-06-16T15:14:50Z</time>
      </trkpt>
      <trkpt lat="43.64518" lon="1.25558">
        <ele>147</ele>
        <time>2016-06-16T15:14:52Z</time>
      </trkpt>
      <trkpt lat="43.64521" lon="1.25556">
        <ele>148</ele>
        <time>2016-06-16T15:14:54Z</time>
      </trkpt>
      <trkpt lat="43.64523" lon="1.25555">
        <ele>148</ele>
        <time>2016-06-16T15:14:56Z</time>
      </trkpt>
      <trkpt lat="43.64525" lon="1.25553">
        <ele>148</ele>
        <time>2016-06-16T15:14:58Z</time>
      </trkpt>
      <trkpt lat="43.64526" lon="1.25551">
        <ele>148</ele>
        <time>2016-06-16T15:15:00Z</time>
      </trkpt>
      <trkpt lat="43.64529" lon="1.25548">
        <ele>148</ele>
        <time>2016-06-16T15:15:02Z</time>
      </trkpt>
      <trkpt lat="43.64531" lon="1.25546">
        <ele>149</ele>
        <time>2016-06-16T15:15:04Z</time>
      </trkpt>
      <trkpt lat="43.64534" lon="1.25545">
        <ele>149</ele>
        <time>2016-06-16T15:15:06Z</time>
      </trkpt>
      <trkpt lat="43.64536" lon="1.25543">
        <ele>149</ele>
        <time>2016-06-16T15:15:08Z</time>
      </trkpt>
      <trkpt lat="43.64538" lon="1.25539">
        <ele>149</ele>
        <time>2016-06-16T15:15:10Z</time>
      </trkpt>
      <trkpt lat="43.6454" lon="1.25537">
        <ele>150</ele>
        <time>2016-06-16T15:15:12Z</time>
      </trkpt>
      <trkpt lat="43.64542" lon="1.25535">
        <ele>150</ele>
        <time>2016-06-16T15:15:14Z</time>
      </trkpt>
      <trkpt lat="43.64544" lon="1.25533">
        <ele>150</ele>
        <time>2016-06-16T15:15:16Z</time>
      </trkpt>
      <trkpt lat="43.64547" lon="1.25529">
        <ele>150</ele>
        <time>2016-06-16T15:15:18Z</time>
      </trkpt>
      <trkpt lat="43.64549" lon="1.25527">
        <ele>150</ele>
        <time>2016-06-16T15:15:20Z</time>
      </trkpt>
      <trkpt lat="43.64552" lon="1.25525">
        <ele>150</ele>
        <time>2016-06-16T15:15:22Z</time>
      </trkpt>
      <trkpt lat="43.64555" lon="1.25522">
        <ele>151</ele>
        <time>2016-06-16T15:15:24Z</time>
      </trkpt>
      <trkpt lat="43.64558" lon="1.25519">
        <ele>151</ele>
        <time>2016-06-16T15:15:26Z</time>
      </trkpt>
      <trkpt lat="43.6456" lon="1.25517">
        <ele>151</ele>
        <time>2016-06-16T15:15:28Z</time>
      </trkpt>
      <trkpt lat="43.64561" lon="1.25515">
        <ele>151</ele>
        <time>2016-06-16T15:15:30Z</time>
      </trkpt>
      <trkpt lat="43.64562" lon="1.25514">
        <ele>151</ele>
        <time>2016-06-16T15:15:31Z</time>
      </trkpt>
      <trkpt lat="43.64566" lon="1.25511">
        <ele>151</ele>
        <time>2016-06-16T15:15:33Z</time>
      </trkpt>
      <trkpt lat="43.64566" lon="1.2551">
        <ele>151</ele>
        <time>2016-06-16T15:15:34Z</time>
      </trkpt>
      <trkpt lat="43.64569" lon="1.25507">
        <ele>151</ele>
        <time>2016-06-16T15:15:36Z</time>
      </trkpt>
      <trkpt lat="43.64571" lon="1.25504">
        <ele>152</ele>
        <time>2016-06-16T15:15:38Z</time>
      </trkpt>
      <trkpt lat="43.64572" lon="1.25503">
        <ele>152</ele>
        <time>2016-06-16T15:15:39Z</time>
      </trkpt>
      <trkpt lat="43.64574" lon="1.25501">
        <ele>152</ele>
        <time>2016-06-16T15:15:41Z</time>
      </trkpt>
      <trkpt lat="43.64576" lon="1.25498">
        <ele>152</ele>
        <time>2016-06-16T15:15:43Z</time>
      </trkpt>
      <trkpt lat="43.64578" lon="1.25497">
        <ele>152</ele>
        <time>2016-06-16T15:15:44Z</time>
      </trkpt>
      <trkpt lat="43.6458" lon="1.25495">
        <ele>152</ele>
        <time>2016-06-16T15:15:46Z</time>
      </trkpt>
      <trkpt lat="43.64582" lon="1.25492">
        <ele>152</ele>
        <time>2016-06-16T15:15:48Z</time>
      </trkpt>
      <trkpt lat="43.64585" lon="1.25489">
        <ele>152</ele>
        <time>2016-06-16T15:15:50Z</time>
      </trkpt>
      <trkpt lat="43.64587" lon="1.25487">
        <ele>152</ele>
        <time>2016-06-16T15:15:52Z</time>
      </trkpt>
      <trkpt lat="43.64591" lon="1.25485">
        <ele>153</ele>
        <time>2016-06-16T15:15:54Z</time>
      </trkpt>
      <trkpt lat="43.64594" lon="1.25483">
        <ele>153</ele>
        <time>2016-06-16T15:15:56Z</time>
      </trkpt>
      <trkpt lat="43.64596" lon="1.25483">
        <ele>153</ele>
        <time>2016-06-16T15:15:58Z</time>
      </trkpt>
      <trkpt lat="43.64599" lon="1.25483">
        <ele>153</ele>
        <time>2016-06-16T15:16:00Z</time>
      </trkpt>
      <trkpt lat="43.646" lon="1.25482">
        <ele>153</ele>
        <time>2016-06-16T15:16:01Z</time>
      </trkpt>
      <trkpt lat="43.64605" lon="1.25483">
        <ele>153</ele>
        <time>2016-06-16T15:16:05Z</time>
      </trkpt>
      <trkpt lat="43.64607" lon="1.25483">
        <ele>153</ele>
        <time>2016-06-16T15:16:07Z</time>
      </trkpt>
      <trkpt lat="43.6461" lon="1.25481">
        <ele>153</ele>
        <time>2016-06-16T15:16:09Z</time>
      </trkpt>
      <trkpt lat="43.64611" lon="1.2548">
        <ele>153</ele>
        <time>2016-06-16T15:16:10Z</time>
      </trkpt>
      <trkpt lat="43.64614" lon="1.25478">
        <ele>153</ele>
        <time>2016-06-16T15:16:12Z</time>
      </trkpt>
      <trkpt lat="43.64622" lon="1.25467">
        <ele>151</ele>
        <time>2016-06-16T15:16:17Z</time>
      </trkpt>
      <trkpt lat="43.64624" lon="1.25462">
        <ele>150</ele>
        <time>2016-06-16T15:16:19Z</time>
      </trkpt>
      <trkpt lat="43.64626" lon="1.25458">
        <ele>150</ele>
        <time>2016-06-16T15:16:21Z</time>
      </trkpt>
      <trkpt lat="43.64626" lon="1.25456">
        <ele>149</ele>
        <time>2016-06-16T15:16:22Z</time>
      </trkpt>
      <trkpt lat="43.64633" lon="1.25446">
        <ele>148</ele>
        <time>2016-06-16T15:16:26Z</time>
      </trkpt>
      <trkpt lat="43.64636" lon="1.25442">
        <ele>148</ele>
        <time>2016-06-16T15:16:28Z</time>
      </trkpt>
      <trkpt lat="43.64637" lon="1.25437">
        <ele>147</ele>
        <time>2016-06-16T15:16:30Z</time>
      </trkpt>
      <trkpt lat="43.64638" lon="1.25432">
        <ele>147</ele>
        <time>2016-06-16T15:16:32Z</time>
      </trkpt>
      <trkpt lat="43.64638" lon="1.25428">
        <ele>147</ele>
        <time>2016-06-16T15:16:34Z</time>
      </trkpt>
      <trkpt lat="43.64638" lon="1.25423">
        <ele>146</ele>
        <time>2016-06-16T15:16:36Z</time>
      </trkpt>
      <trkpt lat="43.64639" lon="1.25419">
        <ele>146</ele>
        <time>2016-06-16T15:16:38Z</time>
      </trkpt>
      <trkpt lat="43.64639" lon="1.25414">
        <ele>145</ele>
        <time>2016-06-16T15:16:40Z</time>
      </trkpt>
      <trkpt lat="43.6464" lon="1.2541">
        <ele>145</ele>
        <time>2016-06-16T15:16:42Z</time>
      </trkpt>
      <trkpt lat="43.6464" lon="1.25408">
        <ele>145</ele>
        <time>2016-06-16T15:16:43Z</time>
      </trkpt>
      <trkpt lat="43.6464" lon="1.25407">
        <ele>144</ele>
        <time>2016-06-16T15:16:44Z</time>
      </trkpt>
      <trkpt lat="43.6464" lon="1.25403">
        <ele>144</ele>
        <time>2016-06-16T15:16:46Z</time>
      </trkpt>
      <trkpt lat="43.64641" lon="1.25399">
        <ele>144</ele>
        <time>2016-06-16T15:16:48Z</time>
      </trkpt>
      <trkpt lat="43.64642" lon="1.25395">
        <ele>144</ele>
        <time>2016-06-16T15:16:50Z</time>
      </trkpt>
      <trkpt lat="43.64642" lon="1.25391">
        <ele>143</ele>
        <time>2016-06-16T15:16:52Z</time>
      </trkpt>
      <trkpt lat="43.64642" lon="1.25387">
        <ele>143</ele>
        <time>2016-06-16T15:16:54Z</time>
      </trkpt>
      <trkpt lat="43.64644" lon="1.25382">
        <ele>143</ele>
        <time>2016-06-16T15:16:56Z</time>
      </trkpt>
      <trkpt lat="43.64645" lon="1.25379">
        <ele>142</ele>
        <time>2016-06-16T15:16:57Z</time>
      </trkpt>
      <trkpt lat="43.64645" lon="1.25377">
        <ele>142</ele>
        <time>2016-06-16T15:16:58Z</time>
      </trkpt>
      <trkpt lat="43.64644" lon="1.25374">
        <ele>142</ele>
        <time>2016-06-16T15:17:00Z</time>
      </trkpt>
      <trkpt lat="43.64644" lon="1.25372">
        <ele>142</ele>
        <time>2016-06-16T15:17:01Z</time>
      </trkpt>
      <trkpt lat="43.64644" lon="1.25368">
        <ele>142</ele>
        <time>2016-06-16T15:17:03Z</time>
      </trkpt>
      <trkpt lat="43.64644" lon="1.25366">
        <ele>141</ele>
        <time>2016-06-16T15:17:04Z</time>
      </trkpt>
      <trkpt lat="43.64644" lon="1.25364">
        <ele>141</ele>
        <time>2016-06-16T15:17:05Z</time>
      </trkpt>
      <trkpt lat="43.64644" lon="1.25361">
        <ele>141</ele>
        <time>2016-06-16T15:17:07Z</time>
      </trkpt>
      <trkpt lat="43.64645" lon="1.25357">
        <ele>141</ele>
        <time>2016-06-16T15:17:09Z</time>
      </trkpt>
      <trkpt lat="43.64645" lon="1.25352">
        <ele>141</ele>
        <time>2016-06-16T15:17:11Z</time>
      </trkpt>
      <trkpt lat="43.64645" lon="1.2535">
        <ele>140</ele>
        <time>2016-06-16T15:17:12Z</time>
      </trkpt>
      <trkpt lat="43.64646" lon="1.25346">
        <ele>140</ele>
        <time>2016-06-16T15:17:14Z</time>
      </trkpt>
      <trkpt lat="43.64646" lon="1.25342">
        <ele>140</ele>
        <time>2016-06-16T15:17:16Z</time>
      </trkpt>
      <trkpt lat="43.64647" lon="1.25339">
        <ele>140</ele>
        <time>2016-06-16T15:17:17Z</time>
      </trkpt>
      <trkpt lat="43.64648" lon="1.25335">
        <ele>139</ele>
        <time>2016-06-16T15:17:19Z</time>
      </trkpt>
      <trkpt lat="43.64648" lon="1.25333">
        <ele>139</ele>
        <time>2016-06-16T15:17:20Z</time>
      </trkpt>
      <trkpt lat="43.64648" lon="1.25327">
        <ele>139</ele>
        <time>2016-06-16T15:17:22Z</time>
      </trkpt>
      <trkpt lat="43.64648" lon="1.25322">
        <ele>139</ele>
        <time>2016-06-16T15:17:24Z</time>
      </trkpt>
      <trkpt lat="43.64648" lon="1.25317">
        <ele>139</ele>
        <time>2016-06-16T15:17:26Z</time>
      </trkpt>
      <trkpt lat="43.64648" lon="1.25313">
        <ele>139</ele>
        <time>2016-06-16T15:17:28Z</time>
      </trkpt>
      <trkpt lat="43.64648" lon="1.25311">
        <ele>138</ele>
        <time>2016-06-16T15:17:29Z</time>
      </trkpt>
      <trkpt lat="43.64647" lon="1.25308">
        <ele>138</ele>
        <time>2016-06-16T15:17:30Z</time>
      </trkpt>
      <trkpt lat="43.64647" lon="1.25305">
        <ele>138</ele>
        <time>2016-06-16T15:17:31Z</time>
      </trkpt>
      <trkpt lat="43.64646" lon="1.25301">
        <ele>138</ele>
        <time>2016-06-16T15:17:33Z</time>
      </trkpt>
      <trkpt lat="43.64646" lon="1.25297">
        <ele>138</ele>
        <time>2016-06-16T15:17:35Z</time>
      </trkpt>
      <trkpt lat="43.64647" lon="1.25294">
        <ele>137</ele>
        <time>2016-06-16T15:17:36Z</time>
      </trkpt>
      <trkpt lat="43.64647" lon="1.25291">
        <ele>137</ele>
        <time>2016-06-16T15:17:38Z</time>
      </trkpt>
      <trkpt lat="43.64646" lon="1.25288">
        <ele>137</ele>
        <time>2016-06-16T15:17:40Z</time>
      </trkpt>
      <trkpt lat="43.64646" lon="1.25287">
        <ele>136</ele>
        <time>2016-06-16T15:17:42Z</time>
      </trkpt>
      <trkpt lat="43.64646" lon="1.25287">
        <ele>136</ele>
        <time>2016-06-16T15:17:44Z</time>
      </trkpt>
      <trkpt lat="43.64644" lon="1.25279">
        <ele>135</ele>
        <time>2016-06-16T15:18:00Z</time>
      </trkpt>
      <trkpt lat="43.64645" lon="1.25276">
        <ele>135</ele>
        <time>2016-06-16T15:18:02Z</time>
      </trkpt>
      <trkpt lat="43.64645" lon="1.25274">
        <ele>134</ele>
        <time>2016-06-16T15:18:03Z</time>
      </trkpt>
      <trkpt lat="43.64646" lon="1.25272">
        <ele>134</ele>
        <time>2016-06-16T15:18:04Z</time>
      </trkpt>
      <trkpt lat="43.64647" lon="1.25268">
        <ele>133</ele>
        <time>2016-06-16T15:18:06Z</time>
      </trkpt>
      <trkpt lat="43.64648" lon="1.25264">
        <ele>133</ele>
        <time>2016-06-16T15:18:08Z</time>
      </trkpt>
      <trkpt lat="43.64648" lon="1.25261">
        <ele>133</ele>
        <time>2016-06-16T15:18:10Z</time>
      </trkpt>
      <trkpt lat="43.64649" lon="1.25257">
        <ele>133</ele>
        <time>2016-06-16T15:18:12Z</time>
      </trkpt>
      <trkpt lat="43.64649" lon="1.25253">
        <ele>133</ele>
        <time>2016-06-16T15:18:14Z</time>
      </trkpt>
      <trkpt lat="43.64649" lon="1.25249">
        <ele>134</ele>
        <time>2016-06-16T15:18:16Z</time>
      </trkpt>
      <trkpt lat="43.64648" lon="1.25245">
        <ele>134</ele>
        <time>2016-06-16T15:18:18Z</time>
      </trkpt>
      <trkpt lat="43.64649" lon="1.25243">
        <ele>134</ele>
        <time>2016-06-16T15:18:19Z</time>
      </trkpt>
      <trkpt lat="43.64649" lon="1.25239">
        <ele>134</ele>
        <time>2016-06-16T15:18:21Z</time>
      </trkpt>
      <trkpt lat="43.64649" lon="1.25237">
        <ele>134</ele>
        <time>2016-06-16T15:18:22Z</time>
      </trkpt>
      <trkpt lat="43.6465" lon="1.25233">
        <ele>134</ele>
        <time>2016-06-16T15:18:24Z</time>
      </trkpt>
      <trkpt lat="43.6465" lon="1.25229">
        <ele>135</ele>
        <time>2016-06-16T15:18:26Z</time>
      </trkpt>
      <trkpt lat="43.64652" lon="1.25225">
        <ele>135</ele>
        <time>2016-06-16T15:18:28Z</time>
      </trkpt>
      <trkpt lat="43.64653" lon="1.25221">
        <ele>135</ele>
        <time>2016-06-16T15:18:30Z</time>
      </trkpt>
      <trkpt lat="43.64653" lon="1.25218">
        <ele>135</ele>
        <time>2016-06-16T15:18:31Z</time>
      </trkpt>
      <trkpt lat="43.64654" lon="1.25216">
        <ele>136</ele>
        <time>2016-06-16T15:18:32Z</time>
      </trkpt>
      <trkpt lat="43.64654" lon="1.25212">
        <ele>136</ele>
        <time>2016-06-16T15:18:34Z</time>
      </trkpt>
      <trkpt lat="43.64654" lon="1.25207">
        <ele>136</ele>
        <time>2016-06-16T15:18:36Z</time>
      </trkpt>
      <trkpt lat="43.64654" lon="1.25203">
        <ele>136</ele>
        <time>2016-06-16T15:18:38Z</time>
      </trkpt>
      <trkpt lat="43.64655" lon="1.25199">
        <ele>136</ele>
        <time>2016-06-16T15:18:40Z</time>
      </trkpt>
      <trkpt lat="43.64656" lon="1.25195">
        <ele>136</ele>
        <time>2016-06-16T15:18:42Z</time>
      </trkpt>
      <trkpt lat="43.64657" lon="1.2519">
        <ele>136</ele>
        <time>2016-06-16T15:18:45Z</time>
      </trkpt>
      <trkpt lat="43.64658" lon="1.25187">
        <ele>137</ele>
        <time>2016-06-16T15:18:46Z</time>
      </trkpt>
      <trkpt lat="43.64659" lon="1.25183">
        <ele>137</ele>
        <time>2016-06-16T15:18:48Z</time>
      </trkpt>
      <trkpt lat="43.6466" lon="1.25178">
        <ele>137</ele>
        <time>2016-06-16T15:18:50Z</time>
      </trkpt>
      <trkpt lat="43.64661" lon="1.25173">
        <ele>137</ele>
        <time>2016-06-16T15:18:52Z</time>
      </trkpt>
      <trkpt lat="43.64661" lon="1.25171">
        <ele>138</ele>
        <time>2016-06-16T15:18:53Z</time>
      </trkpt>
      <trkpt lat="43.64662" lon="1.25167">
        <ele>138</ele>
        <time>2016-06-16T15:18:55Z</time>
      </trkpt>
      <trkpt lat="43.64663" lon="1.25164">
        <ele>138</ele>
        <time>2016-06-16T15:18:57Z</time>
      </trkpt>
      <trkpt lat="43.64662" lon="1.25161">
        <ele>138</ele>
        <time>2016-06-16T15:18:59Z</time>
      </trkpt>
      <trkpt lat="43.64663" lon="1.25159">
        <ele>139</ele>
        <time>2016-06-16T15:19:00Z</time>
      </trkpt>
      <trkpt lat="43.64663" lon="1.25157">
        <ele>139</ele>
        <time>2016-06-16T15:19:01Z</time>
      </trkpt>
      <trkpt lat="43.64663" lon="1.25153">
        <ele>139</ele>
        <time>2016-06-16T15:19:03Z</time>
      </trkpt>
      <trkpt lat="43.64665" lon="1.25151">
        <ele>140</ele>
        <time>2016-06-16T15:19:04Z</time>
      </trkpt>
      <trkpt lat="43.64666" lon="1.25146">
        <ele>140</ele>
        <time>2016-06-16T15:19:06Z</time>
      </trkpt>
      <trkpt lat="43.64667" lon="1.25141">
        <ele>140</ele>
        <time>2016-06-16T15:19:08Z</time>
      </trkpt>
      <trkpt lat="43.64666" lon="1.25137">
        <ele>140</ele>
        <time>2016-06-16T15:19:10Z</time>
      </trkpt>
      <trkpt lat="43.64665" lon="1.25134">
        <ele>141</ele>
        <time>2016-06-16T15:19:12Z</time>
      </trkpt>
      <trkpt lat="43.64666" lon="1.25132">
        <ele>141</ele>
        <time>2016-06-16T15:19:13Z</time>
      </trkpt>
      <trkpt lat="43.64666" lon="1.2513">
        <ele>141</ele>
        <time>2016-06-16T15:19:14Z</time>
      </trkpt>
      <trkpt lat="43.64667" lon="1.25128">
        <ele>141</ele>
        <time>2016-06-16T15:19:15Z</time>
      </trkpt>
      <trkpt lat="43.64668" lon="1.25123">
        <ele>141</ele>
        <time>2016-06-16T15:19:17Z</time>
      </trkpt>
      <trkpt lat="43.64668" lon="1.25119">
        <ele>141</ele>
        <time>2016-06-16T15:19:19Z</time>
      </trkpt>
      <trkpt lat="43.64668" lon="1.25117">
        <ele>142</ele>
        <time>2016-06-16T15:19:20Z</time>
      </trkpt>
      <trkpt lat="43.64669" lon="1.25112">
        <ele>142</ele>
        <time>2016-06-16T15:19:22Z</time>
      </trkpt>
      <trkpt lat="43.64669" lon="1.25109">
        <ele>142</ele>
        <time>2016-06-16T15:19:23Z</time>
      </trkpt>
      <trkpt lat="43.6467" lon="1.25107">
        <ele>142</ele>
        <time>2016-06-16T15:19:24Z</time>
      </trkpt>
      <trkpt lat="43.64671" lon="1.25103">
        <ele>142</ele>
        <time>2016-06-16T15:19:26Z</time>
      </trkpt>
      <trkpt lat="43.64671" lon="1.25098">
        <ele>142</ele>
        <time>2016-06-16T15:19:28Z</time>
      </trkpt>
      <trkpt lat="43.64673" lon="1.25094">
        <ele>143</ele>
        <time>2016-06-16T15:19:30Z</time>
      </trkpt>
      <trkpt lat="43.64674" lon="1.25091">
        <ele>143</ele>
        <time>2016-06-16T15:19:32Z</time>
      </trkpt>
      <trkpt lat="43.64675" lon="1.25086">
        <ele>143</ele>
        <time>2016-06-16T15:19:34Z</time>
      </trkpt>
      <trkpt lat="43.64676" lon="1.25081">
        <ele>143</ele>
        <time>2016-06-16T15:19:36Z</time>
      </trkpt>
      <trkpt lat="43.64676" lon="1.25077">
        <ele>143</ele>
        <time>2016-06-16T15:19:38Z</time>
      </trkpt>
      <trkpt lat="43.64675" lon="1.25073">
        <ele>143</ele>
        <time>2016-06-16T15:19:40Z</time>
      </trkpt>
      <trkpt lat="43.64675" lon="1.25071">
        <ele>144</ele>
        <time>2016-06-16T15:19:41Z</time>
      </trkpt>
      <trkpt lat="43.64675" lon="1.25069">
        <ele>144</ele>
        <time>2016-06-16T15:19:42Z</time>
      </trkpt>
      <trkpt lat="43.64676" lon="1.25064">
        <ele>144</ele>
        <time>2016-06-16T15:19:44Z</time>
      </trkpt>
      <trkpt lat="43.64676" lon="1.25059">
        <ele>144</ele>
        <time>2016-06-16T15:19:46Z</time>
      </trkpt>
      <trkpt lat="43.64677" lon="1.25054">
        <ele>144</ele>
        <time>2016-06-16T15:19:48Z</time>
      </trkpt>
      <trkpt lat="43.64677" lon="1.2505">
        <ele>144</ele>
        <time>2016-06-16T15:19:50Z</time>
      </trkpt>
      <trkpt lat="43.64678" lon="1.25048">
        <ele>144</ele>
        <time>2016-06-16T15:19:51Z</time>
      </trkpt>
      <trkpt lat="43.64678" lon="1.25044">
        <ele>144</ele>
        <time>2016-06-16T15:19:53Z</time>
      </trkpt>
      <trkpt lat="43.64679" lon="1.2504">
        <ele>144</ele>
        <time>2016-06-16T15:19:55Z</time>
      </trkpt>
      <trkpt lat="43.64679" lon="1.25038">
        <ele>145</ele>
        <time>2016-06-16T15:19:56Z</time>
      </trkpt>
      <trkpt lat="43.64677" lon="1.25035">
        <ele>145</ele>
        <time>2016-06-16T15:19:58Z</time>
      </trkpt>
      <trkpt lat="43.64678" lon="1.25031">
        <ele>145</ele>
        <time>2016-06-16T15:20:00Z</time>
      </trkpt>
      <trkpt lat="43.64678" lon="1.25029">
        <ele>145</ele>
        <time>2016-06-16T15:20:01Z</time>
      </trkpt>
      <trkpt lat="43.64678" lon="1.25025">
        <ele>145</ele>
        <time>2016-06-16T15:20:03Z</time>
      </trkpt>
      <trkpt lat="43.64678" lon="1.25023">
        <ele>145</ele>
        <time>2016-06-16T15:20:04Z</time>
      </trkpt>
      <trkpt lat="43.6468" lon="1.25018">
        <ele>145</ele>
        <time>2016-06-16T15:20:06Z</time>
      </trkpt>
      <trkpt lat="43.64679" lon="1.25014">
        <ele>145</ele>
        <time>2016-06-16T15:20:08Z</time>
      </trkpt>
      <trkpt lat="43.64678" lon="1.25012">
        <ele>145</ele>
        <time>2016-06-16T15:20:09Z</time>
      </trkpt>
      <trkpt lat="43.64677" lon="1.2501">
        <ele>145</ele>
        <time>2016-06-16T15:20:10Z</time>
      </trkpt>
      <trkpt lat="43.64674" lon="1.25007">
        <ele>145</ele>
        <time>2016-06-16T15:20:12Z</time>
      </trkpt>
      <trkpt lat="43.64673" lon="1.25003">
        <ele>146</ele>
        <time>2016-06-16T15:20:14Z</time>
      </trkpt>
      <trkpt lat="43.64673" lon="1.25">
        <ele>146</ele>
        <time>2016-06-16T15:20:16Z</time>
      </trkpt>
      <trkpt lat="43.6467" lon="1.24997">
        <ele>146</ele>
        <time>2016-06-16T15:20:18Z</time>
      </trkpt>
      <trkpt lat="43.64669" lon="1.24993">
        <ele>147</ele>
        <time>2016-06-16T15:20:20Z</time>
      </trkpt>
      <trkpt lat="43.64669" lon="1.2499">
        <ele>147</ele>
        <time>2016-06-16T15:20:22Z</time>
      </trkpt>
      <trkpt lat="43.64669" lon="1.24987">
        <ele>147</ele>
        <time>2016-06-16T15:20:23Z</time>
      </trkpt>
      <trkpt lat="43.64669" lon="1.24985">
        <ele>147</ele>
        <time>2016-06-16T15:20:24Z</time>
      </trkpt>
      <trkpt lat="43.64669" lon="1.24981">
        <ele>148</ele>
        <time>2016-06-16T15:20:26Z</time>
      </trkpt>
      <trkpt lat="43.64668" lon="1.24979">
        <ele>148</ele>
        <time>2016-06-16T15:20:28Z</time>
      </trkpt>
      <trkpt lat="43.64666" lon="1.24976">
        <ele>148</ele>
        <time>2016-06-16T15:20:30Z</time>
      </trkpt>
      <trkpt lat="43.64667" lon="1.24975">
        <ele>148</ele>
        <time>2016-06-16T15:20:31Z</time>
      </trkpt>
      <trkpt lat="43.64667" lon="1.24972">
        <ele>148</ele>
        <time>2016-06-16T15:20:33Z</time>
      </trkpt>
      <trkpt lat="43.64667" lon="1.2497">
        <ele>148</ele>
        <time>2016-06-16T15:20:34Z</time>
      </trkpt>
      <trkpt lat="43.64666" lon="1.24969">
        <ele>148</ele>
        <time>2016-06-16T15:20:35Z</time>
      </trkpt>
      <trkpt lat="43.64663" lon="1.24959">
        <ele>148</ele>
        <time>2016-06-16T15:20:39Z</time>
      </trkpt>
      <trkpt lat="43.64661" lon="1.24957">
        <ele>148</ele>
        <time>2016-06-16T15:20:41Z</time>
      </trkpt>
      <trkpt lat="43.64657" lon="1.24954">
        <ele>148</ele>
        <time>2016-06-16T15:20:43Z</time>
      </trkpt>
      <trkpt lat="43.64656" lon="1.24953">
        <ele>148</ele>
        <time>2016-06-16T15:20:44Z</time>
      </trkpt>
      <trkpt lat="43.64654" lon="1.2495">
        <ele>148</ele>
        <time>2016-06-16T15:20:46Z</time>
      </trkpt>
      <trkpt lat="43.64652" lon="1.24947">
        <ele>148</ele>
        <time>2016-06-16T15:20:48Z</time>
      </trkpt>
      <trkpt lat="43.6465" lon="1.24943">
        <ele>148</ele>
        <time>2016-06-16T15:20:50Z</time>
      </trkpt>
      <trkpt lat="43.64649" lon="1.24942">
        <ele>148</ele>
        <time>2016-06-16T15:20:51Z</time>
      </trkpt>
      <trkpt lat="43.64648" lon="1.2494">
        <ele>148</ele>
        <time>2016-06-16T15:20:52Z</time>
      </trkpt>
      <trkpt lat="43.64647" lon="1.24939">
        <ele>148</ele>
        <time>2016-06-16T15:20:53Z</time>
      </trkpt>
      <trkpt lat="43.64645" lon="1.24936">
        <ele>148</ele>
        <time>2016-06-16T15:20:55Z</time>
      </trkpt>
      <trkpt lat="43.64644" lon="1.24934">
        <ele>148</ele>
        <time>2016-06-16T15:20:56Z</time>
      </trkpt>
      <trkpt lat="43.64643" lon="1.24932">
        <ele>148</ele>
        <time>2016-06-16T15:20:57Z</time>
      </trkpt>
      <trkpt lat="43.64642" lon="1.24929">
        <ele>148</ele>
        <time>2016-06-16T15:20:59Z</time>
      </trkpt>
      <trkpt lat="43.6464" lon="1.24925">
        <ele>148</ele>
        <time>2016-06-16T15:21:01Z</time>
      </trkpt>
      <trkpt lat="43.64638" lon="1.24922">
        <ele>149</ele>
        <time>2016-06-16T15:21:03Z</time>
      </trkpt>
      <trkpt lat="43.64637" lon="1.2492">
        <ele>149</ele>
        <time>2016-06-16T15:21:04Z</time>
      </trkpt>
      <trkpt lat="43.64636" lon="1.24916">
        <ele>149</ele>
        <time>2016-06-16T15:21:06Z</time>
      </trkpt>
      <trkpt lat="43.64636" lon="1.24911">
        <ele>149</ele>
        <time>2016-06-16T15:21:08Z</time>
      </trkpt>
      <trkpt lat="43.64636" lon="1.24909">
        <ele>149</ele>
        <time>2016-06-16T15:21:09Z</time>
      </trkpt>
      <trkpt lat="43.64634" lon="1.24904">
        <ele>149</ele>
        <time>2016-06-16T15:21:11Z</time>
      </trkpt>
      <trkpt lat="43.64632" lon="1.24901">
        <ele>149</ele>
        <time>2016-06-16T15:21:13Z</time>
      </trkpt>
      <trkpt lat="43.64631" lon="1.24899">
        <ele>149</ele>
        <time>2016-06-16T15:21:14Z</time>
      </trkpt>
      <trkpt lat="43.6463" lon="1.24895">
        <ele>149</ele>
        <time>2016-06-16T15:21:16Z</time>
      </trkpt>
      <trkpt lat="43.64629" lon="1.2489">
        <ele>149</ele>
        <time>2016-06-16T15:21:18Z</time>
      </trkpt>
      <trkpt lat="43.64628" lon="1.24887">
        <ele>148</ele>
        <time>2016-06-16T15:21:20Z</time>
      </trkpt>
      <trkpt lat="43.64628" lon="1.24885">
        <ele>148</ele>
        <time>2016-06-16T15:21:21Z</time>
      </trkpt>
      <trkpt lat="43.64626" lon="1.2488">
        <ele>148</ele>
        <time>2016-06-16T15:21:23Z</time>
      </trkpt>
      <trkpt lat="43.64625" lon="1.24878">
        <ele>148</ele>
        <time>2016-06-16T15:21:24Z</time>
      </trkpt>
      <trkpt lat="43.64624" lon="1.24872">
        <ele>148</ele>
        <time>2016-06-16T15:21:26Z</time>
      </trkpt>
      <trkpt lat="43.64623" lon="1.24868">
        <ele>148</ele>
        <time>2016-06-16T15:21:28Z</time>
      </trkpt>
      <trkpt lat="43.64622" lon="1.24864">
        <ele>148</ele>
        <time>2016-06-16T15:21:30Z</time>
      </trkpt>
      <trkpt lat="43.64621" lon="1.24858">
        <ele>148</ele>
        <time>2016-06-16T15:21:32Z</time>
      </trkpt>
      <trkpt lat="43.64619" lon="1.24853">
        <ele>147</ele>
        <time>2016-06-16T15:21:34Z</time>
      </trkpt>
      <trkpt lat="43.64618" lon="1.24849">
        <ele>147</ele>
        <time>2016-06-16T15:21:36Z</time>
      </trkpt>
      <trkpt lat="43.64616" lon="1.24845">
        <ele>147</ele>
        <time>2016-06-16T15:21:38Z</time>
      </trkpt>
      <trkpt lat="43.64615" lon="1.2484">
        <ele>146</ele>
        <time>2016-06-16T15:21:40Z</time>
      </trkpt>
      <trkpt lat="43.64614" lon="1.24836">
        <ele>146</ele>
        <time>2016-06-16T15:21:42Z</time>
      </trkpt>
      <trkpt lat="43.64613" lon="1.24835">
        <ele>145</ele>
        <time>2016-06-16T15:21:43Z</time>
      </trkpt>
      <trkpt lat="43.64612" lon="1.24832">
        <ele>145</ele>
        <time>2016-06-16T15:21:45Z</time>
      </trkpt>
      <trkpt lat="43.64611" lon="1.24829">
        <ele>144</ele>
        <time>2016-06-16T15:21:46Z</time>
      </trkpt>
      <trkpt lat="43.64611" lon="1.24827">
        <ele>144</ele>
        <time>2016-06-16T15:21:47Z</time>
      </trkpt>
      <trkpt lat="43.6461" lon="1.24823">
        <ele>144</ele>
        <time>2016-06-16T15:21:49Z</time>
      </trkpt>
      <trkpt lat="43.64608" lon="1.24819">
        <ele>143</ele>
        <time>2016-06-16T15:21:51Z</time>
      </trkpt>
      <trkpt lat="43.64607" lon="1.24816">
        <ele>143</ele>
        <time>2016-06-16T15:21:52Z</time>
      </trkpt>
      <trkpt lat="43.64606" lon="1.24812">
        <ele>143</ele>
        <time>2016-06-16T15:21:54Z</time>
      </trkpt>
      <trkpt lat="43.64605" lon="1.24809">
        <ele>142</ele>
        <time>2016-06-16T15:21:55Z</time>
      </trkpt>
      <trkpt lat="43.64604" lon="1.24805">
        <ele>142</ele>
        <time>2016-06-16T15:21:57Z</time>
      </trkpt>
      <trkpt lat="43.64603" lon="1.24803">
        <ele>142</ele>
        <time>2016-06-16T15:21:58Z</time>
      </trkpt>
      <trkpt lat="43.64602" lon="1.24797">
        <ele>141</ele>
        <time>2016-06-16T15:22:01Z</time>
      </trkpt>
      <trkpt lat="43.646" lon="1.24792">
        <ele>141</ele>
        <time>2016-06-16T15:22:03Z</time>
      </trkpt>
      <trkpt lat="43.646" lon="1.2479">
        <ele>140</ele>
        <time>2016-06-16T15:22:04Z</time>
      </trkpt>
      <trkpt lat="43.64598" lon="1.24784">
        <ele>140</ele>
        <time>2016-06-16T15:22:07Z</time>
      </trkpt>
      <trkpt lat="43.64597" lon="1.24779">
        <ele>139</ele>
        <time>2016-06-16T15:22:09Z</time>
      </trkpt>
      <trkpt lat="43.64596" lon="1.24777">
        <ele>139</ele>
        <time>2016-06-16T15:22:10Z</time>
      </trkpt>
      <trkpt lat="43.64594" lon="1.24772">
        <ele>139</ele>
        <time>2016-06-16T15:22:12Z</time>
      </trkpt>
      <trkpt lat="43.64592" lon="1.24768">
        <ele>138</ele>
        <time>2016-06-16T15:22:14Z</time>
      </trkpt>
      <trkpt lat="43.64591" lon="1.24765">
        <ele>138</ele>
        <time>2016-06-16T15:22:16Z</time>
      </trkpt>
      <trkpt lat="43.6459" lon="1.24761">
        <ele>138</ele>
        <time>2016-06-16T15:22:18Z</time>
      </trkpt>
      <trkpt lat="43.64589" lon="1.24756">
        <ele>137</ele>
        <time>2016-06-16T15:22:20Z</time>
      </trkpt>
      <trkpt lat="43.64587" lon="1.24752">
        <ele>137</ele>
        <time>2016-06-16T15:22:22Z</time>
      </trkpt>
      <trkpt lat="43.64586" lon="1.24748">
        <ele>136</ele>
        <time>2016-06-16T15:22:24Z</time>
      </trkpt>
      <trkpt lat="43.64585" lon="1.24746">
        <ele>136</ele>
        <time>2016-06-16T15:22:25Z</time>
      </trkpt>
      <trkpt lat="43.64584" lon="1.24744">
        <ele>135</ele>
        <time>2016-06-16T15:22:26Z</time>
      </trkpt>
      <trkpt lat="43.64584" lon="1.24742">
        <ele>135</ele>
        <time>2016-06-16T15:22:27Z</time>
      </trkpt>
      <trkpt lat="43.64582" lon="1.24737">
        <ele>135</ele>
        <time>2016-06-16T15:22:29Z</time>
      </trkpt>
      <trkpt lat="43.64581" lon="1.24735">
        <ele>135</ele>
        <time>2016-06-16T15:22:30Z</time>
      </trkpt>
      <trkpt lat="43.64579" lon="1.24731">
        <ele>134</ele>
        <time>2016-06-16T15:22:32Z</time>
      </trkpt>
      <trkpt lat="43.64578" lon="1.24726">
        <ele>134</ele>
        <time>2016-06-16T15:22:34Z</time>
      </trkpt>
      <trkpt lat="43.64576" lon="1.24723">
        <ele>134</ele>
        <time>2016-06-16T15:22:36Z</time>
      </trkpt>
      <trkpt lat="43.64575" lon="1.24718">
        <ele>133</ele>
        <time>2016-06-16T15:22:38Z</time>
      </trkpt>
      <trkpt lat="43.64574" lon="1.24716">
        <ele>133</ele>
        <time>2016-06-16T15:22:39Z</time>
      </trkpt>
      <trkpt lat="43.64573" lon="1.24712">
        <ele>132</ele>
        <time>2016-06-16T15:22:41Z</time>
      </trkpt>
      <trkpt lat="43.64571" lon="1.24707">
        <ele>132</ele>
        <time>2016-06-16T15:22:43Z</time>
      </trkpt>
      <trkpt lat="43.6457" lon="1.24705">
        <ele>132</ele>
        <time>2016-06-16T15:22:44Z</time>
      </trkpt>
      <trkpt lat="43.64569" lon="1.24701">
        <ele>132</ele>
        <time>2016-06-16T15:22:46Z</time>
      </trkpt>
      <trkpt lat="43.64568" lon="1.24697">
        <ele>132</ele>
        <time>2016-06-16T15:22:48Z</time>
      </trkpt>
      <trkpt lat="43.64566" lon="1.24693">
        <ele>132</ele>
        <time>2016-06-16T15:22:50Z</time>
      </trkpt>
      <trkpt lat="43.64566" lon="1.24691">
        <ele>132</ele>
        <time>2016-06-16T15:22:51Z</time>
      </trkpt>
      <trkpt lat="43.64565" lon="1.24689">
        <ele>132</ele>
        <time>2016-06-16T15:22:52Z</time>
      </trkpt>
      <trkpt lat="43.64563" lon="1.24686">
        <ele>132</ele>
        <time>2016-06-16T15:22:54Z</time>
      </trkpt>
      <trkpt lat="43.64563" lon="1.24684">
        <ele>132</ele>
        <time>2016-06-16T15:22:55Z</time>
      </trkpt>
      <trkpt lat="43.64562" lon="1.24683">
        <ele>132</ele>
        <time>2016-06-16T15:22:56Z</time>
      </trkpt>
      <trkpt lat="43.6456" lon="1.24679">
        <ele>132</ele>
        <time>2016-06-16T15:22:58Z</time>
      </trkpt>
      <trkpt lat="43.6456" lon="1.24676">
        <ele>132</ele>
        <time>2016-06-16T15:22:59Z</time>
      </trkpt>
      <trkpt lat="43.64558" lon="1.24671">
        <ele>132</ele>
        <time>2016-06-16T15:23:01Z</time>
      </trkpt>
      <trkpt lat="43.64557" lon="1.24667">
        <ele>132</ele>
        <time>2016-06-16T15:23:03Z</time>
      </trkpt>
      <trkpt lat="43.64557" lon="1.24665">
        <ele>132</ele>
        <time>2016-06-16T15:23:04Z</time>
      </trkpt>
      <trkpt lat="43.64556" lon="1.24664">
        <ele>132</ele>
        <time>2016-06-16T15:23:05Z</time>
      </trkpt>
      <trkpt lat="43.64554" lon="1.2466">
        <ele>132</ele>
        <time>2016-06-16T15:23:07Z</time>
      </trkpt>
      <trkpt lat="43.64553" lon="1.24657">
        <ele>132</ele>
        <time>2016-06-16T15:23:09Z</time>
      </trkpt>
      <trkpt lat="43.64552" lon="1.24655">
        <ele>132</ele>
        <time>2016-06-16T15:23:10Z</time>
      </trkpt>
      <trkpt lat="43.6455" lon="1.2465">
        <ele>132</ele>
        <time>2016-06-16T15:23:12Z</time>
      </trkpt>
      <trkpt lat="43.6455" lon="1.24649">
        <ele>132</ele>
        <time>2016-06-16T15:23:13Z</time>
      </trkpt>
      <trkpt lat="43.64547" lon="1.24644">
        <ele>133</ele>
        <time>2016-06-16T15:23:15Z</time>
      </trkpt>
      <trkpt lat="43.64545" lon="1.24642">
        <ele>133</ele>
        <time>2016-06-16T15:23:17Z</time>
      </trkpt>
      <trkpt lat="43.64545" lon="1.24641">
        <ele>133</ele>
        <time>2016-06-16T15:23:18Z</time>
      </trkpt>
      <trkpt lat="43.64543" lon="1.24637">
        <ele>133</ele>
        <time>2016-06-16T15:23:20Z</time>
      </trkpt>
      <trkpt lat="43.64542" lon="1.24633">
        <ele>134</ele>
        <time>2016-06-16T15:23:22Z</time>
      </trkpt>
      <trkpt lat="43.64541" lon="1.24631">
        <ele>134</ele>
        <time>2016-06-16T15:23:23Z</time>
      </trkpt>
      <trkpt lat="43.64539" lon="1.24629">
        <ele>134</ele>
        <time>2016-06-16T15:23:24Z</time>
      </trkpt>
      <trkpt lat="43.64537" lon="1.24625">
        <ele>134</ele>
        <time>2016-06-16T15:23:26Z</time>
      </trkpt>
      <trkpt lat="43.64537" lon="1.24622">
        <ele>135</ele>
        <time>2016-06-16T15:23:28Z</time>
      </trkpt>
      <trkpt lat="43.64536" lon="1.2462">
        <ele>135</ele>
        <time>2016-06-16T15:23:29Z</time>
      </trkpt>
      <trkpt lat="43.64534" lon="1.24617">
        <ele>135</ele>
        <time>2016-06-16T15:23:31Z</time>
      </trkpt>
      <trkpt lat="43.64533" lon="1.24613">
        <ele>135</ele>
        <time>2016-06-16T15:23:33Z</time>
      </trkpt>
      <trkpt lat="43.64531" lon="1.24611">
        <ele>135</ele>
        <time>2016-06-16T15:23:34Z</time>
      </trkpt>
      <trkpt lat="43.64531" lon="1.24608">
        <ele>135</ele>
        <time>2016-06-16T15:23:36Z</time>
      </trkpt>
      <trkpt lat="43.6453" lon="1.24607">
        <ele>135</ele>
        <time>2016-06-16T15:23:37Z</time>
      </trkpt>
      <trkpt lat="43.64528" lon="1.24603">
        <ele>136</ele>
        <time>2016-06-16T15:23:39Z</time>
      </trkpt>
      <trkpt lat="43.64526" lon="1.24601">
        <ele>136</ele>
        <time>2016-06-16T15:23:41Z</time>
      </trkpt>
      <trkpt lat="43.64525" lon="1.24598">
        <ele>136</ele>
        <time>2016-06-16T15:23:43Z</time>
      </trkpt>
      <trkpt lat="43.64522" lon="1.24593">
        <ele>136</ele>
        <time>2016-06-16T15:23:45Z</time>
      </trkpt>
      <trkpt lat="43.64521" lon="1.2459">
        <ele>136</ele>
        <time>2016-06-16T15:23:46Z</time>
      </trkpt>
      <trkpt lat="43.6452" lon="1.24586">
        <ele>137</ele>
        <time>2016-06-16T15:23:48Z</time>
      </trkpt>
      <trkpt lat="43.64519" lon="1.24585">
        <ele>137</ele>
        <time>2016-06-16T15:23:49Z</time>
      </trkpt>
      <trkpt lat="43.64517" lon="1.24582">
        <ele>137</ele>
        <time>2016-06-16T15:23:51Z</time>
      </trkpt>
      <trkpt lat="43.64516" lon="1.24581">
        <ele>137</ele>
        <time>2016-06-16T15:23:52Z</time>
      </trkpt>
      <trkpt lat="43.64515" lon="1.24577">
        <ele>138</ele>
        <time>2016-06-16T15:23:54Z</time>
      </trkpt>
      <trkpt lat="43.64515" lon="1.24575">
        <ele>138</ele>
        <time>2016-06-16T15:23:55Z</time>
      </trkpt>
      <trkpt lat="43.64513" lon="1.24571">
        <ele>138</ele>
        <time>2016-06-16T15:23:57Z</time>
      </trkpt>
      <trkpt lat="43.64512" lon="1.2457">
        <ele>138</ele>
        <time>2016-06-16T15:23:58Z</time>
      </trkpt>
      <trkpt lat="43.6451" lon="1.24567">
        <ele>139</ele>
        <time>2016-06-16T15:24:00Z</time>
      </trkpt>
      <trkpt lat="43.6451" lon="1.24565">
        <ele>139</ele>
        <time>2016-06-16T15:24:01Z</time>
      </trkpt>
      <trkpt lat="43.64508" lon="1.24561">
        <ele>139</ele>
        <time>2016-06-16T15:24:03Z</time>
      </trkpt>
      <trkpt lat="43.64507" lon="1.24559">
        <ele>140</ele>
        <time>2016-06-16T15:24:04Z</time>
      </trkpt>
      <trkpt lat="43.64506" lon="1.24555">
        <ele>140</ele>
        <time>2016-06-16T15:24:06Z</time>
      </trkpt>
      <trkpt lat="43.64504" lon="1.24552">
        <ele>140</ele>
        <time>2016-06-16T15:24:08Z</time>
      </trkpt>
      <trkpt lat="43.64504" lon="1.24549">
        <ele>140</ele>
        <time>2016-06-16T15:24:10Z</time>
      </trkpt>
      <trkpt lat="43.64502" lon="1.24545">
        <ele>141</ele>
        <time>2016-06-16T15:24:12Z</time>
      </trkpt>
      <trkpt lat="43.645" lon="1.24542">
        <ele>141</ele>
        <time>2016-06-16T15:24:14Z</time>
      </trkpt>
      <trkpt lat="43.64499" lon="1.24539">
        <ele>142</ele>
        <time>2016-06-16T15:24:16Z</time>
      </trkpt>
      <trkpt lat="43.64499" lon="1.24538">
        <ele>142</ele>
        <time>2016-06-16T15:24:17Z</time>
      </trkpt>
      <trkpt lat="43.64497" lon="1.24533">
        <ele>142</ele>
        <time>2016-06-16T15:24:19Z</time>
      </trkpt>
      <trkpt lat="43.64496" lon="1.24531">
        <ele>143</ele>
        <time>2016-06-16T15:24:20Z</time>
      </trkpt>
      <trkpt lat="43.64495" lon="1.24528">
        <ele>143</ele>
        <time>2016-06-16T15:24:22Z</time>
      </trkpt>
      <trkpt lat="43.64494" lon="1.24525">
        <ele>143</ele>
        <time>2016-06-16T15:24:24Z</time>
      </trkpt>
      <trkpt lat="43.64492" lon="1.24521">
        <ele>143</ele>
        <time>2016-06-16T15:24:26Z</time>
      </trkpt>
      <trkpt lat="43.64491" lon="1.24516">
        <ele>144</ele>
        <time>2016-06-16T15:24:28Z</time>
      </trkpt>
      <trkpt lat="43.64489" lon="1.24513">
        <ele>144</ele>
        <time>2016-06-16T15:24:30Z</time>
      </trkpt>
      <trkpt lat="43.64488" lon="1.24511">
        <ele>144</ele>
        <time>2016-06-16T15:24:31Z</time>
      </trkpt>
      <trkpt lat="43.64487" lon="1.24508">
        <ele>144</ele>
        <time>2016-06-16T15:24:33Z</time>
      </trkpt>
      <trkpt lat="43.64486" lon="1.24507">
        <ele>145</ele>
        <time>2016-06-16T15:24:34Z</time>
      </trkpt>
      <trkpt lat="43.64485" lon="1.24503">
        <ele>145</ele>
        <time>2016-06-16T15:24:36Z</time>
      </trkpt>
      <trkpt lat="43.64483" lon="1.245">
        <ele>145</ele>
        <time>2016-06-16T15:24:38Z</time>
      </trkpt>
      <trkpt lat="43.64481" lon="1.24495">
        <ele>145</ele>
        <time>2016-06-16T15:24:40Z</time>
      </trkpt>
      <trkpt lat="43.6448" lon="1.24492">
        <ele>145</ele>
        <time>2016-06-16T15:24:41Z</time>
      </trkpt>
      <trkpt lat="43.64478" lon="1.24489">
        <ele>145</ele>
        <time>2016-06-16T15:24:43Z</time>
      </trkpt>
      <trkpt lat="43.64478" lon="1.24487">
        <ele>145</ele>
        <time>2016-06-16T15:24:44Z</time>
      </trkpt>
      <trkpt lat="43.64477" lon="1.24483">
        <ele>145</ele>
        <time>2016-06-16T15:24:46Z</time>
      </trkpt>
      <trkpt lat="43.64476" lon="1.24478">
        <ele>145</ele>
        <time>2016-06-16T15:24:48Z</time>
      </trkpt>
      <trkpt lat="43.64475" lon="1.24475">
        <ele>145</ele>
        <time>2016-06-16T15:24:49Z</time>
      </trkpt>
      <trkpt lat="43.64475" lon="1.24474">
        <ele>144</ele>
        <time>2016-06-16T15:24:50Z</time>
      </trkpt>
      <trkpt lat="43.64474" lon="1.24472">
        <ele>144</ele>
        <time>2016-06-16T15:24:51Z</time>
      </trkpt>
      <trkpt lat="43.64473" lon="1.24467">
        <ele>144</ele>
        <time>2016-06-16T15:24:53Z</time>
      </trkpt>
      <trkpt lat="43.64472" lon="1.24465">
        <ele>144</ele>
        <time>2016-06-16T15:24:54Z</time>
      </trkpt>
      <trkpt lat="43.6447" lon="1.24462">
        <ele>144</ele>
        <time>2016-06-16T15:24:56Z</time>
      </trkpt>
      <trkpt lat="43.64468" lon="1.24457">
        <ele>144</ele>
        <time>2016-06-16T15:24:58Z</time>
      </trkpt>
      <trkpt lat="43.64467" lon="1.24454">
        <ele>144</ele>
        <time>2016-06-16T15:25:00Z</time>
      </trkpt>
      <trkpt lat="43.64466" lon="1.24452">
        <ele>144</ele>
        <time>2016-06-16T15:25:01Z</time>
      </trkpt>
      <trkpt lat="43.64464" lon="1.24447">
        <ele>145</ele>
        <time>2016-06-16T15:25:03Z</time>
      </trkpt>
      <trkpt lat="43.64464" lon="1.24446">
        <ele>145</ele>
        <time>2016-06-16T15:25:04Z</time>
      </trkpt>
      <trkpt lat="43.64463" lon="1.24445">
        <ele>145</ele>
        <time>2016-06-16T15:25:05Z</time>
      </trkpt>
      <trkpt lat="43.64462" lon="1.24442">
        <ele>146</ele>
        <time>2016-06-16T15:25:07Z</time>
      </trkpt>
      <trkpt lat="43.6446" lon="1.24439">
        <ele>146</ele>
        <time>2016-06-16T15:25:09Z</time>
      </trkpt>
      <trkpt lat="43.64459" lon="1.24437">
        <ele>146</ele>
        <time>2016-06-16T15:25:10Z</time>
      </trkpt>
      <trkpt lat="43.64457" lon="1.24434">
        <ele>146</ele>
        <time>2016-06-16T15:25:12Z</time>
      </trkpt>
      <trkpt lat="43.64456" lon="1.2443">
        <ele>147</ele>
        <time>2016-06-16T15:25:14Z</time>
      </trkpt>
      <trkpt lat="43.64455" lon="1.24429">
        <ele>147</ele>
        <time>2016-06-16T15:25:15Z</time>
      </trkpt>
      <trkpt lat="43.64454" lon="1.24424">
        <ele>148</ele>
        <time>2016-06-16T15:25:17Z</time>
      </trkpt>
      <trkpt lat="43.64453" lon="1.24422">
        <ele>148</ele>
        <time>2016-06-16T15:25:18Z</time>
      </trkpt>
      <trkpt lat="43.64451" lon="1.24419">
        <ele>148</ele>
        <time>2016-06-16T15:25:20Z</time>
      </trkpt>
      <trkpt lat="43.6445" lon="1.24414">
        <ele>148</ele>
        <time>2016-06-16T15:25:22Z</time>
      </trkpt>
      <trkpt lat="43.64448" lon="1.2441">
        <ele>149</ele>
        <time>2016-06-16T15:25:24Z</time>
      </trkpt>
      <trkpt lat="43.64446" lon="1.24406">
        <ele>149</ele>
        <time>2016-06-16T15:25:26Z</time>
      </trkpt>
      <trkpt lat="43.64445" lon="1.24402">
        <ele>149</ele>
        <time>2016-06-16T15:25:28Z</time>
      </trkpt>
      <trkpt lat="43.64444" lon="1.244">
        <ele>149</ele>
        <time>2016-06-16T15:25:29Z</time>
      </trkpt>
      <trkpt lat="43.64443" lon="1.24397">
        <ele>149</ele>
        <time>2016-06-16T15:25:31Z</time>
      </trkpt>
      <trkpt lat="43.64442" lon="1.24392">
        <ele>149</ele>
        <time>2016-06-16T15:25:33Z</time>
      </trkpt>
      <trkpt lat="43.64442" lon="1.2439">
        <ele>149</ele>
        <time>2016-06-16T15:25:34Z</time>
      </trkpt>
      <trkpt lat="43.64439" lon="1.24387">
        <ele>149</ele>
        <time>2016-06-16T15:25:36Z</time>
      </trkpt>
      <trkpt lat="43.64438" lon="1.24384">
        <ele>149</ele>
        <time>2016-06-16T15:25:38Z</time>
      </trkpt>
      <trkpt lat="43.64436" lon="1.24381">
        <ele>149</ele>
        <time>2016-06-16T15:25:40Z</time>
      </trkpt>
      <trkpt lat="43.64435" lon="1.24377">
        <ele>149</ele>
        <time>2016-06-16T15:25:42Z</time>
      </trkpt>
      <trkpt lat="43.64433" lon="1.24373">
        <ele>149</ele>
        <time>2016-06-16T15:25:44Z</time>
      </trkpt>
      <trkpt lat="43.64431" lon="1.2437">
        <ele>149</ele>
        <time>2016-06-16T15:25:46Z</time>
      </trkpt>
      <trkpt lat="43.6443" lon="1.24364">
        <ele>150</ele>
        <time>2016-06-16T15:25:48Z</time>
      </trkpt>
      <trkpt lat="43.64429" lon="1.24361">
        <ele>149</ele>
        <time>2016-06-16T15:25:50Z</time>
      </trkpt>
      <trkpt lat="43.64428" lon="1.2436">
        <ele>150</ele>
        <time>2016-06-16T15:25:52Z</time>
      </trkpt>
      <trkpt lat="43.64427" lon="1.24358">
        <ele>149</ele>
        <time>2016-06-16T15:25:54Z</time>
      </trkpt>
      <trkpt lat="43.64426" lon="1.24357">
        <ele>149</ele>
        <time>2016-06-16T15:25:56Z</time>
      </trkpt>
      <trkpt lat="43.64426" lon="1.24354">
        <ele>149</ele>
        <time>2016-06-16T15:25:58Z</time>
      </trkpt>
      <trkpt lat="43.64427" lon="1.24352">
        <ele>149</ele>
        <time>2016-06-16T15:26:00Z</time>
      </trkpt>
      <trkpt lat="43.64428" lon="1.2435">
        <ele>148</ele>
        <time>2016-06-16T15:26:02Z</time>
      </trkpt>
      <trkpt lat="43.6443" lon="1.24349">
        <ele>148</ele>
        <time>2016-06-16T15:26:04Z</time>
      </trkpt>
      <trkpt lat="43.64432" lon="1.24347">
        <ele>148</ele>
        <time>2016-06-16T15:26:06Z</time>
      </trkpt>
      <trkpt lat="43.64434" lon="1.24344">
        <ele>148</ele>
        <time>2016-06-16T15:26:08Z</time>
      </trkpt>
      <trkpt lat="43.64437" lon="1.24342">
        <ele>148</ele>
        <time>2016-06-16T15:26:10Z</time>
      </trkpt>
      <trkpt lat="43.64438" lon="1.2434">
        <ele>149</ele>
        <time>2016-06-16T15:26:12Z</time>
      </trkpt>
      <trkpt lat="43.6444" lon="1.24338">
        <ele>149</ele>
        <time>2016-06-16T15:26:14Z</time>
      </trkpt>
      <trkpt lat="43.64442" lon="1.24335">
        <ele>149</ele>
        <time>2016-06-16T15:26:16Z</time>
      </trkpt>
      <trkpt lat="43.64443" lon="1.24334">
        <ele>149</ele>
        <time>2016-06-16T15:26:17Z</time>
      </trkpt>
      <trkpt lat="43.64446" lon="1.24331">
        <ele>149</ele>
        <time>2016-06-16T15:26:19Z</time>
      </trkpt>
      <trkpt lat="43.64455" lon="1.24325">
        <ele>149</ele>
        <time>2016-06-16T15:26:24Z</time>
      </trkpt>
      <trkpt lat="43.64457" lon="1.24322">
        <ele>150</ele>
        <time>2016-06-16T15:26:26Z</time>
      </trkpt>
      <trkpt lat="43.64457" lon="1.2432">
        <ele>150</ele>
        <time>2016-06-16T15:26:28Z</time>
      </trkpt>
      <trkpt lat="43.64458" lon="1.24319">
        <ele>150</ele>
        <time>2016-06-16T15:26:29Z</time>
      </trkpt>
      <trkpt lat="43.6446" lon="1.24315">
        <ele>150</ele>
        <time>2016-06-16T15:26:31Z</time>
      </trkpt>
      <trkpt lat="43.64462" lon="1.24313">
        <ele>150</ele>
        <time>2016-06-16T15:26:32Z</time>
      </trkpt>
      <trkpt lat="43.64464" lon="1.2431">
        <ele>151</ele>
        <time>2016-06-16T15:26:34Z</time>
      </trkpt>
      <trkpt lat="43.64467" lon="1.24306">
        <ele>151</ele>
        <time>2016-06-16T15:26:36Z</time>
      </trkpt>
      <trkpt lat="43.64468" lon="1.24305">
        <ele>151</ele>
        <time>2016-06-16T15:26:37Z</time>
      </trkpt>
      <trkpt lat="43.64471" lon="1.24303">
        <ele>151</ele>
        <time>2016-06-16T15:26:39Z</time>
      </trkpt>
      <trkpt lat="43.64472" lon="1.24301">
        <ele>151</ele>
        <time>2016-06-16T15:26:40Z</time>
      </trkpt>
      <trkpt lat="43.64473" lon="1.243">
        <ele>151</ele>
        <time>2016-06-16T15:26:42Z</time>
      </trkpt>
      <trkpt lat="43.64475" lon="1.24298">
        <ele>152</ele>
        <time>2016-06-16T15:26:44Z</time>
      </trkpt>
      <trkpt lat="43.64476" lon="1.24296">
        <ele>152</ele>
        <time>2016-06-16T15:26:45Z</time>
      </trkpt>
      <trkpt lat="43.64477" lon="1.24294">
        <ele>152</ele>
        <time>2016-06-16T15:26:46Z</time>
      </trkpt>
      <trkpt lat="43.64478" lon="1.24294">
        <ele>152</ele>
        <time>2016-06-16T15:26:47Z</time>
      </trkpt>
      <trkpt lat="43.6448" lon="1.24292">
        <ele>152</ele>
        <time>2016-06-16T15:26:49Z</time>
      </trkpt>
      <trkpt lat="43.64481" lon="1.24288">
        <ele>153</ele>
        <time>2016-06-16T15:26:51Z</time>
      </trkpt>
      <trkpt lat="43.64483" lon="1.24287">
        <ele>153</ele>
        <time>2016-06-16T15:26:52Z</time>
      </trkpt>
      <trkpt lat="43.64486" lon="1.24285">
        <ele>153</ele>
        <time>2016-06-16T15:26:54Z</time>
      </trkpt>
      <trkpt lat="43.64486" lon="1.24284">
        <ele>153</ele>
        <time>2016-06-16T15:26:55Z</time>
      </trkpt>
      <trkpt lat="43.64488" lon="1.24281">
        <ele>153</ele>
        <time>2016-06-16T15:26:57Z</time>
      </trkpt>
      <trkpt lat="43.6449" lon="1.2428">
        <ele>153</ele>
        <time>2016-06-16T15:26:58Z</time>
      </trkpt>
      <trkpt lat="43.64491" lon="1.24279">
        <ele>153</ele>
        <time>2016-06-16T15:27:00Z</time>
      </trkpt>
      <trkpt lat="43.64492" lon="1.24278">
        <ele>153</ele>
        <time>2016-06-16T15:27:01Z</time>
      </trkpt>
      <trkpt lat="43.64494" lon="1.24276">
        <ele>153</ele>
        <time>2016-06-16T15:27:03Z</time>
      </trkpt>
      <trkpt lat="43.64495" lon="1.24275">
        <ele>154</ele>
        <time>2016-06-16T15:27:04Z</time>
      </trkpt>
      <trkpt lat="43.64496" lon="1.24272">
        <ele>154</ele>
        <time>2016-06-16T15:27:06Z</time>
      </trkpt>
      <trkpt lat="43.645" lon="1.24268">
        <ele>154</ele>
        <time>2016-06-16T15:27:09Z</time>
      </trkpt>
      <trkpt lat="43.64504" lon="1.24263">
        <ele>154</ele>
        <time>2016-06-16T15:27:12Z</time>
      </trkpt>
      <trkpt lat="43.64506" lon="1.2426">
        <ele>154</ele>
        <time>2016-06-16T15:27:14Z</time>
      </trkpt>
      <trkpt lat="43.64507" lon="1.24259">
        <ele>155</ele>
        <time>2016-06-16T15:27:15Z</time>
      </trkpt>
      <trkpt lat="43.64508" lon="1.24257">
        <ele>155</ele>
        <time>2016-06-16T15:27:16Z</time>
      </trkpt>
      <trkpt lat="43.6451" lon="1.24256">
        <ele>155</ele>
        <time>2016-06-16T15:27:17Z</time>
      </trkpt>
      <trkpt lat="43.64512" lon="1.24253">
        <ele>155</ele>
        <time>2016-06-16T15:27:19Z</time>
      </trkpt>
      <trkpt lat="43.64513" lon="1.24252">
        <ele>155</ele>
        <time>2016-06-16T15:27:20Z</time>
      </trkpt>
      <trkpt lat="43.64517" lon="1.24249">
        <ele>155</ele>
        <time>2016-06-16T15:27:22Z</time>
      </trkpt>
      <trkpt lat="43.6452" lon="1.24247">
        <ele>156</ele>
        <time>2016-06-16T15:27:24Z</time>
      </trkpt>
      <trkpt lat="43.64522" lon="1.24244">
        <ele>156</ele>
        <time>2016-06-16T15:27:26Z</time>
      </trkpt>
      <trkpt lat="43.64524" lon="1.24241">
        <ele>156</ele>
        <time>2016-06-16T15:27:28Z</time>
      </trkpt>
      <trkpt lat="43.64526" lon="1.24238">
        <ele>156</ele>
        <time>2016-06-16T15:27:30Z</time>
      </trkpt>
      <trkpt lat="43.64527" lon="1.24238">
        <ele>156</ele>
        <time>2016-06-16T15:27:31Z</time>
      </trkpt>
      <trkpt lat="43.64529" lon="1.24236">
        <ele>156</ele>
        <time>2016-06-16T15:27:33Z</time>
      </trkpt>
      <trkpt lat="43.64529" lon="1.24236">
        <ele>156</ele>
        <time>2016-06-16T15:27:34Z</time>
      </trkpt>
      <trkpt lat="43.64531" lon="1.24234">
        <ele>156</ele>
        <time>2016-06-16T15:27:36Z</time>
      </trkpt>
      <trkpt lat="43.64533" lon="1.24233">
        <ele>157</ele>
        <time>2016-06-16T15:27:37Z</time>
      </trkpt>
      <trkpt lat="43.64536" lon="1.24231">
        <ele>157</ele>
        <time>2016-06-16T15:27:39Z</time>
      </trkpt>
      <trkpt lat="43.64539" lon="1.24228">
        <ele>157</ele>
        <time>2016-06-16T15:27:41Z</time>
      </trkpt>
      <trkpt lat="43.64541" lon="1.24225">
        <ele>158</ele>
        <time>2016-06-16T15:27:43Z</time>
      </trkpt>
      <trkpt lat="43.64542" lon="1.24224">
        <ele>158</ele>
        <time>2016-06-16T15:27:44Z</time>
      </trkpt>
      <trkpt lat="43.64544" lon="1.24222">
        <ele>158</ele>
        <time>2016-06-16T15:27:46Z</time>
      </trkpt>
      <trkpt lat="43.64546" lon="1.24218">
        <ele>158</ele>
        <time>2016-06-16T15:27:48Z</time>
      </trkpt>
      <trkpt lat="43.64548" lon="1.24215">
        <ele>158</ele>
        <time>2016-06-16T15:27:50Z</time>
      </trkpt>
      <trkpt lat="43.64549" lon="1.24214">
        <ele>158</ele>
        <time>2016-06-16T15:27:51Z</time>
      </trkpt>
      <trkpt lat="43.64555" lon="1.2421">
        <ele>159</ele>
        <time>2016-06-16T15:27:55Z</time>
      </trkpt>
      <trkpt lat="43.64556" lon="1.24209">
        <ele>159</ele>
        <time>2016-06-16T15:27:56Z</time>
      </trkpt>
      <trkpt lat="43.64558" lon="1.24206">
        <ele>159</ele>
        <time>2016-06-16T15:27:58Z</time>
      </trkpt>
      <trkpt lat="43.6456" lon="1.24204">
        <ele>160</ele>
        <time>2016-06-16T15:28:00Z</time>
      </trkpt>
      <trkpt lat="43.64566" lon="1.24197">
        <ele>161</ele>
        <time>2016-06-16T15:28:04Z</time>
      </trkpt>
      <trkpt lat="43.64568" lon="1.24196">
        <ele>161</ele>
        <time>2016-06-16T15:28:06Z</time>
      </trkpt>
      <trkpt lat="43.64569" lon="1.24195">
        <ele>161</ele>
        <time>2016-06-16T15:28:07Z</time>
      </trkpt>
      <trkpt lat="43.64573" lon="1.2419">
        <ele>161</ele>
        <time>2016-06-16T15:28:11Z</time>
      </trkpt>
      <trkpt lat="43.64575" lon="1.24188">
        <ele>161</ele>
        <time>2016-06-16T15:28:13Z</time>
      </trkpt>
      <trkpt lat="43.64577" lon="1.24185">
        <ele>161</ele>
        <time>2016-06-16T15:28:15Z</time>
      </trkpt>
      <trkpt lat="43.64578" lon="1.24184">
        <ele>161</ele>
        <time>2016-06-16T15:28:16Z</time>
      </trkpt>
      <trkpt lat="43.6458" lon="1.2418">
        <ele>161</ele>
        <time>2016-06-16T15:28:18Z</time>
      </trkpt>
      <trkpt lat="43.64582" lon="1.24177">
        <ele>161</ele>
        <time>2016-06-16T15:28:20Z</time>
      </trkpt>
      <trkpt lat="43.64585" lon="1.24173">
        <ele>161</ele>
        <time>2016-06-16T15:28:22Z</time>
      </trkpt>
      <trkpt lat="43.64586" lon="1.24172">
        <ele>161</ele>
        <time>2016-06-16T15:28:24Z</time>
      </trkpt>
      <trkpt lat="43.64589" lon="1.24169">
        <ele>161</ele>
        <time>2016-06-16T15:28:26Z</time>
      </trkpt>
      <trkpt lat="43.64592" lon="1.24166">
        <ele>161</ele>
        <time>2016-06-16T15:28:28Z</time>
      </trkpt>
      <trkpt lat="43.64594" lon="1.24164">
        <ele>161</ele>
        <time>2016-06-16T15:28:30Z</time>
      </trkpt>
      <trkpt lat="43.64597" lon="1.24162">
        <ele>161</ele>
        <time>2016-06-16T15:28:32Z</time>
      </trkpt>
      <trkpt lat="43.64599" lon="1.24159">
        <ele>161</ele>
        <time>2016-06-16T15:28:34Z</time>
      </trkpt>
      <trkpt lat="43.64603" lon="1.24156">
        <ele>161</ele>
        <time>2016-06-16T15:28:36Z</time>
      </trkpt>
      <trkpt lat="43.64605" lon="1.24152">
        <ele>161</ele>
        <time>2016-06-16T15:28:38Z</time>
      </trkpt>
      <trkpt lat="43.64607" lon="1.2415">
        <ele>161</ele>
        <time>2016-06-16T15:28:39Z</time>
      </trkpt>
      <trkpt lat="43.64608" lon="1.24149">
        <ele>161</ele>
        <time>2016-06-16T15:28:40Z</time>
      </trkpt>
      <trkpt lat="43.64611" lon="1.24145">
        <ele>161</ele>
        <time>2016-06-16T15:28:42Z</time>
      </trkpt>
      <trkpt lat="43.64614" lon="1.24141">
        <ele>161</ele>
        <time>2016-06-16T15:28:44Z</time>
      </trkpt>
      <trkpt lat="43.64616" lon="1.24138">
        <ele>161</ele>
        <time>2016-06-16T15:28:46Z</time>
      </trkpt>
      <trkpt lat="43.64618" lon="1.24136">
        <ele>161</ele>
        <time>2016-06-16T15:28:48Z</time>
      </trkpt>
      <trkpt lat="43.64619" lon="1.24134">
        <ele>161</ele>
        <time>2016-06-16T15:28:49Z</time>
      </trkpt>
      <trkpt lat="43.64621" lon="1.24133">
        <ele>161</ele>
        <time>2016-06-16T15:28:50Z</time>
      </trkpt>
      <trkpt lat="43.64621" lon="1.24132">
        <ele>161</ele>
        <time>2016-06-16T15:28:51Z</time>
      </trkpt>
      <trkpt lat="43.64624" lon="1.2413">
        <ele>161</ele>
        <time>2016-06-16T15:28:53Z</time>
      </trkpt>
      <trkpt lat="43.64627" lon="1.2413">
        <ele>161</ele>
        <time>2016-06-16T15:28:55Z</time>
      </trkpt>
      <trkpt lat="43.64635" lon="1.24125">
        <ele>163</ele>
        <time>2016-06-16T15:29:00Z</time>
      </trkpt>
      <trkpt lat="43.64636" lon="1.24124">
        <ele>163</ele>
        <time>2016-06-16T15:29:01Z</time>
      </trkpt>
      <trkpt lat="43.64638" lon="1.24122">
        <ele>163</ele>
        <time>2016-06-16T15:29:03Z</time>
      </trkpt>
      <trkpt lat="43.6464" lon="1.24119">
        <ele>164</ele>
        <time>2016-06-16T15:29:04Z</time>
      </trkpt>
      <trkpt lat="43.64642" lon="1.24116">
        <ele>164</ele>
        <time>2016-06-16T15:29:06Z</time>
      </trkpt>
      <trkpt lat="43.64644" lon="1.24114">
        <ele>164</ele>
        <time>2016-06-16T15:29:08Z</time>
      </trkpt>
      <trkpt lat="43.64645" lon="1.24112">
        <ele>164</ele>
        <time>2016-06-16T15:29:10Z</time>
      </trkpt>
      <trkpt lat="43.64646" lon="1.2411">
        <ele>164</ele>
        <time>2016-06-16T15:29:11Z</time>
      </trkpt>
      <trkpt lat="43.64649" lon="1.24107">
        <ele>164</ele>
        <time>2016-06-16T15:29:13Z</time>
      </trkpt>
      <trkpt lat="43.64651" lon="1.24105">
        <ele>165</ele>
        <time>2016-06-16T15:29:15Z</time>
      </trkpt>
      <trkpt lat="43.64652" lon="1.24104">
        <ele>165</ele>
        <time>2016-06-16T15:29:16Z</time>
      </trkpt>
      <trkpt lat="43.64653" lon="1.24102">
        <ele>165</ele>
        <time>2016-06-16T15:29:18Z</time>
      </trkpt>
      <trkpt lat="43.64656" lon="1.24101">
        <ele>165</ele>
        <time>2016-06-16T15:29:20Z</time>
      </trkpt>
      <trkpt lat="43.64657" lon="1.24099">
        <ele>166</ele>
        <time>2016-06-16T15:29:22Z</time>
      </trkpt>
      <trkpt lat="43.64658" lon="1.24097">
        <ele>166</ele>
        <time>2016-06-16T15:29:24Z</time>
      </trkpt>
      <trkpt lat="43.6466" lon="1.24093">
        <ele>166</ele>
        <time>2016-06-16T15:29:26Z</time>
      </trkpt>
      <trkpt lat="43.64665" lon="1.24088">
        <ele>167</ele>
        <time>2016-06-16T15:29:28Z</time>
      </trkpt>
      <trkpt lat="43.64674" lon="1.24082">
        <ele>167</ele>
        <time>2016-06-16T15:29:31Z</time>
      </trkpt>
      <trkpt lat="43.64679" lon="1.2408">
        <ele>167</ele>
        <time>2016-06-16T15:29:34Z</time>
      </trkpt>
      <trkpt lat="43.64682" lon="1.24077">
        <ele>167</ele>
        <time>2016-06-16T15:29:36Z</time>
      </trkpt>
      <trkpt lat="43.64683" lon="1.24076">
        <ele>167</ele>
        <time>2016-06-16T15:29:37Z</time>
      </trkpt>
      <trkpt lat="43.64685" lon="1.24073">
        <ele>167</ele>
        <time>2016-06-16T15:29:39Z</time>
      </trkpt>
      <trkpt lat="43.64687" lon="1.2407">
        <ele>167</ele>
        <time>2016-06-16T15:29:41Z</time>
      </trkpt>
      <trkpt lat="43.6469" lon="1.2407">
        <ele>167</ele>
        <time>2016-06-16T15:29:43Z</time>
      </trkpt>
      <trkpt lat="43.64691" lon="1.24069">
        <ele>167</ele>
        <time>2016-06-16T15:29:44Z</time>
      </trkpt>
      <trkpt lat="43.64693" lon="1.24067">
        <ele>167</ele>
        <time>2016-06-16T15:29:46Z</time>
      </trkpt>
      <trkpt lat="43.64695" lon="1.24064">
        <ele>167</ele>
        <time>2016-06-16T15:29:48Z</time>
      </trkpt>
      <trkpt lat="43.64698" lon="1.24061">
        <ele>167</ele>
        <time>2016-06-16T15:29:50Z</time>
      </trkpt>
      <trkpt lat="43.647" lon="1.24058">
        <ele>167</ele>
        <time>2016-06-16T15:29:52Z</time>
      </trkpt>
      <trkpt lat="43.64702" lon="1.24057">
        <ele>168</ele>
        <time>2016-06-16T15:29:53Z</time>
      </trkpt>
      <trkpt lat="43.64703" lon="1.24056">
        <ele>168</ele>
        <time>2016-06-16T15:29:54Z</time>
      </trkpt>
      <trkpt lat="43.64705" lon="1.24054">
        <ele>168</ele>
        <time>2016-06-16T15:29:56Z</time>
      </trkpt>
      <trkpt lat="43.64708" lon="1.24052">
        <ele>168</ele>
        <time>2016-06-16T15:29:58Z</time>
      </trkpt>
      <trkpt lat="43.6471" lon="1.2405">
        <ele>168</ele>
        <time>2016-06-16T15:30:00Z</time>
      </trkpt>
      <trkpt lat="43.64711" lon="1.24051">
        <ele>168</ele>
        <time>2016-06-16T15:30:01Z</time>
      </trkpt>
      <trkpt lat="43.64712" lon="1.2405">
        <ele>169</ele>
        <time>2016-06-16T15:30:02Z</time>
      </trkpt>
      <trkpt lat="43.64714" lon="1.24048">
        <ele>169</ele>
        <time>2016-06-16T15:30:04Z</time>
      </trkpt>
      <trkpt lat="43.64716" lon="1.24046">
        <ele>169</ele>
        <time>2016-06-16T15:30:06Z</time>
      </trkpt>
      <trkpt lat="43.64719" lon="1.24042">
        <ele>169</ele>
        <time>2016-06-16T15:30:08Z</time>
      </trkpt>
      <trkpt lat="43.64722" lon="1.24039">
        <ele>169</ele>
        <time>2016-06-16T15:30:10Z</time>
      </trkpt>
      <trkpt lat="43.64723" lon="1.24036">
        <ele>168</ele>
        <time>2016-06-16T15:30:12Z</time>
      </trkpt>
      <trkpt lat="43.64729" lon="1.24032">
        <ele>168</ele>
        <time>2016-06-16T15:30:16Z</time>
      </trkpt>
      <trkpt lat="43.64731" lon="1.24028">
        <ele>168</ele>
        <time>2016-06-16T15:30:18Z</time>
      </trkpt>
      <trkpt lat="43.64732" lon="1.24025">
        <ele>168</ele>
        <time>2016-06-16T15:30:20Z</time>
      </trkpt>
      <trkpt lat="43.64734" lon="1.24024">
        <ele>168</ele>
        <time>2016-06-16T15:30:21Z</time>
      </trkpt>
      <trkpt lat="43.64735" lon="1.24023">
        <ele>168</ele>
        <time>2016-06-16T15:30:22Z</time>
      </trkpt>
      <trkpt lat="43.64739" lon="1.2402">
        <ele>168</ele>
        <time>2016-06-16T15:30:24Z</time>
      </trkpt>
      <trkpt lat="43.64739" lon="1.24019">
        <ele>168</ele>
        <time>2016-06-16T15:30:25Z</time>
      </trkpt>
      <trkpt lat="43.6474" lon="1.24018">
        <ele>168</ele>
        <time>2016-06-16T15:30:26Z</time>
      </trkpt>
      <trkpt lat="43.64741" lon="1.24017">
        <ele>168</ele>
        <time>2016-06-16T15:30:27Z</time>
      </trkpt>
      <trkpt lat="43.64742" lon="1.24014">
        <ele>168</ele>
        <time>2016-06-16T15:30:29Z</time>
      </trkpt>
      <trkpt lat="43.64744" lon="1.24012">
        <ele>168</ele>
        <time>2016-06-16T15:30:31Z</time>
      </trkpt>
      <trkpt lat="43.64745" lon="1.24011">
        <ele>168</ele>
        <time>2016-06-16T15:30:32Z</time>
      </trkpt>
      <trkpt lat="43.64749" lon="1.24006">
        <ele>169</ele>
        <time>2016-06-16T15:30:35Z</time>
      </trkpt>
      <trkpt lat="43.64752" lon="1.24003">
        <ele>169</ele>
        <time>2016-06-16T15:30:37Z</time>
      </trkpt>
      <trkpt lat="43.64753" lon="1.24002">
        <ele>169</ele>
        <time>2016-06-16T15:30:38Z</time>
      </trkpt>
      <trkpt lat="43.64756" lon="1.24">
        <ele>170</ele>
        <time>2016-06-16T15:30:40Z</time>
      </trkpt>
      <trkpt lat="43.64758" lon="1.23997">
        <ele>170</ele>
        <time>2016-06-16T15:30:42Z</time>
      </trkpt>
      <trkpt lat="43.6476" lon="1.23995">
        <ele>170</ele>
        <time>2016-06-16T15:30:44Z</time>
      </trkpt>
      <trkpt lat="43.64761" lon="1.23993">
        <ele>170</ele>
        <time>2016-06-16T15:30:45Z</time>
      </trkpt>
      <trkpt lat="43.64763" lon="1.23992">
        <ele>171</ele>
        <time>2016-06-16T15:30:46Z</time>
      </trkpt>
      <trkpt lat="43.64764" lon="1.23991">
        <ele>171</ele>
        <time>2016-06-16T15:30:47Z</time>
      </trkpt>
      <trkpt lat="43.64766" lon="1.23989">
        <ele>171</ele>
        <time>2016-06-16T15:30:49Z</time>
      </trkpt>
      <trkpt lat="43.64769" lon="1.23988">
        <ele>172</ele>
        <time>2016-06-16T15:30:51Z</time>
      </trkpt>
      <trkpt lat="43.64769" lon="1.23987">
        <ele>172</ele>
        <time>2016-06-16T15:30:52Z</time>
      </trkpt>
      <trkpt lat="43.64772" lon="1.23984">
        <ele>172</ele>
        <time>2016-06-16T15:30:54Z</time>
      </trkpt>
      <trkpt lat="43.64773" lon="1.23983">
        <ele>172</ele>
        <time>2016-06-16T15:30:55Z</time>
      </trkpt>
      <trkpt lat="43.64776" lon="1.23979">
        <ele>172</ele>
        <time>2016-06-16T15:30:57Z</time>
      </trkpt>
      <trkpt lat="43.64777" lon="1.23978">
        <ele>173</ele>
        <time>2016-06-16T15:30:58Z</time>
      </trkpt>
      <trkpt lat="43.6478" lon="1.23976">
        <ele>173</ele>
        <time>2016-06-16T15:31:00Z</time>
      </trkpt>
      <trkpt lat="43.6478" lon="1.23973">
        <ele>173</ele>
        <time>2016-06-16T15:31:01Z</time>
      </trkpt>
      <trkpt lat="43.64781" lon="1.23971">
        <ele>173</ele>
        <time>2016-06-16T15:31:02Z</time>
      </trkpt>
      <trkpt lat="43.64783" lon="1.23967">
        <ele>173</ele>
        <time>2016-06-16T15:31:04Z</time>
      </trkpt>
      <trkpt lat="43.64784" lon="1.23966">
        <ele>173</ele>
        <time>2016-06-16T15:31:05Z</time>
      </trkpt>
      <trkpt lat="43.64787" lon="1.23964">
        <ele>173</ele>
        <time>2016-06-16T15:31:07Z</time>
      </trkpt>
      <trkpt lat="43.6479" lon="1.23962">
        <ele>173</ele>
        <time>2016-06-16T15:31:09Z</time>
      </trkpt>
      <trkpt lat="43.64793" lon="1.2396">
        <ele>174</ele>
        <time>2016-06-16T15:31:11Z</time>
      </trkpt>
      <trkpt lat="43.64795" lon="1.23958">
        <ele>174</ele>
        <time>2016-06-16T15:31:13Z</time>
      </trkpt>
      <trkpt lat="43.64797" lon="1.23956">
        <ele>174</ele>
        <time>2016-06-16T15:31:15Z</time>
      </trkpt>
      <trkpt lat="43.64798" lon="1.23955">
        <ele>174</ele>
        <time>2016-06-16T15:31:16Z</time>
      </trkpt>
      <trkpt lat="43.64801" lon="1.23953">
        <ele>174</ele>
        <time>2016-06-16T15:31:18Z</time>
      </trkpt>
      <trkpt lat="43.64803" lon="1.23952">
        <ele>174</ele>
        <time>2016-06-16T15:31:20Z</time>
      </trkpt>
      <trkpt lat="43.64805" lon="1.23951">
        <ele>175</ele>
        <time>2016-06-16T15:31:22Z</time>
      </trkpt>
      <trkpt lat="43.64806" lon="1.23949">
        <ele>175</ele>
        <time>2016-06-16T15:31:24Z</time>
      </trkpt>
      <trkpt lat="43.64808" lon="1.23947">
        <ele>175</ele>
        <time>2016-06-16T15:31:26Z</time>
      </trkpt>
      <trkpt lat="43.64808" lon="1.23947">
        <ele>175</ele>
        <time>2016-06-16T15:31:27Z</time>
      </trkpt>
      <trkpt lat="43.64809" lon="1.23945">
        <ele>176</ele>
        <time>2016-06-16T15:31:29Z</time>
      </trkpt>
      <trkpt lat="43.6481" lon="1.23944">
        <ele>176</ele>
        <time>2016-06-16T15:31:30Z</time>
      </trkpt>
      <trkpt lat="43.64813" lon="1.23941">
        <ele>176</ele>
        <time>2016-06-16T15:31:32Z</time>
      </trkpt>
      <trkpt lat="43.64818" lon="1.23939">
        <ele>176</ele>
        <time>2016-06-16T15:31:34Z</time>
      </trkpt>
      <trkpt lat="43.64825" lon="1.23929">
        <ele>177</ele>
        <time>2016-06-16T15:31:38Z</time>
      </trkpt>
      <trkpt lat="43.64827" lon="1.23926">
        <ele>177</ele>
        <time>2016-06-16T15:31:40Z</time>
      </trkpt>
      <trkpt lat="43.64829" lon="1.23923">
        <ele>177</ele>
        <time>2016-06-16T15:31:42Z</time>
      </trkpt>
      <trkpt lat="43.64831" lon="1.23921">
        <ele>178</ele>
        <time>2016-06-16T15:31:44Z</time>
      </trkpt>
      <trkpt lat="43.64832" lon="1.2392">
        <ele>178</ele>
        <time>2016-06-16T15:31:45Z</time>
      </trkpt>
      <trkpt lat="43.64833" lon="1.2392">
        <ele>178</ele>
        <time>2016-06-16T15:31:46Z</time>
      </trkpt>
      <trkpt lat="43.64834" lon="1.2392">
        <ele>178</ele>
        <time>2016-06-16T15:31:47Z</time>
      </trkpt>
      <trkpt lat="43.64836" lon="1.23917">
        <ele>178</ele>
        <time>2016-06-16T15:31:49Z</time>
      </trkpt>
      <trkpt lat="43.64838" lon="1.23915">
        <ele>178</ele>
        <time>2016-06-16T15:31:50Z</time>
      </trkpt>
      <trkpt lat="43.6484" lon="1.23912">
        <ele>179</ele>
        <time>2016-06-16T15:31:52Z</time>
      </trkpt>
      <trkpt lat="43.64843" lon="1.2391">
        <ele>179</ele>
        <time>2016-06-16T15:31:54Z</time>
      </trkpt>
      <trkpt lat="43.64843" lon="1.23909">
        <ele>179</ele>
        <time>2016-06-16T15:31:55Z</time>
      </trkpt>
      <trkpt lat="43.64843" lon="1.23909">
        <ele>179</ele>
        <time>2016-06-16T15:31:56Z</time>
      </trkpt>
      <trkpt lat="43.64845" lon="1.23907">
        <ele>179</ele>
        <time>2016-06-16T15:31:57Z</time>
      </trkpt>
      <trkpt lat="43.64847" lon="1.23904">
        <ele>179</ele>
        <time>2016-06-16T15:31:59Z</time>
      </trkpt>
      <trkpt lat="43.64848" lon="1.23903">
        <ele>179</ele>
        <time>2016-06-16T15:32:00Z</time>
      </trkpt>
      <trkpt lat="43.64851" lon="1.239">
        <ele>179</ele>
        <time>2016-06-16T15:32:02Z</time>
      </trkpt>
      <trkpt lat="43.64853" lon="1.23899">
        <ele>179</ele>
        <time>2016-06-16T15:32:04Z</time>
      </trkpt>
      <trkpt lat="43.64853" lon="1.23898">
        <ele>179</ele>
        <time>2016-06-16T15:32:05Z</time>
      </trkpt>
      <trkpt lat="43.64856" lon="1.23896">
        <ele>179</ele>
        <time>2016-06-16T15:32:07Z</time>
      </trkpt>
      <trkpt lat="43.64858" lon="1.23894">
        <ele>179</ele>
        <time>2016-06-16T15:32:09Z</time>
      </trkpt>
      <trkpt lat="43.64861" lon="1.23889">
        <ele>180</ele>
        <time>2016-06-16T15:32:12Z</time>
      </trkpt>
      <trkpt lat="43.64868" lon="1.23879">
        <ele>180</ele>
        <time>2016-06-16T15:32:16Z</time>
      </trkpt>
      <trkpt lat="43.6487" lon="1.23874">
        <ele>180</ele>
        <time>2016-06-16T15:32:18Z</time>
      </trkpt>
      <trkpt lat="43.64871" lon="1.23873">
        <ele>180</ele>
        <time>2016-06-16T15:32:19Z</time>
      </trkpt>
      <trkpt lat="43.64874" lon="1.2387">
        <ele>180</ele>
        <time>2016-06-16T15:32:21Z</time>
      </trkpt>
      <trkpt lat="43.64877" lon="1.23866">
        <ele>181</ele>
        <time>2016-06-16T15:32:24Z</time>
      </trkpt>
      <trkpt lat="43.64879" lon="1.23865">
        <ele>181</ele>
        <time>2016-06-16T15:32:25Z</time>
      </trkpt>
      <trkpt lat="43.64879" lon="1.23864">
        <ele>181</ele>
        <time>2016-06-16T15:32:26Z</time>
      </trkpt>
      <trkpt lat="43.6488" lon="1.23864">
        <ele>181</ele>
        <time>2016-06-16T15:32:27Z</time>
      </trkpt>
      <trkpt lat="43.64883" lon="1.23862">
        <ele>182</ele>
        <time>2016-06-16T15:32:29Z</time>
      </trkpt>
      <trkpt lat="43.64886" lon="1.23859">
        <ele>182</ele>
        <time>2016-06-16T15:32:31Z</time>
      </trkpt>
      <trkpt lat="43.64888" lon="1.23856">
        <ele>182</ele>
        <time>2016-06-16T15:32:32Z</time>
      </trkpt>
      <trkpt lat="43.64891" lon="1.23854">
        <ele>182</ele>
        <time>2016-06-16T15:32:34Z</time>
      </trkpt>
      <trkpt lat="43.64893" lon="1.23854">
        <ele>182</ele>
        <time>2016-06-16T15:32:36Z</time>
      </trkpt>
      <trkpt lat="43.64903" lon="1.23846">
        <ele>182</ele>
        <time>2016-06-16T15:32:42Z</time>
      </trkpt>
      <trkpt lat="43.64906" lon="1.23841">
        <ele>181</ele>
        <time>2016-06-16T15:32:44Z</time>
      </trkpt>
      <trkpt lat="43.64907" lon="1.2384">
        <ele>181</ele>
        <time>2016-06-16T15:32:45Z</time>
      </trkpt>
      <trkpt lat="43.64907" lon="1.23838">
        <ele>181</ele>
        <time>2016-06-16T15:32:46Z</time>
      </trkpt>
      <trkpt lat="43.64908" lon="1.23837">
        <ele>181</ele>
        <time>2016-06-16T15:32:47Z</time>
      </trkpt>
      <trkpt lat="43.6491" lon="1.23833">
        <ele>181</ele>
        <time>2016-06-16T15:32:49Z</time>
      </trkpt>
      <trkpt lat="43.64912" lon="1.2383">
        <ele>181</ele>
        <time>2016-06-16T15:32:51Z</time>
      </trkpt>
      <trkpt lat="43.64914" lon="1.23828">
        <ele>181</ele>
        <time>2016-06-16T15:32:53Z</time>
      </trkpt>
      <trkpt lat="43.64916" lon="1.23826">
        <ele>181</ele>
        <time>2016-06-16T15:32:55Z</time>
      </trkpt>
      <trkpt lat="43.64919" lon="1.23822">
        <ele>181</ele>
        <time>2016-06-16T15:32:58Z</time>
      </trkpt>
      <trkpt lat="43.6492" lon="1.2382">
        <ele>181</ele>
        <time>2016-06-16T15:32:59Z</time>
      </trkpt>
      <trkpt lat="43.64923" lon="1.23817">
        <ele>181</ele>
        <time>2016-06-16T15:33:01Z</time>
      </trkpt>
      <trkpt lat="43.64925" lon="1.23815">
        <ele>182</ele>
        <time>2016-06-16T15:33:03Z</time>
      </trkpt>
      <trkpt lat="43.64926" lon="1.23813">
        <ele>182</ele>
        <time>2016-06-16T15:33:04Z</time>
      </trkpt>
      <trkpt lat="43.64928" lon="1.23812">
        <ele>182</ele>
        <time>2016-06-16T15:33:05Z</time>
      </trkpt>
      <trkpt lat="43.6493" lon="1.23808">
        <ele>182</ele>
        <time>2016-06-16T15:33:07Z</time>
      </trkpt>
      <trkpt lat="43.64933" lon="1.23804">
        <ele>182</ele>
        <time>2016-06-16T15:33:09Z</time>
      </trkpt>
      <trkpt lat="43.64934" lon="1.23802">
        <ele>183</ele>
        <time>2016-06-16T15:33:10Z</time>
      </trkpt>
      <trkpt lat="43.64936" lon="1.23799">
        <ele>183</ele>
        <time>2016-06-16T15:33:12Z</time>
      </trkpt>
      <trkpt lat="43.64936" lon="1.23797">
        <ele>183</ele>
        <time>2016-06-16T15:33:13Z</time>
      </trkpt>
      <trkpt lat="43.64937" lon="1.23794">
        <ele>183</ele>
        <time>2016-06-16T15:33:14Z</time>
      </trkpt>
      <trkpt lat="43.64938" lon="1.23793">
        <ele>183</ele>
        <time>2016-06-16T15:33:15Z</time>
      </trkpt>
      <trkpt lat="43.64939" lon="1.23792">
        <ele>184</ele>
        <time>2016-06-16T15:33:17Z</time>
      </trkpt>
      <trkpt lat="43.64942" lon="1.23791">
        <ele>184</ele>
        <time>2016-06-16T15:33:19Z</time>
      </trkpt>
      <trkpt lat="43.64943" lon="1.23788">
        <ele>184</ele>
        <time>2016-06-16T15:33:20Z</time>
      </trkpt>
      <trkpt lat="43.64946" lon="1.23787">
        <ele>184</ele>
        <time>2016-06-16T15:33:22Z</time>
      </trkpt>
      <trkpt lat="43.64947" lon="1.23787">
        <ele>183</ele>
        <time>2016-06-16T15:33:23Z</time>
      </trkpt>
      <trkpt lat="43.64953" lon="1.23785">
        <ele>182</ele>
        <time>2016-06-16T15:33:34Z</time>
      </trkpt>
      <trkpt lat="43.64956" lon="1.23785">
        <ele>180</ele>
        <time>2016-06-16T15:33:36Z</time>
      </trkpt>
      <trkpt lat="43.64957" lon="1.23785">
        <ele>179</ele>
        <time>2016-06-16T15:33:38Z</time>
      </trkpt>
      <trkpt lat="43.64958" lon="1.23785">
        <ele>177</ele>
        <time>2016-06-16T15:33:39Z</time>
      </trkpt>
      <trkpt lat="43.64961" lon="1.23784">
        <ele>176</ele>
        <time>2016-06-16T15:33:41Z</time>
      </trkpt>
      <trkpt lat="43.64965" lon="1.23781">
        <ele>174</ele>
        <time>2016-06-16T15:33:44Z</time>
      </trkpt>
      <trkpt lat="43.64966" lon="1.23781">
        <ele>174</ele>
        <time>2016-06-16T15:33:45Z</time>
      </trkpt>
      <trkpt lat="43.64967" lon="1.2378">
        <ele>173</ele>
        <time>2016-06-16T15:33:46Z</time>
      </trkpt>
      <trkpt lat="43.64968" lon="1.23779">
        <ele>172</ele>
        <time>2016-06-16T15:33:47Z</time>
      </trkpt>
      <trkpt lat="43.64971" lon="1.23777">
        <ele>172</ele>
        <time>2016-06-16T15:33:49Z</time>
      </trkpt>
      <trkpt lat="43.64973" lon="1.23775">
        <ele>172</ele>
        <time>2016-06-16T15:33:51Z</time>
      </trkpt>
      <trkpt lat="43.64975" lon="1.23774">
        <ele>171</ele>
        <time>2016-06-16T15:33:52Z</time>
      </trkpt>
      <trkpt lat="43.64977" lon="1.23772">
        <ele>171</ele>
        <time>2016-06-16T15:33:54Z</time>
      </trkpt>
      <trkpt lat="43.64986" lon="1.23766">
        <ele>169</ele>
        <time>2016-06-16T15:33:58Z</time>
      </trkpt>
      <trkpt lat="43.64988" lon="1.23763">
        <ele>169</ele>
        <time>2016-06-16T15:34:00Z</time>
      </trkpt>
      <trkpt lat="43.64988" lon="1.23763">
        <ele>168</ele>
        <time>2016-06-16T15:34:01Z</time>
      </trkpt>
      <trkpt lat="43.6499" lon="1.23761">
        <ele>168</ele>
        <time>2016-06-16T15:34:03Z</time>
      </trkpt>
      <trkpt lat="43.64991" lon="1.23761">
        <ele>167</ele>
        <time>2016-06-16T15:34:05Z</time>
      </trkpt>
      <trkpt lat="43.64992" lon="1.23761">
        <ele>167</ele>
        <time>2016-06-16T15:34:07Z</time>
      </trkpt>
      <trkpt lat="43.64992" lon="1.2376">
        <ele>166</ele>
        <time>2016-06-16T15:34:09Z</time>
      </trkpt>
      <trkpt lat="43.64999" lon="1.23751">
        <ele>165</ele>
        <time>2016-06-16T15:34:32Z</time>
      </trkpt>
      <trkpt lat="43.64998" lon="1.2375">
        <ele>164</ele>
        <time>2016-06-16T15:34:33Z</time>
      </trkpt>
      <trkpt lat="43.64999" lon="1.23749">
        <ele>162</ele>
        <time>2016-06-16T15:34:35Z</time>
      </trkpt>
      <trkpt lat="43.65001" lon="1.23748">
        <ele>161</ele>
        <time>2016-06-16T15:34:47Z</time>
      </trkpt>
      <trkpt lat="43.65002" lon="1.23747">
        <ele>159</ele>
        <time>2016-06-16T15:34:49Z</time>
      </trkpt>
      <trkpt lat="43.65003" lon="1.23747">
        <ele>159</ele>
        <time>2016-06-16T15:34:51Z</time>
      </trkpt>
      <trkpt lat="43.65003" lon="1.23746">
        <ele>158</ele>
        <time>2016-06-16T15:34:52Z</time>
      </trkpt>
      <trkpt lat="43.65004" lon="1.23745">
        <ele>157</ele>
        <time>2016-06-16T15:34:54Z</time>
      </trkpt>
      <trkpt lat="43.65005" lon="1.23743">
        <ele>157</ele>
        <time>2016-06-16T15:34:56Z</time>
      </trkpt>
      <trkpt lat="43.65006" lon="1.23743">
        <ele>157</ele>
        <time>2016-06-16T15:34:57Z</time>
      </trkpt>
      <trkpt lat="43.65006" lon="1.23742">
        <ele>157</ele>
        <time>2016-06-16T15:34:59Z</time>
      </trkpt>
      <trkpt lat="43.65007" lon="1.23741">
        <ele>157</ele>
        <time>2016-06-16T15:35:00Z</time>
      </trkpt>
      <trkpt lat="43.65007" lon="1.2374">
        <ele>156</ele>
        <time>2016-06-16T15:35:01Z</time>
      </trkpt>
      <trkpt lat="43.65009" lon="1.23739">
        <ele>156</ele>
        <time>2016-06-16T15:35:03Z</time>
      </trkpt>
      <trkpt lat="43.6501" lon="1.23739">
        <ele>156</ele>
        <time>2016-06-16T15:35:04Z</time>
      </trkpt>
      <trkpt lat="43.65011" lon="1.23738">
        <ele>156</ele>
        <time>2016-06-16T15:35:05Z</time>
      </trkpt>
      <trkpt lat="43.65013" lon="1.23735">
        <ele>156</ele>
        <time>2016-06-16T15:35:07Z</time>
      </trkpt>
      <trkpt lat="43.65015" lon="1.23736">
        <ele>156</ele>
        <time>2016-06-16T15:35:09Z</time>
      </trkpt>
      <trkpt lat="43.65016" lon="1.23735">
        <ele>155</ele>
        <time>2016-06-16T15:35:10Z</time>
      </trkpt>
      <trkpt lat="43.65018" lon="1.23733">
        <ele>155</ele>
        <time>2016-06-16T15:35:12Z</time>
      </trkpt>
      <trkpt lat="43.65019" lon="1.23731">
        <ele>155</ele>
        <time>2016-06-16T15:35:14Z</time>
      </trkpt>
      <trkpt lat="43.65022" lon="1.23731">
        <ele>155</ele>
        <time>2016-06-16T15:35:16Z</time>
      </trkpt>
      <trkpt lat="43.65025" lon="1.23728">
        <ele>155</ele>
        <time>2016-06-16T15:35:18Z</time>
      </trkpt>
      <trkpt lat="43.65025" lon="1.23726">
        <ele>154</ele>
        <time>2016-06-16T15:35:20Z</time>
      </trkpt>
      <trkpt lat="43.65027" lon="1.23724">
        <ele>154</ele>
        <time>2016-06-16T15:35:22Z</time>
      </trkpt>
      <trkpt lat="43.65028" lon="1.23722">
        <ele>154</ele>
        <time>2016-06-16T15:35:24Z</time>
      </trkpt>
      <trkpt lat="43.65029" lon="1.2372">
        <ele>154</ele>
        <time>2016-06-16T15:35:25Z</time>
      </trkpt>
      <trkpt lat="43.6503" lon="1.23718">
        <ele>153</ele>
        <time>2016-06-16T15:35:26Z</time>
      </trkpt>
      <trkpt lat="43.65031" lon="1.23717">
        <ele>153</ele>
        <time>2016-06-16T15:35:27Z</time>
      </trkpt>
      <trkpt lat="43.65033" lon="1.23715">
        <ele>153</ele>
        <time>2016-06-16T15:35:29Z</time>
      </trkpt>
      <trkpt lat="43.65035" lon="1.23713">
        <ele>152</ele>
        <time>2016-06-16T15:35:31Z</time>
      </trkpt>
      <trkpt lat="43.65039" lon="1.23709">
        <ele>152</ele>
        <time>2016-06-16T15:35:34Z</time>
      </trkpt>
      <trkpt lat="43.65041" lon="1.23708">
        <ele>151</ele>
        <time>2016-06-16T15:35:36Z</time>
      </trkpt>
      <trkpt lat="43.65041" lon="1.23707">
        <ele>151</ele>
        <time>2016-06-16T15:35:38Z</time>
      </trkpt>
      <trkpt lat="43.65043" lon="1.23705">
        <ele>150</ele>
        <time>2016-06-16T15:35:40Z</time>
      </trkpt>
      <trkpt lat="43.65044" lon="1.23702">
        <ele>150</ele>
        <time>2016-06-16T15:35:42Z</time>
      </trkpt>
      <trkpt lat="43.65045" lon="1.23698">
        <ele>149</ele>
        <time>2016-06-16T15:35:44Z</time>
      </trkpt>
      <trkpt lat="43.65045" lon="1.23697">
        <ele>149</ele>
        <time>2016-06-16T15:35:45Z</time>
      </trkpt>
      <trkpt lat="43.65045" lon="1.23695">
        <ele>148</ele>
        <time>2016-06-16T15:35:46Z</time>
      </trkpt>
      <trkpt lat="43.65046" lon="1.23694">
        <ele>148</ele>
        <time>2016-06-16T15:35:47Z</time>
      </trkpt>
      <trkpt lat="43.65045" lon="1.23691">
        <ele>148</ele>
        <time>2016-06-16T15:35:49Z</time>
      </trkpt>
      <trkpt lat="43.65044" lon="1.23689">
        <ele>148</ele>
        <time>2016-06-16T15:35:50Z</time>
      </trkpt>
      <trkpt lat="43.65044" lon="1.23686">
        <ele>148</ele>
        <time>2016-06-16T15:35:52Z</time>
      </trkpt>
      <trkpt lat="43.65044" lon="1.23683">
        <ele>148</ele>
        <time>2016-06-16T15:35:54Z</time>
      </trkpt>
      <trkpt lat="43.65043" lon="1.23682">
        <ele>148</ele>
        <time>2016-06-16T15:35:55Z</time>
      </trkpt>
      <trkpt lat="43.65041" lon="1.23677">
        <ele>148</ele>
        <time>2016-06-16T15:35:58Z</time>
      </trkpt>
      <trkpt lat="43.65039" lon="1.23673">
        <ele>148</ele>
        <time>2016-06-16T15:36:01Z</time>
      </trkpt>
      <trkpt lat="43.65037" lon="1.2367">
        <ele>149</ele>
        <time>2016-06-16T15:36:03Z</time>
      </trkpt>
      <trkpt lat="43.65036" lon="1.23669">
        <ele>149</ele>
        <time>2016-06-16T15:36:04Z</time>
      </trkpt>
      <trkpt lat="43.65035" lon="1.23666">
        <ele>149</ele>
        <time>2016-06-16T15:36:06Z</time>
      </trkpt>
      <trkpt lat="43.65033" lon="1.23663">
        <ele>150</ele>
        <time>2016-06-16T15:36:08Z</time>
      </trkpt>
      <trkpt lat="43.65031" lon="1.23659">
        <ele>150</ele>
        <time>2016-06-16T15:36:10Z</time>
      </trkpt>
      <trkpt lat="43.6503" lon="1.23655">
        <ele>150</ele>
        <time>2016-06-16T15:36:12Z</time>
      </trkpt>
      <trkpt lat="43.65029" lon="1.23653">
        <ele>150</ele>
        <time>2016-06-16T15:36:13Z</time>
      </trkpt>
      <trkpt lat="43.65028" lon="1.23648">
        <ele>150</ele>
        <time>2016-06-16T15:36:15Z</time>
      </trkpt>
      <trkpt lat="43.65027" lon="1.23647">
        <ele>150</ele>
        <time>2016-06-16T15:36:16Z</time>
      </trkpt>
      <trkpt lat="43.65025" lon="1.23643">
        <ele>150</ele>
        <time>2016-06-16T15:36:18Z</time>
      </trkpt>
      <trkpt lat="43.65023" lon="1.23639">
        <ele>150</ele>
        <time>2016-06-16T15:36:20Z</time>
      </trkpt>
      <trkpt lat="43.65022" lon="1.23638">
        <ele>150</ele>
        <time>2016-06-16T15:36:21Z</time>
      </trkpt>
      <trkpt lat="43.65019" lon="1.23635">
        <ele>150</ele>
        <time>2016-06-16T15:36:23Z</time>
      </trkpt>
      <trkpt lat="43.65018" lon="1.23633">
        <ele>150</ele>
        <time>2016-06-16T15:36:24Z</time>
      </trkpt>
      <trkpt lat="43.65017" lon="1.23631">
        <ele>150</ele>
        <time>2016-06-16T15:36:25Z</time>
      </trkpt>
      <trkpt lat="43.65017" lon="1.2363">
        <ele>151</ele>
        <time>2016-06-16T15:36:26Z</time>
      </trkpt>
      <trkpt lat="43.65016" lon="1.23628">
        <ele>151</ele>
        <time>2016-06-16T15:36:27Z</time>
      </trkpt>
      <trkpt lat="43.65014" lon="1.23624">
        <ele>151</ele>
        <time>2016-06-16T15:36:29Z</time>
      </trkpt>
      <trkpt lat="43.65013" lon="1.23623">
        <ele>151</ele>
        <time>2016-06-16T15:36:30Z</time>
      </trkpt>
      <trkpt lat="43.65011" lon="1.23619">
        <ele>151</ele>
        <time>2016-06-16T15:36:32Z</time>
      </trkpt>
      <trkpt lat="43.65009" lon="1.23615">
        <ele>151</ele>
        <time>2016-06-16T15:36:34Z</time>
      </trkpt>
      <trkpt lat="43.65007" lon="1.23611">
        <ele>151</ele>
        <time>2016-06-16T15:36:36Z</time>
      </trkpt>
      <trkpt lat="43.65004" lon="1.23607">
        <ele>151</ele>
        <time>2016-06-16T15:36:38Z</time>
      </trkpt>
      <trkpt lat="43.65002" lon="1.23603">
        <ele>151</ele>
        <time>2016-06-16T15:36:40Z</time>
      </trkpt>
      <trkpt lat="43.65" lon="1.236">
        <ele>152</ele>
        <time>2016-06-16T15:36:42Z</time>
      </trkpt>
      <trkpt lat="43.64999" lon="1.23597">
        <ele>152</ele>
        <time>2016-06-16T15:36:44Z</time>
      </trkpt>
      <trkpt lat="43.64999" lon="1.23596">
        <ele>152</ele>
        <time>2016-06-16T15:36:45Z</time>
      </trkpt>
      <trkpt lat="43.64998" lon="1.23594">
        <ele>152</ele>
        <time>2016-06-16T15:36:46Z</time>
      </trkpt>
      <trkpt lat="43.64997" lon="1.23593">
        <ele>153</ele>
        <time>2016-06-16T15:36:47Z</time>
      </trkpt>
      <trkpt lat="43.64995" lon="1.23589">
        <ele>153</ele>
        <time>2016-06-16T15:36:49Z</time>
      </trkpt>
      <trkpt lat="43.64992" lon="1.23587">
        <ele>153</ele>
        <time>2016-06-16T15:36:51Z</time>
      </trkpt>
      <trkpt lat="43.64989" lon="1.23584">
        <ele>153</ele>
        <time>2016-06-16T15:36:53Z</time>
      </trkpt>
      <trkpt lat="43.64987" lon="1.2358">
        <ele>153</ele>
        <time>2016-06-16T15:36:55Z</time>
      </trkpt>
      <trkpt lat="43.64987" lon="1.23578">
        <ele>153</ele>
        <time>2016-06-16T15:36:56Z</time>
      </trkpt>
      <trkpt lat="43.64986" lon="1.23575">
        <ele>153</ele>
        <time>2016-06-16T15:36:58Z</time>
      </trkpt>
      <trkpt lat="43.64985" lon="1.23571">
        <ele>153</ele>
        <time>2016-06-16T15:37:00Z</time>
      </trkpt>
      <trkpt lat="43.64984" lon="1.2357">
        <ele>153</ele>
        <time>2016-06-16T15:37:01Z</time>
      </trkpt>
      <trkpt lat="43.64982" lon="1.23566">
        <ele>153</ele>
        <time>2016-06-16T15:37:03Z</time>
      </trkpt>
      <trkpt lat="43.64981" lon="1.23565">
        <ele>153</ele>
        <time>2016-06-16T15:37:04Z</time>
      </trkpt>
      <trkpt lat="43.6498" lon="1.23563">
        <ele>153</ele>
        <time>2016-06-16T15:37:05Z</time>
      </trkpt>
      <trkpt lat="43.64978" lon="1.2356">
        <ele>154</ele>
        <time>2016-06-16T15:37:07Z</time>
      </trkpt>
      <trkpt lat="43.64975" lon="1.23557">
        <ele>154</ele>
        <time>2016-06-16T15:37:09Z</time>
      </trkpt>
      <trkpt lat="43.64974" lon="1.23555">
        <ele>154</ele>
        <time>2016-06-16T15:37:10Z</time>
      </trkpt>
      <trkpt lat="43.64972" lon="1.23552">
        <ele>154</ele>
        <time>2016-06-16T15:37:12Z</time>
      </trkpt>
      <trkpt lat="43.64971" lon="1.23551">
        <ele>154</ele>
        <time>2016-06-16T15:37:13Z</time>
      </trkpt>
      <trkpt lat="43.64969" lon="1.23546">
        <ele>154</ele>
        <time>2016-06-16T15:37:15Z</time>
      </trkpt>
      <trkpt lat="43.64968" lon="1.23544">
        <ele>154</ele>
        <time>2016-06-16T15:37:16Z</time>
      </trkpt>
      <trkpt lat="43.64966" lon="1.23541">
        <ele>154</ele>
        <time>2016-06-16T15:37:18Z</time>
      </trkpt>
      <trkpt lat="43.64965" lon="1.23536">
        <ele>154</ele>
        <time>2016-06-16T15:37:20Z</time>
      </trkpt>
      <trkpt lat="43.64963" lon="1.23532">
        <ele>154</ele>
        <time>2016-06-16T15:37:22Z</time>
      </trkpt>
      <trkpt lat="43.64961" lon="1.23528">
        <ele>154</ele>
        <time>2016-06-16T15:37:24Z</time>
      </trkpt>
      <trkpt lat="43.64959" lon="1.23526">
        <ele>153</ele>
        <time>2016-06-16T15:37:25Z</time>
      </trkpt>
      <trkpt lat="43.64958" lon="1.23524">
        <ele>153</ele>
        <time>2016-06-16T15:37:26Z</time>
      </trkpt>
      <trkpt lat="43.64957" lon="1.23523">
        <ele>153</ele>
        <time>2016-06-16T15:37:27Z</time>
      </trkpt>
      <trkpt lat="43.64955" lon="1.23521">
        <ele>153</ele>
        <time>2016-06-16T15:37:29Z</time>
      </trkpt>
      <trkpt lat="43.64953" lon="1.23516">
        <ele>153</ele>
        <time>2016-06-16T15:37:31Z</time>
      </trkpt>
      <trkpt lat="43.64951" lon="1.23512">
        <ele>153</ele>
        <time>2016-06-16T15:37:33Z</time>
      </trkpt>
      <trkpt lat="43.64949" lon="1.23508">
        <ele>153</ele>
        <time>2016-06-16T15:37:35Z</time>
      </trkpt>
      <trkpt lat="43.64948" lon="1.23505">
        <ele>153</ele>
        <time>2016-06-16T15:37:36Z</time>
      </trkpt>
      <trkpt lat="43.64945" lon="1.23499">
        <ele>152</ele>
        <time>2016-06-16T15:37:39Z</time>
      </trkpt>
      <trkpt lat="43.64941" lon="1.23494">
        <ele>152</ele>
        <time>2016-06-16T15:37:42Z</time>
      </trkpt>
      <trkpt lat="43.64938" lon="1.2349">
        <ele>152</ele>
        <time>2016-06-16T15:37:44Z</time>
      </trkpt>
      <trkpt lat="43.64937" lon="1.23488">
        <ele>152</ele>
        <time>2016-06-16T15:37:45Z</time>
      </trkpt>
      <trkpt lat="43.64936" lon="1.23486">
        <ele>152</ele>
        <time>2016-06-16T15:37:46Z</time>
      </trkpt>
      <trkpt lat="43.64935" lon="1.23485">
        <ele>152</ele>
        <time>2016-06-16T15:37:47Z</time>
      </trkpt>
      <trkpt lat="43.64933" lon="1.23481">
        <ele>151</ele>
        <time>2016-06-16T15:37:49Z</time>
      </trkpt>
      <trkpt lat="43.64933" lon="1.23479">
        <ele>151</ele>
        <time>2016-06-16T15:37:50Z</time>
      </trkpt>
      <trkpt lat="43.64932" lon="1.23475">
        <ele>151</ele>
        <time>2016-06-16T15:37:52Z</time>
      </trkpt>
      <trkpt lat="43.6493" lon="1.23472">
        <ele>151</ele>
        <time>2016-06-16T15:37:54Z</time>
      </trkpt>
      <trkpt lat="43.64925" lon="1.23464">
        <ele>150</ele>
        <time>2016-06-16T15:37:58Z</time>
      </trkpt>
      <trkpt lat="43.64922" lon="1.23459">
        <ele>150</ele>
        <time>2016-06-16T15:38:00Z</time>
      </trkpt>
      <trkpt lat="43.64919" lon="1.23455">
        <ele>150</ele>
        <time>2016-06-16T15:38:02Z</time>
      </trkpt>
      <trkpt lat="43.64917" lon="1.23453">
        <ele>149</ele>
        <time>2016-06-16T15:38:04Z</time>
      </trkpt>
      <trkpt lat="43.64916" lon="1.23451">
        <ele>149</ele>
        <time>2016-06-16T15:38:05Z</time>
      </trkpt>
      <trkpt lat="43.64914" lon="1.23447">
        <ele>149</ele>
        <time>2016-06-16T15:38:07Z</time>
      </trkpt>
      <trkpt lat="43.64912" lon="1.23443">
        <ele>149</ele>
        <time>2016-06-16T15:38:09Z</time>
      </trkpt>
      <trkpt lat="43.64912" lon="1.23441">
        <ele>149</ele>
        <time>2016-06-16T15:38:10Z</time>
      </trkpt>
      <trkpt lat="43.64909" lon="1.23438">
        <ele>149</ele>
        <time>2016-06-16T15:38:12Z</time>
      </trkpt>
      <trkpt lat="43.64908" lon="1.23435">
        <ele>149</ele>
        <time>2016-06-16T15:38:14Z</time>
      </trkpt>
      <trkpt lat="43.64907" lon="1.23432">
        <ele>149</ele>
        <time>2016-06-16T15:38:16Z</time>
      </trkpt>
      <trkpt lat="43.64906" lon="1.2343">
        <ele>149</ele>
        <time>2016-06-16T15:38:17Z</time>
      </trkpt>
      <trkpt lat="43.64905" lon="1.23428">
        <ele>149</ele>
        <time>2016-06-16T15:38:18Z</time>
      </trkpt>
      <trkpt lat="43.64903" lon="1.23424">
        <ele>149</ele>
        <time>2016-06-16T15:38:20Z</time>
      </trkpt>
      <trkpt lat="43.64899" lon="1.2342">
        <ele>149</ele>
        <time>2016-06-16T15:38:22Z</time>
      </trkpt>
      <trkpt lat="43.64897" lon="1.23416">
        <ele>149</ele>
        <time>2016-06-16T15:38:24Z</time>
      </trkpt>
      <trkpt lat="43.64896" lon="1.23414">
        <ele>149</ele>
        <time>2016-06-16T15:38:25Z</time>
      </trkpt>
      <trkpt lat="43.64895" lon="1.23412">
        <ele>150</ele>
        <time>2016-06-16T15:38:26Z</time>
      </trkpt>
      <trkpt lat="43.64895" lon="1.23411">
        <ele>150</ele>
        <time>2016-06-16T15:38:27Z</time>
      </trkpt>
      <trkpt lat="43.64893" lon="1.23407">
        <ele>150</ele>
        <time>2016-06-16T15:38:29Z</time>
      </trkpt>
      <trkpt lat="43.64891" lon="1.23403">
        <ele>150</ele>
        <time>2016-06-16T15:38:31Z</time>
      </trkpt>
      <trkpt lat="43.6489" lon="1.23402">
        <ele>150</ele>
        <time>2016-06-16T15:38:32Z</time>
      </trkpt>
      <trkpt lat="43.64888" lon="1.23398">
        <ele>150</ele>
        <time>2016-06-16T15:38:34Z</time>
      </trkpt>
      <trkpt lat="43.64887" lon="1.23397">
        <ele>150</ele>
        <time>2016-06-16T15:38:35Z</time>
      </trkpt>
      <trkpt lat="43.64884" lon="1.23393">
        <ele>150</ele>
        <time>2016-06-16T15:38:37Z</time>
      </trkpt>
      <trkpt lat="43.64883" lon="1.23391">
        <ele>150</ele>
        <time>2016-06-16T15:38:38Z</time>
      </trkpt>
      <trkpt lat="43.64881" lon="1.23387">
        <ele>150</ele>
        <time>2016-06-16T15:38:40Z</time>
      </trkpt>
      <trkpt lat="43.64879" lon="1.23384">
        <ele>150</ele>
        <time>2016-06-16T15:38:42Z</time>
      </trkpt>
      <trkpt lat="43.64878" lon="1.23382">
        <ele>150</ele>
        <time>2016-06-16T15:38:43Z</time>
      </trkpt>
      <trkpt lat="43.64875" lon="1.23378">
        <ele>151</ele>
        <time>2016-06-16T15:38:45Z</time>
      </trkpt>
      <trkpt lat="43.64875" lon="1.23377">
        <ele>151</ele>
        <time>2016-06-16T15:38:46Z</time>
      </trkpt>
      <trkpt lat="43.64872" lon="1.23374">
        <ele>151</ele>
        <time>2016-06-16T15:38:48Z</time>
      </trkpt>
      <trkpt lat="43.6487" lon="1.23371">
        <ele>151</ele>
        <time>2016-06-16T15:38:50Z</time>
      </trkpt>
      <trkpt lat="43.64868" lon="1.23368">
        <ele>151</ele>
        <time>2016-06-16T15:38:52Z</time>
      </trkpt>
      <trkpt lat="43.64866" lon="1.23364">
        <ele>150</ele>
        <time>2016-06-16T15:38:54Z</time>
      </trkpt>
      <trkpt lat="43.64864" lon="1.23359">
        <ele>150</ele>
        <time>2016-06-16T15:38:56Z</time>
      </trkpt>
      <trkpt lat="43.64864" lon="1.23357">
        <ele>150</ele>
        <time>2016-06-16T15:38:58Z</time>
      </trkpt>
      <trkpt lat="43.64863" lon="1.23354">
        <ele>151</ele>
        <time>2016-06-16T15:39:00Z</time>
      </trkpt>
      <trkpt lat="43.64862" lon="1.23353">
        <ele>151</ele>
        <time>2016-06-16T15:39:01Z</time>
      </trkpt>
      <trkpt lat="43.64861" lon="1.2335">
        <ele>152</ele>
        <time>2016-06-16T15:39:03Z</time>
      </trkpt>
      <trkpt lat="43.64859" lon="1.23346">
        <ele>152</ele>
        <time>2016-06-16T15:39:05Z</time>
      </trkpt>
      <trkpt lat="43.64858" lon="1.23345">
        <ele>153</ele>
        <time>2016-06-16T15:39:06Z</time>
      </trkpt>
      <trkpt lat="43.64855" lon="1.2334">
        <ele>153</ele>
        <time>2016-06-16T15:39:08Z</time>
      </trkpt>
      <trkpt lat="43.64853" lon="1.23336">
        <ele>154</ele>
        <time>2016-06-16T15:39:10Z</time>
      </trkpt>
      <trkpt lat="43.6485" lon="1.23332">
        <ele>154</ele>
        <time>2016-06-16T15:39:12Z</time>
      </trkpt>
      <trkpt lat="43.64848" lon="1.2333">
        <ele>154</ele>
        <time>2016-06-16T15:39:13Z</time>
      </trkpt>
      <trkpt lat="43.64846" lon="1.23326">
        <ele>154</ele>
        <time>2016-06-16T15:39:15Z</time>
      </trkpt>
      <trkpt lat="43.64845" lon="1.23325">
        <ele>154</ele>
        <time>2016-06-16T15:39:16Z</time>
      </trkpt>
      <trkpt lat="43.64842" lon="1.23323">
        <ele>155</ele>
        <time>2016-06-16T15:39:18Z</time>
      </trkpt>
      <trkpt lat="43.64841" lon="1.23321">
        <ele>155</ele>
        <time>2016-06-16T15:39:19Z</time>
      </trkpt>
      <trkpt lat="43.6484" lon="1.23319">
        <ele>155</ele>
        <time>2016-06-16T15:39:20Z</time>
      </trkpt>
      <trkpt lat="43.64839" lon="1.23316">
        <ele>155</ele>
        <time>2016-06-16T15:39:22Z</time>
      </trkpt>
      <trkpt lat="43.64838" lon="1.23311">
        <ele>155</ele>
        <time>2016-06-16T15:39:24Z</time>
      </trkpt>
      <trkpt lat="43.64836" lon="1.23307">
        <ele>155</ele>
        <time>2016-06-16T15:39:26Z</time>
      </trkpt>
      <trkpt lat="43.64835" lon="1.23305">
        <ele>155</ele>
        <time>2016-06-16T15:39:27Z</time>
      </trkpt>
      <trkpt lat="43.64834" lon="1.23302">
        <ele>156</ele>
        <time>2016-06-16T15:39:28Z</time>
      </trkpt>
      <trkpt lat="43.64834" lon="1.23301">
        <ele>156</ele>
        <time>2016-06-16T15:39:29Z</time>
      </trkpt>
      <trkpt lat="43.64833" lon="1.23298">
        <ele>156</ele>
        <time>2016-06-16T15:39:31Z</time>
      </trkpt>
      <trkpt lat="43.64832" lon="1.23297">
        <ele>156</ele>
        <time>2016-06-16T15:39:32Z</time>
      </trkpt>
      <trkpt lat="43.6483" lon="1.23294">
        <ele>157</ele>
        <time>2016-06-16T15:39:34Z</time>
      </trkpt>
      <trkpt lat="43.64826" lon="1.23291">
        <ele>157</ele>
        <time>2016-06-16T15:39:36Z</time>
      </trkpt>
      <trkpt lat="43.64825" lon="1.23288">
        <ele>157</ele>
        <time>2016-06-16T15:39:37Z</time>
      </trkpt>
      <trkpt lat="43.64822" lon="1.23284">
        <ele>157</ele>
        <time>2016-06-16T15:39:39Z</time>
      </trkpt>
      <trkpt lat="43.64821" lon="1.23281">
        <ele>157</ele>
        <time>2016-06-16T15:39:40Z</time>
      </trkpt>
      <trkpt lat="43.64819" lon="1.23279">
        <ele>156</ele>
        <time>2016-06-16T15:39:41Z</time>
      </trkpt>
      <trkpt lat="43.64816" lon="1.23275">
        <ele>156</ele>
        <time>2016-06-16T15:39:43Z</time>
      </trkpt>
      <trkpt lat="43.64814" lon="1.23272">
        <ele>156</ele>
        <time>2016-06-16T15:39:45Z</time>
      </trkpt>
      <trkpt lat="43.64814" lon="1.23271">
        <ele>156</ele>
        <time>2016-06-16T15:39:46Z</time>
      </trkpt>
      <trkpt lat="43.64813" lon="1.23269">
        <ele>156</ele>
        <time>2016-06-16T15:39:47Z</time>
      </trkpt>
      <trkpt lat="43.64811" lon="1.23266">
        <ele>156</ele>
        <time>2016-06-16T15:39:48Z</time>
      </trkpt>
      <trkpt lat="43.64808" lon="1.23262">
        <ele>156</ele>
        <time>2016-06-16T15:39:50Z</time>
      </trkpt>
      <trkpt lat="43.648" lon="1.23251">
        <ele>155</ele>
        <time>2016-06-16T15:39:54Z</time>
      </trkpt>
      <trkpt lat="43.64798" lon="1.23249">
        <ele>155</ele>
        <time>2016-06-16T15:39:55Z</time>
      </trkpt>
      <trkpt lat="43.64793" lon="1.23241">
        <ele>154</ele>
        <time>2016-06-16T15:39:58Z</time>
      </trkpt>
      <trkpt lat="43.64792" lon="1.23237">
        <ele>154</ele>
        <time>2016-06-16T15:40:00Z</time>
      </trkpt>
      <trkpt lat="43.64791" lon="1.23235">
        <ele>154</ele>
        <time>2016-06-16T15:40:01Z</time>
      </trkpt>
      <trkpt lat="43.64789" lon="1.23232">
        <ele>154</ele>
        <time>2016-06-16T15:40:03Z</time>
      </trkpt>
      <trkpt lat="43.64787" lon="1.23229">
        <ele>154</ele>
        <time>2016-06-16T15:40:05Z</time>
      </trkpt>
      <trkpt lat="43.64787" lon="1.23227">
        <ele>154</ele>
        <time>2016-06-16T15:40:06Z</time>
      </trkpt>
      <trkpt lat="43.64786" lon="1.23224">
        <ele>154</ele>
        <time>2016-06-16T15:40:07Z</time>
      </trkpt>
      <trkpt lat="43.64785" lon="1.23222">
        <ele>153</ele>
        <time>2016-06-16T15:40:08Z</time>
      </trkpt>
      <trkpt lat="43.64783" lon="1.23219">
        <ele>153</ele>
        <time>2016-06-16T15:40:10Z</time>
      </trkpt>
      <trkpt lat="43.64781" lon="1.23216">
        <ele>153</ele>
        <time>2016-06-16T15:40:12Z</time>
      </trkpt>
      <trkpt lat="43.64779" lon="1.23213">
        <ele>152</ele>
        <time>2016-06-16T15:40:14Z</time>
      </trkpt>
      <trkpt lat="43.64777" lon="1.23209">
        <ele>152</ele>
        <time>2016-06-16T15:40:16Z</time>
      </trkpt>
      <trkpt lat="43.64776" lon="1.23205">
        <ele>151</ele>
        <time>2016-06-16T15:40:18Z</time>
      </trkpt>
      <trkpt lat="43.64774" lon="1.23202">
        <ele>151</ele>
        <time>2016-06-16T15:40:20Z</time>
      </trkpt>
      <trkpt lat="43.64774" lon="1.23198">
        <ele>150</ele>
        <time>2016-06-16T15:40:22Z</time>
      </trkpt>
      <trkpt lat="43.64772" lon="1.23195">
        <ele>150</ele>
        <time>2016-06-16T15:40:24Z</time>
      </trkpt>
      <trkpt lat="43.64773" lon="1.23194">
        <ele>149</ele>
        <time>2016-06-16T15:40:25Z</time>
      </trkpt>
      <trkpt lat="43.64772" lon="1.23192">
        <ele>149</ele>
        <time>2016-06-16T15:40:26Z</time>
      </trkpt>
      <trkpt lat="43.64772" lon="1.23187">
        <ele>149</ele>
        <time>2016-06-16T15:40:28Z</time>
      </trkpt>
      <trkpt lat="43.64774" lon="1.23183">
        <ele>149</ele>
        <time>2016-06-16T15:40:30Z</time>
      </trkpt>
      <trkpt lat="43.64775" lon="1.23181">
        <ele>148</ele>
        <time>2016-06-16T15:40:31Z</time>
      </trkpt>
      <trkpt lat="43.64776" lon="1.2318">
        <ele>148</ele>
        <time>2016-06-16T15:40:32Z</time>
      </trkpt>
      <trkpt lat="43.64776" lon="1.23178">
        <ele>148</ele>
        <time>2016-06-16T15:40:33Z</time>
      </trkpt>
      <trkpt lat="43.64778" lon="1.23175">
        <ele>148</ele>
        <time>2016-06-16T15:40:35Z</time>
      </trkpt>
      <trkpt lat="43.64779" lon="1.23173">
        <ele>148</ele>
        <time>2016-06-16T15:40:36Z</time>
      </trkpt>
      <trkpt lat="43.6478" lon="1.23172">
        <ele>148</ele>
        <time>2016-06-16T15:40:37Z</time>
      </trkpt>
      <trkpt lat="43.64782" lon="1.2317">
        <ele>148</ele>
        <time>2016-06-16T15:40:39Z</time>
      </trkpt>
      <trkpt lat="43.64785" lon="1.23167">
        <ele>148</ele>
        <time>2016-06-16T15:40:41Z</time>
      </trkpt>
      <trkpt lat="43.64785" lon="1.23167">
        <ele>148</ele>
        <time>2016-06-16T15:40:43Z</time>
      </trkpt>
      <trkpt lat="43.64786" lon="1.23167">
        <ele>148</ele>
        <time>2016-06-16T15:40:45Z</time>
      </trkpt>
      <trkpt lat="43.64786" lon="1.23167">
        <ele>148</ele>
        <time>2016-06-16T15:41:16Z</time>
      </trkpt>
      <trkpt lat="43.64786" lon="1.23167">
        <ele>148</ele>
        <time>2016-06-16T15:41:18Z</time>
      </trkpt>
      <trkpt lat="43.64786" lon="1.23167">
        <ele>148</ele>
        <time>2016-06-16T15:41:38Z</time>
      </trkpt>
      <trkpt lat="43.64786" lon="1.23167">
        <ele>148</ele>
        <time>2016-06-16T15:41:39Z</time>
      </trkpt>
      <trkpt lat="43.64788" lon="1.23164">
        <ele>148</ele>
        <time>2016-06-16T15:41:49Z</time>
      </trkpt>
      <trkpt lat="43.6479" lon="1.23163">
        <ele>148</ele>
        <time>2016-06-16T15:41:51Z</time>
      </trkpt>
      <trkpt lat="43.64791" lon="1.23162">
        <ele>148</ele>
        <time>2016-06-16T15:41:52Z</time>
      </trkpt>
      <trkpt lat="43.64793" lon="1.2316">
        <ele>148</ele>
        <time>2016-06-16T15:41:54Z</time>
      </trkpt>
      <trkpt lat="43.64793" lon="1.23159">
        <ele>148</ele>
        <time>2016-06-16T15:41:56Z</time>
      </trkpt>
      <trkpt lat="43.64794" lon="1.23158">
        <ele>149</ele>
        <time>2016-06-16T15:41:57Z</time>
      </trkpt>
      <trkpt lat="43.64794" lon="1.23158">
        <ele>149</ele>
        <time>2016-06-16T15:41:59Z</time>
      </trkpt>
      <trkpt lat="43.64795" lon="1.23158">
        <ele>149</ele>
        <time>2016-06-16T15:42:01Z</time>
      </trkpt>
      <trkpt lat="43.64797" lon="1.23158">
        <ele>149</ele>
        <time>2016-06-16T15:42:03Z</time>
      </trkpt>
      <trkpt lat="43.64798" lon="1.23157">
        <ele>149</ele>
        <time>2016-06-16T15:42:04Z</time>
      </trkpt>
      <trkpt lat="43.64801" lon="1.23155">
        <ele>150</ele>
        <time>2016-06-16T15:42:06Z</time>
      </trkpt>
      <trkpt lat="43.64802" lon="1.23154">
        <ele>150</ele>
        <time>2016-06-16T15:42:07Z</time>
      </trkpt>
      <trkpt lat="43.64803" lon="1.23153">
        <ele>150</ele>
        <time>2016-06-16T15:42:08Z</time>
      </trkpt>
      <trkpt lat="43.64805" lon="1.23151">
        <ele>150</ele>
        <time>2016-06-16T15:42:09Z</time>
      </trkpt>
      <trkpt lat="43.64806" lon="1.2315">
        <ele>150</ele>
        <time>2016-06-16T15:42:11Z</time>
      </trkpt>
      <trkpt lat="43.64809" lon="1.23148">
        <ele>151</ele>
        <time>2016-06-16T15:42:13Z</time>
      </trkpt>
      <trkpt lat="43.64809" lon="1.23147">
        <ele>151</ele>
        <time>2016-06-16T15:42:14Z</time>
      </trkpt>
      <trkpt lat="43.64812" lon="1.23146">
        <ele>151</ele>
        <time>2016-06-16T15:42:16Z</time>
      </trkpt>
      <trkpt lat="43.64816" lon="1.23143">
        <ele>151</ele>
        <time>2016-06-16T15:42:19Z</time>
      </trkpt>
      <trkpt lat="43.64817" lon="1.23141">
        <ele>152</ele>
        <time>2016-06-16T15:42:21Z</time>
      </trkpt>
      <trkpt lat="43.64819" lon="1.2314">
        <ele>152</ele>
        <time>2016-06-16T15:42:22Z</time>
      </trkpt>
      <trkpt lat="43.64821" lon="1.23137">
        <ele>152</ele>
        <time>2016-06-16T15:42:24Z</time>
      </trkpt>
      <trkpt lat="43.64821" lon="1.23136">
        <ele>153</ele>
        <time>2016-06-16T15:42:25Z</time>
      </trkpt>
      <trkpt lat="43.64822" lon="1.23135">
        <ele>153</ele>
        <time>2016-06-16T15:42:26Z</time>
      </trkpt>
      <trkpt lat="43.64823" lon="1.23134">
        <ele>154</ele>
        <time>2016-06-16T15:42:27Z</time>
      </trkpt>
      <trkpt lat="43.64824" lon="1.23134">
        <ele>154</ele>
        <time>2016-06-16T15:42:28Z</time>
      </trkpt>
      <trkpt lat="43.64825" lon="1.23133">
        <ele>154</ele>
        <time>2016-06-16T15:42:29Z</time>
      </trkpt>
      <trkpt lat="43.64825" lon="1.23131">
        <ele>155</ele>
        <time>2016-06-16T15:42:31Z</time>
      </trkpt>
      <trkpt lat="43.64826" lon="1.23129">
        <ele>155</ele>
        <time>2016-06-16T15:42:33Z</time>
      </trkpt>
      <trkpt lat="43.64827" lon="1.23127">
        <ele>156</ele>
        <time>2016-06-16T15:42:34Z</time>
      </trkpt>
      <trkpt lat="43.64829" lon="1.23125">
        <ele>156</ele>
        <time>2016-06-16T15:42:36Z</time>
      </trkpt>
      <trkpt lat="43.64834" lon="1.2312">
        <ele>157</ele>
        <time>2016-06-16T15:42:39Z</time>
      </trkpt>
      <trkpt lat="43.64835" lon="1.23119">
        <ele>157</ele>
        <time>2016-06-16T15:42:40Z</time>
      </trkpt>
      <trkpt lat="43.64838" lon="1.23117">
        <ele>158</ele>
        <time>2016-06-16T15:42:42Z</time>
      </trkpt>
      <trkpt lat="43.6484" lon="1.23115">
        <ele>158</ele>
        <time>2016-06-16T15:42:44Z</time>
      </trkpt>
      <trkpt lat="43.64842" lon="1.23112">
        <ele>159</ele>
        <time>2016-06-16T15:42:46Z</time>
      </trkpt>
      <trkpt lat="43.64843" lon="1.2311">
        <ele>159</ele>
        <time>2016-06-16T15:42:47Z</time>
      </trkpt>
      <trkpt lat="43.64846" lon="1.23107">
        <ele>159</ele>
        <time>2016-06-16T15:42:49Z</time>
      </trkpt>
      <trkpt lat="43.64848" lon="1.23104">
        <ele>160</ele>
        <time>2016-06-16T15:42:51Z</time>
      </trkpt>
      <trkpt lat="43.6485" lon="1.23101">
        <ele>160</ele>
        <time>2016-06-16T15:42:53Z</time>
      </trkpt>
      <trkpt lat="43.64853" lon="1.23098">
        <ele>161</ele>
        <time>2016-06-16T15:42:55Z</time>
      </trkpt>
      <trkpt lat="43.64855" lon="1.23096">
        <ele>161</ele>
        <time>2016-06-16T15:42:57Z</time>
      </trkpt>
      <trkpt lat="43.64856" lon="1.23094">
        <ele>161</ele>
        <time>2016-06-16T15:42:58Z</time>
      </trkpt>
      <trkpt lat="43.64858" lon="1.23093">
        <ele>162</ele>
        <time>2016-06-16T15:42:59Z</time>
      </trkpt>
      <trkpt lat="43.6486" lon="1.23091">
        <ele>162</ele>
        <time>2016-06-16T15:43:01Z</time>
      </trkpt>
      <trkpt lat="43.64862" lon="1.23088">
        <ele>162</ele>
        <time>2016-06-16T15:43:03Z</time>
      </trkpt>
      <trkpt lat="43.64864" lon="1.23087">
        <ele>162</ele>
        <time>2016-06-16T15:43:04Z</time>
      </trkpt>
      <trkpt lat="43.64867" lon="1.23084">
        <ele>162</ele>
        <time>2016-06-16T15:43:06Z</time>
      </trkpt>
      <trkpt lat="43.6487" lon="1.23081">
        <ele>162</ele>
        <time>2016-06-16T15:43:08Z</time>
      </trkpt>
      <trkpt lat="43.64876" lon="1.23078">
        <ele>162</ele>
        <time>2016-06-16T15:43:10Z</time>
      </trkpt>
      <trkpt lat="43.64885" lon="1.23073">
        <ele>163</ele>
        <time>2016-06-16T15:43:14Z</time>
      </trkpt>
      <trkpt lat="43.64886" lon="1.23071">
        <ele>163</ele>
        <time>2016-06-16T15:43:15Z</time>
      </trkpt>
      <trkpt lat="43.64889" lon="1.23068">
        <ele>163</ele>
        <time>2016-06-16T15:43:17Z</time>
      </trkpt>
      <trkpt lat="43.6489" lon="1.23066">
        <ele>164</ele>
        <time>2016-06-16T15:43:18Z</time>
      </trkpt>
      <trkpt lat="43.64893" lon="1.23065">
        <ele>164</ele>
        <time>2016-06-16T15:43:20Z</time>
      </trkpt>
      <trkpt lat="43.64896" lon="1.23062">
        <ele>164</ele>
        <time>2016-06-16T15:43:22Z</time>
      </trkpt>
      <trkpt lat="43.64897" lon="1.23061">
        <ele>164</ele>
        <time>2016-06-16T15:43:23Z</time>
      </trkpt>
      <trkpt lat="43.64899" lon="1.23057">
        <ele>164</ele>
        <time>2016-06-16T15:43:25Z</time>
      </trkpt>
      <trkpt lat="43.64902" lon="1.23054">
        <ele>165</ele>
        <time>2016-06-16T15:43:27Z</time>
      </trkpt>
      <trkpt lat="43.64903" lon="1.23053">
        <ele>165</ele>
        <time>2016-06-16T15:43:28Z</time>
      </trkpt>
      <trkpt lat="43.64904" lon="1.23052">
        <ele>165</ele>
        <time>2016-06-16T15:43:29Z</time>
      </trkpt>
      <trkpt lat="43.64907" lon="1.23049">
        <ele>165</ele>
        <time>2016-06-16T15:43:31Z</time>
      </trkpt>
      <trkpt lat="43.64915" lon="1.23042">
        <ele>165</ele>
        <time>2016-06-16T15:43:36Z</time>
      </trkpt>
      <trkpt lat="43.64916" lon="1.23039">
        <ele>165</ele>
        <time>2016-06-16T15:43:38Z</time>
      </trkpt>
      <trkpt lat="43.64916" lon="1.23038">
        <ele>165</ele>
        <time>2016-06-16T15:43:39Z</time>
      </trkpt>
      <trkpt lat="43.64916" lon="1.23033">
        <ele>165</ele>
        <time>2016-06-16T15:43:41Z</time>
      </trkpt>
      <trkpt lat="43.64916" lon="1.23027">
        <ele>165</ele>
        <time>2016-06-16T15:43:43Z</time>
      </trkpt>
      <trkpt lat="43.64915" lon="1.23023">
        <ele>165</ele>
        <time>2016-06-16T15:43:45Z</time>
      </trkpt>
      <trkpt lat="43.64915" lon="1.23021">
        <ele>165</ele>
        <time>2016-06-16T15:43:46Z</time>
      </trkpt>
      <trkpt lat="43.64915" lon="1.2302">
        <ele>165</ele>
        <time>2016-06-16T15:43:47Z</time>
      </trkpt>
      <trkpt lat="43.64914" lon="1.23017">
        <ele>166</ele>
        <time>2016-06-16T15:43:49Z</time>
      </trkpt>
      <trkpt lat="43.64913" lon="1.23013">
        <ele>166</ele>
        <time>2016-06-16T15:43:51Z</time>
      </trkpt>
      <trkpt lat="43.64913" lon="1.23011">
        <ele>166</ele>
        <time>2016-06-16T15:43:52Z</time>
      </trkpt>
      <trkpt lat="43.64912" lon="1.23008">
        <ele>166</ele>
        <time>2016-06-16T15:43:54Z</time>
      </trkpt>
      <trkpt lat="43.64912" lon="1.23008">
        <ele>166</ele>
        <time>2016-06-16T15:43:55Z</time>
      </trkpt>
      <trkpt lat="43.64911" lon="1.23004">
        <ele>167</ele>
        <time>2016-06-16T15:43:57Z</time>
      </trkpt>
      <trkpt lat="43.64911" lon="1.23002">
        <ele>167</ele>
        <time>2016-06-16T15:43:58Z</time>
      </trkpt>
      <trkpt lat="43.64909" lon="1.22999">
        <ele>167</ele>
        <time>2016-06-16T15:44:00Z</time>
      </trkpt>
      <trkpt lat="43.64908" lon="1.22997">
        <ele>167</ele>
        <time>2016-06-16T15:44:01Z</time>
      </trkpt>
      <trkpt lat="43.64908" lon="1.22996">
        <ele>168</ele>
        <time>2016-06-16T15:44:02Z</time>
      </trkpt>
      <trkpt lat="43.64907" lon="1.22992">
        <ele>168</ele>
        <time>2016-06-16T15:44:04Z</time>
      </trkpt>
      <trkpt lat="43.64906" lon="1.2299">
        <ele>168</ele>
        <time>2016-06-16T15:44:05Z</time>
      </trkpt>
      <trkpt lat="43.64904" lon="1.22986">
        <ele>168</ele>
        <time>2016-06-16T15:44:07Z</time>
      </trkpt>
      <trkpt lat="43.64903" lon="1.22984">
        <ele>168</ele>
        <time>2016-06-16T15:44:08Z</time>
      </trkpt>
      <trkpt lat="43.64902" lon="1.22982">
        <ele>169</ele>
        <time>2016-06-16T15:44:09Z</time>
      </trkpt>
      <trkpt lat="43.649" lon="1.22977">
        <ele>169</ele>
        <time>2016-06-16T15:44:11Z</time>
      </trkpt>
      <trkpt lat="43.64898" lon="1.22975">
        <ele>169</ele>
        <time>2016-06-16T15:44:13Z</time>
      </trkpt>
      <trkpt lat="43.64893" lon="1.22972">
        <ele>169</ele>
        <time>2016-06-16T15:44:15Z</time>
      </trkpt>
      <trkpt lat="43.64892" lon="1.2297">
        <ele>169</ele>
        <time>2016-06-16T15:44:16Z</time>
      </trkpt>
      <trkpt lat="43.64891" lon="1.22969">
        <ele>169</ele>
        <time>2016-06-16T15:44:17Z</time>
      </trkpt>
      <trkpt lat="43.6489" lon="1.22965">
        <ele>169</ele>
        <time>2016-06-16T15:44:19Z</time>
      </trkpt>
      <trkpt lat="43.64888" lon="1.22963">
        <ele>169</ele>
        <time>2016-06-16T15:44:20Z</time>
      </trkpt>
      <trkpt lat="43.64886" lon="1.2296">
        <ele>169</ele>
        <time>2016-06-16T15:44:22Z</time>
      </trkpt>
      <trkpt lat="43.64886" lon="1.22958">
        <ele>169</ele>
        <time>2016-06-16T15:44:24Z</time>
      </trkpt>
      <trkpt lat="43.64885" lon="1.22957">
        <ele>169</ele>
        <time>2016-06-16T15:44:25Z</time>
      </trkpt>
      <trkpt lat="43.64883" lon="1.22954">
        <ele>170</ele>
        <time>2016-06-16T15:44:27Z</time>
      </trkpt>
      <trkpt lat="43.64882" lon="1.22953">
        <ele>170</ele>
        <time>2016-06-16T15:44:28Z</time>
      </trkpt>
      <trkpt lat="43.6488" lon="1.22952">
        <ele>170</ele>
        <time>2016-06-16T15:44:29Z</time>
      </trkpt>
      <trkpt lat="43.64879" lon="1.22948">
        <ele>170</ele>
        <time>2016-06-16T15:44:31Z</time>
      </trkpt>
      <trkpt lat="43.64877" lon="1.22945">
        <ele>171</ele>
        <time>2016-06-16T15:44:33Z</time>
      </trkpt>
      <trkpt lat="43.64876" lon="1.22944">
        <ele>171</ele>
        <time>2016-06-16T15:44:34Z</time>
      </trkpt>
      <trkpt lat="43.64875" lon="1.2294">
        <ele>171</ele>
        <time>2016-06-16T15:44:36Z</time>
      </trkpt>
      <trkpt lat="43.64872" lon="1.22937">
        <ele>171</ele>
        <time>2016-06-16T15:44:38Z</time>
      </trkpt>
      <trkpt lat="43.6487" lon="1.22934">
        <ele>172</ele>
        <time>2016-06-16T15:44:40Z</time>
      </trkpt>
      <trkpt lat="43.64869" lon="1.22932">
        <ele>172</ele>
        <time>2016-06-16T15:44:41Z</time>
      </trkpt>
      <trkpt lat="43.64869" lon="1.2293">
        <ele>173</ele>
        <time>2016-06-16T15:44:42Z</time>
      </trkpt>
      <trkpt lat="43.64867" lon="1.22926">
        <ele>173</ele>
        <time>2016-06-16T15:44:44Z</time>
      </trkpt>
      <trkpt lat="43.64864" lon="1.22916">
        <ele>174</ele>
        <time>2016-06-16T15:44:47Z</time>
      </trkpt>
      <trkpt lat="43.64864" lon="1.22914">
        <ele>174</ele>
        <time>2016-06-16T15:44:48Z</time>
      </trkpt>
      <trkpt lat="43.64862" lon="1.22912">
        <ele>174</ele>
        <time>2016-06-16T15:44:49Z</time>
      </trkpt>
      <trkpt lat="43.6486" lon="1.22909">
        <ele>174</ele>
        <time>2016-06-16T15:44:51Z</time>
      </trkpt>
      <trkpt lat="43.64858" lon="1.22905">
        <ele>175</ele>
        <time>2016-06-16T15:44:53Z</time>
      </trkpt>
      <trkpt lat="43.64856" lon="1.22901">
        <ele>175</ele>
        <time>2016-06-16T15:44:55Z</time>
      </trkpt>
      <trkpt lat="43.64854" lon="1.229">
        <ele>175</ele>
        <time>2016-06-16T15:44:56Z</time>
      </trkpt>
      <trkpt lat="43.64853" lon="1.22898">
        <ele>175</ele>
        <time>2016-06-16T15:44:57Z</time>
      </trkpt>
      <trkpt lat="43.64848" lon="1.22895">
        <ele>176</ele>
        <time>2016-06-16T15:45:00Z</time>
      </trkpt>
      <trkpt lat="43.64847" lon="1.22894">
        <ele>176</ele>
        <time>2016-06-16T15:45:01Z</time>
      </trkpt>
      <trkpt lat="43.64844" lon="1.22891">
        <ele>176</ele>
        <time>2016-06-16T15:45:03Z</time>
      </trkpt>
      <trkpt lat="43.64843" lon="1.22889">
        <ele>176</ele>
        <time>2016-06-16T15:45:04Z</time>
      </trkpt>
      <trkpt lat="43.64841" lon="1.22885">
        <ele>176</ele>
        <time>2016-06-16T15:45:06Z</time>
      </trkpt>
      <trkpt lat="43.6484" lon="1.22884">
        <ele>176</ele>
        <time>2016-06-16T15:45:07Z</time>
      </trkpt>
      <trkpt lat="43.64839" lon="1.22882">
        <ele>176</ele>
        <time>2016-06-16T15:45:08Z</time>
      </trkpt>
      <trkpt lat="43.64838" lon="1.22881">
        <ele>176</ele>
        <time>2016-06-16T15:45:09Z</time>
      </trkpt>
      <trkpt lat="43.64838" lon="1.22877">
        <ele>176</ele>
        <time>2016-06-16T15:45:11Z</time>
      </trkpt>
      <trkpt lat="43.64835" lon="1.22874">
        <ele>176</ele>
        <time>2016-06-16T15:45:13Z</time>
      </trkpt>
      <trkpt lat="43.64834" lon="1.22871">
        <ele>176</ele>
        <time>2016-06-16T15:45:15Z</time>
      </trkpt>
      <trkpt lat="43.64833" lon="1.22868">
        <ele>176</ele>
        <time>2016-06-16T15:45:17Z</time>
      </trkpt>
      <trkpt lat="43.64833" lon="1.22865">
        <ele>176</ele>
        <time>2016-06-16T15:45:18Z</time>
      </trkpt>
      <trkpt lat="43.64829" lon="1.22859">
        <ele>176</ele>
        <time>2016-06-16T15:45:21Z</time>
      </trkpt>
      <trkpt lat="43.64828" lon="1.22856">
        <ele>176</ele>
        <time>2016-06-16T15:45:22Z</time>
      </trkpt>
      <trkpt lat="43.64826" lon="1.22853">
        <ele>176</ele>
        <time>2016-06-16T15:45:24Z</time>
      </trkpt>
      <trkpt lat="43.64824" lon="1.2285">
        <ele>176</ele>
        <time>2016-06-16T15:45:26Z</time>
      </trkpt>
      <trkpt lat="43.64823" lon="1.22849">
        <ele>175</ele>
        <time>2016-06-16T15:45:27Z</time>
      </trkpt>
      <trkpt lat="43.64822" lon="1.22847">
        <ele>175</ele>
        <time>2016-06-16T15:45:28Z</time>
      </trkpt>
      <trkpt lat="43.64821" lon="1.22845">
        <ele>175</ele>
        <time>2016-06-16T15:45:29Z</time>
      </trkpt>
      <trkpt lat="43.64817" lon="1.22842">
        <ele>175</ele>
        <time>2016-06-16T15:45:31Z</time>
      </trkpt>
      <trkpt lat="43.64815" lon="1.22838">
        <ele>175</ele>
        <time>2016-06-16T15:45:33Z</time>
      </trkpt>
      <trkpt lat="43.64814" lon="1.22837">
        <ele>175</ele>
        <time>2016-06-16T15:45:34Z</time>
      </trkpt>
      <trkpt lat="43.6481" lon="1.22833">
        <ele>175</ele>
        <time>2016-06-16T15:45:37Z</time>
      </trkpt>
      <trkpt lat="43.64808" lon="1.2283">
        <ele>175</ele>
        <time>2016-06-16T15:45:39Z</time>
      </trkpt>
      <trkpt lat="43.64808" lon="1.22827">
        <ele>175</ele>
        <time>2016-06-16T15:45:40Z</time>
      </trkpt>
      <trkpt lat="43.64806" lon="1.22823">
        <ele>175</ele>
        <time>2016-06-16T15:45:42Z</time>
      </trkpt>
      <trkpt lat="43.64805" lon="1.22822">
        <ele>175</ele>
        <time>2016-06-16T15:45:43Z</time>
      </trkpt>
      <trkpt lat="43.64803" lon="1.22819">
        <ele>175</ele>
        <time>2016-06-16T15:45:45Z</time>
      </trkpt>
      <trkpt lat="43.64802" lon="1.22817">
        <ele>175</ele>
        <time>2016-06-16T15:45:46Z</time>
      </trkpt>
      <trkpt lat="43.64801" lon="1.22814">
        <ele>175</ele>
        <time>2016-06-16T15:45:47Z</time>
      </trkpt>
      <trkpt lat="43.648" lon="1.22808">
        <ele>175</ele>
        <time>2016-06-16T15:45:49Z</time>
      </trkpt>
      <trkpt lat="43.64797" lon="1.22806">
        <ele>175</ele>
        <time>2016-06-16T15:45:51Z</time>
      </trkpt>
      <trkpt lat="43.64795" lon="1.22803">
        <ele>175</ele>
        <time>2016-06-16T15:45:53Z</time>
      </trkpt>
      <trkpt lat="43.64792" lon="1.228">
        <ele>175</ele>
        <time>2016-06-16T15:45:55Z</time>
      </trkpt>
      <trkpt lat="43.6479" lon="1.22797">
        <ele>175</ele>
        <time>2016-06-16T15:45:57Z</time>
      </trkpt>
      <trkpt lat="43.64788" lon="1.22795">
        <ele>175</ele>
        <time>2016-06-16T15:45:58Z</time>
      </trkpt>
      <trkpt lat="43.64786" lon="1.22792">
        <ele>175</ele>
        <time>2016-06-16T15:46:00Z</time>
      </trkpt>
      <trkpt lat="43.64785" lon="1.2279">
        <ele>175</ele>
        <time>2016-06-16T15:46:01Z</time>
      </trkpt>
      <trkpt lat="43.64782" lon="1.22787">
        <ele>175</ele>
        <time>2016-06-16T15:46:03Z</time>
      </trkpt>
      <trkpt lat="43.64781" lon="1.22785">
        <ele>175</ele>
        <time>2016-06-16T15:46:04Z</time>
      </trkpt>
      <trkpt lat="43.6478" lon="1.2278">
        <ele>175</ele>
        <time>2016-06-16T15:46:06Z</time>
      </trkpt>
      <trkpt lat="43.64779" lon="1.22779">
        <ele>175</ele>
        <time>2016-06-16T15:46:07Z</time>
      </trkpt>
      <trkpt lat="43.64779" lon="1.22777">
        <ele>175</ele>
        <time>2016-06-16T15:46:08Z</time>
      </trkpt>
      <trkpt lat="43.64778" lon="1.22775">
        <ele>175</ele>
        <time>2016-06-16T15:46:09Z</time>
      </trkpt>
      <trkpt lat="43.64776" lon="1.22771">
        <ele>175</ele>
        <time>2016-06-16T15:46:11Z</time>
      </trkpt>
      <trkpt lat="43.64774" lon="1.22769">
        <ele>175</ele>
        <time>2016-06-16T15:46:12Z</time>
      </trkpt>
      <trkpt lat="43.64772" lon="1.22766">
        <ele>174</ele>
        <time>2016-06-16T15:46:14Z</time>
      </trkpt>
      <trkpt lat="43.64771" lon="1.22764">
        <ele>174</ele>
        <time>2016-06-16T15:46:15Z</time>
      </trkpt>
      <trkpt lat="43.64769" lon="1.22762">
        <ele>174</ele>
        <time>2016-06-16T15:46:16Z</time>
      </trkpt>
      <trkpt lat="43.64768" lon="1.22761">
        <ele>174</ele>
        <time>2016-06-16T15:46:17Z</time>
      </trkpt>
      <trkpt lat="43.64766" lon="1.22757">
        <ele>174</ele>
        <time>2016-06-16T15:46:18Z</time>
      </trkpt>
      <trkpt lat="43.64764" lon="1.22753">
        <ele>174</ele>
        <time>2016-06-16T15:46:20Z</time>
      </trkpt>
      <trkpt lat="43.64761" lon="1.2275">
        <ele>174</ele>
        <time>2016-06-16T15:46:22Z</time>
      </trkpt>
      <trkpt lat="43.6476" lon="1.22746">
        <ele>174</ele>
        <time>2016-06-16T15:46:24Z</time>
      </trkpt>
      <trkpt lat="43.64758" lon="1.22743">
        <ele>174</ele>
        <time>2016-06-16T15:46:26Z</time>
      </trkpt>
      <trkpt lat="43.64757" lon="1.22742">
        <ele>174</ele>
        <time>2016-06-16T15:46:27Z</time>
      </trkpt>
      <trkpt lat="43.64755" lon="1.2274">
        <ele>174</ele>
        <time>2016-06-16T15:46:29Z</time>
      </trkpt>
      <trkpt lat="43.64753" lon="1.22737">
        <ele>175</ele>
        <time>2016-06-16T15:46:31Z</time>
      </trkpt>
      <trkpt lat="43.64752" lon="1.22736">
        <ele>175</ele>
        <time>2016-06-16T15:46:32Z</time>
      </trkpt>
      <trkpt lat="43.64751" lon="1.22733">
        <ele>175</ele>
        <time>2016-06-16T15:46:34Z</time>
      </trkpt>
      <trkpt lat="43.6475" lon="1.22731">
        <ele>175</ele>
        <time>2016-06-16T15:46:35Z</time>
      </trkpt>
      <trkpt lat="43.64748" lon="1.22727">
        <ele>175</ele>
        <time>2016-06-16T15:46:37Z</time>
      </trkpt>
      <trkpt lat="43.64747" lon="1.22723">
        <ele>175</ele>
        <time>2016-06-16T15:46:39Z</time>
      </trkpt>
      <trkpt lat="43.64746" lon="1.22721">
        <ele>175</ele>
        <time>2016-06-16T15:46:40Z</time>
      </trkpt>
      <trkpt lat="43.64744" lon="1.22718">
        <ele>175</ele>
        <time>2016-06-16T15:46:42Z</time>
      </trkpt>
      <trkpt lat="43.64743" lon="1.22716">
        <ele>176</ele>
        <time>2016-06-16T15:46:43Z</time>
      </trkpt>
      <trkpt lat="43.64742" lon="1.22712">
        <ele>176</ele>
        <time>2016-06-16T15:46:45Z</time>
      </trkpt>
      <trkpt lat="43.64739" lon="1.22709">
        <ele>176</ele>
        <time>2016-06-16T15:46:47Z</time>
      </trkpt>
      <trkpt lat="43.64738" lon="1.22707">
        <ele>176</ele>
        <time>2016-06-16T15:46:49Z</time>
      </trkpt>
      <trkpt lat="43.64737" lon="1.22701">
        <ele>176</ele>
        <time>2016-06-16T15:46:51Z</time>
      </trkpt>
      <trkpt lat="43.64736" lon="1.22698">
        <ele>176</ele>
        <time>2016-06-16T15:46:52Z</time>
      </trkpt>
      <trkpt lat="43.64734" lon="1.22694">
        <ele>176</ele>
        <time>2016-06-16T15:46:54Z</time>
      </trkpt>
      <trkpt lat="43.64734" lon="1.22693">
        <ele>176</ele>
        <time>2016-06-16T15:46:55Z</time>
      </trkpt>
      <trkpt lat="43.64732" lon="1.2269">
        <ele>176</ele>
        <time>2016-06-16T15:46:57Z</time>
      </trkpt>
      <trkpt lat="43.6473" lon="1.22686">
        <ele>177</ele>
        <time>2016-06-16T15:46:59Z</time>
      </trkpt>
      <trkpt lat="43.64724" lon="1.22679">
        <ele>177</ele>
        <time>2016-06-16T15:47:03Z</time>
      </trkpt>
      <trkpt lat="43.64723" lon="1.22677">
        <ele>177</ele>
        <time>2016-06-16T15:47:04Z</time>
      </trkpt>
      <trkpt lat="43.64722" lon="1.22676">
        <ele>177</ele>
        <time>2016-06-16T15:47:05Z</time>
      </trkpt>
      <trkpt lat="43.64721" lon="1.22673">
        <ele>177</ele>
        <time>2016-06-16T15:47:07Z</time>
      </trkpt>
      <trkpt lat="43.64719" lon="1.22671">
        <ele>177</ele>
        <time>2016-06-16T15:47:08Z</time>
      </trkpt>
      <trkpt lat="43.64719" lon="1.2267">
        <ele>177</ele>
        <time>2016-06-16T15:47:09Z</time>
      </trkpt>
      <trkpt lat="43.64716" lon="1.22666">
        <ele>177</ele>
        <time>2016-06-16T15:47:12Z</time>
      </trkpt>
      <trkpt lat="43.64715" lon="1.22665">
        <ele>177</ele>
        <time>2016-06-16T15:47:13Z</time>
      </trkpt>
      <trkpt lat="43.64714" lon="1.22661">
        <ele>178</ele>
        <time>2016-06-16T15:47:15Z</time>
      </trkpt>
      <trkpt lat="43.64713" lon="1.22659">
        <ele>178</ele>
        <time>2016-06-16T15:47:16Z</time>
      </trkpt>
      <trkpt lat="43.64712" lon="1.22658">
        <ele>178</ele>
        <time>2016-06-16T15:47:17Z</time>
      </trkpt>
      <trkpt lat="43.6471" lon="1.22654">
        <ele>178</ele>
        <time>2016-06-16T15:47:19Z</time>
      </trkpt>
      <trkpt lat="43.647" lon="1.22644">
        <ele>178</ele>
        <time>2016-06-16T15:47:24Z</time>
      </trkpt>
      <trkpt lat="43.647" lon="1.22642">
        <ele>178</ele>
        <time>2016-06-16T15:47:25Z</time>
      </trkpt>
      <trkpt lat="43.64698" lon="1.2264">
        <ele>178</ele>
        <time>2016-06-16T15:47:27Z</time>
      </trkpt>
      <trkpt lat="43.64697" lon="1.22638">
        <ele>178</ele>
        <time>2016-06-16T15:47:28Z</time>
      </trkpt>
      <trkpt lat="43.64696" lon="1.22636">
        <ele>178</ele>
        <time>2016-06-16T15:47:29Z</time>
      </trkpt>
      <trkpt lat="43.64694" lon="1.22632">
        <ele>178</ele>
        <time>2016-06-16T15:47:31Z</time>
      </trkpt>
      <trkpt lat="43.64692" lon="1.22628">
        <ele>178</ele>
        <time>2016-06-16T15:47:33Z</time>
      </trkpt>
      <trkpt lat="43.64691" lon="1.22624">
        <ele>178</ele>
        <time>2016-06-16T15:47:35Z</time>
      </trkpt>
      <trkpt lat="43.6469" lon="1.22622">
        <ele>178</ele>
        <time>2016-06-16T15:47:37Z</time>
      </trkpt>
      <trkpt lat="43.64688" lon="1.22619">
        <ele>178</ele>
        <time>2016-06-16T15:47:39Z</time>
      </trkpt>
      <trkpt lat="43.64687" lon="1.22618">
        <ele>178</ele>
        <time>2016-06-16T15:47:40Z</time>
      </trkpt>
      <trkpt lat="43.64684" lon="1.22615">
        <ele>178</ele>
        <time>2016-06-16T15:47:42Z</time>
      </trkpt>
      <trkpt lat="43.64682" lon="1.22611">
        <ele>178</ele>
        <time>2016-06-16T15:47:44Z</time>
      </trkpt>
      <trkpt lat="43.64681" lon="1.22607">
        <ele>179</ele>
        <time>2016-06-16T15:47:46Z</time>
      </trkpt>
      <trkpt lat="43.64679" lon="1.22606">
        <ele>179</ele>
        <time>2016-06-16T15:47:47Z</time>
      </trkpt>
      <trkpt lat="43.64678" lon="1.22601">
        <ele>179</ele>
        <time>2016-06-16T15:47:49Z</time>
      </trkpt>
      <trkpt lat="43.64676" lon="1.22597">
        <ele>179</ele>
        <time>2016-06-16T15:47:51Z</time>
      </trkpt>
      <trkpt lat="43.64671" lon="1.22589">
        <ele>179</ele>
        <time>2016-06-16T15:47:54Z</time>
      </trkpt>
      <trkpt lat="43.64669" lon="1.22586">
        <ele>179</ele>
        <time>2016-06-16T15:47:56Z</time>
      </trkpt>
      <trkpt lat="43.64667" lon="1.22583">
        <ele>180</ele>
        <time>2016-06-16T15:47:58Z</time>
      </trkpt>
      <trkpt lat="43.64665" lon="1.22582">
        <ele>180</ele>
        <time>2016-06-16T15:48:00Z</time>
      </trkpt>
      <trkpt lat="43.64664" lon="1.2258">
        <ele>180</ele>
        <time>2016-06-16T15:48:01Z</time>
      </trkpt>
      <trkpt lat="43.64663" lon="1.22578">
        <ele>180</ele>
        <time>2016-06-16T15:48:03Z</time>
      </trkpt>
      <trkpt lat="43.64662" lon="1.22577">
        <ele>180</ele>
        <time>2016-06-16T15:48:04Z</time>
      </trkpt>
      <trkpt lat="43.64662" lon="1.22577">
        <ele>180</ele>
        <time>2016-06-16T15:48:05Z</time>
      </trkpt>
      <trkpt lat="43.64661" lon="1.22574">
        <ele>180</ele>
        <time>2016-06-16T15:48:07Z</time>
      </trkpt>
      <trkpt lat="43.64661" lon="1.22574">
        <ele>180</ele>
        <time>2016-06-16T15:48:08Z</time>
      </trkpt>
      <trkpt lat="43.64661" lon="1.22573">
        <ele>180</ele>
        <time>2016-06-16T15:48:09Z</time>
      </trkpt>
      <trkpt lat="43.64663" lon="1.22571">
        <ele>181</ele>
        <time>2016-06-16T15:48:11Z</time>
      </trkpt>
      <trkpt lat="43.64663" lon="1.2257">
        <ele>181</ele>
        <time>2016-06-16T15:48:12Z</time>
      </trkpt>
      <trkpt lat="43.64665" lon="1.22568">
        <ele>181</ele>
        <time>2016-06-16T15:48:14Z</time>
      </trkpt>
      <trkpt lat="43.64666" lon="1.22566">
        <ele>181</ele>
        <time>2016-06-16T15:48:16Z</time>
      </trkpt>
      <trkpt lat="43.64668" lon="1.22564">
        <ele>181</ele>
        <time>2016-06-16T15:48:17Z</time>
      </trkpt>
      <trkpt lat="43.64668" lon="1.22561">
        <ele>181</ele>
        <time>2016-06-16T15:48:19Z</time>
      </trkpt>
      <trkpt lat="43.64668" lon="1.22559">
        <ele>181</ele>
        <time>2016-06-16T15:48:21Z</time>
      </trkpt>
      <trkpt lat="43.64668" lon="1.22557">
        <ele>180</ele>
        <time>2016-06-16T15:48:22Z</time>
      </trkpt>
      <trkpt lat="43.64668" lon="1.22555">
        <ele>180</ele>
        <time>2016-06-16T15:48:24Z</time>
      </trkpt>
      <trkpt lat="43.64668" lon="1.22553">
        <ele>180</ele>
        <time>2016-06-16T15:48:25Z</time>
      </trkpt>
      <trkpt lat="43.64666" lon="1.2255">
        <ele>180</ele>
        <time>2016-06-16T15:48:27Z</time>
      </trkpt>
      <trkpt lat="43.64665" lon="1.22543">
        <ele>180</ele>
        <time>2016-06-16T15:48:30Z</time>
      </trkpt>
      <trkpt lat="43.64664" lon="1.22539">
        <ele>180</ele>
        <time>2016-06-16T15:48:32Z</time>
      </trkpt>
      <trkpt lat="43.64662" lon="1.22535">
        <ele>180</ele>
        <time>2016-06-16T15:48:34Z</time>
      </trkpt>
      <trkpt lat="43.64659" lon="1.22533">
        <ele>180</ele>
        <time>2016-06-16T15:48:36Z</time>
      </trkpt>
      <trkpt lat="43.64658" lon="1.22532">
        <ele>180</ele>
        <time>2016-06-16T15:48:37Z</time>
      </trkpt>
      <trkpt lat="43.64657" lon="1.22528">
        <ele>180</ele>
        <time>2016-06-16T15:48:39Z</time>
      </trkpt>
      <trkpt lat="43.64656" lon="1.22527">
        <ele>180</ele>
        <time>2016-06-16T15:48:40Z</time>
      </trkpt>
      <trkpt lat="43.64654" lon="1.22524">
        <ele>180</ele>
        <time>2016-06-16T15:48:42Z</time>
      </trkpt>
      <trkpt lat="43.64653" lon="1.22521">
        <ele>181</ele>
        <time>2016-06-16T15:48:44Z</time>
      </trkpt>
      <trkpt lat="43.6465" lon="1.22517">
        <ele>181</ele>
        <time>2016-06-16T15:48:46Z</time>
      </trkpt>
      <trkpt lat="43.64649" lon="1.22516">
        <ele>181</ele>
        <time>2016-06-16T15:48:47Z</time>
      </trkpt>
      <trkpt lat="43.64648" lon="1.22512">
        <ele>181</ele>
        <time>2016-06-16T15:48:49Z</time>
      </trkpt>
      <trkpt lat="43.64645" lon="1.2251">
        <ele>181</ele>
        <time>2016-06-16T15:48:51Z</time>
      </trkpt>
      <trkpt lat="43.64644" lon="1.22506">
        <ele>181</ele>
        <time>2016-06-16T15:48:53Z</time>
      </trkpt>
      <trkpt lat="43.64642" lon="1.22503">
        <ele>181</ele>
        <time>2016-06-16T15:48:55Z</time>
      </trkpt>
      <trkpt lat="43.6464" lon="1.225">
        <ele>181</ele>
        <time>2016-06-16T15:48:57Z</time>
      </trkpt>
      <trkpt lat="43.64639" lon="1.22496">
        <ele>181</ele>
        <time>2016-06-16T15:48:59Z</time>
      </trkpt>
      <trkpt lat="43.64638" lon="1.2249">
        <ele>181</ele>
        <time>2016-06-16T15:49:01Z</time>
      </trkpt>
      <trkpt lat="43.64636" lon="1.22487">
        <ele>181</ele>
        <time>2016-06-16T15:49:03Z</time>
      </trkpt>
      <trkpt lat="43.64636" lon="1.22485">
        <ele>181</ele>
        <time>2016-06-16T15:49:04Z</time>
      </trkpt>
      <trkpt lat="43.64634" lon="1.22481">
        <ele>181</ele>
        <time>2016-06-16T15:49:06Z</time>
      </trkpt>
      <trkpt lat="43.64632" lon="1.2248">
        <ele>181</ele>
        <time>2016-06-16T15:49:07Z</time>
      </trkpt>
      <trkpt lat="43.64631" lon="1.22478">
        <ele>180</ele>
        <time>2016-06-16T15:49:08Z</time>
      </trkpt>
      <trkpt lat="43.64629" lon="1.22477">
        <ele>180</ele>
        <time>2016-06-16T15:49:09Z</time>
      </trkpt>
      <trkpt lat="43.64626" lon="1.22474">
        <ele>180</ele>
        <time>2016-06-16T15:49:11Z</time>
      </trkpt>
      <trkpt lat="43.64624" lon="1.22471">
        <ele>180</ele>
        <time>2016-06-16T15:49:13Z</time>
      </trkpt>
      <trkpt lat="43.64622" lon="1.22467">
        <ele>180</ele>
        <time>2016-06-16T15:49:15Z</time>
      </trkpt>
      <trkpt lat="43.64621" lon="1.22466">
        <ele>180</ele>
        <time>2016-06-16T15:49:16Z</time>
      </trkpt>
      <trkpt lat="43.6462" lon="1.22464">
        <ele>180</ele>
        <time>2016-06-16T15:49:17Z</time>
      </trkpt>
      <trkpt lat="43.64618" lon="1.22461">
        <ele>180</ele>
        <time>2016-06-16T15:49:19Z</time>
      </trkpt>
      <trkpt lat="43.64617" lon="1.2246">
        <ele>180</ele>
        <time>2016-06-16T15:49:20Z</time>
      </trkpt>
      <trkpt lat="43.64616" lon="1.22457">
        <ele>180</ele>
        <time>2016-06-16T15:49:21Z</time>
      </trkpt>
      <trkpt lat="43.64614" lon="1.22454">
        <ele>180</ele>
        <time>2016-06-16T15:49:23Z</time>
      </trkpt>
      <trkpt lat="43.64613" lon="1.22451">
        <ele>180</ele>
        <time>2016-06-16T15:49:24Z</time>
      </trkpt>
      <trkpt lat="43.64611" lon="1.22449">
        <ele>180</ele>
        <time>2016-06-16T15:49:26Z</time>
      </trkpt>
      <trkpt lat="43.6461" lon="1.22447">
        <ele>180</ele>
        <time>2016-06-16T15:49:27Z</time>
      </trkpt>
      <trkpt lat="43.64609" lon="1.22445">
        <ele>180</ele>
        <time>2016-06-16T15:49:28Z</time>
      </trkpt>
      <trkpt lat="43.64608" lon="1.22444">
        <ele>180</ele>
        <time>2016-06-16T15:49:29Z</time>
      </trkpt>
      <trkpt lat="43.64603" lon="1.22438">
        <ele>180</ele>
        <time>2016-06-16T15:49:32Z</time>
      </trkpt>
      <trkpt lat="43.64602" lon="1.22434">
        <ele>180</ele>
        <time>2016-06-16T15:49:34Z</time>
      </trkpt>
      <trkpt lat="43.646" lon="1.2243">
        <ele>180</ele>
        <time>2016-06-16T15:49:36Z</time>
      </trkpt>
      <trkpt lat="43.64599" lon="1.22428">
        <ele>180</ele>
        <time>2016-06-16T15:49:37Z</time>
      </trkpt>
      <trkpt lat="43.64596" lon="1.22424">
        <ele>180</ele>
        <time>2016-06-16T15:49:39Z</time>
      </trkpt>
      <trkpt lat="43.64594" lon="1.22418">
        <ele>180</ele>
        <time>2016-06-16T15:49:42Z</time>
      </trkpt>
      <trkpt lat="43.64593" lon="1.22417">
        <ele>180</ele>
        <time>2016-06-16T15:49:43Z</time>
      </trkpt>
      <trkpt lat="43.64591" lon="1.22413">
        <ele>180</ele>
        <time>2016-06-16T15:49:45Z</time>
      </trkpt>
      <trkpt lat="43.64589" lon="1.22412">
        <ele>180</ele>
        <time>2016-06-16T15:49:46Z</time>
      </trkpt>
      <trkpt lat="43.64589" lon="1.2241">
        <ele>181</ele>
        <time>2016-06-16T15:49:47Z</time>
      </trkpt>
      <trkpt lat="43.64587" lon="1.22406">
        <ele>181</ele>
        <time>2016-06-16T15:49:49Z</time>
      </trkpt>
      <trkpt lat="43.64586" lon="1.22404">
        <ele>181</ele>
        <time>2016-06-16T15:49:51Z</time>
      </trkpt>
      <trkpt lat="43.64585" lon="1.22403">
        <ele>181</ele>
        <time>2016-06-16T15:49:52Z</time>
      </trkpt>
      <trkpt lat="43.64583" lon="1.224">
        <ele>181</ele>
        <time>2016-06-16T15:49:54Z</time>
      </trkpt>
      <trkpt lat="43.64582" lon="1.22397">
        <ele>181</ele>
        <time>2016-06-16T15:49:56Z</time>
      </trkpt>
      <trkpt lat="43.6458" lon="1.22395">
        <ele>181</ele>
        <time>2016-06-16T15:49:57Z</time>
      </trkpt>
      <trkpt lat="43.64578" lon="1.22392">
        <ele>181</ele>
        <time>2016-06-16T15:49:59Z</time>
      </trkpt>
      <trkpt lat="43.64577" lon="1.22391">
        <ele>181</ele>
        <time>2016-06-16T15:50:00Z</time>
      </trkpt>
      <trkpt lat="43.64576" lon="1.22387">
        <ele>181</ele>
        <time>2016-06-16T15:50:02Z</time>
      </trkpt>
      <trkpt lat="43.64574" lon="1.22383">
        <ele>181</ele>
        <time>2016-06-16T15:50:04Z</time>
      </trkpt>
      <trkpt lat="43.64573" lon="1.22379">
        <ele>181</ele>
        <time>2016-06-16T15:50:06Z</time>
      </trkpt>
      <trkpt lat="43.64572" lon="1.22378">
        <ele>181</ele>
        <time>2016-06-16T15:50:07Z</time>
      </trkpt>
      <trkpt lat="43.64571" lon="1.22376">
        <ele>181</ele>
        <time>2016-06-16T15:50:08Z</time>
      </trkpt>
      <trkpt lat="43.6457" lon="1.22374">
        <ele>181</ele>
        <time>2016-06-16T15:50:09Z</time>
      </trkpt>
      <trkpt lat="43.64568" lon="1.22371">
        <ele>181</ele>
        <time>2016-06-16T15:50:11Z</time>
      </trkpt>
      <trkpt lat="43.64567" lon="1.22369">
        <ele>181</ele>
        <time>2016-06-16T15:50:12Z</time>
      </trkpt>
      <trkpt lat="43.64564" lon="1.22366">
        <ele>181</ele>
        <time>2016-06-16T15:50:14Z</time>
      </trkpt>
      <trkpt lat="43.64563" lon="1.22363">
        <ele>180</ele>
        <time>2016-06-16T15:50:16Z</time>
      </trkpt>
      <trkpt lat="43.64561" lon="1.2236">
        <ele>180</ele>
        <time>2016-06-16T15:50:18Z</time>
      </trkpt>
      <trkpt lat="43.64559" lon="1.22356">
        <ele>180</ele>
        <time>2016-06-16T15:50:20Z</time>
      </trkpt>
      <trkpt lat="43.64558" lon="1.22353">
        <ele>180</ele>
        <time>2016-06-16T15:50:22Z</time>
      </trkpt>
      <trkpt lat="43.64557" lon="1.2235">
        <ele>180</ele>
        <time>2016-06-16T15:50:24Z</time>
      </trkpt>
      <trkpt lat="43.64555" lon="1.22347">
        <ele>180</ele>
        <time>2016-06-16T15:50:26Z</time>
      </trkpt>
      <trkpt lat="43.64554" lon="1.22346">
        <ele>180</ele>
        <time>2016-06-16T15:50:27Z</time>
      </trkpt>
      <trkpt lat="43.64553" lon="1.22345">
        <ele>180</ele>
        <time>2016-06-16T15:50:28Z</time>
      </trkpt>
      <trkpt lat="43.64551" lon="1.22343">
        <ele>180</ele>
        <time>2016-06-16T15:50:29Z</time>
      </trkpt>
      <trkpt lat="43.64549" lon="1.2234">
        <ele>180</ele>
        <time>2016-06-16T15:50:31Z</time>
      </trkpt>
      <trkpt lat="43.64547" lon="1.22337">
        <ele>180</ele>
        <time>2016-06-16T15:50:33Z</time>
      </trkpt>
      <trkpt lat="43.64542" lon="1.22333">
        <ele>180</ele>
        <time>2016-06-16T15:50:36Z</time>
      </trkpt>
      <trkpt lat="43.64541" lon="1.2233">
        <ele>180</ele>
        <time>2016-06-16T15:50:38Z</time>
      </trkpt>
      <trkpt lat="43.64539" lon="1.22328">
        <ele>180</ele>
        <time>2016-06-16T15:50:39Z</time>
      </trkpt>
      <trkpt lat="43.64538" lon="1.22326">
        <ele>180</ele>
        <time>2016-06-16T15:50:40Z</time>
      </trkpt>
      <trkpt lat="43.64536" lon="1.22323">
        <ele>180</ele>
        <time>2016-06-16T15:50:42Z</time>
      </trkpt>
      <trkpt lat="43.64533" lon="1.2232">
        <ele>180</ele>
        <time>2016-06-16T15:50:44Z</time>
      </trkpt>
      <trkpt lat="43.64531" lon="1.22316">
        <ele>180</ele>
        <time>2016-06-16T15:50:46Z</time>
      </trkpt>
      <trkpt lat="43.6453" lon="1.22314">
        <ele>180</ele>
        <time>2016-06-16T15:50:47Z</time>
      </trkpt>
      <trkpt lat="43.64529" lon="1.22311">
        <ele>180</ele>
        <time>2016-06-16T15:50:49Z</time>
      </trkpt>
      <trkpt lat="43.64526" lon="1.22307">
        <ele>180</ele>
        <time>2016-06-16T15:50:51Z</time>
      </trkpt>
      <trkpt lat="43.64525" lon="1.22305">
        <ele>180</ele>
        <time>2016-06-16T15:50:52Z</time>
      </trkpt>
      <trkpt lat="43.64523" lon="1.22302">
        <ele>180</ele>
        <time>2016-06-16T15:50:54Z</time>
      </trkpt>
      <trkpt lat="43.64521" lon="1.22299">
        <ele>180</ele>
        <time>2016-06-16T15:50:56Z</time>
      </trkpt>
      <trkpt lat="43.6452" lon="1.22297">
        <ele>180</ele>
        <time>2016-06-16T15:50:57Z</time>
      </trkpt>
      <trkpt lat="43.64519" lon="1.22293">
        <ele>180</ele>
        <time>2016-06-16T15:50:59Z</time>
      </trkpt>
      <trkpt lat="43.64518" lon="1.22291">
        <ele>180</ele>
        <time>2016-06-16T15:51:00Z</time>
      </trkpt>
      <trkpt lat="43.64516" lon="1.22289">
        <ele>181</ele>
        <time>2016-06-16T15:51:02Z</time>
      </trkpt>
      <trkpt lat="43.64515" lon="1.22284">
        <ele>181</ele>
        <time>2016-06-16T15:51:04Z</time>
      </trkpt>
      <trkpt lat="43.64514" lon="1.2228">
        <ele>181</ele>
        <time>2016-06-16T15:51:06Z</time>
      </trkpt>
      <trkpt lat="43.64513" lon="1.22278">
        <ele>181</ele>
        <time>2016-06-16T15:51:07Z</time>
      </trkpt>
      <trkpt lat="43.64513" lon="1.22276">
        <ele>181</ele>
        <time>2016-06-16T15:51:08Z</time>
      </trkpt>
      <trkpt lat="43.64512" lon="1.22274">
        <ele>181</ele>
        <time>2016-06-16T15:51:09Z</time>
      </trkpt>
      <trkpt lat="43.6451" lon="1.22272">
        <ele>181</ele>
        <time>2016-06-16T15:51:11Z</time>
      </trkpt>
      <trkpt lat="43.64509" lon="1.22269">
        <ele>181</ele>
        <time>2016-06-16T15:51:13Z</time>
      </trkpt>
      <trkpt lat="43.64507" lon="1.22266">
        <ele>181</ele>
        <time>2016-06-16T15:51:15Z</time>
      </trkpt>
      <trkpt lat="43.64506" lon="1.22264">
        <ele>181</ele>
        <time>2016-06-16T15:51:16Z</time>
      </trkpt>
      <trkpt lat="43.64505" lon="1.22263">
        <ele>182</ele>
        <time>2016-06-16T15:51:17Z</time>
      </trkpt>
      <trkpt lat="43.64503" lon="1.22262">
        <ele>182</ele>
        <time>2016-06-16T15:51:19Z</time>
      </trkpt>
      <trkpt lat="43.64502" lon="1.2226">
        <ele>182</ele>
        <time>2016-06-16T15:51:21Z</time>
      </trkpt>
      <trkpt lat="43.64502" lon="1.22257">
        <ele>182</ele>
        <time>2016-06-16T15:51:22Z</time>
      </trkpt>
      <trkpt lat="43.64501" lon="1.22256">
        <ele>182</ele>
        <time>2016-06-16T15:51:24Z</time>
      </trkpt>
      <trkpt lat="43.645" lon="1.22255">
        <ele>182</ele>
        <time>2016-06-16T15:51:26Z</time>
      </trkpt>
      <trkpt lat="43.645" lon="1.22254">
        <ele>182</ele>
        <time>2016-06-16T15:51:27Z</time>
      </trkpt>
      <trkpt lat="43.64499" lon="1.22254">
        <ele>182</ele>
        <time>2016-06-16T15:51:28Z</time>
      </trkpt>
      <trkpt lat="43.64499" lon="1.22253">
        <ele>183</ele>
        <time>2016-06-16T15:51:29Z</time>
      </trkpt>
      <trkpt lat="43.64499" lon="1.22253">
        <ele>183</ele>
        <time>2016-06-16T15:51:31Z</time>
      </trkpt>
      <trkpt lat="43.64496" lon="1.2225">
        <ele>183</ele>
        <time>2016-06-16T15:51:33Z</time>
      </trkpt>
      <trkpt lat="43.64494" lon="1.22249">
        <ele>183</ele>
        <time>2016-06-16T15:51:35Z</time>
      </trkpt>
      <trkpt lat="43.64494" lon="1.22248">
        <ele>184</ele>
        <time>2016-06-16T15:51:36Z</time>
      </trkpt>
      <trkpt lat="43.64493" lon="1.22247">
        <ele>184</ele>
        <time>2016-06-16T15:51:37Z</time>
      </trkpt>
      <trkpt lat="43.64492" lon="1.22245">
        <ele>184</ele>
        <time>2016-06-16T15:51:39Z</time>
      </trkpt>
      <trkpt lat="43.64492" lon="1.22243">
        <ele>184</ele>
        <time>2016-06-16T15:51:40Z</time>
      </trkpt>
      <trkpt lat="43.64491" lon="1.22241">
        <ele>184</ele>
        <time>2016-06-16T15:51:42Z</time>
      </trkpt>
      <trkpt lat="43.6449" lon="1.22238">
        <ele>184</ele>
        <time>2016-06-16T15:51:44Z</time>
      </trkpt>
      <trkpt lat="43.6449" lon="1.22235">
        <ele>184</ele>
        <time>2016-06-16T15:51:46Z</time>
      </trkpt>
      <trkpt lat="43.64485" lon="1.22227">
        <ele>185</ele>
        <time>2016-06-16T15:51:52Z</time>
      </trkpt>
      <trkpt lat="43.64481" lon="1.22224">
        <ele>185</ele>
        <time>2016-06-16T15:51:54Z</time>
      </trkpt>
      <trkpt lat="43.64478" lon="1.22219">
        <ele>185</ele>
        <time>2016-06-16T15:51:57Z</time>
      </trkpt>
      <trkpt lat="43.64474" lon="1.22212">
        <ele>185</ele>
        <time>2016-06-16T15:52:02Z</time>
      </trkpt>
      <trkpt lat="43.64471" lon="1.22205">
        <ele>186</ele>
        <time>2016-06-16T15:52:06Z</time>
      </trkpt>
      <trkpt lat="43.64467" lon="1.22201">
        <ele>186</ele>
        <time>2016-06-16T15:52:09Z</time>
      </trkpt>
      <trkpt lat="43.64463" lon="1.22195">
        <ele>186</ele>
        <time>2016-06-16T15:52:13Z</time>
      </trkpt>
      <trkpt lat="43.64461" lon="1.2219">
        <ele>186</ele>
        <time>2016-06-16T15:52:16Z</time>
      </trkpt>
      <trkpt lat="43.64456" lon="1.22182">
        <ele>186</ele>
        <time>2016-06-16T15:52:21Z</time>
      </trkpt>
      <trkpt lat="43.64449" lon="1.22177">
        <ele>187</ele>
        <time>2016-06-16T15:52:26Z</time>
      </trkpt>
      <trkpt lat="43.64447" lon="1.2217">
        <ele>187</ele>
        <time>2016-06-16T15:52:30Z</time>
      </trkpt>
      <trkpt lat="43.64444" lon="1.22161">
        <ele>187</ele>
        <time>2016-06-16T15:52:34Z</time>
      </trkpt>
      <trkpt lat="43.64441" lon="1.22155">
        <ele>187</ele>
        <time>2016-06-16T15:52:38Z</time>
      </trkpt>
      <trkpt lat="43.64437" lon="1.22151">
        <ele>188</ele>
        <time>2016-06-16T15:52:41Z</time>
      </trkpt>
      <trkpt lat="43.64434" lon="1.22145">
        <ele>188</ele>
        <time>2016-06-16T15:52:45Z</time>
      </trkpt>
      <trkpt lat="43.6443" lon="1.22142">
        <ele>188</ele>
        <time>2016-06-16T15:52:51Z</time>
      </trkpt>
      <trkpt lat="43.64424" lon="1.22138">
        <ele>188</ele>
        <time>2016-06-16T15:52:56Z</time>
      </trkpt>
      <trkpt lat="43.6442" lon="1.22137">
        <ele>189</ele>
        <time>2016-06-16T15:53:00Z</time>
      </trkpt>
      <trkpt lat="43.64414" lon="1.22143">
        <ele>190</ele>
        <time>2016-06-16T15:53:07Z</time>
      </trkpt>
      <trkpt lat="43.6441" lon="1.22147">
        <ele>191</ele>
        <time>2016-06-16T15:53:11Z</time>
      </trkpt>
      <trkpt lat="43.64406" lon="1.22151">
        <ele>192</ele>
        <time>2016-06-16T15:53:14Z</time>
      </trkpt>
      <trkpt lat="43.64401" lon="1.22155">
        <ele>194</ele>
        <time>2016-06-16T15:53:19Z</time>
      </trkpt>
      <trkpt lat="43.64401" lon="1.22156">
        <ele>195</ele>
        <time>2016-06-16T15:53:20Z</time>
      </trkpt>
      <trkpt lat="43.64398" lon="1.22161">
        <ele>196</ele>
        <time>2016-06-16T15:53:24Z</time>
      </trkpt>
      <trkpt lat="43.64394" lon="1.22165">
        <ele>196</ele>
        <time>2016-06-16T15:53:27Z</time>
      </trkpt>
      <trkpt lat="43.64389" lon="1.22169">
        <ele>197</ele>
        <time>2016-06-16T15:53:31Z</time>
      </trkpt>
      <trkpt lat="43.64386" lon="1.22175">
        <ele>197</ele>
        <time>2016-06-16T15:53:35Z</time>
      </trkpt>
      <trkpt lat="43.64384" lon="1.22182">
        <ele>198</ele>
        <time>2016-06-16T15:53:40Z</time>
      </trkpt>
      <trkpt lat="43.64379" lon="1.22187">
        <ele>199</ele>
        <time>2016-06-16T15:53:45Z</time>
      </trkpt>
      <trkpt lat="43.64373" lon="1.22191">
        <ele>199</ele>
        <time>2016-06-16T15:53:49Z</time>
      </trkpt>
      <trkpt lat="43.64368" lon="1.22195">
        <ele>200</ele>
        <time>2016-06-16T15:53:52Z</time>
      </trkpt>
      <trkpt lat="43.64365" lon="1.22199">
        <ele>201</ele>
        <time>2016-06-16T15:53:56Z</time>
      </trkpt>
      <trkpt lat="43.64362" lon="1.22205">
        <ele>202</ele>
        <time>2016-06-16T15:54:00Z</time>
      </trkpt>
      <trkpt lat="43.64338" lon="1.22223">
        <ele>205</ele>
        <time>2016-06-16T15:54:11Z</time>
      </trkpt>
      <trkpt lat="43.64337" lon="1.22224">
        <ele>205</ele>
        <time>2016-06-16T15:54:12Z</time>
      </trkpt>
      <trkpt lat="43.64333" lon="1.22231">
        <ele>206</ele>
        <time>2016-06-16T15:54:16Z</time>
      </trkpt>
      <trkpt lat="43.6433" lon="1.22235">
        <ele>206</ele>
        <time>2016-06-16T15:54:20Z</time>
      </trkpt>
      <trkpt lat="43.64328" lon="1.22244">
        <ele>207</ele>
        <time>2016-06-16T15:54:26Z</time>
      </trkpt>
      <trkpt lat="43.64328" lon="1.22245">
        <ele>207</ele>
        <time>2016-06-16T15:54:27Z</time>
      </trkpt>
      <trkpt lat="43.64328" lon="1.22246">
        <ele>207</ele>
        <time>2016-06-16T15:54:28Z</time>
      </trkpt>
      <trkpt lat="43.64327" lon="1.22249">
        <ele>208</ele>
        <time>2016-06-16T15:54:31Z</time>
      </trkpt>
      <trkpt lat="43.64323" lon="1.22253">
        <ele>208</ele>
        <time>2016-06-16T15:54:34Z</time>
      </trkpt>
      <trkpt lat="43.64317" lon="1.22258">
        <ele>208</ele>
        <time>2016-06-16T15:54:38Z</time>
      </trkpt>
      <trkpt lat="43.643" lon="1.22269">
        <ele>209</ele>
        <time>2016-06-16T15:54:44Z</time>
      </trkpt>
      <trkpt lat="43.64298" lon="1.22271">
        <ele>209</ele>
        <time>2016-06-16T15:54:46Z</time>
      </trkpt>
      <trkpt lat="43.64299" lon="1.22272">
        <ele>209</ele>
        <time>2016-06-16T15:54:47Z</time>
      </trkpt>
      <trkpt lat="43.64293" lon="1.22278">
        <ele>209</ele>
        <time>2016-06-16T15:54:51Z</time>
      </trkpt>
      <trkpt lat="43.6429" lon="1.22282">
        <ele>209</ele>
        <time>2016-06-16T15:54:55Z</time>
      </trkpt>
      <trkpt lat="43.6429" lon="1.22283">
        <ele>209</ele>
        <time>2016-06-16T15:54:56Z</time>
      </trkpt>
      <trkpt lat="43.64288" lon="1.22286">
        <ele>209</ele>
        <time>2016-06-16T15:54:58Z</time>
      </trkpt>
      <trkpt lat="43.64283" lon="1.22291">
        <ele>209</ele>
        <time>2016-06-16T15:55:03Z</time>
      </trkpt>
      <trkpt lat="43.64279" lon="1.22294">
        <ele>209</ele>
        <time>2016-06-16T15:55:06Z</time>
      </trkpt>
      <trkpt lat="43.64277" lon="1.22296">
        <ele>210</ele>
        <time>2016-06-16T15:55:08Z</time>
      </trkpt>
      <trkpt lat="43.64274" lon="1.22301">
        <ele>210</ele>
        <time>2016-06-16T15:55:12Z</time>
      </trkpt>
      <trkpt lat="43.64269" lon="1.22303">
        <ele>210</ele>
        <time>2016-06-16T15:55:16Z</time>
      </trkpt>
      <trkpt lat="43.64266" lon="1.22304">
        <ele>210</ele>
        <time>2016-06-16T15:55:18Z</time>
      </trkpt>
      <trkpt lat="43.64263" lon="1.22305">
        <ele>210</ele>
        <time>2016-06-16T15:55:20Z</time>
      </trkpt>
      <trkpt lat="43.64258" lon="1.22308">
        <ele>210</ele>
        <time>2016-06-16T15:55:23Z</time>
      </trkpt>
      <trkpt lat="43.64252" lon="1.22316">
        <ele>211</ele>
        <time>2016-06-16T15:55:28Z</time>
      </trkpt>
      <trkpt lat="43.64249" lon="1.22322">
        <ele>212</ele>
        <time>2016-06-16T15:55:31Z</time>
      </trkpt>
      <trkpt lat="43.64247" lon="1.22323">
        <ele>211</ele>
        <time>2016-06-16T15:55:35Z</time>
      </trkpt>
      <trkpt lat="43.64246" lon="1.22324">
        <ele>211</ele>
        <time>2016-06-16T15:55:37Z</time>
      </trkpt>
      <trkpt lat="43.64245" lon="1.22324">
        <ele>211</ele>
        <time>2016-06-16T15:55:38Z</time>
      </trkpt>
      <trkpt lat="43.64244" lon="1.22324">
        <ele>211</ele>
        <time>2016-06-16T15:55:40Z</time>
      </trkpt>
      <trkpt lat="43.64242" lon="1.22325">
        <ele>211</ele>
        <time>2016-06-16T15:55:42Z</time>
      </trkpt>
      <trkpt lat="43.64237" lon="1.22327">
        <ele>212</ele>
        <time>2016-06-16T15:55:45Z</time>
      </trkpt>
      <trkpt lat="43.64233" lon="1.22331">
        <ele>212</ele>
        <time>2016-06-16T15:55:49Z</time>
      </trkpt>
      <trkpt lat="43.6423" lon="1.22335">
        <ele>212</ele>
        <time>2016-06-16T15:55:52Z</time>
      </trkpt>
      <trkpt lat="43.6423" lon="1.22336">
        <ele>212</ele>
        <time>2016-06-16T15:55:54Z</time>
      </trkpt>
      <trkpt lat="43.64227" lon="1.22338">
        <ele>212</ele>
        <time>2016-06-16T15:55:56Z</time>
      </trkpt>
      <trkpt lat="43.64228" lon="1.22338">
        <ele>212</ele>
        <time>2016-06-16T15:55:59Z</time>
      </trkpt>
      <trkpt lat="43.64228" lon="1.22338">
        <ele>211</ele>
        <time>2016-06-16T15:56:00Z</time>
      </trkpt>
      <trkpt lat="43.64222" lon="1.2234">
        <ele>211</ele>
        <time>2016-06-16T15:56:04Z</time>
      </trkpt>
      <trkpt lat="43.6422" lon="1.2234">
        <ele>211</ele>
        <time>2016-06-16T15:56:06Z</time>
      </trkpt>
      <trkpt lat="43.64218" lon="1.22341">
        <ele>211</ele>
        <time>2016-06-16T15:56:08Z</time>
      </trkpt>
      <trkpt lat="43.64214" lon="1.22342">
        <ele>211</ele>
        <time>2016-06-16T15:56:10Z</time>
      </trkpt>
      <trkpt lat="43.64203" lon="1.22347">
        <ele>210</ele>
        <time>2016-06-16T15:56:17Z</time>
      </trkpt>
      <trkpt lat="43.64192" lon="1.22348">
        <ele>209</ele>
        <time>2016-06-16T15:56:22Z</time>
      </trkpt>
      <trkpt lat="43.64191" lon="1.22346">
        <ele>209</ele>
        <time>2016-06-16T15:56:23Z</time>
      </trkpt>
      <trkpt lat="43.64177" lon="1.2234">
        <ele>208</ele>
        <time>2016-06-16T15:56:31Z</time>
      </trkpt>
      <trkpt lat="43.64175" lon="1.22339">
        <ele>207</ele>
        <time>2016-06-16T15:56:33Z</time>
      </trkpt>
      <trkpt lat="43.64174" lon="1.22338">
        <ele>207</ele>
        <time>2016-06-16T15:56:34Z</time>
      </trkpt>
      <trkpt lat="43.6417" lon="1.22333">
        <ele>207</ele>
        <time>2016-06-16T15:56:38Z</time>
      </trkpt>
      <trkpt lat="43.64169" lon="1.2233">
        <ele>206</ele>
        <time>2016-06-16T15:56:40Z</time>
      </trkpt>
      <trkpt lat="43.64167" lon="1.22327">
        <ele>206</ele>
        <time>2016-06-16T15:56:42Z</time>
      </trkpt>
      <trkpt lat="43.64167" lon="1.22325">
        <ele>206</ele>
        <time>2016-06-16T15:56:43Z</time>
      </trkpt>
      <trkpt lat="43.64159" lon="1.22322">
        <ele>205</ele>
        <time>2016-06-16T15:56:48Z</time>
      </trkpt>
      <trkpt lat="43.64158" lon="1.2232">
        <ele>204</ele>
        <time>2016-06-16T15:56:50Z</time>
      </trkpt>
      <trkpt lat="43.64157" lon="1.22314">
        <ele>203</ele>
        <time>2016-06-16T15:56:52Z</time>
      </trkpt>
      <trkpt lat="43.64156" lon="1.22313">
        <ele>202</ele>
        <time>2016-06-16T15:56:54Z</time>
      </trkpt>
      <trkpt lat="43.64149" lon="1.22305">
        <ele>199</ele>
        <time>2016-06-16T15:57:06Z</time>
      </trkpt>
      <trkpt lat="43.64148" lon="1.22304">
        <ele>197</ele>
        <time>2016-06-16T15:57:08Z</time>
      </trkpt>
      <trkpt lat="43.64148" lon="1.22304">
        <ele>195</ele>
        <time>2016-06-16T15:57:28Z</time>
      </trkpt>
      <trkpt lat="43.64148" lon="1.22304">
        <ele>193</ele>
        <time>2016-06-16T15:57:30Z</time>
      </trkpt>
      <trkpt lat="43.64131" lon="1.22296">
        <ele>191</ele>
        <time>2016-06-16T15:57:42Z</time>
      </trkpt>
      <trkpt lat="43.64129" lon="1.2229">
        <ele>189</ele>
        <time>2016-06-16T15:57:48Z</time>
      </trkpt>
      <trkpt lat="43.64129" lon="1.2229">
        <ele>188</ele>
        <time>2016-06-16T15:58:10Z</time>
      </trkpt>
      <trkpt lat="43.64129" lon="1.2229">
        <ele>187</ele>
        <time>2016-06-16T15:58:11Z</time>
      </trkpt>
      <trkpt lat="43.64129" lon="1.2229">
        <ele>186</ele>
        <time>2016-06-16T15:58:32Z</time>
      </trkpt>
      <trkpt lat="43.64129" lon="1.2229">
        <ele>186</ele>
        <time>2016-06-16T15:58:33Z</time>
      </trkpt>
      <trkpt lat="43.64138" lon="1.22291">
        <ele>185</ele>
        <time>2016-06-16T15:58:46Z</time>
      </trkpt>
      <trkpt lat="43.64138" lon="1.22291">
        <ele>183</ele>
        <time>2016-06-16T15:58:47Z</time>
      </trkpt>
      <trkpt lat="43.64138" lon="1.22291">
        <ele>182</ele>
        <time>2016-06-16T15:59:12Z</time>
      </trkpt>
      <trkpt lat="43.64138" lon="1.22291">
        <ele>180</ele>
        <time>2016-06-16T15:59:14Z</time>
      </trkpt>
      <trkpt lat="43.64145" lon="1.223">
        <ele>178</ele>
        <time>2016-06-16T15:59:20Z</time>
      </trkpt>
      <trkpt lat="43.64145" lon="1.22301">
        <ele>177</ele>
        <time>2016-06-16T15:59:21Z</time>
      </trkpt>
      <trkpt lat="43.64145" lon="1.22301">
        <ele>175</ele>
        <time>2016-06-16T15:59:23Z</time>
      </trkpt>
      <trkpt lat="43.64147" lon="1.22294">
        <ele>174</ele>
        <time>2016-06-16T15:59:44Z</time>
      </trkpt>
      <trkpt lat="43.64148" lon="1.22293">
        <ele>172</ele>
        <time>2016-06-16T15:59:46Z</time>
      </trkpt>
      <trkpt lat="43.64149" lon="1.22292">
        <ele>172</ele>
        <time>2016-06-16T15:59:48Z</time>
      </trkpt>
      <trkpt lat="43.6415" lon="1.22291">
        <ele>172</ele>
        <time>2016-06-16T15:59:50Z</time>
      </trkpt>
      <trkpt lat="43.6415" lon="1.22291">
        <ele>172</ele>
        <time>2016-06-16T15:59:53Z</time>
      </trkpt>
    </trkseg>
  </trk>
</gpx>